<?xml version="1.0" encoding="UTF-8" standalone="no" ?>
<gpx xmlns="http://www.topografix.com/GPX/1/1" xmlns:xsi="http://www.w3.org/2001/XMLSchema-instance" xsi:schemaLocation="http://www.topografix.com/GPX/1/1 http://www.topografix.com/GPX/1/1/gpx.xsd" version="1.1" creator="VisuGPX - https://www.visugpx.com">
  <metadata>
    <name>RIC19-80</name>
  </metadata>
  <trk>
    <name><![CDATA[Tracé actuel: 23 JUIN 2019 07:56]]></name>
    <trkseg>
      <trkpt lat="49.42419" lon="2.84316">
        <ele>36</ele>
        <time>2019-06-23T05:56:08Z</time>
      </trkpt>
      <trkpt lat="49.42419" lon="2.84315">
        <ele>36</ele>
        <time>2019-06-23T05:56:20Z</time>
      </trkpt>
      <trkpt lat="49.42417" lon="2.84328">
        <ele>36</ele>
        <time>2019-06-23T05:56:29Z</time>
      </trkpt>
      <trkpt lat="49.42414" lon="2.84345">
        <ele>37</ele>
        <time>2019-06-23T05:56:45Z</time>
      </trkpt>
      <trkpt lat="49.42414" lon="2.84345">
        <ele>37</ele>
        <time>2019-06-23T05:57:09Z</time>
      </trkpt>
      <trkpt lat="49.42413" lon="2.84345">
        <ele>37</ele>
        <time>2019-06-23T05:57:28Z</time>
      </trkpt>
      <trkpt lat="49.42414" lon="2.84345">
        <ele>37</ele>
        <time>2019-06-23T05:57:53Z</time>
      </trkpt>
      <trkpt lat="49.42414" lon="2.84346">
        <ele>37</ele>
        <time>2019-06-23T05:58:15Z</time>
      </trkpt>
      <trkpt lat="49.42413" lon="2.84345">
        <ele>37</ele>
        <time>2019-06-23T05:58:41Z</time>
      </trkpt>
      <trkpt lat="49.42413" lon="2.84345">
        <ele>37</ele>
        <time>2019-06-23T05:59:09Z</time>
      </trkpt>
      <trkpt lat="49.42413" lon="2.84344">
        <ele>37</ele>
        <time>2019-06-23T05:59:27Z</time>
      </trkpt>
      <trkpt lat="49.42413" lon="2.84344">
        <ele>37</ele>
        <time>2019-06-23T05:59:53Z</time>
      </trkpt>
      <trkpt lat="49.42413" lon="2.8435">
        <ele>37</ele>
        <time>2019-06-23T06:00:06Z</time>
      </trkpt>
      <trkpt lat="49.42412" lon="2.84358">
        <ele>38</ele>
        <time>2019-06-23T06:00:20Z</time>
      </trkpt>
      <trkpt lat="49.4241" lon="2.84364">
        <ele>38</ele>
        <time>2019-06-23T06:00:42Z</time>
      </trkpt>
      <trkpt lat="49.42391" lon="2.84403">
        <ele>39</ele>
        <time>2019-06-23T06:00:55Z</time>
      </trkpt>
      <trkpt lat="49.42363" lon="2.84413">
        <ele>39</ele>
        <time>2019-06-23T06:01:06Z</time>
      </trkpt>
      <trkpt lat="49.42311" lon="2.84428">
        <ele>37</ele>
        <time>2019-06-23T06:01:22Z</time>
      </trkpt>
      <trkpt lat="49.42251" lon="2.84443">
        <ele>37</ele>
        <time>2019-06-23T06:01:39Z</time>
      </trkpt>
      <trkpt lat="49.42205" lon="2.84458">
        <ele>39</ele>
        <time>2019-06-23T06:01:55Z</time>
      </trkpt>
      <trkpt lat="49.42196" lon="2.84459">
        <ele>39</ele>
        <time>2019-06-23T06:01:58Z</time>
      </trkpt>
      <trkpt lat="49.42189" lon="2.84447">
        <ele>39</ele>
        <time>2019-06-23T06:02:02Z</time>
      </trkpt>
      <trkpt lat="49.42185" lon="2.84423">
        <ele>39</ele>
        <time>2019-06-23T06:02:08Z</time>
      </trkpt>
      <trkpt lat="49.42168" lon="2.84424">
        <ele>40</ele>
        <time>2019-06-23T06:02:14Z</time>
      </trkpt>
      <trkpt lat="49.42136" lon="2.84446">
        <ele>42</ele>
        <time>2019-06-23T06:02:23Z</time>
      </trkpt>
      <trkpt lat="49.4212" lon="2.84479">
        <ele>42</ele>
        <time>2019-06-23T06:02:30Z</time>
      </trkpt>
      <trkpt lat="49.4208" lon="2.8456">
        <ele>40</ele>
        <time>2019-06-23T06:02:44Z</time>
      </trkpt>
      <trkpt lat="49.42045" lon="2.84635">
        <ele>38</ele>
        <time>2019-06-23T06:02:59Z</time>
      </trkpt>
      <trkpt lat="49.42043" lon="2.84647">
        <ele>38</ele>
        <time>2019-06-23T06:03:03Z</time>
      </trkpt>
      <trkpt lat="49.42034" lon="2.84662">
        <ele>39</ele>
        <time>2019-06-23T06:03:10Z</time>
      </trkpt>
      <trkpt lat="49.42013" lon="2.84707">
        <ele>42</ele>
        <time>2019-06-23T06:03:21Z</time>
      </trkpt>
      <trkpt lat="49.41996" lon="2.8475">
        <ele>48</ele>
        <time>2019-06-23T06:03:31Z</time>
      </trkpt>
      <trkpt lat="49.41976" lon="2.84792">
        <ele>49</ele>
        <time>2019-06-23T06:03:40Z</time>
      </trkpt>
      <trkpt lat="49.41956" lon="2.84834">
        <ele>50</ele>
        <time>2019-06-23T06:03:50Z</time>
      </trkpt>
      <trkpt lat="49.41944" lon="2.8487">
        <ele>51</ele>
        <time>2019-06-23T06:04:00Z</time>
      </trkpt>
      <trkpt lat="49.4193" lon="2.84916">
        <ele>52</ele>
        <time>2019-06-23T06:04:12Z</time>
      </trkpt>
      <trkpt lat="49.41912" lon="2.84957">
        <ele>53</ele>
        <time>2019-06-23T06:04:22Z</time>
      </trkpt>
      <trkpt lat="49.4189" lon="2.85003">
        <ele>54</ele>
        <time>2019-06-23T06:04:32Z</time>
      </trkpt>
      <trkpt lat="49.4187" lon="2.85043">
        <ele>55</ele>
        <time>2019-06-23T06:04:40Z</time>
      </trkpt>
      <trkpt lat="49.41846" lon="2.85088">
        <ele>58</ele>
        <time>2019-06-23T06:04:49Z</time>
      </trkpt>
      <trkpt lat="49.41823" lon="2.85131">
        <ele>57</ele>
        <time>2019-06-23T06:04:59Z</time>
      </trkpt>
      <trkpt lat="49.41806" lon="2.85174">
        <ele>57</ele>
        <time>2019-06-23T06:05:10Z</time>
      </trkpt>
      <trkpt lat="49.41787" lon="2.85216">
        <ele>56</ele>
        <time>2019-06-23T06:05:20Z</time>
      </trkpt>
      <trkpt lat="49.41773" lon="2.85245">
        <ele>55</ele>
        <time>2019-06-23T06:05:27Z</time>
      </trkpt>
      <trkpt lat="49.41755" lon="2.85285">
        <ele>54</ele>
        <time>2019-06-23T06:05:37Z</time>
      </trkpt>
      <trkpt lat="49.41728" lon="2.85332">
        <ele>54</ele>
        <time>2019-06-23T06:05:47Z</time>
      </trkpt>
      <trkpt lat="49.41701" lon="2.85382">
        <ele>56</ele>
        <time>2019-06-23T06:05:59Z</time>
      </trkpt>
      <trkpt lat="49.41681" lon="2.85416">
        <ele>58</ele>
        <time>2019-06-23T06:06:09Z</time>
      </trkpt>
      <trkpt lat="49.41645" lon="2.8547">
        <ele>59</ele>
        <time>2019-06-23T06:06:22Z</time>
      </trkpt>
      <trkpt lat="49.41616" lon="2.85521">
        <ele>59</ele>
        <time>2019-06-23T06:06:34Z</time>
      </trkpt>
      <trkpt lat="49.41592" lon="2.8556">
        <ele>58</ele>
        <time>2019-06-23T06:06:44Z</time>
      </trkpt>
      <trkpt lat="49.41566" lon="2.85609">
        <ele>57</ele>
        <time>2019-06-23T06:06:56Z</time>
      </trkpt>
      <trkpt lat="49.41556" lon="2.85628">
        <ele>57</ele>
        <time>2019-06-23T06:07:01Z</time>
      </trkpt>
      <trkpt lat="49.41527" lon="2.85677">
        <ele>58</ele>
        <time>2019-06-23T06:07:13Z</time>
      </trkpt>
      <trkpt lat="49.41501" lon="2.85716">
        <ele>58</ele>
        <time>2019-06-23T06:07:23Z</time>
      </trkpt>
      <trkpt lat="49.41473" lon="2.85764">
        <ele>59</ele>
        <time>2019-06-23T06:07:34Z</time>
      </trkpt>
      <trkpt lat="49.4144" lon="2.85817">
        <ele>59</ele>
        <time>2019-06-23T06:07:45Z</time>
      </trkpt>
      <trkpt lat="49.41428" lon="2.85836">
        <ele>59</ele>
        <time>2019-06-23T06:07:49Z</time>
      </trkpt>
      <trkpt lat="49.41416" lon="2.85857">
        <ele>59</ele>
        <time>2019-06-23T06:07:53Z</time>
      </trkpt>
      <trkpt lat="49.41396" lon="2.85885">
        <ele>59</ele>
        <time>2019-06-23T06:07:59Z</time>
      </trkpt>
      <trkpt lat="49.41364" lon="2.85938">
        <ele>58</ele>
        <time>2019-06-23T06:08:11Z</time>
      </trkpt>
      <trkpt lat="49.41362" lon="2.85993">
        <ele>57</ele>
        <time>2019-06-23T06:08:20Z</time>
      </trkpt>
      <trkpt lat="49.41363" lon="2.86012">
        <ele>56</ele>
        <time>2019-06-23T06:08:23Z</time>
      </trkpt>
      <trkpt lat="49.41366" lon="2.86049">
        <ele>56</ele>
        <time>2019-06-23T06:08:29Z</time>
      </trkpt>
      <trkpt lat="49.41366" lon="2.86093">
        <ele>55</ele>
        <time>2019-06-23T06:08:35Z</time>
      </trkpt>
      <trkpt lat="49.41368" lon="2.86122">
        <ele>55</ele>
        <time>2019-06-23T06:08:39Z</time>
      </trkpt>
      <trkpt lat="49.41372" lon="2.86189">
        <ele>55</ele>
        <time>2019-06-23T06:08:48Z</time>
      </trkpt>
      <trkpt lat="49.4137" lon="2.86218">
        <ele>55</ele>
        <time>2019-06-23T06:08:52Z</time>
      </trkpt>
      <trkpt lat="49.41372" lon="2.86245">
        <ele>56</ele>
        <time>2019-06-23T06:08:56Z</time>
      </trkpt>
      <trkpt lat="49.41373" lon="2.86263">
        <ele>55</ele>
        <time>2019-06-23T06:08:59Z</time>
      </trkpt>
      <trkpt lat="49.41376" lon="2.86291">
        <ele>55</ele>
        <time>2019-06-23T06:09:03Z</time>
      </trkpt>
      <trkpt lat="49.4138" lon="2.86375">
        <ele>53</ele>
        <time>2019-06-23T06:09:16Z</time>
      </trkpt>
      <trkpt lat="49.41386" lon="2.86433">
        <ele>52</ele>
        <time>2019-06-23T06:09:26Z</time>
      </trkpt>
      <trkpt lat="49.41397" lon="2.86494">
        <ele>50</ele>
        <time>2019-06-23T06:09:37Z</time>
      </trkpt>
      <trkpt lat="49.414" lon="2.86506">
        <ele>49</ele>
        <time>2019-06-23T06:09:39Z</time>
      </trkpt>
      <trkpt lat="49.41402" lon="2.86519">
        <ele>49</ele>
        <time>2019-06-23T06:09:41Z</time>
      </trkpt>
      <trkpt lat="49.4141" lon="2.86567">
        <ele>49</ele>
        <time>2019-06-23T06:09:47Z</time>
      </trkpt>
      <trkpt lat="49.41428" lon="2.86673">
        <ele>53</ele>
        <time>2019-06-23T06:10:00Z</time>
      </trkpt>
      <trkpt lat="49.4143" lon="2.8668">
        <ele>53</ele>
        <time>2019-06-23T06:10:01Z</time>
      </trkpt>
      <trkpt lat="49.41437" lon="2.86724">
        <ele>54</ele>
        <time>2019-06-23T06:10:07Z</time>
      </trkpt>
      <trkpt lat="49.41446" lon="2.86785">
        <ele>55</ele>
        <time>2019-06-23T06:10:19Z</time>
      </trkpt>
      <trkpt lat="49.41448" lon="2.86798">
        <ele>55</ele>
        <time>2019-06-23T06:10:33Z</time>
      </trkpt>
      <trkpt lat="49.41448" lon="2.86801">
        <ele>55</ele>
        <time>2019-06-23T06:10:36Z</time>
      </trkpt>
      <trkpt lat="49.41454" lon="2.86804">
        <ele>55</ele>
        <time>2019-06-23T06:10:40Z</time>
      </trkpt>
      <trkpt lat="49.41461" lon="2.8681">
        <ele>55</ele>
        <time>2019-06-23T06:10:44Z</time>
      </trkpt>
      <trkpt lat="49.41463" lon="2.86829">
        <ele>55</ele>
        <time>2019-06-23T06:10:51Z</time>
      </trkpt>
      <trkpt lat="49.41462" lon="2.86834">
        <ele>55</ele>
        <time>2019-06-23T06:10:53Z</time>
      </trkpt>
      <trkpt lat="49.41463" lon="2.86875">
        <ele>55</ele>
        <time>2019-06-23T06:11:00Z</time>
      </trkpt>
      <trkpt lat="49.41465" lon="2.86902">
        <ele>55</ele>
        <time>2019-06-23T06:11:04Z</time>
      </trkpt>
      <trkpt lat="49.41471" lon="2.86932">
        <ele>54</ele>
        <time>2019-06-23T06:11:08Z</time>
      </trkpt>
      <trkpt lat="49.41485" lon="2.87014">
        <ele>53</ele>
        <time>2019-06-23T06:11:18Z</time>
      </trkpt>
      <trkpt lat="49.41492" lon="2.87053">
        <ele>53</ele>
        <time>2019-06-23T06:11:23Z</time>
      </trkpt>
      <trkpt lat="49.41502" lon="2.87104">
        <ele>52</ele>
        <time>2019-06-23T06:11:29Z</time>
      </trkpt>
      <trkpt lat="49.41514" lon="2.87171">
        <ele>52</ele>
        <time>2019-06-23T06:11:37Z</time>
      </trkpt>
      <trkpt lat="49.41528" lon="2.87238">
        <ele>50</ele>
        <time>2019-06-23T06:11:46Z</time>
      </trkpt>
      <trkpt lat="49.41544" lon="2.87325">
        <ele>48</ele>
        <time>2019-06-23T06:11:57Z</time>
      </trkpt>
      <trkpt lat="49.41548" lon="2.87342">
        <ele>47</ele>
        <time>2019-06-23T06:11:59Z</time>
      </trkpt>
      <trkpt lat="49.41561" lon="2.87423">
        <ele>47</ele>
        <time>2019-06-23T06:12:08Z</time>
      </trkpt>
      <trkpt lat="49.41566" lon="2.87452">
        <ele>47</ele>
        <time>2019-06-23T06:12:12Z</time>
      </trkpt>
      <trkpt lat="49.41571" lon="2.87477">
        <ele>46</ele>
        <time>2019-06-23T06:12:16Z</time>
      </trkpt>
      <trkpt lat="49.41592" lon="2.87519">
        <ele>46</ele>
        <time>2019-06-23T06:12:24Z</time>
      </trkpt>
      <trkpt lat="49.41606" lon="2.87558">
        <ele>47</ele>
        <time>2019-06-23T06:12:30Z</time>
      </trkpt>
      <trkpt lat="49.41618" lon="2.87589">
        <ele>47</ele>
        <time>2019-06-23T06:12:35Z</time>
      </trkpt>
      <trkpt lat="49.41627" lon="2.87618">
        <ele>47</ele>
        <time>2019-06-23T06:12:40Z</time>
      </trkpt>
      <trkpt lat="49.41641" lon="2.87655">
        <ele>47</ele>
        <time>2019-06-23T06:12:47Z</time>
      </trkpt>
      <trkpt lat="49.41649" lon="2.8769">
        <ele>46</ele>
        <time>2019-06-23T06:12:53Z</time>
      </trkpt>
      <trkpt lat="49.41665" lon="2.8773">
        <ele>45</ele>
        <time>2019-06-23T06:12:59Z</time>
      </trkpt>
      <trkpt lat="49.41673" lon="2.87753">
        <ele>44</ele>
        <time>2019-06-23T06:13:02Z</time>
      </trkpt>
      <trkpt lat="49.41689" lon="2.87808">
        <ele>45</ele>
        <time>2019-06-23T06:13:09Z</time>
      </trkpt>
      <trkpt lat="49.41697" lon="2.87829">
        <ele>45</ele>
        <time>2019-06-23T06:13:12Z</time>
      </trkpt>
      <trkpt lat="49.41724" lon="2.87898">
        <ele>46</ele>
        <time>2019-06-23T06:13:24Z</time>
      </trkpt>
      <trkpt lat="49.41749" lon="2.87959">
        <ele>48</ele>
        <time>2019-06-23T06:13:36Z</time>
      </trkpt>
      <trkpt lat="49.41751" lon="2.87964">
        <ele>48</ele>
        <time>2019-06-23T06:13:37Z</time>
      </trkpt>
      <trkpt lat="49.41757" lon="2.8798">
        <ele>49</ele>
        <time>2019-06-23T06:13:40Z</time>
      </trkpt>
      <trkpt lat="49.41776" lon="2.88023">
        <ele>49</ele>
        <time>2019-06-23T06:13:47Z</time>
      </trkpt>
      <trkpt lat="49.4179" lon="2.88054">
        <ele>49</ele>
        <time>2019-06-23T06:13:52Z</time>
      </trkpt>
      <trkpt lat="49.41795" lon="2.88066">
        <ele>49</ele>
        <time>2019-06-23T06:13:54Z</time>
      </trkpt>
      <trkpt lat="49.41817" lon="2.88115">
        <ele>50</ele>
        <time>2019-06-23T06:14:02Z</time>
      </trkpt>
      <trkpt lat="49.41824" lon="2.88134">
        <ele>50</ele>
        <time>2019-06-23T06:14:05Z</time>
      </trkpt>
      <trkpt lat="49.41839" lon="2.88178">
        <ele>51</ele>
        <time>2019-06-23T06:14:12Z</time>
      </trkpt>
      <trkpt lat="49.41858" lon="2.8821">
        <ele>52</ele>
        <time>2019-06-23T06:14:19Z</time>
      </trkpt>
      <trkpt lat="49.41893" lon="2.88207">
        <ele>52</ele>
        <time>2019-06-23T06:14:28Z</time>
      </trkpt>
      <trkpt lat="49.41897" lon="2.88206">
        <ele>52</ele>
        <time>2019-06-23T06:14:29Z</time>
      </trkpt>
      <trkpt lat="49.41914" lon="2.88193">
        <ele>52</ele>
        <time>2019-06-23T06:14:34Z</time>
      </trkpt>
      <trkpt lat="49.41941" lon="2.8817">
        <ele>51</ele>
        <time>2019-06-23T06:14:41Z</time>
      </trkpt>
      <trkpt lat="49.41951" lon="2.88139">
        <ele>51</ele>
        <time>2019-06-23T06:14:45Z</time>
      </trkpt>
      <trkpt lat="49.41981" lon="2.88064">
        <ele>50</ele>
        <time>2019-06-23T06:14:55Z</time>
      </trkpt>
      <trkpt lat="49.41988" lon="2.88047">
        <ele>50</ele>
        <time>2019-06-23T06:14:58Z</time>
      </trkpt>
      <trkpt lat="49.42002" lon="2.88049">
        <ele>48</ele>
        <time>2019-06-23T06:15:05Z</time>
      </trkpt>
      <trkpt lat="49.4201" lon="2.88055">
        <ele>48</ele>
        <time>2019-06-23T06:15:09Z</time>
      </trkpt>
      <trkpt lat="49.42033" lon="2.88065">
        <ele>47</ele>
        <time>2019-06-23T06:15:18Z</time>
      </trkpt>
      <trkpt lat="49.42038" lon="2.88086">
        <ele>48</ele>
        <time>2019-06-23T06:15:22Z</time>
      </trkpt>
      <trkpt lat="49.42066" lon="2.88098">
        <ele>48</ele>
        <time>2019-06-23T06:15:31Z</time>
      </trkpt>
      <trkpt lat="49.42075" lon="2.88118">
        <ele>48</ele>
        <time>2019-06-23T06:15:35Z</time>
      </trkpt>
      <trkpt lat="49.42079" lon="2.88162">
        <ele>48</ele>
        <time>2019-06-23T06:15:43Z</time>
      </trkpt>
      <trkpt lat="49.4208" lon="2.88171">
        <ele>48</ele>
        <time>2019-06-23T06:15:45Z</time>
      </trkpt>
      <trkpt lat="49.42085" lon="2.88185">
        <ele>48</ele>
        <time>2019-06-23T06:15:48Z</time>
      </trkpt>
      <trkpt lat="49.42113" lon="2.88225">
        <ele>48</ele>
        <time>2019-06-23T06:15:56Z</time>
      </trkpt>
      <trkpt lat="49.42133" lon="2.88272">
        <ele>49</ele>
        <time>2019-06-23T06:16:05Z</time>
      </trkpt>
      <trkpt lat="49.42137" lon="2.8829">
        <ele>50</ele>
        <time>2019-06-23T06:16:08Z</time>
      </trkpt>
      <trkpt lat="49.42153" lon="2.88325">
        <ele>49</ele>
        <time>2019-06-23T06:16:15Z</time>
      </trkpt>
      <trkpt lat="49.42159" lon="2.88351">
        <ele>50</ele>
        <time>2019-06-23T06:16:20Z</time>
      </trkpt>
      <trkpt lat="49.42159" lon="2.88373">
        <ele>51</ele>
        <time>2019-06-23T06:16:24Z</time>
      </trkpt>
      <trkpt lat="49.42155" lon="2.88415">
        <ele>51</ele>
        <time>2019-06-23T06:16:31Z</time>
      </trkpt>
      <trkpt lat="49.42151" lon="2.88446">
        <ele>52</ele>
        <time>2019-06-23T06:16:36Z</time>
      </trkpt>
      <trkpt lat="49.4215" lon="2.88453">
        <ele>52</ele>
        <time>2019-06-23T06:16:37Z</time>
      </trkpt>
      <trkpt lat="49.4215" lon="2.88459">
        <ele>52</ele>
        <time>2019-06-23T06:16:38Z</time>
      </trkpt>
      <trkpt lat="49.42151" lon="2.88465">
        <ele>52</ele>
        <time>2019-06-23T06:16:39Z</time>
      </trkpt>
      <trkpt lat="49.42152" lon="2.88471">
        <ele>52</ele>
        <time>2019-06-23T06:16:40Z</time>
      </trkpt>
      <trkpt lat="49.42151" lon="2.88484">
        <ele>51</ele>
        <time>2019-06-23T06:16:42Z</time>
      </trkpt>
      <trkpt lat="49.4215" lon="2.88491">
        <ele>51</ele>
        <time>2019-06-23T06:16:43Z</time>
      </trkpt>
      <trkpt lat="49.42147" lon="2.88516">
        <ele>51</ele>
        <time>2019-06-23T06:16:47Z</time>
      </trkpt>
      <trkpt lat="49.42147" lon="2.88522">
        <ele>51</ele>
        <time>2019-06-23T06:16:48Z</time>
      </trkpt>
      <trkpt lat="49.42149" lon="2.88529">
        <ele>51</ele>
        <time>2019-06-23T06:16:49Z</time>
      </trkpt>
      <trkpt lat="49.42153" lon="2.88548">
        <ele>51</ele>
        <time>2019-06-23T06:16:52Z</time>
      </trkpt>
      <trkpt lat="49.42152" lon="2.88554">
        <ele>51</ele>
        <time>2019-06-23T06:16:53Z</time>
      </trkpt>
      <trkpt lat="49.4215" lon="2.8856">
        <ele>51</ele>
        <time>2019-06-23T06:16:54Z</time>
      </trkpt>
      <trkpt lat="49.42134" lon="2.88599">
        <ele>50</ele>
        <time>2019-06-23T06:17:04Z</time>
      </trkpt>
      <trkpt lat="49.42117" lon="2.88642">
        <ele>51</ele>
        <time>2019-06-23T06:17:14Z</time>
      </trkpt>
      <trkpt lat="49.42098" lon="2.88698">
        <ele>49</ele>
        <time>2019-06-23T06:17:24Z</time>
      </trkpt>
      <trkpt lat="49.42082" lon="2.88754">
        <ele>51</ele>
        <time>2019-06-23T06:17:34Z</time>
      </trkpt>
      <trkpt lat="49.4207" lon="2.88783">
        <ele>53</ele>
        <time>2019-06-23T06:17:41Z</time>
      </trkpt>
      <trkpt lat="49.42053" lon="2.88832">
        <ele>53</ele>
        <time>2019-06-23T06:17:52Z</time>
      </trkpt>
      <trkpt lat="49.42039" lon="2.8888">
        <ele>53</ele>
        <time>2019-06-23T06:18:01Z</time>
      </trkpt>
      <trkpt lat="49.42031" lon="2.88907">
        <ele>54</ele>
        <time>2019-06-23T06:18:07Z</time>
      </trkpt>
      <trkpt lat="49.42016" lon="2.88951">
        <ele>53</ele>
        <time>2019-06-23T06:18:16Z</time>
      </trkpt>
      <trkpt lat="49.42002" lon="2.8899">
        <ele>55</ele>
        <time>2019-06-23T06:18:25Z</time>
      </trkpt>
      <trkpt lat="49.41983" lon="2.89034">
        <ele>61</ele>
        <time>2019-06-23T06:18:36Z</time>
      </trkpt>
      <trkpt lat="49.41968" lon="2.89073">
        <ele>61</ele>
        <time>2019-06-23T06:18:44Z</time>
      </trkpt>
      <trkpt lat="49.4195" lon="2.89113">
        <ele>61</ele>
        <time>2019-06-23T06:18:52Z</time>
      </trkpt>
      <trkpt lat="49.41935" lon="2.89155">
        <ele>62</ele>
        <time>2019-06-23T06:19:01Z</time>
      </trkpt>
      <trkpt lat="49.41914" lon="2.89204">
        <ele>69</ele>
        <time>2019-06-23T06:19:11Z</time>
      </trkpt>
      <trkpt lat="49.41895" lon="2.89245">
        <ele>68</ele>
        <time>2019-06-23T06:19:21Z</time>
      </trkpt>
      <trkpt lat="49.41879" lon="2.89281">
        <ele>68</ele>
        <time>2019-06-23T06:19:30Z</time>
      </trkpt>
      <trkpt lat="49.41863" lon="2.89311">
        <ele>70</ele>
        <time>2019-06-23T06:19:38Z</time>
      </trkpt>
      <trkpt lat="49.41845" lon="2.89339">
        <ele>72</ele>
        <time>2019-06-23T06:19:46Z</time>
      </trkpt>
      <trkpt lat="49.41832" lon="2.89361">
        <ele>79</ele>
        <time>2019-06-23T06:19:52Z</time>
      </trkpt>
      <trkpt lat="49.41831" lon="2.89362">
        <ele>79</ele>
        <time>2019-06-23T06:19:53Z</time>
      </trkpt>
      <trkpt lat="49.4183" lon="2.89366">
        <ele>79</ele>
        <time>2019-06-23T06:19:54Z</time>
      </trkpt>
      <trkpt lat="49.41828" lon="2.89371">
        <ele>79</ele>
        <time>2019-06-23T06:19:55Z</time>
      </trkpt>
      <trkpt lat="49.41827" lon="2.89375">
        <ele>79</ele>
        <time>2019-06-23T06:19:56Z</time>
      </trkpt>
      <trkpt lat="49.41826" lon="2.89379">
        <ele>79</ele>
        <time>2019-06-23T06:19:57Z</time>
      </trkpt>
      <trkpt lat="49.41808" lon="2.89418">
        <ele>74</ele>
        <time>2019-06-23T06:20:07Z</time>
      </trkpt>
      <trkpt lat="49.41795" lon="2.89473">
        <ele>74</ele>
        <time>2019-06-23T06:20:16Z</time>
      </trkpt>
      <trkpt lat="49.41793" lon="2.89485">
        <ele>74</ele>
        <time>2019-06-23T06:20:18Z</time>
      </trkpt>
      <trkpt lat="49.41791" lon="2.89491">
        <ele>74</ele>
        <time>2019-06-23T06:20:19Z</time>
      </trkpt>
      <trkpt lat="49.41789" lon="2.89496">
        <ele>74</ele>
        <time>2019-06-23T06:20:20Z</time>
      </trkpt>
      <trkpt lat="49.41787" lon="2.89501">
        <ele>71</ele>
        <time>2019-06-23T06:20:21Z</time>
      </trkpt>
      <trkpt lat="49.41785" lon="2.89506">
        <ele>71</ele>
        <time>2019-06-23T06:20:22Z</time>
      </trkpt>
      <trkpt lat="49.41772" lon="2.89551">
        <ele>70</ele>
        <time>2019-06-23T06:20:30Z</time>
      </trkpt>
      <trkpt lat="49.41772" lon="2.89557">
        <ele>70</ele>
        <time>2019-06-23T06:20:31Z</time>
      </trkpt>
      <trkpt lat="49.41764" lon="2.89574">
        <ele>70</ele>
        <time>2019-06-23T06:20:34Z</time>
      </trkpt>
      <trkpt lat="49.41744" lon="2.89631">
        <ele>70</ele>
        <time>2019-06-23T06:20:45Z</time>
      </trkpt>
      <trkpt lat="49.41737" lon="2.89649">
        <ele>69</ele>
        <time>2019-06-23T06:20:48Z</time>
      </trkpt>
      <trkpt lat="49.41726" lon="2.89668">
        <ele>66</ele>
        <time>2019-06-23T06:20:51Z</time>
      </trkpt>
      <trkpt lat="49.41724" lon="2.89675">
        <ele>66</ele>
        <time>2019-06-23T06:20:52Z</time>
      </trkpt>
      <trkpt lat="49.41723" lon="2.89681">
        <ele>67</ele>
        <time>2019-06-23T06:20:53Z</time>
      </trkpt>
      <trkpt lat="49.41702" lon="2.89749">
        <ele>66</ele>
        <time>2019-06-23T06:21:04Z</time>
      </trkpt>
      <trkpt lat="49.417" lon="2.89756">
        <ele>65</ele>
        <time>2019-06-23T06:21:05Z</time>
      </trkpt>
      <trkpt lat="49.41696" lon="2.89767">
        <ele>65</ele>
        <time>2019-06-23T06:21:07Z</time>
      </trkpt>
      <trkpt lat="49.41689" lon="2.89796">
        <ele>64</ele>
        <time>2019-06-23T06:21:11Z</time>
      </trkpt>
      <trkpt lat="49.41682" lon="2.89813">
        <ele>65</ele>
        <time>2019-06-23T06:21:15Z</time>
      </trkpt>
      <trkpt lat="49.41681" lon="2.89814">
        <ele>65</ele>
        <time>2019-06-23T06:21:18Z</time>
      </trkpt>
      <trkpt lat="49.41673" lon="2.89849">
        <ele>63</ele>
        <time>2019-06-23T06:21:26Z</time>
      </trkpt>
      <trkpt lat="49.4167" lon="2.89855">
        <ele>63</ele>
        <time>2019-06-23T06:21:27Z</time>
      </trkpt>
      <trkpt lat="49.41648" lon="2.89929">
        <ele>62</ele>
        <time>2019-06-23T06:21:37Z</time>
      </trkpt>
      <trkpt lat="49.41636" lon="2.89967">
        <ele>62</ele>
        <time>2019-06-23T06:21:42Z</time>
      </trkpt>
      <trkpt lat="49.41634" lon="2.89975">
        <ele>62</ele>
        <time>2019-06-23T06:21:43Z</time>
      </trkpt>
      <trkpt lat="49.41633" lon="2.89982">
        <ele>62</ele>
        <time>2019-06-23T06:21:44Z</time>
      </trkpt>
      <trkpt lat="49.41631" lon="2.89988">
        <ele>62</ele>
        <time>2019-06-23T06:21:45Z</time>
      </trkpt>
      <trkpt lat="49.41628" lon="2.89994">
        <ele>62</ele>
        <time>2019-06-23T06:21:46Z</time>
      </trkpt>
      <trkpt lat="49.41625" lon="2.90001">
        <ele>62</ele>
        <time>2019-06-23T06:21:47Z</time>
      </trkpt>
      <trkpt lat="49.41623" lon="2.90007">
        <ele>62</ele>
        <time>2019-06-23T06:21:48Z</time>
      </trkpt>
      <trkpt lat="49.41622" lon="2.90012">
        <ele>62</ele>
        <time>2019-06-23T06:21:49Z</time>
      </trkpt>
      <trkpt lat="49.41621" lon="2.90017">
        <ele>62</ele>
        <time>2019-06-23T06:21:50Z</time>
      </trkpt>
      <trkpt lat="49.4162" lon="2.9002">
        <ele>62</ele>
        <time>2019-06-23T06:21:51Z</time>
      </trkpt>
      <trkpt lat="49.41619" lon="2.90024">
        <ele>62</ele>
        <time>2019-06-23T06:21:52Z</time>
      </trkpt>
      <trkpt lat="49.41617" lon="2.90028">
        <ele>62</ele>
        <time>2019-06-23T06:21:53Z</time>
      </trkpt>
      <trkpt lat="49.41615" lon="2.90033">
        <ele>62</ele>
        <time>2019-06-23T06:21:54Z</time>
      </trkpt>
      <trkpt lat="49.41613" lon="2.90038">
        <ele>62</ele>
        <time>2019-06-23T06:21:55Z</time>
      </trkpt>
      <trkpt lat="49.41611" lon="2.90043">
        <ele>62</ele>
        <time>2019-06-23T06:21:56Z</time>
      </trkpt>
      <trkpt lat="49.41609" lon="2.90049">
        <ele>62</ele>
        <time>2019-06-23T06:21:57Z</time>
      </trkpt>
      <trkpt lat="49.41607" lon="2.90055">
        <ele>62</ele>
        <time>2019-06-23T06:21:58Z</time>
      </trkpt>
      <trkpt lat="49.41604" lon="2.9006">
        <ele>62</ele>
        <time>2019-06-23T06:21:59Z</time>
      </trkpt>
      <trkpt lat="49.41589" lon="2.90111">
        <ele>62</ele>
        <time>2019-06-23T06:22:08Z</time>
      </trkpt>
      <trkpt lat="49.41572" lon="2.9016">
        <ele>64</ele>
        <time>2019-06-23T06:22:17Z</time>
      </trkpt>
      <trkpt lat="49.41549" lon="2.90213">
        <ele>63</ele>
        <time>2019-06-23T06:22:28Z</time>
      </trkpt>
      <trkpt lat="49.41533" lon="2.90248">
        <ele>63</ele>
        <time>2019-06-23T06:22:37Z</time>
      </trkpt>
      <trkpt lat="49.4152" lon="2.90278">
        <ele>62</ele>
        <time>2019-06-23T06:22:43Z</time>
      </trkpt>
      <trkpt lat="49.41517" lon="2.90284">
        <ele>62</ele>
        <time>2019-06-23T06:22:44Z</time>
      </trkpt>
      <trkpt lat="49.41503" lon="2.90309">
        <ele>62</ele>
        <time>2019-06-23T06:22:49Z</time>
      </trkpt>
      <trkpt lat="49.41501" lon="2.90314">
        <ele>62</ele>
        <time>2019-06-23T06:22:50Z</time>
      </trkpt>
      <trkpt lat="49.41498" lon="2.9032">
        <ele>65</ele>
        <time>2019-06-23T06:22:51Z</time>
      </trkpt>
      <trkpt lat="49.41482" lon="2.90385">
        <ele>68</ele>
        <time>2019-06-23T06:23:02Z</time>
      </trkpt>
      <trkpt lat="49.41469" lon="2.90419">
        <ele>69</ele>
        <time>2019-06-23T06:23:10Z</time>
      </trkpt>
      <trkpt lat="49.41449" lon="2.90476">
        <ele>73</ele>
        <time>2019-06-23T06:23:21Z</time>
      </trkpt>
      <trkpt lat="49.41436" lon="2.90513">
        <ele>75</ele>
        <time>2019-06-23T06:23:28Z</time>
      </trkpt>
      <trkpt lat="49.41433" lon="2.90519">
        <ele>75</ele>
        <time>2019-06-23T06:23:29Z</time>
      </trkpt>
      <trkpt lat="49.41432" lon="2.90524">
        <ele>74</ele>
        <time>2019-06-23T06:23:30Z</time>
      </trkpt>
      <trkpt lat="49.4142" lon="2.90558">
        <ele>73</ele>
        <time>2019-06-23T06:23:36Z</time>
      </trkpt>
      <trkpt lat="49.41419" lon="2.90565">
        <ele>74</ele>
        <time>2019-06-23T06:23:37Z</time>
      </trkpt>
      <trkpt lat="49.41415" lon="2.90576">
        <ele>78</ele>
        <time>2019-06-23T06:23:39Z</time>
      </trkpt>
      <trkpt lat="49.41413" lon="2.90583">
        <ele>77</ele>
        <time>2019-06-23T06:23:40Z</time>
      </trkpt>
      <trkpt lat="49.41411" lon="2.9059">
        <ele>76</ele>
        <time>2019-06-23T06:23:41Z</time>
      </trkpt>
      <trkpt lat="49.41409" lon="2.90597">
        <ele>76</ele>
        <time>2019-06-23T06:23:42Z</time>
      </trkpt>
      <trkpt lat="49.41407" lon="2.90603">
        <ele>75</ele>
        <time>2019-06-23T06:23:43Z</time>
      </trkpt>
      <trkpt lat="49.41393" lon="2.90646">
        <ele>74</ele>
        <time>2019-06-23T06:23:49Z</time>
      </trkpt>
      <trkpt lat="49.41392" lon="2.90653">
        <ele>73</ele>
        <time>2019-06-23T06:23:50Z</time>
      </trkpt>
      <trkpt lat="49.41376" lon="2.90693">
        <ele>71</ele>
        <time>2019-06-23T06:23:57Z</time>
      </trkpt>
      <trkpt lat="49.41373" lon="2.90698">
        <ele>72</ele>
        <time>2019-06-23T06:23:58Z</time>
      </trkpt>
      <trkpt lat="49.41371" lon="2.90702">
        <ele>72</ele>
        <time>2019-06-23T06:23:59Z</time>
      </trkpt>
      <trkpt lat="49.4137" lon="2.90708">
        <ele>72</ele>
        <time>2019-06-23T06:24:00Z</time>
      </trkpt>
      <trkpt lat="49.41369" lon="2.90715">
        <ele>72</ele>
        <time>2019-06-23T06:24:01Z</time>
      </trkpt>
      <trkpt lat="49.41367" lon="2.90722">
        <ele>72</ele>
        <time>2019-06-23T06:24:02Z</time>
      </trkpt>
      <trkpt lat="49.41365" lon="2.90729">
        <ele>72</ele>
        <time>2019-06-23T06:24:03Z</time>
      </trkpt>
      <trkpt lat="49.41362" lon="2.90736">
        <ele>72</ele>
        <time>2019-06-23T06:24:04Z</time>
      </trkpt>
      <trkpt lat="49.41335" lon="2.90796">
        <ele>72</ele>
        <time>2019-06-23T06:24:14Z</time>
      </trkpt>
      <trkpt lat="49.41334" lon="2.90803">
        <ele>72</ele>
        <time>2019-06-23T06:24:15Z</time>
      </trkpt>
      <trkpt lat="49.41332" lon="2.90808">
        <ele>70</ele>
        <time>2019-06-23T06:24:16Z</time>
      </trkpt>
      <trkpt lat="49.41325" lon="2.90831">
        <ele>71</ele>
        <time>2019-06-23T06:24:20Z</time>
      </trkpt>
      <trkpt lat="49.41318" lon="2.90849">
        <ele>70</ele>
        <time>2019-06-23T06:24:23Z</time>
      </trkpt>
      <trkpt lat="49.41316" lon="2.90855">
        <ele>70</ele>
        <time>2019-06-23T06:24:24Z</time>
      </trkpt>
      <trkpt lat="49.41314" lon="2.90861">
        <ele>70</ele>
        <time>2019-06-23T06:24:25Z</time>
      </trkpt>
      <trkpt lat="49.4131" lon="2.90873">
        <ele>70</ele>
        <time>2019-06-23T06:24:27Z</time>
      </trkpt>
      <trkpt lat="49.41307" lon="2.90879">
        <ele>70</ele>
        <time>2019-06-23T06:24:28Z</time>
      </trkpt>
      <trkpt lat="49.41305" lon="2.90885">
        <ele>69</ele>
        <time>2019-06-23T06:24:29Z</time>
      </trkpt>
      <trkpt lat="49.4129" lon="2.90935">
        <ele>68</ele>
        <time>2019-06-23T06:24:38Z</time>
      </trkpt>
      <trkpt lat="49.41283" lon="2.90958">
        <ele>68</ele>
        <time>2019-06-23T06:24:42Z</time>
      </trkpt>
      <trkpt lat="49.41281" lon="2.90966">
        <ele>68</ele>
        <time>2019-06-23T06:24:43Z</time>
      </trkpt>
      <trkpt lat="49.41248" lon="2.91058">
        <ele>65</ele>
        <time>2019-06-23T06:24:54Z</time>
      </trkpt>
      <trkpt lat="49.41219" lon="2.91131">
        <ele>63</ele>
        <time>2019-06-23T06:25:03Z</time>
      </trkpt>
      <trkpt lat="49.41208" lon="2.91162">
        <ele>62</ele>
        <time>2019-06-23T06:25:07Z</time>
      </trkpt>
      <trkpt lat="49.41201" lon="2.91184">
        <ele>62</ele>
        <time>2019-06-23T06:25:10Z</time>
      </trkpt>
      <trkpt lat="49.41171" lon="2.91263">
        <ele>61</ele>
        <time>2019-06-23T06:25:22Z</time>
      </trkpt>
      <trkpt lat="49.41168" lon="2.91269">
        <ele>60</ele>
        <time>2019-06-23T06:25:23Z</time>
      </trkpt>
      <trkpt lat="49.41144" lon="2.91327">
        <ele>61</ele>
        <time>2019-06-23T06:25:33Z</time>
      </trkpt>
      <trkpt lat="49.41135" lon="2.91345">
        <ele>60</ele>
        <time>2019-06-23T06:25:36Z</time>
      </trkpt>
      <trkpt lat="49.41133" lon="2.91352">
        <ele>60</ele>
        <time>2019-06-23T06:25:37Z</time>
      </trkpt>
      <trkpt lat="49.41131" lon="2.91358">
        <ele>60</ele>
        <time>2019-06-23T06:25:38Z</time>
      </trkpt>
      <trkpt lat="49.4113" lon="2.91362">
        <ele>60</ele>
        <time>2019-06-23T06:25:39Z</time>
      </trkpt>
      <trkpt lat="49.41128" lon="2.91366">
        <ele>60</ele>
        <time>2019-06-23T06:25:40Z</time>
      </trkpt>
      <trkpt lat="49.41126" lon="2.9137">
        <ele>60</ele>
        <time>2019-06-23T06:25:41Z</time>
      </trkpt>
      <trkpt lat="49.41112" lon="2.91418">
        <ele>58</ele>
        <time>2019-06-23T06:25:47Z</time>
      </trkpt>
      <trkpt lat="49.4111" lon="2.91426">
        <ele>58</ele>
        <time>2019-06-23T06:25:48Z</time>
      </trkpt>
      <trkpt lat="49.41101" lon="2.91449">
        <ele>58</ele>
        <time>2019-06-23T06:25:51Z</time>
      </trkpt>
      <trkpt lat="49.41088" lon="2.91481">
        <ele>57</ele>
        <time>2019-06-23T06:25:55Z</time>
      </trkpt>
      <trkpt lat="49.41082" lon="2.91498">
        <ele>56</ele>
        <time>2019-06-23T06:25:57Z</time>
      </trkpt>
      <trkpt lat="49.41079" lon="2.91505">
        <ele>56</ele>
        <time>2019-06-23T06:25:58Z</time>
      </trkpt>
      <trkpt lat="49.41075" lon="2.91512">
        <ele>55</ele>
        <time>2019-06-23T06:25:59Z</time>
      </trkpt>
      <trkpt lat="49.41071" lon="2.91518">
        <ele>55</ele>
        <time>2019-06-23T06:26:00Z</time>
      </trkpt>
      <trkpt lat="49.41068" lon="2.91526">
        <ele>55</ele>
        <time>2019-06-23T06:26:01Z</time>
      </trkpt>
      <trkpt lat="49.41061" lon="2.91543">
        <ele>54</ele>
        <time>2019-06-23T06:26:03Z</time>
      </trkpt>
      <trkpt lat="49.4103" lon="2.91634">
        <ele>49</ele>
        <time>2019-06-23T06:26:13Z</time>
      </trkpt>
      <trkpt lat="49.40986" lon="2.91739">
        <ele>46</ele>
        <time>2019-06-23T06:26:25Z</time>
      </trkpt>
      <trkpt lat="49.4096" lon="2.91798">
        <ele>45</ele>
        <time>2019-06-23T06:26:33Z</time>
      </trkpt>
      <trkpt lat="49.40956" lon="2.91805">
        <ele>45</ele>
        <time>2019-06-23T06:26:34Z</time>
      </trkpt>
      <trkpt lat="49.40933" lon="2.91854">
        <ele>44</ele>
        <time>2019-06-23T06:26:41Z</time>
      </trkpt>
      <trkpt lat="49.4093" lon="2.91858">
        <ele>44</ele>
        <time>2019-06-23T06:26:42Z</time>
      </trkpt>
      <trkpt lat="49.40905" lon="2.9191">
        <ele>45</ele>
        <time>2019-06-23T06:26:50Z</time>
      </trkpt>
      <trkpt lat="49.40889" lon="2.91945">
        <ele>46</ele>
        <time>2019-06-23T06:26:56Z</time>
      </trkpt>
      <trkpt lat="49.40883" lon="2.91956">
        <ele>47</ele>
        <time>2019-06-23T06:26:58Z</time>
      </trkpt>
      <trkpt lat="49.40848" lon="2.92017">
        <ele>51</ele>
        <time>2019-06-23T06:27:12Z</time>
      </trkpt>
      <trkpt lat="49.40846" lon="2.92019">
        <ele>52</ele>
        <time>2019-06-23T06:27:13Z</time>
      </trkpt>
      <trkpt lat="49.40844" lon="2.92022">
        <ele>52</ele>
        <time>2019-06-23T06:27:14Z</time>
      </trkpt>
      <trkpt lat="49.40842" lon="2.92024">
        <ele>52</ele>
        <time>2019-06-23T06:27:15Z</time>
      </trkpt>
      <trkpt lat="49.4082" lon="2.92053">
        <ele>57</ele>
        <time>2019-06-23T06:27:26Z</time>
      </trkpt>
      <trkpt lat="49.40817" lon="2.92081">
        <ele>57</ele>
        <time>2019-06-23T06:27:34Z</time>
      </trkpt>
      <trkpt lat="49.40819" lon="2.92084">
        <ele>58</ele>
        <time>2019-06-23T06:27:35Z</time>
      </trkpt>
      <trkpt lat="49.40819" lon="2.92087">
        <ele>58</ele>
        <time>2019-06-23T06:27:36Z</time>
      </trkpt>
      <trkpt lat="49.40828" lon="2.92102">
        <ele>58</ele>
        <time>2019-06-23T06:27:45Z</time>
      </trkpt>
      <trkpt lat="49.4083" lon="2.92105">
        <ele>58</ele>
        <time>2019-06-23T06:27:47Z</time>
      </trkpt>
      <trkpt lat="49.40834" lon="2.92109">
        <ele>57</ele>
        <time>2019-06-23T06:27:52Z</time>
      </trkpt>
      <trkpt lat="49.4084" lon="2.92132">
        <ele>58</ele>
        <time>2019-06-23T06:28:04Z</time>
      </trkpt>
      <trkpt lat="49.40852" lon="2.92151">
        <ele>58</ele>
        <time>2019-06-23T06:28:13Z</time>
      </trkpt>
      <trkpt lat="49.4086" lon="2.92179">
        <ele>63</ele>
        <time>2019-06-23T06:28:24Z</time>
      </trkpt>
      <trkpt lat="49.40865" lon="2.92197">
        <ele>64</ele>
        <time>2019-06-23T06:28:31Z</time>
      </trkpt>
      <trkpt lat="49.40869" lon="2.92205">
        <ele>64</ele>
        <time>2019-06-23T06:28:34Z</time>
      </trkpt>
      <trkpt lat="49.40871" lon="2.92209">
        <ele>65</ele>
        <time>2019-06-23T06:28:36Z</time>
      </trkpt>
      <trkpt lat="49.40878" lon="2.92216">
        <ele>65</ele>
        <time>2019-06-23T06:28:41Z</time>
      </trkpt>
      <trkpt lat="49.4089" lon="2.92241">
        <ele>66</ele>
        <time>2019-06-23T06:28:51Z</time>
      </trkpt>
      <trkpt lat="49.40893" lon="2.92246">
        <ele>67</ele>
        <time>2019-06-23T06:28:54Z</time>
      </trkpt>
      <trkpt lat="49.40905" lon="2.92266">
        <ele>72</ele>
        <time>2019-06-23T06:29:04Z</time>
      </trkpt>
      <trkpt lat="49.40915" lon="2.92284">
        <ele>74</ele>
        <time>2019-06-23T06:29:14Z</time>
      </trkpt>
      <trkpt lat="49.40927" lon="2.92299">
        <ele>72</ele>
        <time>2019-06-23T06:29:22Z</time>
      </trkpt>
      <trkpt lat="49.40935" lon="2.92312">
        <ele>73</ele>
        <time>2019-06-23T06:29:29Z</time>
      </trkpt>
      <trkpt lat="49.40953" lon="2.92329">
        <ele>72</ele>
        <time>2019-06-23T06:29:36Z</time>
      </trkpt>
      <trkpt lat="49.4097" lon="2.92356">
        <ele>77</ele>
        <time>2019-06-23T06:29:46Z</time>
      </trkpt>
      <trkpt lat="49.40973" lon="2.9236">
        <ele>77</ele>
        <time>2019-06-23T06:29:48Z</time>
      </trkpt>
      <trkpt lat="49.40994" lon="2.92397">
        <ele>79</ele>
        <time>2019-06-23T06:29:59Z</time>
      </trkpt>
      <trkpt lat="49.41013" lon="2.92432">
        <ele>77</ele>
        <time>2019-06-23T06:30:11Z</time>
      </trkpt>
      <trkpt lat="49.41013" lon="2.92457">
        <ele>76</ele>
        <time>2019-06-23T06:30:20Z</time>
      </trkpt>
      <trkpt lat="49.41009" lon="2.92456">
        <ele>77</ele>
        <time>2019-06-23T06:30:24Z</time>
      </trkpt>
      <trkpt lat="49.40999" lon="2.92445">
        <ele>84</ele>
        <time>2019-06-23T06:30:32Z</time>
      </trkpt>
      <trkpt lat="49.40981" lon="2.92433">
        <ele>84</ele>
        <time>2019-06-23T06:30:42Z</time>
      </trkpt>
      <trkpt lat="49.40966" lon="2.92428">
        <ele>86</ele>
        <time>2019-06-23T06:30:48Z</time>
      </trkpt>
      <trkpt lat="49.40944" lon="2.92423">
        <ele>88</ele>
        <time>2019-06-23T06:30:59Z</time>
      </trkpt>
      <trkpt lat="49.40937" lon="2.92421">
        <ele>88</ele>
        <time>2019-06-23T06:31:03Z</time>
      </trkpt>
      <trkpt lat="49.40921" lon="2.92412">
        <ele>87</ele>
        <time>2019-06-23T06:31:15Z</time>
      </trkpt>
      <trkpt lat="49.40918" lon="2.92411">
        <ele>87</ele>
        <time>2019-06-23T06:31:17Z</time>
      </trkpt>
      <trkpt lat="49.40911" lon="2.92411">
        <ele>89</ele>
        <time>2019-06-23T06:31:25Z</time>
      </trkpt>
      <trkpt lat="49.40909" lon="2.92411">
        <ele>89</ele>
        <time>2019-06-23T06:31:30Z</time>
      </trkpt>
      <trkpt lat="49.40899" lon="2.92411">
        <ele>89</ele>
        <time>2019-06-23T06:31:37Z</time>
      </trkpt>
      <trkpt lat="49.40883" lon="2.92407">
        <ele>89</ele>
        <time>2019-06-23T06:31:48Z</time>
      </trkpt>
      <trkpt lat="49.40864" lon="2.92401">
        <ele>90</ele>
        <time>2019-06-23T06:31:58Z</time>
      </trkpt>
      <trkpt lat="49.40857" lon="2.924">
        <ele>91</ele>
        <time>2019-06-23T06:32:05Z</time>
      </trkpt>
      <trkpt lat="49.40851" lon="2.92399">
        <ele>92</ele>
        <time>2019-06-23T06:32:08Z</time>
      </trkpt>
      <trkpt lat="49.40832" lon="2.92396">
        <ele>96</ele>
        <time>2019-06-23T06:32:20Z</time>
      </trkpt>
      <trkpt lat="49.40829" lon="2.92394">
        <ele>96</ele>
        <time>2019-06-23T06:32:29Z</time>
      </trkpt>
      <trkpt lat="49.40825" lon="2.92393">
        <ele>95</ele>
        <time>2019-06-23T06:32:44Z</time>
      </trkpt>
      <trkpt lat="49.4082" lon="2.92399">
        <ele>96</ele>
        <time>2019-06-23T06:32:55Z</time>
      </trkpt>
      <trkpt lat="49.40812" lon="2.92404">
        <ele>96</ele>
        <time>2019-06-23T06:33:07Z</time>
      </trkpt>
      <trkpt lat="49.40812" lon="2.92407">
        <ele>96</ele>
        <time>2019-06-23T06:33:24Z</time>
      </trkpt>
      <trkpt lat="49.40808" lon="2.92409">
        <ele>96</ele>
        <time>2019-06-23T06:33:34Z</time>
      </trkpt>
      <trkpt lat="49.40798" lon="2.92413">
        <ele>97</ele>
        <time>2019-06-23T06:33:43Z</time>
      </trkpt>
      <trkpt lat="49.40795" lon="2.92412">
        <ele>97</ele>
        <time>2019-06-23T06:33:46Z</time>
      </trkpt>
      <trkpt lat="49.40785" lon="2.92416">
        <ele>97</ele>
        <time>2019-06-23T06:33:57Z</time>
      </trkpt>
      <trkpt lat="49.40783" lon="2.92416">
        <ele>97</ele>
        <time>2019-06-23T06:34:06Z</time>
      </trkpt>
      <trkpt lat="49.4078" lon="2.9242">
        <ele>108</ele>
        <time>2019-06-23T06:34:14Z</time>
      </trkpt>
      <trkpt lat="49.40763" lon="2.92419">
        <ele>107</ele>
        <time>2019-06-23T06:34:25Z</time>
      </trkpt>
      <trkpt lat="49.40754" lon="2.92422">
        <ele>106</ele>
        <time>2019-06-23T06:34:37Z</time>
      </trkpt>
      <trkpt lat="49.4075" lon="2.92426">
        <ele>108</ele>
        <time>2019-06-23T06:34:47Z</time>
      </trkpt>
      <trkpt lat="49.40739" lon="2.92427">
        <ele>109</ele>
        <time>2019-06-23T06:34:58Z</time>
      </trkpt>
      <trkpt lat="49.4073" lon="2.92434">
        <ele>110</ele>
        <time>2019-06-23T06:35:10Z</time>
      </trkpt>
      <trkpt lat="49.40728" lon="2.92435">
        <ele>110</ele>
        <time>2019-06-23T06:35:25Z</time>
      </trkpt>
      <trkpt lat="49.40724" lon="2.92442">
        <ele>111</ele>
        <time>2019-06-23T06:35:39Z</time>
      </trkpt>
      <trkpt lat="49.40718" lon="2.92446">
        <ele>112</ele>
        <time>2019-06-23T06:35:47Z</time>
      </trkpt>
      <trkpt lat="49.40713" lon="2.9245">
        <ele>112</ele>
        <time>2019-06-23T06:36:02Z</time>
      </trkpt>
      <trkpt lat="49.40713" lon="2.92451">
        <ele>112</ele>
        <time>2019-06-23T06:36:04Z</time>
      </trkpt>
      <trkpt lat="49.40707" lon="2.92453">
        <ele>112</ele>
        <time>2019-06-23T06:36:11Z</time>
      </trkpt>
      <trkpt lat="49.40701" lon="2.92458">
        <ele>113</ele>
        <time>2019-06-23T06:36:22Z</time>
      </trkpt>
      <trkpt lat="49.40698" lon="2.92462">
        <ele>113</ele>
        <time>2019-06-23T06:36:26Z</time>
      </trkpt>
      <trkpt lat="49.4069" lon="2.92464">
        <ele>114</ele>
        <time>2019-06-23T06:36:36Z</time>
      </trkpt>
      <trkpt lat="49.40688" lon="2.92466">
        <ele>114</ele>
        <time>2019-06-23T06:36:38Z</time>
      </trkpt>
      <trkpt lat="49.40681" lon="2.92473">
        <ele>115</ele>
        <time>2019-06-23T06:36:46Z</time>
      </trkpt>
      <trkpt lat="49.40672" lon="2.92489">
        <ele>118</ele>
        <time>2019-06-23T06:36:59Z</time>
      </trkpt>
      <trkpt lat="49.40671" lon="2.9249">
        <ele>119</ele>
        <time>2019-06-23T06:37:00Z</time>
      </trkpt>
      <trkpt lat="49.4067" lon="2.92492">
        <ele>119</ele>
        <time>2019-06-23T06:37:02Z</time>
      </trkpt>
      <trkpt lat="49.40659" lon="2.92509">
        <ele>122</ele>
        <time>2019-06-23T06:37:17Z</time>
      </trkpt>
      <trkpt lat="49.40645" lon="2.92513">
        <ele>122</ele>
        <time>2019-06-23T06:37:29Z</time>
      </trkpt>
      <trkpt lat="49.40629" lon="2.92519">
        <ele>122</ele>
        <time>2019-06-23T06:37:43Z</time>
      </trkpt>
      <trkpt lat="49.40616" lon="2.92525">
        <ele>122</ele>
        <time>2019-06-23T06:37:52Z</time>
      </trkpt>
      <trkpt lat="49.40591" lon="2.92529">
        <ele>121</ele>
        <time>2019-06-23T06:38:04Z</time>
      </trkpt>
      <trkpt lat="49.40553" lon="2.92535">
        <ele>120</ele>
        <time>2019-06-23T06:38:16Z</time>
      </trkpt>
      <trkpt lat="49.40511" lon="2.92537">
        <ele>120</ele>
        <time>2019-06-23T06:38:28Z</time>
      </trkpt>
      <trkpt lat="49.40498" lon="2.92538">
        <ele>119</ele>
        <time>2019-06-23T06:38:31Z</time>
      </trkpt>
      <trkpt lat="49.40474" lon="2.92539">
        <ele>119</ele>
        <time>2019-06-23T06:38:36Z</time>
      </trkpt>
      <trkpt lat="49.40405" lon="2.92539">
        <ele>118</ele>
        <time>2019-06-23T06:38:50Z</time>
      </trkpt>
      <trkpt lat="49.40364" lon="2.92539">
        <ele>118</ele>
        <time>2019-06-23T06:38:58Z</time>
      </trkpt>
      <trkpt lat="49.40297" lon="2.92519">
        <ele>119</ele>
        <time>2019-06-23T06:39:11Z</time>
      </trkpt>
      <trkpt lat="49.40262" lon="2.92509">
        <ele>119</ele>
        <time>2019-06-23T06:39:19Z</time>
      </trkpt>
      <trkpt lat="49.4024" lon="2.92501">
        <ele>120</ele>
        <time>2019-06-23T06:39:26Z</time>
      </trkpt>
      <trkpt lat="49.4021" lon="2.92498">
        <ele>113</ele>
        <time>2019-06-23T06:39:33Z</time>
      </trkpt>
      <trkpt lat="49.40202" lon="2.92498">
        <ele>113</ele>
        <time>2019-06-23T06:39:35Z</time>
      </trkpt>
      <trkpt lat="49.4016" lon="2.92516">
        <ele>119</ele>
        <time>2019-06-23T06:39:46Z</time>
      </trkpt>
      <trkpt lat="49.40131" lon="2.92539">
        <ele>120</ele>
        <time>2019-06-23T06:39:55Z</time>
      </trkpt>
      <trkpt lat="49.40094" lon="2.92579">
        <ele>123</ele>
        <time>2019-06-23T06:40:07Z</time>
      </trkpt>
      <trkpt lat="49.40051" lon="2.92618">
        <ele>124</ele>
        <time>2019-06-23T06:40:19Z</time>
      </trkpt>
      <trkpt lat="49.40034" lon="2.92635">
        <ele>124</ele>
        <time>2019-06-23T06:40:23Z</time>
      </trkpt>
      <trkpt lat="49.40022" lon="2.92649">
        <ele>125</ele>
        <time>2019-06-23T06:40:26Z</time>
      </trkpt>
      <trkpt lat="49.4" lon="2.92671">
        <ele>127</ele>
        <time>2019-06-23T06:40:31Z</time>
      </trkpt>
      <trkpt lat="49.39965" lon="2.927">
        <ele>123</ele>
        <time>2019-06-23T06:40:38Z</time>
      </trkpt>
      <trkpt lat="49.3995" lon="2.92704">
        <ele>122</ele>
        <time>2019-06-23T06:40:43Z</time>
      </trkpt>
      <trkpt lat="49.39944" lon="2.92708">
        <ele>122</ele>
        <time>2019-06-23T06:40:45Z</time>
      </trkpt>
      <trkpt lat="49.39923" lon="2.92721">
        <ele>122</ele>
        <time>2019-06-23T06:40:55Z</time>
      </trkpt>
      <trkpt lat="49.39921" lon="2.92719">
        <ele>122</ele>
        <time>2019-06-23T06:40:56Z</time>
      </trkpt>
      <trkpt lat="49.39924" lon="2.92669">
        <ele>116</ele>
        <time>2019-06-23T06:41:04Z</time>
      </trkpt>
      <trkpt lat="49.39936" lon="2.92618">
        <ele>111</ele>
        <time>2019-06-23T06:41:10Z</time>
      </trkpt>
      <trkpt lat="49.39941" lon="2.92579">
        <ele>102</ele>
        <time>2019-06-23T06:41:15Z</time>
      </trkpt>
      <trkpt lat="49.39953" lon="2.92542">
        <ele>102</ele>
        <time>2019-06-23T06:41:20Z</time>
      </trkpt>
      <trkpt lat="49.39964" lon="2.9248">
        <ele>92</ele>
        <time>2019-06-23T06:41:26Z</time>
      </trkpt>
      <trkpt lat="49.39976" lon="2.92454">
        <ele>91</ele>
        <time>2019-06-23T06:41:30Z</time>
      </trkpt>
      <trkpt lat="49.39972" lon="2.92416">
        <ele>83</ele>
        <time>2019-06-23T06:41:37Z</time>
      </trkpt>
      <trkpt lat="49.39945" lon="2.92379">
        <ele>78</ele>
        <time>2019-06-23T06:41:44Z</time>
      </trkpt>
      <trkpt lat="49.39925" lon="2.92366">
        <ele>76</ele>
        <time>2019-06-23T06:41:50Z</time>
      </trkpt>
      <trkpt lat="49.3991" lon="2.9238">
        <ele>70</ele>
        <time>2019-06-23T06:41:55Z</time>
      </trkpt>
      <trkpt lat="49.39888" lon="2.92403">
        <ele>71</ele>
        <time>2019-06-23T06:42:01Z</time>
      </trkpt>
      <trkpt lat="49.39879" lon="2.92417">
        <ele>75</ele>
        <time>2019-06-23T06:42:04Z</time>
      </trkpt>
      <trkpt lat="49.39868" lon="2.9243">
        <ele>75</ele>
        <time>2019-06-23T06:42:07Z</time>
      </trkpt>
      <trkpt lat="49.39861" lon="2.92439">
        <ele>75</ele>
        <time>2019-06-23T06:42:09Z</time>
      </trkpt>
      <trkpt lat="49.3983" lon="2.92474">
        <ele>69</ele>
        <time>2019-06-23T06:42:19Z</time>
      </trkpt>
      <trkpt lat="49.39796" lon="2.92517">
        <ele>74</ele>
        <time>2019-06-23T06:42:30Z</time>
      </trkpt>
      <trkpt lat="49.39785" lon="2.92527">
        <ele>74</ele>
        <time>2019-06-23T06:42:33Z</time>
      </trkpt>
      <trkpt lat="49.39778" lon="2.92539">
        <ele>74</ele>
        <time>2019-06-23T06:42:37Z</time>
      </trkpt>
      <trkpt lat="49.39752" lon="2.926">
        <ele>79</ele>
        <time>2019-06-23T06:42:51Z</time>
      </trkpt>
      <trkpt lat="49.39732" lon="2.92659">
        <ele>76</ele>
        <time>2019-06-23T06:43:02Z</time>
      </trkpt>
      <trkpt lat="49.39716" lon="2.92705">
        <ele>77</ele>
        <time>2019-06-23T06:43:10Z</time>
      </trkpt>
      <trkpt lat="49.39711" lon="2.92719">
        <ele>77</ele>
        <time>2019-06-23T06:43:12Z</time>
      </trkpt>
      <trkpt lat="49.39693" lon="2.92773">
        <ele>78</ele>
        <time>2019-06-23T06:43:21Z</time>
      </trkpt>
      <trkpt lat="49.39677" lon="2.92822">
        <ele>77</ele>
        <time>2019-06-23T06:43:29Z</time>
      </trkpt>
      <trkpt lat="49.39674" lon="2.92828">
        <ele>76</ele>
        <time>2019-06-23T06:43:30Z</time>
      </trkpt>
      <trkpt lat="49.39652" lon="2.92897">
        <ele>70</ele>
        <time>2019-06-23T06:43:41Z</time>
      </trkpt>
      <trkpt lat="49.39646" lon="2.92913">
        <ele>70</ele>
        <time>2019-06-23T06:43:44Z</time>
      </trkpt>
      <trkpt lat="49.39631" lon="2.92959">
        <ele>68</ele>
        <time>2019-06-23T06:43:51Z</time>
      </trkpt>
      <trkpt lat="49.39619" lon="2.93016">
        <ele>67</ele>
        <time>2019-06-23T06:44:01Z</time>
      </trkpt>
      <trkpt lat="49.39619" lon="2.93022">
        <ele>67</ele>
        <time>2019-06-23T06:44:02Z</time>
      </trkpt>
      <trkpt lat="49.3963" lon="2.93084">
        <ele>69</ele>
        <time>2019-06-23T06:44:13Z</time>
      </trkpt>
      <trkpt lat="49.39641" lon="2.93123">
        <ele>71</ele>
        <time>2019-06-23T06:44:21Z</time>
      </trkpt>
      <trkpt lat="49.39654" lon="2.93166">
        <ele>74</ele>
        <time>2019-06-23T06:44:31Z</time>
      </trkpt>
      <trkpt lat="49.39656" lon="2.93178">
        <ele>74</ele>
        <time>2019-06-23T06:44:34Z</time>
      </trkpt>
      <trkpt lat="49.39659" lon="2.93189">
        <ele>73</ele>
        <time>2019-06-23T06:44:38Z</time>
      </trkpt>
      <trkpt lat="49.39661" lon="2.93196">
        <ele>72</ele>
        <time>2019-06-23T06:44:40Z</time>
      </trkpt>
      <trkpt lat="49.39662" lon="2.93202">
        <ele>72</ele>
        <time>2019-06-23T06:44:43Z</time>
      </trkpt>
      <trkpt lat="49.39668" lon="2.93224">
        <ele>78</ele>
        <time>2019-06-23T06:44:50Z</time>
      </trkpt>
      <trkpt lat="49.39672" lon="2.93253">
        <ele>75</ele>
        <time>2019-06-23T06:44:58Z</time>
      </trkpt>
      <trkpt lat="49.39677" lon="2.93276">
        <ele>75</ele>
        <time>2019-06-23T06:45:04Z</time>
      </trkpt>
      <trkpt lat="49.39684" lon="2.93314">
        <ele>73</ele>
        <time>2019-06-23T06:45:10Z</time>
      </trkpt>
      <trkpt lat="49.39674" lon="2.93342">
        <ele>69</ele>
        <time>2019-06-23T06:45:15Z</time>
      </trkpt>
      <trkpt lat="49.39663" lon="2.93364">
        <ele>65</ele>
        <time>2019-06-23T06:45:21Z</time>
      </trkpt>
      <trkpt lat="49.39639" lon="2.93402">
        <ele>63</ele>
        <time>2019-06-23T06:45:32Z</time>
      </trkpt>
      <trkpt lat="49.39618" lon="2.93402">
        <ele>62</ele>
        <time>2019-06-23T06:45:39Z</time>
      </trkpt>
      <trkpt lat="49.39613" lon="2.93399">
        <ele>62</ele>
        <time>2019-06-23T06:45:41Z</time>
      </trkpt>
      <trkpt lat="49.39576" lon="2.93404">
        <ele>57</ele>
        <time>2019-06-23T06:45:49Z</time>
      </trkpt>
      <trkpt lat="49.39554" lon="2.93416">
        <ele>55</ele>
        <time>2019-06-23T06:45:56Z</time>
      </trkpt>
      <trkpt lat="49.39542" lon="2.93397">
        <ele>54</ele>
        <time>2019-06-23T06:46:02Z</time>
      </trkpt>
      <trkpt lat="49.39536" lon="2.93361">
        <ele>54</ele>
        <time>2019-06-23T06:46:07Z</time>
      </trkpt>
      <trkpt lat="49.39532" lon="2.93311">
        <ele>54</ele>
        <time>2019-06-23T06:46:13Z</time>
      </trkpt>
      <trkpt lat="49.39514" lon="2.93285">
        <ele>53</ele>
        <time>2019-06-23T06:46:18Z</time>
      </trkpt>
      <trkpt lat="49.39458" lon="2.93266">
        <ele>48</ele>
        <time>2019-06-23T06:46:28Z</time>
      </trkpt>
      <trkpt lat="49.39436" lon="2.9326">
        <ele>48</ele>
        <time>2019-06-23T06:46:32Z</time>
      </trkpt>
      <trkpt lat="49.39363" lon="2.93267">
        <ele>48</ele>
        <time>2019-06-23T06:46:46Z</time>
      </trkpt>
      <trkpt lat="49.39349" lon="2.93268">
        <ele>48</ele>
        <time>2019-06-23T06:46:49Z</time>
      </trkpt>
      <trkpt lat="49.393" lon="2.93275">
        <ele>49</ele>
        <time>2019-06-23T06:47:01Z</time>
      </trkpt>
      <trkpt lat="49.39289" lon="2.93277">
        <ele>49</ele>
        <time>2019-06-23T06:47:04Z</time>
      </trkpt>
      <trkpt lat="49.39258" lon="2.933">
        <ele>49</ele>
        <time>2019-06-23T06:47:13Z</time>
      </trkpt>
      <trkpt lat="49.39243" lon="2.93315">
        <ele>50</ele>
        <time>2019-06-23T06:47:17Z</time>
      </trkpt>
      <trkpt lat="49.39189" lon="2.93374">
        <ele>48</ele>
        <time>2019-06-23T06:47:31Z</time>
      </trkpt>
      <trkpt lat="49.39171" lon="2.93388">
        <ele>48</ele>
        <time>2019-06-23T06:47:35Z</time>
      </trkpt>
      <trkpt lat="49.39149" lon="2.93412">
        <ele>50</ele>
        <time>2019-06-23T06:47:41Z</time>
      </trkpt>
      <trkpt lat="49.39128" lon="2.93458">
        <ele>50</ele>
        <time>2019-06-23T06:47:49Z</time>
      </trkpt>
      <trkpt lat="49.39116" lon="2.935">
        <ele>50</ele>
        <time>2019-06-23T06:47:56Z</time>
      </trkpt>
      <trkpt lat="49.39107" lon="2.93522">
        <ele>49</ele>
        <time>2019-06-23T06:48:00Z</time>
      </trkpt>
      <trkpt lat="49.39099" lon="2.93538">
        <ele>49</ele>
        <time>2019-06-23T06:48:03Z</time>
      </trkpt>
      <trkpt lat="49.39082" lon="2.93569">
        <ele>51</ele>
        <time>2019-06-23T06:48:09Z</time>
      </trkpt>
      <trkpt lat="49.39073" lon="2.93589">
        <ele>50</ele>
        <time>2019-06-23T06:48:13Z</time>
      </trkpt>
      <trkpt lat="49.39067" lon="2.936">
        <ele>50</ele>
        <time>2019-06-23T06:48:15Z</time>
      </trkpt>
      <trkpt lat="49.39056" lon="2.93621">
        <ele>50</ele>
        <time>2019-06-23T06:48:19Z</time>
      </trkpt>
      <trkpt lat="49.39036" lon="2.93661">
        <ele>50</ele>
        <time>2019-06-23T06:48:26Z</time>
      </trkpt>
      <trkpt lat="49.39032" lon="2.93674">
        <ele>50</ele>
        <time>2019-06-23T06:48:28Z</time>
      </trkpt>
      <trkpt lat="49.39026" lon="2.93694">
        <ele>50</ele>
        <time>2019-06-23T06:48:31Z</time>
      </trkpt>
      <trkpt lat="49.39014" lon="2.93738">
        <ele>51</ele>
        <time>2019-06-23T06:48:37Z</time>
      </trkpt>
      <trkpt lat="49.39005" lon="2.93772">
        <ele>51</ele>
        <time>2019-06-23T06:48:42Z</time>
      </trkpt>
      <trkpt lat="49.38989" lon="2.93769">
        <ele>54</ele>
        <time>2019-06-23T06:48:47Z</time>
      </trkpt>
      <trkpt lat="49.38982" lon="2.93762">
        <ele>54</ele>
        <time>2019-06-23T06:48:49Z</time>
      </trkpt>
      <trkpt lat="49.38931" lon="2.93719">
        <ele>55</ele>
        <time>2019-06-23T06:49:02Z</time>
      </trkpt>
      <trkpt lat="49.38887" lon="2.93681">
        <ele>54</ele>
        <time>2019-06-23T06:49:14Z</time>
      </trkpt>
      <trkpt lat="49.38869" lon="2.93697">
        <ele>54</ele>
        <time>2019-06-23T06:49:22Z</time>
      </trkpt>
      <trkpt lat="49.3887" lon="2.93697">
        <ele>54</ele>
        <time>2019-06-23T06:49:24Z</time>
      </trkpt>
      <trkpt lat="49.38871" lon="2.93692">
        <ele>54</ele>
        <time>2019-06-23T06:49:27Z</time>
      </trkpt>
      <trkpt lat="49.38863" lon="2.937">
        <ele>54</ele>
        <time>2019-06-23T06:49:32Z</time>
      </trkpt>
      <trkpt lat="49.38851" lon="2.93729">
        <ele>55</ele>
        <time>2019-06-23T06:49:39Z</time>
      </trkpt>
      <trkpt lat="49.38842" lon="2.93746">
        <ele>55</ele>
        <time>2019-06-23T06:49:45Z</time>
      </trkpt>
      <trkpt lat="49.38807" lon="2.93765">
        <ele>55</ele>
        <time>2019-06-23T06:49:56Z</time>
      </trkpt>
      <trkpt lat="49.38791" lon="2.93773">
        <ele>55</ele>
        <time>2019-06-23T06:50:00Z</time>
      </trkpt>
      <trkpt lat="49.38773" lon="2.93778">
        <ele>55</ele>
        <time>2019-06-23T06:50:05Z</time>
      </trkpt>
      <trkpt lat="49.38744" lon="2.93787">
        <ele>54</ele>
        <time>2019-06-23T06:50:13Z</time>
      </trkpt>
      <trkpt lat="49.38722" lon="2.93793">
        <ele>54</ele>
        <time>2019-06-23T06:50:18Z</time>
      </trkpt>
      <trkpt lat="49.387" lon="2.93797">
        <ele>55</ele>
        <time>2019-06-23T06:50:23Z</time>
      </trkpt>
      <trkpt lat="49.38686" lon="2.938">
        <ele>55</ele>
        <time>2019-06-23T06:50:26Z</time>
      </trkpt>
      <trkpt lat="49.38631" lon="2.93816">
        <ele>55</ele>
        <time>2019-06-23T06:50:37Z</time>
      </trkpt>
      <trkpt lat="49.38616" lon="2.93818">
        <ele>55</ele>
        <time>2019-06-23T06:50:40Z</time>
      </trkpt>
      <trkpt lat="49.38592" lon="2.93825">
        <ele>54</ele>
        <time>2019-06-23T06:50:45Z</time>
      </trkpt>
      <trkpt lat="49.38576" lon="2.93828">
        <ele>54</ele>
        <time>2019-06-23T06:50:48Z</time>
      </trkpt>
      <trkpt lat="49.38565" lon="2.93831">
        <ele>54</ele>
        <time>2019-06-23T06:50:50Z</time>
      </trkpt>
      <trkpt lat="49.3853" lon="2.93839">
        <ele>53</ele>
        <time>2019-06-23T06:50:57Z</time>
      </trkpt>
      <trkpt lat="49.38504" lon="2.93853">
        <ele>53</ele>
        <time>2019-06-23T06:51:03Z</time>
      </trkpt>
      <trkpt lat="49.38487" lon="2.93866">
        <ele>53</ele>
        <time>2019-06-23T06:51:07Z</time>
      </trkpt>
      <trkpt lat="49.3846" lon="2.93892">
        <ele>53</ele>
        <time>2019-06-23T06:51:13Z</time>
      </trkpt>
      <trkpt lat="49.38417" lon="2.93934">
        <ele>53</ele>
        <time>2019-06-23T06:51:23Z</time>
      </trkpt>
      <trkpt lat="49.38405" lon="2.93945">
        <ele>52</ele>
        <time>2019-06-23T06:51:26Z</time>
      </trkpt>
      <trkpt lat="49.38388" lon="2.93959">
        <ele>53</ele>
        <time>2019-06-23T06:51:30Z</time>
      </trkpt>
      <trkpt lat="49.38363" lon="2.93982">
        <ele>52</ele>
        <time>2019-06-23T06:51:36Z</time>
      </trkpt>
      <trkpt lat="49.38354" lon="2.93989">
        <ele>52</ele>
        <time>2019-06-23T06:51:38Z</time>
      </trkpt>
      <trkpt lat="49.38343" lon="2.94003">
        <ele>52</ele>
        <time>2019-06-23T06:51:41Z</time>
      </trkpt>
      <trkpt lat="49.38326" lon="2.94018">
        <ele>52</ele>
        <time>2019-06-23T06:51:45Z</time>
      </trkpt>
      <trkpt lat="49.38309" lon="2.94033">
        <ele>52</ele>
        <time>2019-06-23T06:51:49Z</time>
      </trkpt>
      <trkpt lat="49.38291" lon="2.94047">
        <ele>52</ele>
        <time>2019-06-23T06:51:53Z</time>
      </trkpt>
      <trkpt lat="49.38283" lon="2.94056">
        <ele>52</ele>
        <time>2019-06-23T06:51:55Z</time>
      </trkpt>
      <trkpt lat="49.38275" lon="2.94066">
        <ele>52</ele>
        <time>2019-06-23T06:51:57Z</time>
      </trkpt>
      <trkpt lat="49.38249" lon="2.94093">
        <ele>53</ele>
        <time>2019-06-23T06:52:03Z</time>
      </trkpt>
      <trkpt lat="49.38237" lon="2.94107">
        <ele>54</ele>
        <time>2019-06-23T06:52:06Z</time>
      </trkpt>
      <trkpt lat="49.382" lon="2.9414">
        <ele>56</ele>
        <time>2019-06-23T06:52:15Z</time>
      </trkpt>
      <trkpt lat="49.38185" lon="2.94154">
        <ele>58</ele>
        <time>2019-06-23T06:52:19Z</time>
      </trkpt>
      <trkpt lat="49.38165" lon="2.94171">
        <ele>62</ele>
        <time>2019-06-23T06:52:26Z</time>
      </trkpt>
      <trkpt lat="49.38129" lon="2.9418">
        <ele>64</ele>
        <time>2019-06-23T06:52:37Z</time>
      </trkpt>
      <trkpt lat="49.38071" lon="2.94198">
        <ele>65</ele>
        <time>2019-06-23T06:52:52Z</time>
      </trkpt>
      <trkpt lat="49.3803" lon="2.9422">
        <ele>65</ele>
        <time>2019-06-23T06:53:04Z</time>
      </trkpt>
      <trkpt lat="49.37988" lon="2.94239">
        <ele>65</ele>
        <time>2019-06-23T06:53:16Z</time>
      </trkpt>
      <trkpt lat="49.37961" lon="2.94277">
        <ele>69</ele>
        <time>2019-06-23T06:53:27Z</time>
      </trkpt>
      <trkpt lat="49.37949" lon="2.94284">
        <ele>70</ele>
        <time>2019-06-23T06:53:32Z</time>
      </trkpt>
      <trkpt lat="49.37913" lon="2.9428">
        <ele>77</ele>
        <time>2019-06-23T06:53:43Z</time>
      </trkpt>
      <trkpt lat="49.37898" lon="2.94289">
        <ele>78</ele>
        <time>2019-06-23T06:53:53Z</time>
      </trkpt>
      <trkpt lat="49.37883" lon="2.94318">
        <ele>80</ele>
        <time>2019-06-23T06:54:05Z</time>
      </trkpt>
      <trkpt lat="49.37875" lon="2.94346">
        <ele>84</ele>
        <time>2019-06-23T06:54:15Z</time>
      </trkpt>
      <trkpt lat="49.37869" lon="2.94365">
        <ele>85</ele>
        <time>2019-06-23T06:54:26Z</time>
      </trkpt>
      <trkpt lat="49.37867" lon="2.94374">
        <ele>86</ele>
        <time>2019-06-23T06:54:31Z</time>
      </trkpt>
      <trkpt lat="49.3786" lon="2.94385">
        <ele>87</ele>
        <time>2019-06-23T06:54:39Z</time>
      </trkpt>
      <trkpt lat="49.37858" lon="2.94404">
        <ele>88</ele>
        <time>2019-06-23T06:54:50Z</time>
      </trkpt>
      <trkpt lat="49.37858" lon="2.94408">
        <ele>88</ele>
        <time>2019-06-23T06:54:53Z</time>
      </trkpt>
      <trkpt lat="49.37853" lon="2.94415">
        <ele>89</ele>
        <time>2019-06-23T06:54:57Z</time>
      </trkpt>
      <trkpt lat="49.37847" lon="2.94426">
        <ele>93</ele>
        <time>2019-06-23T06:55:04Z</time>
      </trkpt>
      <trkpt lat="49.37843" lon="2.94438">
        <ele>93</ele>
        <time>2019-06-23T06:55:09Z</time>
      </trkpt>
      <trkpt lat="49.3784" lon="2.94445">
        <ele>93</ele>
        <time>2019-06-23T06:55:13Z</time>
      </trkpt>
      <trkpt lat="49.37839" lon="2.94455">
        <ele>93</ele>
        <time>2019-06-23T06:55:18Z</time>
      </trkpt>
      <trkpt lat="49.37834" lon="2.94462">
        <ele>93</ele>
        <time>2019-06-23T06:55:31Z</time>
      </trkpt>
      <trkpt lat="49.3783" lon="2.94475">
        <ele>104</ele>
        <time>2019-06-23T06:55:42Z</time>
      </trkpt>
      <trkpt lat="49.37827" lon="2.9448">
        <ele>104</ele>
        <time>2019-06-23T06:55:46Z</time>
      </trkpt>
      <trkpt lat="49.37823" lon="2.94485">
        <ele>104</ele>
        <time>2019-06-23T06:55:52Z</time>
      </trkpt>
      <trkpt lat="49.37819" lon="2.94501">
        <ele>107</ele>
        <time>2019-06-23T06:56:04Z</time>
      </trkpt>
      <trkpt lat="49.3782" lon="2.94506">
        <ele>107</ele>
        <time>2019-06-23T06:56:14Z</time>
      </trkpt>
      <trkpt lat="49.3782" lon="2.94506">
        <ele>107</ele>
        <time>2019-06-23T06:56:17Z</time>
      </trkpt>
      <trkpt lat="49.37818" lon="2.94507">
        <ele>107</ele>
        <time>2019-06-23T06:56:19Z</time>
      </trkpt>
      <trkpt lat="49.37811" lon="2.9452">
        <ele>110</ele>
        <time>2019-06-23T06:56:30Z</time>
      </trkpt>
      <trkpt lat="49.37811" lon="2.94521">
        <ele>110</ele>
        <time>2019-06-23T06:56:31Z</time>
      </trkpt>
      <trkpt lat="49.37802" lon="2.94541">
        <ele>112</ele>
        <time>2019-06-23T06:56:47Z</time>
      </trkpt>
      <trkpt lat="49.37802" lon="2.94542">
        <ele>113</ele>
        <time>2019-06-23T06:56:48Z</time>
      </trkpt>
      <trkpt lat="49.37801" lon="2.94549">
        <ele>113</ele>
        <time>2019-06-23T06:56:51Z</time>
      </trkpt>
      <trkpt lat="49.37797" lon="2.94563">
        <ele>113</ele>
        <time>2019-06-23T06:57:03Z</time>
      </trkpt>
      <trkpt lat="49.37794" lon="2.94573">
        <ele>114</ele>
        <time>2019-06-23T06:57:13Z</time>
      </trkpt>
      <trkpt lat="49.37791" lon="2.94585">
        <ele>114</ele>
        <time>2019-06-23T06:57:23Z</time>
      </trkpt>
      <trkpt lat="49.37788" lon="2.94597">
        <ele>115</ele>
        <time>2019-06-23T06:57:33Z</time>
      </trkpt>
      <trkpt lat="49.37789" lon="2.94602">
        <ele>114</ele>
        <time>2019-06-23T06:57:45Z</time>
      </trkpt>
      <trkpt lat="49.37787" lon="2.94608">
        <ele>115</ele>
        <time>2019-06-23T06:57:48Z</time>
      </trkpt>
      <trkpt lat="49.37777" lon="2.94626">
        <ele>116</ele>
        <time>2019-06-23T06:57:58Z</time>
      </trkpt>
      <trkpt lat="49.37773" lon="2.9464">
        <ele>116</ele>
        <time>2019-06-23T06:58:05Z</time>
      </trkpt>
      <trkpt lat="49.37761" lon="2.94654">
        <ele>118</ele>
        <time>2019-06-23T06:58:16Z</time>
      </trkpt>
      <trkpt lat="49.37751" lon="2.94662">
        <ele>121</ele>
        <time>2019-06-23T06:58:24Z</time>
      </trkpt>
      <trkpt lat="49.37737" lon="2.94681">
        <ele>126</ele>
        <time>2019-06-23T06:58:38Z</time>
      </trkpt>
      <trkpt lat="49.37725" lon="2.94698">
        <ele>128</ele>
        <time>2019-06-23T06:58:50Z</time>
      </trkpt>
      <trkpt lat="49.37716" lon="2.94716">
        <ele>128</ele>
        <time>2019-06-23T06:59:03Z</time>
      </trkpt>
      <trkpt lat="49.37713" lon="2.94725">
        <ele>129</ele>
        <time>2019-06-23T06:59:09Z</time>
      </trkpt>
      <trkpt lat="49.37706" lon="2.94747">
        <ele>129</ele>
        <time>2019-06-23T06:59:20Z</time>
      </trkpt>
      <trkpt lat="49.37696" lon="2.94767">
        <ele>128</ele>
        <time>2019-06-23T06:59:31Z</time>
      </trkpt>
      <trkpt lat="49.37688" lon="2.94783">
        <ele>128</ele>
        <time>2019-06-23T06:59:42Z</time>
      </trkpt>
      <trkpt lat="49.37691" lon="2.94817">
        <ele>128</ele>
        <time>2019-06-23T06:59:51Z</time>
      </trkpt>
      <trkpt lat="49.37692" lon="2.94811">
        <ele>127</ele>
        <time>2019-06-23T06:59:58Z</time>
      </trkpt>
      <trkpt lat="49.37691" lon="2.94815">
        <ele>128</ele>
        <time>2019-06-23T07:00:02Z</time>
      </trkpt>
      <trkpt lat="49.37688" lon="2.94798">
        <ele>128</ele>
        <time>2019-06-23T07:00:09Z</time>
      </trkpt>
      <trkpt lat="49.3768" lon="2.94781">
        <ele>129</ele>
        <time>2019-06-23T07:00:18Z</time>
      </trkpt>
      <trkpt lat="49.37668" lon="2.94776">
        <ele>130</ele>
        <time>2019-06-23T07:00:28Z</time>
      </trkpt>
      <trkpt lat="49.37645" lon="2.94784">
        <ele>138</ele>
        <time>2019-06-23T07:00:40Z</time>
      </trkpt>
      <trkpt lat="49.37624" lon="2.94801">
        <ele>138</ele>
        <time>2019-06-23T07:00:48Z</time>
      </trkpt>
      <trkpt lat="49.37615" lon="2.94814">
        <ele>138</ele>
        <time>2019-06-23T07:00:52Z</time>
      </trkpt>
      <trkpt lat="49.3759" lon="2.94859">
        <ele>136</ele>
        <time>2019-06-23T07:01:05Z</time>
      </trkpt>
      <trkpt lat="49.37581" lon="2.94871">
        <ele>138</ele>
        <time>2019-06-23T07:01:15Z</time>
      </trkpt>
      <trkpt lat="49.37576" lon="2.94874">
        <ele>138</ele>
        <time>2019-06-23T07:01:19Z</time>
      </trkpt>
      <trkpt lat="49.37565" lon="2.94869">
        <ele>138</ele>
        <time>2019-06-23T07:01:25Z</time>
      </trkpt>
      <trkpt lat="49.37561" lon="2.94865">
        <ele>138</ele>
        <time>2019-06-23T07:01:27Z</time>
      </trkpt>
      <trkpt lat="49.37547" lon="2.94841">
        <ele>139</ele>
        <time>2019-06-23T07:01:34Z</time>
      </trkpt>
      <trkpt lat="49.37528" lon="2.94785">
        <ele>141</ele>
        <time>2019-06-23T07:01:45Z</time>
      </trkpt>
      <trkpt lat="49.37521" lon="2.94758">
        <ele>141</ele>
        <time>2019-06-23T07:01:50Z</time>
      </trkpt>
      <trkpt lat="49.37512" lon="2.94727">
        <ele>141</ele>
        <time>2019-06-23T07:01:55Z</time>
      </trkpt>
      <trkpt lat="49.375" lon="2.94686">
        <ele>141</ele>
        <time>2019-06-23T07:02:02Z</time>
      </trkpt>
      <trkpt lat="49.37494" lon="2.94645">
        <ele>141</ele>
        <time>2019-06-23T07:02:08Z</time>
      </trkpt>
      <trkpt lat="49.37491" lon="2.94619">
        <ele>140</ele>
        <time>2019-06-23T07:02:12Z</time>
      </trkpt>
      <trkpt lat="49.3749" lon="2.94586">
        <ele>140</ele>
        <time>2019-06-23T07:02:17Z</time>
      </trkpt>
      <trkpt lat="49.37487" lon="2.94556">
        <ele>139</ele>
        <time>2019-06-23T07:02:21Z</time>
      </trkpt>
      <trkpt lat="49.37478" lon="2.94505">
        <ele>138</ele>
        <time>2019-06-23T07:02:27Z</time>
      </trkpt>
      <trkpt lat="49.37475" lon="2.94478">
        <ele>136</ele>
        <time>2019-06-23T07:02:30Z</time>
      </trkpt>
      <trkpt lat="49.37462" lon="2.94425">
        <ele>135</ele>
        <time>2019-06-23T07:02:36Z</time>
      </trkpt>
      <trkpt lat="49.37447" lon="2.94378">
        <ele>129</ele>
        <time>2019-06-23T07:02:44Z</time>
      </trkpt>
      <trkpt lat="49.3744" lon="2.94351">
        <ele>128</ele>
        <time>2019-06-23T07:02:49Z</time>
      </trkpt>
      <trkpt lat="49.37432" lon="2.94321">
        <ele>120</ele>
        <time>2019-06-23T07:02:52Z</time>
      </trkpt>
      <trkpt lat="49.37414" lon="2.94274">
        <ele>113</ele>
        <time>2019-06-23T07:02:57Z</time>
      </trkpt>
      <trkpt lat="49.37406" lon="2.94254">
        <ele>111</ele>
        <time>2019-06-23T07:02:59Z</time>
      </trkpt>
      <trkpt lat="49.37395" lon="2.94213">
        <ele>100</ele>
        <time>2019-06-23T07:03:03Z</time>
      </trkpt>
      <trkpt lat="49.37374" lon="2.94138">
        <ele>89</ele>
        <time>2019-06-23T07:03:11Z</time>
      </trkpt>
      <trkpt lat="49.37359" lon="2.94103">
        <ele>87</ele>
        <time>2019-06-23T07:03:15Z</time>
      </trkpt>
      <trkpt lat="49.3735" lon="2.94065">
        <ele>80</ele>
        <time>2019-06-23T07:03:20Z</time>
      </trkpt>
      <trkpt lat="49.37342" lon="2.94038">
        <ele>79</ele>
        <time>2019-06-23T07:03:23Z</time>
      </trkpt>
      <trkpt lat="49.3733" lon="2.93988">
        <ele>75</ele>
        <time>2019-06-23T07:03:31Z</time>
      </trkpt>
      <trkpt lat="49.37325" lon="2.93969">
        <ele>76</ele>
        <time>2019-06-23T07:03:34Z</time>
      </trkpt>
      <trkpt lat="49.37315" lon="2.93966">
        <ele>76</ele>
        <time>2019-06-23T07:03:39Z</time>
      </trkpt>
      <trkpt lat="49.37288" lon="2.93983">
        <ele>76</ele>
        <time>2019-06-23T07:03:49Z</time>
      </trkpt>
      <trkpt lat="49.37265" lon="2.93999">
        <ele>76</ele>
        <time>2019-06-23T07:03:55Z</time>
      </trkpt>
      <trkpt lat="49.37245" lon="2.9402">
        <ele>78</ele>
        <time>2019-06-23T07:04:01Z</time>
      </trkpt>
      <trkpt lat="49.37223" lon="2.94042">
        <ele>79</ele>
        <time>2019-06-23T07:04:07Z</time>
      </trkpt>
      <trkpt lat="49.37181" lon="2.94093">
        <ele>80</ele>
        <time>2019-06-23T07:04:21Z</time>
      </trkpt>
      <trkpt lat="49.37174" lon="2.941">
        <ele>80</ele>
        <time>2019-06-23T07:04:23Z</time>
      </trkpt>
      <trkpt lat="49.37135" lon="2.94144">
        <ele>79</ele>
        <time>2019-06-23T07:04:35Z</time>
      </trkpt>
      <trkpt lat="49.37121" lon="2.94162">
        <ele>79</ele>
        <time>2019-06-23T07:04:39Z</time>
      </trkpt>
      <trkpt lat="49.3708" lon="2.94228">
        <ele>78</ele>
        <time>2019-06-23T07:04:52Z</time>
      </trkpt>
      <trkpt lat="49.37056" lon="2.94265">
        <ele>79</ele>
        <time>2019-06-23T07:04:59Z</time>
      </trkpt>
      <trkpt lat="49.37042" lon="2.94285">
        <ele>79</ele>
        <time>2019-06-23T07:05:03Z</time>
      </trkpt>
      <trkpt lat="49.37002" lon="2.9436">
        <ele>80</ele>
        <time>2019-06-23T07:05:15Z</time>
      </trkpt>
      <trkpt lat="49.36991" lon="2.94388">
        <ele>78</ele>
        <time>2019-06-23T07:05:19Z</time>
      </trkpt>
      <trkpt lat="49.36941" lon="2.94472">
        <ele>79</ele>
        <time>2019-06-23T07:05:33Z</time>
      </trkpt>
      <trkpt lat="49.36928" lon="2.9451">
        <ele>78</ele>
        <time>2019-06-23T07:05:38Z</time>
      </trkpt>
      <trkpt lat="49.36887" lon="2.94613">
        <ele>76</ele>
        <time>2019-06-23T07:05:52Z</time>
      </trkpt>
      <trkpt lat="49.36881" lon="2.94627">
        <ele>76</ele>
        <time>2019-06-23T07:05:54Z</time>
      </trkpt>
      <trkpt lat="49.36868" lon="2.94652">
        <ele>76</ele>
        <time>2019-06-23T07:05:58Z</time>
      </trkpt>
      <trkpt lat="49.36844" lon="2.94704">
        <ele>76</ele>
        <time>2019-06-23T07:06:06Z</time>
      </trkpt>
      <trkpt lat="49.36832" lon="2.9473">
        <ele>77</ele>
        <time>2019-06-23T07:06:10Z</time>
      </trkpt>
      <trkpt lat="49.36825" lon="2.94743">
        <ele>77</ele>
        <time>2019-06-23T07:06:12Z</time>
      </trkpt>
      <trkpt lat="49.36781" lon="2.94838">
        <ele>82</ele>
        <time>2019-06-23T07:06:25Z</time>
      </trkpt>
      <trkpt lat="49.36754" lon="2.94895">
        <ele>81</ele>
        <time>2019-06-23T07:06:33Z</time>
      </trkpt>
      <trkpt lat="49.36743" lon="2.94918">
        <ele>80</ele>
        <time>2019-06-23T07:06:36Z</time>
      </trkpt>
      <trkpt lat="49.36695" lon="2.95024">
        <ele>76</ele>
        <time>2019-06-23T07:06:50Z</time>
      </trkpt>
      <trkpt lat="49.36679" lon="2.95049">
        <ele>75</ele>
        <time>2019-06-23T07:06:54Z</time>
      </trkpt>
      <trkpt lat="49.36649" lon="2.95104">
        <ele>74</ele>
        <time>2019-06-23T07:07:02Z</time>
      </trkpt>
      <trkpt lat="49.36637" lon="2.95126">
        <ele>74</ele>
        <time>2019-06-23T07:07:05Z</time>
      </trkpt>
      <trkpt lat="49.36609" lon="2.95175">
        <ele>73</ele>
        <time>2019-06-23T07:07:12Z</time>
      </trkpt>
      <trkpt lat="49.36592" lon="2.95214">
        <ele>72</ele>
        <time>2019-06-23T07:07:17Z</time>
      </trkpt>
      <trkpt lat="49.36551" lon="2.9529">
        <ele>71</ele>
        <time>2019-06-23T07:07:28Z</time>
      </trkpt>
      <trkpt lat="49.36537" lon="2.9532">
        <ele>70</ele>
        <time>2019-06-23T07:07:32Z</time>
      </trkpt>
      <trkpt lat="49.36502" lon="2.95399">
        <ele>66</ele>
        <time>2019-06-23T07:07:42Z</time>
      </trkpt>
      <trkpt lat="49.36489" lon="2.95435">
        <ele>67</ele>
        <time>2019-06-23T07:07:46Z</time>
      </trkpt>
      <trkpt lat="49.36478" lon="2.95474">
        <ele>67</ele>
        <time>2019-06-23T07:07:51Z</time>
      </trkpt>
      <trkpt lat="49.36464" lon="2.95507">
        <ele>66</ele>
        <time>2019-06-23T07:07:56Z</time>
      </trkpt>
      <trkpt lat="49.36444" lon="2.95543">
        <ele>67</ele>
        <time>2019-06-23T07:08:01Z</time>
      </trkpt>
      <trkpt lat="49.36424" lon="2.95597">
        <ele>67</ele>
        <time>2019-06-23T07:08:08Z</time>
      </trkpt>
      <trkpt lat="49.36417" lon="2.95612">
        <ele>67</ele>
        <time>2019-06-23T07:08:10Z</time>
      </trkpt>
      <trkpt lat="49.36409" lon="2.95625">
        <ele>69</ele>
        <time>2019-06-23T07:08:12Z</time>
      </trkpt>
      <trkpt lat="49.36395" lon="2.95651">
        <ele>68</ele>
        <time>2019-06-23T07:08:16Z</time>
      </trkpt>
      <trkpt lat="49.36387" lon="2.95663">
        <ele>69</ele>
        <time>2019-06-23T07:08:18Z</time>
      </trkpt>
      <trkpt lat="49.36337" lon="2.95778">
        <ele>67</ele>
        <time>2019-06-23T07:08:33Z</time>
      </trkpt>
      <trkpt lat="49.3632" lon="2.95819">
        <ele>69</ele>
        <time>2019-06-23T07:08:40Z</time>
      </trkpt>
      <trkpt lat="49.36308" lon="2.95835">
        <ele>69</ele>
        <time>2019-06-23T07:08:43Z</time>
      </trkpt>
      <trkpt lat="49.36272" lon="2.95916">
        <ele>70</ele>
        <time>2019-06-23T07:08:54Z</time>
      </trkpt>
      <trkpt lat="49.36267" lon="2.9593">
        <ele>70</ele>
        <time>2019-06-23T07:08:56Z</time>
      </trkpt>
      <trkpt lat="49.36235" lon="2.95995">
        <ele>70</ele>
        <time>2019-06-23T07:09:07Z</time>
      </trkpt>
      <trkpt lat="49.36209" lon="2.96047">
        <ele>71</ele>
        <time>2019-06-23T07:09:16Z</time>
      </trkpt>
      <trkpt lat="49.36173" lon="2.96113">
        <ele>71</ele>
        <time>2019-06-23T07:09:27Z</time>
      </trkpt>
      <trkpt lat="49.36156" lon="2.96169">
        <ele>74</ele>
        <time>2019-06-23T07:09:39Z</time>
      </trkpt>
      <trkpt lat="49.36153" lon="2.96186">
        <ele>75</ele>
        <time>2019-06-23T07:09:43Z</time>
      </trkpt>
      <trkpt lat="49.36146" lon="2.96213">
        <ele>75</ele>
        <time>2019-06-23T07:09:58Z</time>
      </trkpt>
      <trkpt lat="49.36146" lon="2.96215">
        <ele>75</ele>
        <time>2019-06-23T07:10:11Z</time>
      </trkpt>
      <trkpt lat="49.36154" lon="2.96203">
        <ele>75</ele>
        <time>2019-06-23T07:10:18Z</time>
      </trkpt>
      <trkpt lat="49.36165" lon="2.96177">
        <ele>74</ele>
        <time>2019-06-23T07:10:23Z</time>
      </trkpt>
      <trkpt lat="49.3617" lon="2.96167">
        <ele>73</ele>
        <time>2019-06-23T07:10:25Z</time>
      </trkpt>
      <trkpt lat="49.36189" lon="2.96124">
        <ele>71</ele>
        <time>2019-06-23T07:10:33Z</time>
      </trkpt>
      <trkpt lat="49.36202" lon="2.96093">
        <ele>71</ele>
        <time>2019-06-23T07:10:38Z</time>
      </trkpt>
      <trkpt lat="49.36222" lon="2.96055">
        <ele>70</ele>
        <time>2019-06-23T07:10:44Z</time>
      </trkpt>
      <trkpt lat="49.36229" lon="2.96045">
        <ele>70</ele>
        <time>2019-06-23T07:10:46Z</time>
      </trkpt>
      <trkpt lat="49.36241" lon="2.9602">
        <ele>70</ele>
        <time>2019-06-23T07:10:50Z</time>
      </trkpt>
      <trkpt lat="49.36249" lon="2.96007">
        <ele>69</ele>
        <time>2019-06-23T07:10:52Z</time>
      </trkpt>
      <trkpt lat="49.36256" lon="2.95994">
        <ele>69</ele>
        <time>2019-06-23T07:10:54Z</time>
      </trkpt>
      <trkpt lat="49.36262" lon="2.9598">
        <ele>69</ele>
        <time>2019-06-23T07:10:56Z</time>
      </trkpt>
      <trkpt lat="49.36275" lon="2.95952">
        <ele>69</ele>
        <time>2019-06-23T07:11:00Z</time>
      </trkpt>
      <trkpt lat="49.36294" lon="2.95903">
        <ele>70</ele>
        <time>2019-06-23T07:11:08Z</time>
      </trkpt>
      <trkpt lat="49.36303" lon="2.95877">
        <ele>70</ele>
        <time>2019-06-23T07:11:12Z</time>
      </trkpt>
      <trkpt lat="49.36318" lon="2.95854">
        <ele>69</ele>
        <time>2019-06-23T07:11:21Z</time>
      </trkpt>
      <trkpt lat="49.36321" lon="2.95846">
        <ele>69</ele>
        <time>2019-06-23T07:11:40Z</time>
      </trkpt>
      <trkpt lat="49.36308" lon="2.95863">
        <ele>69</ele>
        <time>2019-06-23T07:11:49Z</time>
      </trkpt>
      <trkpt lat="49.36303" lon="2.95878">
        <ele>70</ele>
        <time>2019-06-23T07:12:01Z</time>
      </trkpt>
      <trkpt lat="49.36285" lon="2.95908">
        <ele>70</ele>
        <time>2019-06-23T07:12:10Z</time>
      </trkpt>
      <trkpt lat="49.36282" lon="2.95912">
        <ele>70</ele>
        <time>2019-06-23T07:12:11Z</time>
      </trkpt>
      <trkpt lat="49.36252" lon="2.95972">
        <ele>69</ele>
        <time>2019-06-23T07:12:23Z</time>
      </trkpt>
      <trkpt lat="49.36225" lon="2.9601">
        <ele>70</ele>
        <time>2019-06-23T07:12:34Z</time>
      </trkpt>
      <trkpt lat="49.36213" lon="2.96025">
        <ele>71</ele>
        <time>2019-06-23T07:12:38Z</time>
      </trkpt>
      <trkpt lat="49.36182" lon="2.96101">
        <ele>71</ele>
        <time>2019-06-23T07:12:51Z</time>
      </trkpt>
      <trkpt lat="49.36158" lon="2.96148">
        <ele>75</ele>
        <time>2019-06-23T07:13:00Z</time>
      </trkpt>
      <trkpt lat="49.36123" lon="2.96229">
        <ele>77</ele>
        <time>2019-06-23T07:13:12Z</time>
      </trkpt>
      <trkpt lat="49.36109" lon="2.96254">
        <ele>77</ele>
        <time>2019-06-23T07:13:16Z</time>
      </trkpt>
      <trkpt lat="49.36093" lon="2.96307">
        <ele>76</ele>
        <time>2019-06-23T07:13:22Z</time>
      </trkpt>
      <trkpt lat="49.36072" lon="2.9637">
        <ele>77</ele>
        <time>2019-06-23T07:13:31Z</time>
      </trkpt>
      <trkpt lat="49.36055" lon="2.96412">
        <ele>78</ele>
        <time>2019-06-23T07:13:37Z</time>
      </trkpt>
      <trkpt lat="49.36029" lon="2.96475">
        <ele>79</ele>
        <time>2019-06-23T07:13:46Z</time>
      </trkpt>
      <trkpt lat="49.36005" lon="2.96527">
        <ele>79</ele>
        <time>2019-06-23T07:13:54Z</time>
      </trkpt>
      <trkpt lat="49.35994" lon="2.96552">
        <ele>83</ele>
        <time>2019-06-23T07:13:58Z</time>
      </trkpt>
      <trkpt lat="49.35983" lon="2.96577">
        <ele>83</ele>
        <time>2019-06-23T07:14:02Z</time>
      </trkpt>
      <trkpt lat="49.35973" lon="2.96594">
        <ele>83</ele>
        <time>2019-06-23T07:14:05Z</time>
      </trkpt>
      <trkpt lat="49.35962" lon="2.96608">
        <ele>83</ele>
        <time>2019-06-23T07:14:08Z</time>
      </trkpt>
      <trkpt lat="49.35936" lon="2.96667">
        <ele>80</ele>
        <time>2019-06-23T07:14:18Z</time>
      </trkpt>
      <trkpt lat="49.35909" lon="2.96725">
        <ele>81</ele>
        <time>2019-06-23T07:14:29Z</time>
      </trkpt>
      <trkpt lat="49.35897" lon="2.96752">
        <ele>77</ele>
        <time>2019-06-23T07:14:38Z</time>
      </trkpt>
      <trkpt lat="49.35898" lon="2.96757">
        <ele>77</ele>
        <time>2019-06-23T07:14:45Z</time>
      </trkpt>
      <trkpt lat="49.35898" lon="2.96755">
        <ele>77</ele>
        <time>2019-06-23T07:14:48Z</time>
      </trkpt>
      <trkpt lat="49.35906" lon="2.96739">
        <ele>79</ele>
        <time>2019-06-23T07:14:53Z</time>
      </trkpt>
      <trkpt lat="49.35918" lon="2.96713">
        <ele>78</ele>
        <time>2019-06-23T07:14:59Z</time>
      </trkpt>
      <trkpt lat="49.35928" lon="2.9668">
        <ele>80</ele>
        <time>2019-06-23T07:15:06Z</time>
      </trkpt>
      <trkpt lat="49.35933" lon="2.96665">
        <ele>82</ele>
        <time>2019-06-23T07:15:08Z</time>
      </trkpt>
      <trkpt lat="49.35947" lon="2.96638">
        <ele>83</ele>
        <time>2019-06-23T07:15:11Z</time>
      </trkpt>
      <trkpt lat="49.35968" lon="2.96597">
        <ele>83</ele>
        <time>2019-06-23T07:15:16Z</time>
      </trkpt>
      <trkpt lat="49.35976" lon="2.96579">
        <ele>84</ele>
        <time>2019-06-23T07:15:18Z</time>
      </trkpt>
      <trkpt lat="49.36027" lon="2.96478">
        <ele>79</ele>
        <time>2019-06-23T07:15:30Z</time>
      </trkpt>
      <trkpt lat="49.36042" lon="2.96452">
        <ele>78</ele>
        <time>2019-06-23T07:15:33Z</time>
      </trkpt>
      <trkpt lat="49.36081" lon="2.96372">
        <ele>77</ele>
        <time>2019-06-23T07:15:43Z</time>
      </trkpt>
      <trkpt lat="49.36103" lon="2.96324">
        <ele>75</ele>
        <time>2019-06-23T07:15:49Z</time>
      </trkpt>
      <trkpt lat="49.36114" lon="2.96299">
        <ele>75</ele>
        <time>2019-06-23T07:15:52Z</time>
      </trkpt>
      <trkpt lat="49.36137" lon="2.96242">
        <ele>75</ele>
        <time>2019-06-23T07:15:59Z</time>
      </trkpt>
      <trkpt lat="49.36154" lon="2.9621">
        <ele>75</ele>
        <time>2019-06-23T07:16:03Z</time>
      </trkpt>
      <trkpt lat="49.36167" lon="2.96179">
        <ele>72</ele>
        <time>2019-06-23T07:16:07Z</time>
      </trkpt>
      <trkpt lat="49.36185" lon="2.96136">
        <ele>71</ele>
        <time>2019-06-23T07:16:13Z</time>
      </trkpt>
      <trkpt lat="49.36203" lon="2.96105">
        <ele>71</ele>
        <time>2019-06-23T07:16:17Z</time>
      </trkpt>
      <trkpt lat="49.36215" lon="2.96086">
        <ele>70</ele>
        <time>2019-06-23T07:16:20Z</time>
      </trkpt>
      <trkpt lat="49.36241" lon="2.96019">
        <ele>70</ele>
        <time>2019-06-23T07:16:28Z</time>
      </trkpt>
      <trkpt lat="49.36251" lon="2.95995">
        <ele>69</ele>
        <time>2019-06-23T07:16:31Z</time>
      </trkpt>
      <trkpt lat="49.36274" lon="2.95943">
        <ele>69</ele>
        <time>2019-06-23T07:16:37Z</time>
      </trkpt>
      <trkpt lat="49.36291" lon="2.95909">
        <ele>70</ele>
        <time>2019-06-23T07:16:41Z</time>
      </trkpt>
      <trkpt lat="49.36312" lon="2.95862">
        <ele>69</ele>
        <time>2019-06-23T07:16:47Z</time>
      </trkpt>
      <trkpt lat="49.36328" lon="2.9583">
        <ele>69</ele>
        <time>2019-06-23T07:16:51Z</time>
      </trkpt>
      <trkpt lat="49.36379" lon="2.95722">
        <ele>67</ele>
        <time>2019-06-23T07:17:03Z</time>
      </trkpt>
      <trkpt lat="49.3639" lon="2.95697">
        <ele>67</ele>
        <time>2019-06-23T07:17:06Z</time>
      </trkpt>
      <trkpt lat="49.36408" lon="2.95657">
        <ele>68</ele>
        <time>2019-06-23T07:17:11Z</time>
      </trkpt>
      <trkpt lat="49.36439" lon="2.95602">
        <ele>67</ele>
        <time>2019-06-23T07:17:19Z</time>
      </trkpt>
      <trkpt lat="49.36464" lon="2.95546">
        <ele>67</ele>
        <time>2019-06-23T07:17:26Z</time>
      </trkpt>
      <trkpt lat="49.36475" lon="2.95517">
        <ele>66</ele>
        <time>2019-06-23T07:17:30Z</time>
      </trkpt>
      <trkpt lat="49.36482" lon="2.95495">
        <ele>66</ele>
        <time>2019-06-23T07:17:33Z</time>
      </trkpt>
      <trkpt lat="49.36516" lon="2.95424">
        <ele>65</ele>
        <time>2019-06-23T07:17:42Z</time>
      </trkpt>
      <trkpt lat="49.36522" lon="2.9541">
        <ele>66</ele>
        <time>2019-06-23T07:17:44Z</time>
      </trkpt>
      <trkpt lat="49.36533" lon="2.95383">
        <ele>66</ele>
        <time>2019-06-23T07:17:48Z</time>
      </trkpt>
      <trkpt lat="49.36556" lon="2.95325">
        <ele>70</ele>
        <time>2019-06-23T07:17:57Z</time>
      </trkpt>
      <trkpt lat="49.36571" lon="2.95288">
        <ele>70</ele>
        <time>2019-06-23T07:18:02Z</time>
      </trkpt>
      <trkpt lat="49.36579" lon="2.95268">
        <ele>71</ele>
        <time>2019-06-23T07:18:05Z</time>
      </trkpt>
      <trkpt lat="49.36591" lon="2.9524">
        <ele>71</ele>
        <time>2019-06-23T07:18:09Z</time>
      </trkpt>
      <trkpt lat="49.36606" lon="2.95212">
        <ele>72</ele>
        <time>2019-06-23T07:18:13Z</time>
      </trkpt>
      <trkpt lat="49.36623" lon="2.95175">
        <ele>72</ele>
        <time>2019-06-23T07:18:18Z</time>
      </trkpt>
      <trkpt lat="49.36641" lon="2.95134">
        <ele>73</ele>
        <time>2019-06-23T07:18:24Z</time>
      </trkpt>
      <trkpt lat="49.36668" lon="2.95073">
        <ele>73</ele>
        <time>2019-06-23T07:18:32Z</time>
      </trkpt>
      <trkpt lat="49.36695" lon="2.95018">
        <ele>76</ele>
        <time>2019-06-23T07:18:40Z</time>
      </trkpt>
      <trkpt lat="49.36719" lon="2.94972">
        <ele>80</ele>
        <time>2019-06-23T07:18:49Z</time>
      </trkpt>
      <trkpt lat="49.36718" lon="2.94939">
        <ele>81</ele>
        <time>2019-06-23T07:18:58Z</time>
      </trkpt>
      <trkpt lat="49.36704" lon="2.94896">
        <ele>84</ele>
        <time>2019-06-23T07:19:08Z</time>
      </trkpt>
      <trkpt lat="49.36691" lon="2.94852">
        <ele>85</ele>
        <time>2019-06-23T07:19:19Z</time>
      </trkpt>
      <trkpt lat="49.36673" lon="2.948">
        <ele>87</ele>
        <time>2019-06-23T07:19:32Z</time>
      </trkpt>
      <trkpt lat="49.3666" lon="2.94757">
        <ele>91</ele>
        <time>2019-06-23T07:19:43Z</time>
      </trkpt>
      <trkpt lat="49.36648" lon="2.94715">
        <ele>92</ele>
        <time>2019-06-23T07:19:53Z</time>
      </trkpt>
      <trkpt lat="49.36631" lon="2.9467">
        <ele>92</ele>
        <time>2019-06-23T07:20:03Z</time>
      </trkpt>
      <trkpt lat="49.36617" lon="2.94619">
        <ele>89</ele>
        <time>2019-06-23T07:20:13Z</time>
      </trkpt>
      <trkpt lat="49.36613" lon="2.94607">
        <ele>89</ele>
        <time>2019-06-23T07:20:15Z</time>
      </trkpt>
      <trkpt lat="49.36608" lon="2.94594">
        <ele>89</ele>
        <time>2019-06-23T07:20:17Z</time>
      </trkpt>
      <trkpt lat="49.36605" lon="2.94588">
        <ele>89</ele>
        <time>2019-06-23T07:20:18Z</time>
      </trkpt>
      <trkpt lat="49.36603" lon="2.94581">
        <ele>87</ele>
        <time>2019-06-23T07:20:19Z</time>
      </trkpt>
      <trkpt lat="49.3659" lon="2.94526">
        <ele>87</ele>
        <time>2019-06-23T07:20:29Z</time>
      </trkpt>
      <trkpt lat="49.36588" lon="2.94521">
        <ele>87</ele>
        <time>2019-06-23T07:20:30Z</time>
      </trkpt>
      <trkpt lat="49.36587" lon="2.94516">
        <ele>87</ele>
        <time>2019-06-23T07:20:31Z</time>
      </trkpt>
      <trkpt lat="49.36582" lon="2.94499">
        <ele>88</ele>
        <time>2019-06-23T07:20:34Z</time>
      </trkpt>
      <trkpt lat="49.3658" lon="2.94492">
        <ele>88</ele>
        <time>2019-06-23T07:20:35Z</time>
      </trkpt>
      <trkpt lat="49.36578" lon="2.94485">
        <ele>88</ele>
        <time>2019-06-23T07:20:36Z</time>
      </trkpt>
      <trkpt lat="49.36576" lon="2.94479">
        <ele>88</ele>
        <time>2019-06-23T07:20:37Z</time>
      </trkpt>
      <trkpt lat="49.36575" lon="2.94472">
        <ele>88</ele>
        <time>2019-06-23T07:20:38Z</time>
      </trkpt>
      <trkpt lat="49.36573" lon="2.94465">
        <ele>88</ele>
        <time>2019-06-23T07:20:39Z</time>
      </trkpt>
      <trkpt lat="49.3657" lon="2.94458">
        <ele>88</ele>
        <time>2019-06-23T07:20:40Z</time>
      </trkpt>
      <trkpt lat="49.36557" lon="2.94427">
        <ele>87</ele>
        <time>2019-06-23T07:20:45Z</time>
      </trkpt>
      <trkpt lat="49.36555" lon="2.94422">
        <ele>87</ele>
        <time>2019-06-23T07:20:46Z</time>
      </trkpt>
      <trkpt lat="49.36536" lon="2.94372">
        <ele>86</ele>
        <time>2019-06-23T07:20:55Z</time>
      </trkpt>
      <trkpt lat="49.36517" lon="2.94334">
        <ele>86</ele>
        <time>2019-06-23T07:21:04Z</time>
      </trkpt>
      <trkpt lat="49.36514" lon="2.94331">
        <ele>86</ele>
        <time>2019-06-23T07:21:06Z</time>
      </trkpt>
      <trkpt lat="49.3649" lon="2.9434">
        <ele>88</ele>
        <time>2019-06-23T07:21:16Z</time>
      </trkpt>
      <trkpt lat="49.3647" lon="2.94346">
        <ele>91</ele>
        <time>2019-06-23T07:21:27Z</time>
      </trkpt>
      <trkpt lat="49.36461" lon="2.94348">
        <ele>92</ele>
        <time>2019-06-23T07:21:37Z</time>
      </trkpt>
      <trkpt lat="49.36457" lon="2.94351">
        <ele>92</ele>
        <time>2019-06-23T07:21:44Z</time>
      </trkpt>
      <trkpt lat="49.36446" lon="2.94357">
        <ele>93</ele>
        <time>2019-06-23T07:21:55Z</time>
      </trkpt>
      <trkpt lat="49.36445" lon="2.94357">
        <ele>93</ele>
        <time>2019-06-23T07:22:00Z</time>
      </trkpt>
      <trkpt lat="49.36438" lon="2.94362">
        <ele>94</ele>
        <time>2019-06-23T07:22:10Z</time>
      </trkpt>
      <trkpt lat="49.36431" lon="2.94365">
        <ele>94</ele>
        <time>2019-06-23T07:22:21Z</time>
      </trkpt>
      <trkpt lat="49.36423" lon="2.94367">
        <ele>94</ele>
        <time>2019-06-23T07:22:32Z</time>
      </trkpt>
      <trkpt lat="49.3642" lon="2.94367">
        <ele>94</ele>
        <time>2019-06-23T07:22:42Z</time>
      </trkpt>
      <trkpt lat="49.36412" lon="2.94372">
        <ele>101</ele>
        <time>2019-06-23T07:22:54Z</time>
      </trkpt>
      <trkpt lat="49.36406" lon="2.94377">
        <ele>101</ele>
        <time>2019-06-23T07:23:08Z</time>
      </trkpt>
      <trkpt lat="49.36396" lon="2.94381">
        <ele>101</ele>
        <time>2019-06-23T07:23:23Z</time>
      </trkpt>
      <trkpt lat="49.36383" lon="2.94384">
        <ele>102</ele>
        <time>2019-06-23T07:23:34Z</time>
      </trkpt>
      <trkpt lat="49.36379" lon="2.94384">
        <ele>102</ele>
        <time>2019-06-23T07:23:39Z</time>
      </trkpt>
      <trkpt lat="49.36367" lon="2.94388">
        <ele>102</ele>
        <time>2019-06-23T07:23:49Z</time>
      </trkpt>
      <trkpt lat="49.36358" lon="2.94392">
        <ele>103</ele>
        <time>2019-06-23T07:24:00Z</time>
      </trkpt>
      <trkpt lat="49.36357" lon="2.94393">
        <ele>103</ele>
        <time>2019-06-23T07:24:01Z</time>
      </trkpt>
      <trkpt lat="49.36343" lon="2.944">
        <ele>104</ele>
        <time>2019-06-23T07:24:11Z</time>
      </trkpt>
      <trkpt lat="49.36307" lon="2.94417">
        <ele>105</ele>
        <time>2019-06-23T07:24:18Z</time>
      </trkpt>
      <trkpt lat="49.36226" lon="2.94446">
        <ele>100</ele>
        <time>2019-06-23T07:24:28Z</time>
      </trkpt>
      <trkpt lat="49.36197" lon="2.94458">
        <ele>99</ele>
        <time>2019-06-23T07:24:34Z</time>
      </trkpt>
      <trkpt lat="49.36186" lon="2.94462">
        <ele>99</ele>
        <time>2019-06-23T07:24:38Z</time>
      </trkpt>
      <trkpt lat="49.3616" lon="2.94469">
        <ele>95</ele>
        <time>2019-06-23T07:24:44Z</time>
      </trkpt>
      <trkpt lat="49.36139" lon="2.94475">
        <ele>94</ele>
        <time>2019-06-23T07:24:48Z</time>
      </trkpt>
      <trkpt lat="49.36075" lon="2.94504">
        <ele>91</ele>
        <time>2019-06-23T07:24:57Z</time>
      </trkpt>
      <trkpt lat="49.36061" lon="2.94509">
        <ele>91</ele>
        <time>2019-06-23T07:24:59Z</time>
      </trkpt>
      <trkpt lat="49.36036" lon="2.94518">
        <ele>90</ele>
        <time>2019-06-23T07:25:04Z</time>
      </trkpt>
      <trkpt lat="49.36007" lon="2.94526">
        <ele>89</ele>
        <time>2019-06-23T07:25:12Z</time>
      </trkpt>
      <trkpt lat="49.36" lon="2.94484">
        <ele>88</ele>
        <time>2019-06-23T07:25:22Z</time>
      </trkpt>
      <trkpt lat="49.35996" lon="2.94466">
        <ele>86</ele>
        <time>2019-06-23T07:25:25Z</time>
      </trkpt>
      <trkpt lat="49.35987" lon="2.94431">
        <ele>86</ele>
        <time>2019-06-23T07:25:31Z</time>
      </trkpt>
      <trkpt lat="49.35984" lon="2.94418">
        <ele>86</ele>
        <time>2019-06-23T07:25:33Z</time>
      </trkpt>
      <trkpt lat="49.35978" lon="2.94392">
        <ele>85</ele>
        <time>2019-06-23T07:25:37Z</time>
      </trkpt>
      <trkpt lat="49.35978" lon="2.94342">
        <ele>85</ele>
        <time>2019-06-23T07:25:45Z</time>
      </trkpt>
      <trkpt lat="49.35975" lon="2.94294">
        <ele>85</ele>
        <time>2019-06-23T07:25:53Z</time>
      </trkpt>
      <trkpt lat="49.35977" lon="2.94274">
        <ele>85</ele>
        <time>2019-06-23T07:25:56Z</time>
      </trkpt>
      <trkpt lat="49.35978" lon="2.94258">
        <ele>85</ele>
        <time>2019-06-23T07:25:58Z</time>
      </trkpt>
      <trkpt lat="49.35975" lon="2.94229">
        <ele>84</ele>
        <time>2019-06-23T07:26:02Z</time>
      </trkpt>
      <trkpt lat="49.35976" lon="2.94161">
        <ele>84</ele>
        <time>2019-06-23T07:26:12Z</time>
      </trkpt>
      <trkpt lat="49.35977" lon="2.94154">
        <ele>84</ele>
        <time>2019-06-23T07:26:13Z</time>
      </trkpt>
      <trkpt lat="49.35979" lon="2.94121">
        <ele>84</ele>
        <time>2019-06-23T07:26:18Z</time>
      </trkpt>
      <trkpt lat="49.35981" lon="2.94074">
        <ele>84</ele>
        <time>2019-06-23T07:26:25Z</time>
      </trkpt>
      <trkpt lat="49.35977" lon="2.94033">
        <ele>83</ele>
        <time>2019-06-23T07:26:33Z</time>
      </trkpt>
      <trkpt lat="49.35952" lon="2.94037">
        <ele>83</ele>
        <time>2019-06-23T07:26:42Z</time>
      </trkpt>
      <trkpt lat="49.35923" lon="2.94046">
        <ele>83</ele>
        <time>2019-06-23T07:26:49Z</time>
      </trkpt>
      <trkpt lat="49.3589" lon="2.9406">
        <ele>83</ele>
        <time>2019-06-23T07:26:59Z</time>
      </trkpt>
      <trkpt lat="49.35848" lon="2.94074">
        <ele>85</ele>
        <time>2019-06-23T07:27:09Z</time>
      </trkpt>
      <trkpt lat="49.35841" lon="2.94077">
        <ele>85</ele>
        <time>2019-06-23T07:27:11Z</time>
      </trkpt>
      <trkpt lat="49.35804" lon="2.94093">
        <ele>89</ele>
        <time>2019-06-23T07:27:22Z</time>
      </trkpt>
      <trkpt lat="49.35771" lon="2.94106">
        <ele>91</ele>
        <time>2019-06-23T07:27:30Z</time>
      </trkpt>
      <trkpt lat="49.35714" lon="2.9412">
        <ele>95</ele>
        <time>2019-06-23T07:27:43Z</time>
      </trkpt>
      <trkpt lat="49.35669" lon="2.94136">
        <ele>96</ele>
        <time>2019-06-23T07:27:55Z</time>
      </trkpt>
      <trkpt lat="49.35636" lon="2.94146">
        <ele>98</ele>
        <time>2019-06-23T07:28:05Z</time>
      </trkpt>
      <trkpt lat="49.35605" lon="2.94165">
        <ele>99</ele>
        <time>2019-06-23T07:28:17Z</time>
      </trkpt>
      <trkpt lat="49.35595" lon="2.94171">
        <ele>100</ele>
        <time>2019-06-23T07:28:24Z</time>
      </trkpt>
      <trkpt lat="49.3558" lon="2.94175">
        <ele>104</ele>
        <time>2019-06-23T07:28:35Z</time>
      </trkpt>
      <trkpt lat="49.3557" lon="2.94173">
        <ele>106</ele>
        <time>2019-06-23T07:28:46Z</time>
      </trkpt>
      <trkpt lat="49.3556" lon="2.94176">
        <ele>108</ele>
        <time>2019-06-23T07:28:58Z</time>
      </trkpt>
      <trkpt lat="49.3555" lon="2.94178">
        <ele>110</ele>
        <time>2019-06-23T07:29:07Z</time>
      </trkpt>
      <trkpt lat="49.35533" lon="2.94182">
        <ele>113</ele>
        <time>2019-06-23T07:29:19Z</time>
      </trkpt>
      <trkpt lat="49.35519" lon="2.9418">
        <ele>114</ele>
        <time>2019-06-23T07:29:32Z</time>
      </trkpt>
      <trkpt lat="49.35512" lon="2.94177">
        <ele>115</ele>
        <time>2019-06-23T07:29:43Z</time>
      </trkpt>
      <trkpt lat="49.35512" lon="2.94175">
        <ele>115</ele>
        <time>2019-06-23T07:29:46Z</time>
      </trkpt>
      <trkpt lat="49.35512" lon="2.94178">
        <ele>115</ele>
        <time>2019-06-23T07:30:00Z</time>
      </trkpt>
      <trkpt lat="49.35502" lon="2.94172">
        <ele>117</ele>
        <time>2019-06-23T07:30:15Z</time>
      </trkpt>
      <trkpt lat="49.35489" lon="2.94163">
        <ele>121</ele>
        <time>2019-06-23T07:30:30Z</time>
      </trkpt>
      <trkpt lat="49.35478" lon="2.94153">
        <ele>123</ele>
        <time>2019-06-23T07:30:43Z</time>
      </trkpt>
      <trkpt lat="49.35475" lon="2.94151">
        <ele>123</ele>
        <time>2019-06-23T07:30:50Z</time>
      </trkpt>
      <trkpt lat="49.35472" lon="2.9414">
        <ele>124</ele>
        <time>2019-06-23T07:30:55Z</time>
      </trkpt>
      <trkpt lat="49.35463" lon="2.94129">
        <ele>125</ele>
        <time>2019-06-23T07:31:06Z</time>
      </trkpt>
      <trkpt lat="49.3546" lon="2.94128">
        <ele>125</ele>
        <time>2019-06-23T07:31:08Z</time>
      </trkpt>
      <trkpt lat="49.3545" lon="2.94112">
        <ele>126</ele>
        <time>2019-06-23T07:31:24Z</time>
      </trkpt>
      <trkpt lat="49.35446" lon="2.9411">
        <ele>127</ele>
        <time>2019-06-23T07:31:36Z</time>
      </trkpt>
      <trkpt lat="49.3544" lon="2.94093">
        <ele>129</ele>
        <time>2019-06-23T07:31:49Z</time>
      </trkpt>
      <trkpt lat="49.35435" lon="2.94083">
        <ele>130</ele>
        <time>2019-06-23T07:32:01Z</time>
      </trkpt>
      <trkpt lat="49.35428" lon="2.94077">
        <ele>131</ele>
        <time>2019-06-23T07:32:14Z</time>
      </trkpt>
      <trkpt lat="49.35427" lon="2.94074">
        <ele>130</ele>
        <time>2019-06-23T07:32:25Z</time>
      </trkpt>
      <trkpt lat="49.35418" lon="2.94063">
        <ele>129</ele>
        <time>2019-06-23T07:32:37Z</time>
      </trkpt>
      <trkpt lat="49.35414" lon="2.94053">
        <ele>136</ele>
        <time>2019-06-23T07:32:51Z</time>
      </trkpt>
      <trkpt lat="49.35411" lon="2.94046">
        <ele>136</ele>
        <time>2019-06-23T07:32:58Z</time>
      </trkpt>
      <trkpt lat="49.35403" lon="2.9403">
        <ele>136</ele>
        <time>2019-06-23T07:33:10Z</time>
      </trkpt>
      <trkpt lat="49.35401" lon="2.94026">
        <ele>136</ele>
        <time>2019-06-23T07:33:14Z</time>
      </trkpt>
      <trkpt lat="49.35391" lon="2.94016">
        <ele>136</ele>
        <time>2019-06-23T07:33:27Z</time>
      </trkpt>
      <trkpt lat="49.35386" lon="2.94013">
        <ele>136</ele>
        <time>2019-06-23T07:33:31Z</time>
      </trkpt>
      <trkpt lat="49.35375" lon="2.93996">
        <ele>136</ele>
        <time>2019-06-23T07:33:43Z</time>
      </trkpt>
      <trkpt lat="49.35374" lon="2.93995">
        <ele>136</ele>
        <time>2019-06-23T07:33:44Z</time>
      </trkpt>
      <trkpt lat="49.35368" lon="2.93989">
        <ele>136</ele>
        <time>2019-06-23T07:33:55Z</time>
      </trkpt>
      <trkpt lat="49.35364" lon="2.93982">
        <ele>136</ele>
        <time>2019-06-23T07:34:06Z</time>
      </trkpt>
      <trkpt lat="49.35349" lon="2.93966">
        <ele>137</ele>
        <time>2019-06-23T07:34:17Z</time>
      </trkpt>
      <trkpt lat="49.35328" lon="2.93928">
        <ele>140</ele>
        <time>2019-06-23T07:34:29Z</time>
      </trkpt>
      <trkpt lat="49.35308" lon="2.93891">
        <ele>139</ele>
        <time>2019-06-23T07:34:40Z</time>
      </trkpt>
      <trkpt lat="49.35301" lon="2.93881">
        <ele>139</ele>
        <time>2019-06-23T07:34:43Z</time>
      </trkpt>
      <trkpt lat="49.35272" lon="2.93842">
        <ele>138</ele>
        <time>2019-06-23T07:34:55Z</time>
      </trkpt>
      <trkpt lat="49.3526" lon="2.93824">
        <ele>137</ele>
        <time>2019-06-23T07:35:01Z</time>
      </trkpt>
      <trkpt lat="49.35247" lon="2.93803">
        <ele>137</ele>
        <time>2019-06-23T07:35:06Z</time>
      </trkpt>
      <trkpt lat="49.35218" lon="2.93764">
        <ele>137</ele>
        <time>2019-06-23T07:35:18Z</time>
      </trkpt>
      <trkpt lat="49.352" lon="2.93735">
        <ele>136</ele>
        <time>2019-06-23T07:35:26Z</time>
      </trkpt>
      <trkpt lat="49.35182" lon="2.93691">
        <ele>136</ele>
        <time>2019-06-23T07:35:35Z</time>
      </trkpt>
      <trkpt lat="49.35172" lon="2.93658">
        <ele>136</ele>
        <time>2019-06-23T07:35:42Z</time>
      </trkpt>
      <trkpt lat="49.35173" lon="2.93643">
        <ele>135</ele>
        <time>2019-06-23T07:35:45Z</time>
      </trkpt>
      <trkpt lat="49.35171" lon="2.93588">
        <ele>138</ele>
        <time>2019-06-23T07:35:56Z</time>
      </trkpt>
      <trkpt lat="49.35171" lon="2.93581">
        <ele>137</ele>
        <time>2019-06-23T07:35:57Z</time>
      </trkpt>
      <trkpt lat="49.35132" lon="2.9353">
        <ele>135</ele>
        <time>2019-06-23T07:36:06Z</time>
      </trkpt>
      <trkpt lat="49.35092" lon="2.93527">
        <ele>134</ele>
        <time>2019-06-23T07:36:15Z</time>
      </trkpt>
      <trkpt lat="49.35079" lon="2.93527">
        <ele>132</ele>
        <time>2019-06-23T07:36:17Z</time>
      </trkpt>
      <trkpt lat="49.35047" lon="2.93529">
        <ele>132</ele>
        <time>2019-06-23T07:36:25Z</time>
      </trkpt>
      <trkpt lat="49.35044" lon="2.93528">
        <ele>131</ele>
        <time>2019-06-23T07:36:27Z</time>
      </trkpt>
      <trkpt lat="49.3505" lon="2.93518">
        <ele>132</ele>
        <time>2019-06-23T07:36:33Z</time>
      </trkpt>
      <trkpt lat="49.35064" lon="2.9351">
        <ele>132</ele>
        <time>2019-06-23T07:36:44Z</time>
      </trkpt>
      <trkpt lat="49.35064" lon="2.93509">
        <ele>132</ele>
        <time>2019-06-23T07:36:45Z</time>
      </trkpt>
      <trkpt lat="49.35081" lon="2.93489">
        <ele>133</ele>
        <time>2019-06-23T07:36:54Z</time>
      </trkpt>
      <trkpt lat="49.35091" lon="2.93474">
        <ele>133</ele>
        <time>2019-06-23T07:36:57Z</time>
      </trkpt>
      <trkpt lat="49.35112" lon="2.93451">
        <ele>133</ele>
        <time>2019-06-23T07:37:01Z</time>
      </trkpt>
      <trkpt lat="49.35216" lon="2.93369">
        <ele>119</ele>
        <time>2019-06-23T07:37:10Z</time>
      </trkpt>
      <trkpt lat="49.35317" lon="2.93295">
        <ele>110</ele>
        <time>2019-06-23T07:37:18Z</time>
      </trkpt>
      <trkpt lat="49.35371" lon="2.93255">
        <ele>105</ele>
        <time>2019-06-23T07:37:24Z</time>
      </trkpt>
      <trkpt lat="49.35396" lon="2.93242">
        <ele>102</ele>
        <time>2019-06-23T07:37:29Z</time>
      </trkpt>
      <trkpt lat="49.35384" lon="2.93239">
        <ele>102</ele>
        <time>2019-06-23T07:37:37Z</time>
      </trkpt>
      <trkpt lat="49.35381" lon="2.93237">
        <ele>103</ele>
        <time>2019-06-23T07:37:58Z</time>
      </trkpt>
      <trkpt lat="49.3538" lon="2.93237">
        <ele>103</ele>
        <time>2019-06-23T07:38:20Z</time>
      </trkpt>
      <trkpt lat="49.3538" lon="2.93234">
        <ele>103</ele>
        <time>2019-06-23T07:38:47Z</time>
      </trkpt>
      <trkpt lat="49.3538" lon="2.93234">
        <ele>103</ele>
        <time>2019-06-23T07:39:18Z</time>
      </trkpt>
      <trkpt lat="49.35378" lon="2.93232">
        <ele>103</ele>
        <time>2019-06-23T07:39:50Z</time>
      </trkpt>
      <trkpt lat="49.35377" lon="2.93229">
        <ele>103</ele>
        <time>2019-06-23T07:39:56Z</time>
      </trkpt>
      <trkpt lat="49.35374" lon="2.93221">
        <ele>103</ele>
        <time>2019-06-23T07:40:00Z</time>
      </trkpt>
      <trkpt lat="49.35369" lon="2.93206">
        <ele>102</ele>
        <time>2019-06-23T07:40:12Z</time>
      </trkpt>
      <trkpt lat="49.35368" lon="2.93205">
        <ele>102</ele>
        <time>2019-06-23T07:40:40Z</time>
      </trkpt>
      <trkpt lat="49.35368" lon="2.93205">
        <ele>102</ele>
        <time>2019-06-23T07:40:42Z</time>
      </trkpt>
      <trkpt lat="49.35357" lon="2.93158">
        <ele>100</ele>
        <time>2019-06-23T07:40:52Z</time>
      </trkpt>
      <trkpt lat="49.35348" lon="2.93119">
        <ele>99</ele>
        <time>2019-06-23T07:40:58Z</time>
      </trkpt>
      <trkpt lat="49.35341" lon="2.93092">
        <ele>98</ele>
        <time>2019-06-23T07:41:02Z</time>
      </trkpt>
      <trkpt lat="49.35327" lon="2.93036">
        <ele>96</ele>
        <time>2019-06-23T07:41:10Z</time>
      </trkpt>
      <trkpt lat="49.35312" lon="2.92971">
        <ele>94</ele>
        <time>2019-06-23T07:41:19Z</time>
      </trkpt>
      <trkpt lat="49.35299" lon="2.92923">
        <ele>94</ele>
        <time>2019-06-23T07:41:26Z</time>
      </trkpt>
      <trkpt lat="49.35294" lon="2.92895">
        <ele>94</ele>
        <time>2019-06-23T07:41:31Z</time>
      </trkpt>
      <trkpt lat="49.35288" lon="2.92877">
        <ele>94</ele>
        <time>2019-06-23T07:41:34Z</time>
      </trkpt>
      <trkpt lat="49.35275" lon="2.92828">
        <ele>93</ele>
        <time>2019-06-23T07:41:42Z</time>
      </trkpt>
      <trkpt lat="49.35268" lon="2.92803">
        <ele>92</ele>
        <time>2019-06-23T07:41:46Z</time>
      </trkpt>
      <trkpt lat="49.35243" lon="2.92705">
        <ele>92</ele>
        <time>2019-06-23T07:42:01Z</time>
      </trkpt>
      <trkpt lat="49.35235" lon="2.92673">
        <ele>93</ele>
        <time>2019-06-23T07:42:07Z</time>
      </trkpt>
      <trkpt lat="49.35217" lon="2.9267">
        <ele>93</ele>
        <time>2019-06-23T07:42:14Z</time>
      </trkpt>
      <trkpt lat="49.35212" lon="2.92675">
        <ele>92</ele>
        <time>2019-06-23T07:42:16Z</time>
      </trkpt>
      <trkpt lat="49.35178" lon="2.92696">
        <ele>92</ele>
        <time>2019-06-23T07:42:29Z</time>
      </trkpt>
      <trkpt lat="49.35132" lon="2.92723">
        <ele>92</ele>
        <time>2019-06-23T07:42:43Z</time>
      </trkpt>
      <trkpt lat="49.35074" lon="2.92754">
        <ele>94</ele>
        <time>2019-06-23T07:43:00Z</time>
      </trkpt>
      <trkpt lat="49.35035" lon="2.92778">
        <ele>98</ele>
        <time>2019-06-23T07:43:13Z</time>
      </trkpt>
      <trkpt lat="49.35003" lon="2.92795">
        <ele>99</ele>
        <time>2019-06-23T07:43:25Z</time>
      </trkpt>
      <trkpt lat="49.34974" lon="2.92813">
        <ele>106</ele>
        <time>2019-06-23T07:43:36Z</time>
      </trkpt>
      <trkpt lat="49.3496" lon="2.92821">
        <ele>107</ele>
        <time>2019-06-23T07:43:41Z</time>
      </trkpt>
      <trkpt lat="49.34927" lon="2.9284">
        <ele>112</ele>
        <time>2019-06-23T07:43:52Z</time>
      </trkpt>
      <trkpt lat="49.34897" lon="2.92857">
        <ele>116</ele>
        <time>2019-06-23T07:44:05Z</time>
      </trkpt>
      <trkpt lat="49.34887" lon="2.92862">
        <ele>117</ele>
        <time>2019-06-23T07:44:10Z</time>
      </trkpt>
      <trkpt lat="49.3487" lon="2.92869">
        <ele>118</ele>
        <time>2019-06-23T07:44:20Z</time>
      </trkpt>
      <trkpt lat="49.34846" lon="2.92885">
        <ele>119</ele>
        <time>2019-06-23T07:44:36Z</time>
      </trkpt>
      <trkpt lat="49.34818" lon="2.929">
        <ele>120</ele>
        <time>2019-06-23T07:44:54Z</time>
      </trkpt>
      <trkpt lat="49.34817" lon="2.929">
        <ele>120</ele>
        <time>2019-06-23T07:44:55Z</time>
      </trkpt>
      <trkpt lat="49.34796" lon="2.92912">
        <ele>118</ele>
        <time>2019-06-23T07:45:09Z</time>
      </trkpt>
      <trkpt lat="49.34774" lon="2.92924">
        <ele>121</ele>
        <time>2019-06-23T07:45:26Z</time>
      </trkpt>
      <trkpt lat="49.34772" lon="2.92926">
        <ele>120</ele>
        <time>2019-06-23T07:45:27Z</time>
      </trkpt>
      <trkpt lat="49.34767" lon="2.92929">
        <ele>120</ele>
        <time>2019-06-23T07:45:31Z</time>
      </trkpt>
      <trkpt lat="49.34763" lon="2.92932">
        <ele>120</ele>
        <time>2019-06-23T07:45:35Z</time>
      </trkpt>
      <trkpt lat="49.3475" lon="2.92941">
        <ele>118</ele>
        <time>2019-06-23T07:45:48Z</time>
      </trkpt>
      <trkpt lat="49.34744" lon="2.92946">
        <ele>118</ele>
        <time>2019-06-23T07:45:52Z</time>
      </trkpt>
      <trkpt lat="49.34726" lon="2.92958">
        <ele>119</ele>
        <time>2019-06-23T07:46:07Z</time>
      </trkpt>
      <trkpt lat="49.34715" lon="2.92962">
        <ele>119</ele>
        <time>2019-06-23T07:46:19Z</time>
      </trkpt>
      <trkpt lat="49.34713" lon="2.92963">
        <ele>119</ele>
        <time>2019-06-23T07:46:21Z</time>
      </trkpt>
      <trkpt lat="49.34694" lon="2.92976">
        <ele>120</ele>
        <time>2019-06-23T07:46:33Z</time>
      </trkpt>
      <trkpt lat="49.34685" lon="2.92987">
        <ele>120</ele>
        <time>2019-06-23T07:46:46Z</time>
      </trkpt>
      <trkpt lat="49.34679" lon="2.93002">
        <ele>123</ele>
        <time>2019-06-23T07:46:57Z</time>
      </trkpt>
      <trkpt lat="49.34675" lon="2.93014">
        <ele>124</ele>
        <time>2019-06-23T07:47:07Z</time>
      </trkpt>
      <trkpt lat="49.34668" lon="2.93029">
        <ele>125</ele>
        <time>2019-06-23T07:47:18Z</time>
      </trkpt>
      <trkpt lat="49.34652" lon="2.93044">
        <ele>129</ele>
        <time>2019-06-23T07:47:30Z</time>
      </trkpt>
      <trkpt lat="49.34642" lon="2.93055">
        <ele>130</ele>
        <time>2019-06-23T07:47:41Z</time>
      </trkpt>
      <trkpt lat="49.34641" lon="2.93055">
        <ele>130</ele>
        <time>2019-06-23T07:47:43Z</time>
      </trkpt>
      <trkpt lat="49.34634" lon="2.93052">
        <ele>130</ele>
        <time>2019-06-23T07:47:49Z</time>
      </trkpt>
      <trkpt lat="49.34634" lon="2.93043">
        <ele>130</ele>
        <time>2019-06-23T07:47:55Z</time>
      </trkpt>
      <trkpt lat="49.34634" lon="2.93031">
        <ele>130</ele>
        <time>2019-06-23T07:47:59Z</time>
      </trkpt>
      <trkpt lat="49.34624" lon="2.92994">
        <ele>126</ele>
        <time>2019-06-23T07:48:08Z</time>
      </trkpt>
      <trkpt lat="49.34608" lon="2.92963">
        <ele>126</ele>
        <time>2019-06-23T07:48:16Z</time>
      </trkpt>
      <trkpt lat="49.34604" lon="2.92921">
        <ele>127</ele>
        <time>2019-06-23T07:48:25Z</time>
      </trkpt>
      <trkpt lat="49.34607" lon="2.92892">
        <ele>125</ele>
        <time>2019-06-23T07:48:31Z</time>
      </trkpt>
      <trkpt lat="49.34626" lon="2.92827">
        <ele>125</ele>
        <time>2019-06-23T07:48:44Z</time>
      </trkpt>
      <trkpt lat="49.34636" lon="2.9276">
        <ele>126</ele>
        <time>2019-06-23T07:48:55Z</time>
      </trkpt>
      <trkpt lat="49.34639" lon="2.92709">
        <ele>128</ele>
        <time>2019-06-23T07:49:05Z</time>
      </trkpt>
      <trkpt lat="49.34638" lon="2.92655">
        <ele>128</ele>
        <time>2019-06-23T07:49:14Z</time>
      </trkpt>
      <trkpt lat="49.34631" lon="2.9263">
        <ele>129</ele>
        <time>2019-06-23T07:49:18Z</time>
      </trkpt>
      <trkpt lat="49.34613" lon="2.92583">
        <ele>127</ele>
        <time>2019-06-23T07:49:28Z</time>
      </trkpt>
      <trkpt lat="49.34611" lon="2.92579">
        <ele>127</ele>
        <time>2019-06-23T07:49:29Z</time>
      </trkpt>
      <trkpt lat="49.34571" lon="2.92544">
        <ele>126</ele>
        <time>2019-06-23T07:49:41Z</time>
      </trkpt>
      <trkpt lat="49.34539" lon="2.92544">
        <ele>126</ele>
        <time>2019-06-23T07:49:51Z</time>
      </trkpt>
      <trkpt lat="49.34504" lon="2.92544">
        <ele>126</ele>
        <time>2019-06-23T07:50:01Z</time>
      </trkpt>
      <trkpt lat="49.34464" lon="2.92531">
        <ele>126</ele>
        <time>2019-06-23T07:50:11Z</time>
      </trkpt>
      <trkpt lat="49.34437" lon="2.92524">
        <ele>126</ele>
        <time>2019-06-23T07:50:20Z</time>
      </trkpt>
      <trkpt lat="49.34422" lon="2.92525">
        <ele>126</ele>
        <time>2019-06-23T07:50:27Z</time>
      </trkpt>
      <trkpt lat="49.3441" lon="2.92525">
        <ele>130</ele>
        <time>2019-06-23T07:50:33Z</time>
      </trkpt>
      <trkpt lat="49.34402" lon="2.9253">
        <ele>131</ele>
        <time>2019-06-23T07:50:37Z</time>
      </trkpt>
      <trkpt lat="49.34393" lon="2.92499">
        <ele>128</ele>
        <time>2019-06-23T07:50:47Z</time>
      </trkpt>
      <trkpt lat="49.34394" lon="2.92496">
        <ele>128</ele>
        <time>2019-06-23T07:50:48Z</time>
      </trkpt>
      <trkpt lat="49.3439" lon="2.92457">
        <ele>129</ele>
        <time>2019-06-23T07:50:58Z</time>
      </trkpt>
      <trkpt lat="49.34383" lon="2.92418">
        <ele>129</ele>
        <time>2019-06-23T07:51:07Z</time>
      </trkpt>
      <trkpt lat="49.34385" lon="2.92353">
        <ele>128</ele>
        <time>2019-06-23T07:51:18Z</time>
      </trkpt>
      <trkpt lat="49.34393" lon="2.92308">
        <ele>129</ele>
        <time>2019-06-23T07:51:25Z</time>
      </trkpt>
      <trkpt lat="49.34406" lon="2.92281">
        <ele>130</ele>
        <time>2019-06-23T07:51:31Z</time>
      </trkpt>
      <trkpt lat="49.3442" lon="2.92251">
        <ele>128</ele>
        <time>2019-06-23T07:51:38Z</time>
      </trkpt>
      <trkpt lat="49.34441" lon="2.92201">
        <ele>129</ele>
        <time>2019-06-23T07:51:47Z</time>
      </trkpt>
      <trkpt lat="49.34461" lon="2.92159">
        <ele>132</ele>
        <time>2019-06-23T07:51:55Z</time>
      </trkpt>
      <trkpt lat="49.34471" lon="2.92137">
        <ele>132</ele>
        <time>2019-06-23T07:51:59Z</time>
      </trkpt>
      <trkpt lat="49.34488" lon="2.92098">
        <ele>133</ele>
        <time>2019-06-23T07:52:06Z</time>
      </trkpt>
      <trkpt lat="49.34503" lon="2.92071">
        <ele>132</ele>
        <time>2019-06-23T07:52:12Z</time>
      </trkpt>
      <trkpt lat="49.34524" lon="2.92053">
        <ele>131</ele>
        <time>2019-06-23T07:52:20Z</time>
      </trkpt>
      <trkpt lat="49.34549" lon="2.9206">
        <ele>130</ele>
        <time>2019-06-23T07:52:27Z</time>
      </trkpt>
      <trkpt lat="49.34579" lon="2.92065">
        <ele>128</ele>
        <time>2019-06-23T07:52:33Z</time>
      </trkpt>
      <trkpt lat="49.34599" lon="2.92069">
        <ele>126</ele>
        <time>2019-06-23T07:52:37Z</time>
      </trkpt>
      <trkpt lat="49.34642" lon="2.92066">
        <ele>125</ele>
        <time>2019-06-23T07:52:47Z</time>
      </trkpt>
      <trkpt lat="49.34672" lon="2.92042">
        <ele>121</ele>
        <time>2019-06-23T07:52:57Z</time>
      </trkpt>
      <trkpt lat="49.34682" lon="2.92032">
        <ele>121</ele>
        <time>2019-06-23T07:53:00Z</time>
      </trkpt>
      <trkpt lat="49.34694" lon="2.92017">
        <ele>122</ele>
        <time>2019-06-23T07:53:05Z</time>
      </trkpt>
      <trkpt lat="49.3471" lon="2.91982">
        <ele>126</ele>
        <time>2019-06-23T07:53:12Z</time>
      </trkpt>
      <trkpt lat="49.3471" lon="2.91973">
        <ele>126</ele>
        <time>2019-06-23T07:53:14Z</time>
      </trkpt>
      <trkpt lat="49.34715" lon="2.91915">
        <ele>129</ele>
        <time>2019-06-23T07:53:24Z</time>
      </trkpt>
      <trkpt lat="49.34716" lon="2.91899">
        <ele>129</ele>
        <time>2019-06-23T07:53:27Z</time>
      </trkpt>
      <trkpt lat="49.34714" lon="2.91865">
        <ele>129</ele>
        <time>2019-06-23T07:53:34Z</time>
      </trkpt>
      <trkpt lat="49.34717" lon="2.9183">
        <ele>130</ele>
        <time>2019-06-23T07:53:40Z</time>
      </trkpt>
      <trkpt lat="49.3472" lon="2.91757">
        <ele>131</ele>
        <time>2019-06-23T07:53:52Z</time>
      </trkpt>
      <trkpt lat="49.34718" lon="2.91745">
        <ele>133</ele>
        <time>2019-06-23T07:53:54Z</time>
      </trkpt>
      <trkpt lat="49.34711" lon="2.91708">
        <ele>134</ele>
        <time>2019-06-23T07:53:59Z</time>
      </trkpt>
      <trkpt lat="49.34691" lon="2.91639">
        <ele>136</ele>
        <time>2019-06-23T07:54:09Z</time>
      </trkpt>
      <trkpt lat="49.34692" lon="2.91599">
        <ele>136</ele>
        <time>2019-06-23T07:54:14Z</time>
      </trkpt>
      <trkpt lat="49.34646" lon="2.91519">
        <ele>132</ele>
        <time>2019-06-23T07:54:24Z</time>
      </trkpt>
      <trkpt lat="49.34591" lon="2.91446">
        <ele>120</ele>
        <time>2019-06-23T07:54:33Z</time>
      </trkpt>
      <trkpt lat="49.34571" lon="2.91404">
        <ele>114</ele>
        <time>2019-06-23T07:54:37Z</time>
      </trkpt>
      <trkpt lat="49.3456" lon="2.91362">
        <ele>113</ele>
        <time>2019-06-23T07:54:43Z</time>
      </trkpt>
      <trkpt lat="49.34548" lon="2.91349">
        <ele>113</ele>
        <time>2019-06-23T07:54:52Z</time>
      </trkpt>
      <trkpt lat="49.3454" lon="2.91341">
        <ele>113</ele>
        <time>2019-06-23T07:55:01Z</time>
      </trkpt>
      <trkpt lat="49.34536" lon="2.91334">
        <ele>113</ele>
        <time>2019-06-23T07:55:05Z</time>
      </trkpt>
      <trkpt lat="49.3453" lon="2.91327">
        <ele>111</ele>
        <time>2019-06-23T07:55:09Z</time>
      </trkpt>
      <trkpt lat="49.34514" lon="2.91313">
        <ele>111</ele>
        <time>2019-06-23T07:55:20Z</time>
      </trkpt>
      <trkpt lat="49.3451" lon="2.9131">
        <ele>111</ele>
        <time>2019-06-23T07:55:23Z</time>
      </trkpt>
      <trkpt lat="49.34491" lon="2.9129">
        <ele>117</ele>
        <time>2019-06-23T07:55:33Z</time>
      </trkpt>
      <trkpt lat="49.34488" lon="2.91287">
        <ele>118</ele>
        <time>2019-06-23T07:55:34Z</time>
      </trkpt>
      <trkpt lat="49.34464" lon="2.91258">
        <ele>119</ele>
        <time>2019-06-23T07:55:45Z</time>
      </trkpt>
      <trkpt lat="49.34444" lon="2.91232">
        <ele>116</ele>
        <time>2019-06-23T07:55:55Z</time>
      </trkpt>
      <trkpt lat="49.34435" lon="2.9122">
        <ele>115</ele>
        <time>2019-06-23T07:55:58Z</time>
      </trkpt>
      <trkpt lat="49.3442" lon="2.91195">
        <ele>113</ele>
        <time>2019-06-23T07:56:02Z</time>
      </trkpt>
      <trkpt lat="49.34383" lon="2.9115">
        <ele>115</ele>
        <time>2019-06-23T07:56:11Z</time>
      </trkpt>
      <trkpt lat="49.34348" lon="2.91131">
        <ele>117</ele>
        <time>2019-06-23T07:56:24Z</time>
      </trkpt>
      <trkpt lat="49.34322" lon="2.91113">
        <ele>120</ele>
        <time>2019-06-23T07:56:36Z</time>
      </trkpt>
      <trkpt lat="49.34318" lon="2.91109">
        <ele>119</ele>
        <time>2019-06-23T07:56:38Z</time>
      </trkpt>
      <trkpt lat="49.34337" lon="2.91096">
        <ele>115</ele>
        <time>2019-06-23T07:56:48Z</time>
      </trkpt>
      <trkpt lat="49.3436" lon="2.91095">
        <ele>114</ele>
        <time>2019-06-23T07:56:54Z</time>
      </trkpt>
      <trkpt lat="49.34394" lon="2.91059">
        <ele>108</ele>
        <time>2019-06-23T07:57:01Z</time>
      </trkpt>
      <trkpt lat="49.34436" lon="2.90984">
        <ele>100</ele>
        <time>2019-06-23T07:57:10Z</time>
      </trkpt>
      <trkpt lat="49.34439" lon="2.90973">
        <ele>100</ele>
        <time>2019-06-23T07:57:11Z</time>
      </trkpt>
      <trkpt lat="49.34445" lon="2.90952">
        <ele>98</ele>
        <time>2019-06-23T07:57:13Z</time>
      </trkpt>
      <trkpt lat="49.34455" lon="2.90925">
        <ele>97</ele>
        <time>2019-06-23T07:57:16Z</time>
      </trkpt>
      <trkpt lat="49.34471" lon="2.90893">
        <ele>91</ele>
        <time>2019-06-23T07:57:20Z</time>
      </trkpt>
      <trkpt lat="49.34497" lon="2.9086">
        <ele>87</ele>
        <time>2019-06-23T07:57:28Z</time>
      </trkpt>
      <trkpt lat="49.34494" lon="2.90837">
        <ele>84</ele>
        <time>2019-06-23T07:57:32Z</time>
      </trkpt>
      <trkpt lat="49.34467" lon="2.90757">
        <ele>79</ele>
        <time>2019-06-23T07:57:45Z</time>
      </trkpt>
      <trkpt lat="49.34459" lon="2.90735">
        <ele>76</ele>
        <time>2019-06-23T07:57:48Z</time>
      </trkpt>
      <trkpt lat="49.3443" lon="2.90657">
        <ele>75</ele>
        <time>2019-06-23T07:57:59Z</time>
      </trkpt>
      <trkpt lat="49.3442" lon="2.90631">
        <ele>75</ele>
        <time>2019-06-23T07:58:03Z</time>
      </trkpt>
      <trkpt lat="49.34425" lon="2.90602">
        <ele>76</ele>
        <time>2019-06-23T07:58:09Z</time>
      </trkpt>
      <trkpt lat="49.34433" lon="2.90593">
        <ele>76</ele>
        <time>2019-06-23T07:58:11Z</time>
      </trkpt>
      <trkpt lat="49.34446" lon="2.90578">
        <ele>77</ele>
        <time>2019-06-23T07:58:15Z</time>
      </trkpt>
      <trkpt lat="49.34453" lon="2.90568">
        <ele>77</ele>
        <time>2019-06-23T07:58:18Z</time>
      </trkpt>
      <trkpt lat="49.34477" lon="2.90542">
        <ele>77</ele>
        <time>2019-06-23T07:58:23Z</time>
      </trkpt>
      <trkpt lat="49.34495" lon="2.90525">
        <ele>77</ele>
        <time>2019-06-23T07:58:32Z</time>
      </trkpt>
      <trkpt lat="49.34499" lon="2.90521">
        <ele>77</ele>
        <time>2019-06-23T07:58:35Z</time>
      </trkpt>
      <trkpt lat="49.34504" lon="2.90521">
        <ele>76</ele>
        <time>2019-06-23T07:58:38Z</time>
      </trkpt>
      <trkpt lat="49.3451" lon="2.90522">
        <ele>76</ele>
        <time>2019-06-23T07:58:41Z</time>
      </trkpt>
      <trkpt lat="49.34519" lon="2.90522">
        <ele>76</ele>
        <time>2019-06-23T07:58:45Z</time>
      </trkpt>
      <trkpt lat="49.34572" lon="2.90519">
        <ele>74</ele>
        <time>2019-06-23T07:59:01Z</time>
      </trkpt>
      <trkpt lat="49.34591" lon="2.9052">
        <ele>73</ele>
        <time>2019-06-23T07:59:06Z</time>
      </trkpt>
      <trkpt lat="49.3462" lon="2.90547">
        <ele>73</ele>
        <time>2019-06-23T07:59:15Z</time>
      </trkpt>
      <trkpt lat="49.34637" lon="2.90563">
        <ele>73</ele>
        <time>2019-06-23T07:59:21Z</time>
      </trkpt>
      <trkpt lat="49.34649" lon="2.90559">
        <ele>73</ele>
        <time>2019-06-23T07:59:25Z</time>
      </trkpt>
      <trkpt lat="49.34697" lon="2.90529">
        <ele>72</ele>
        <time>2019-06-23T07:59:37Z</time>
      </trkpt>
      <trkpt lat="49.34719" lon="2.90515">
        <ele>72</ele>
        <time>2019-06-23T07:59:43Z</time>
      </trkpt>
      <trkpt lat="49.34721" lon="2.90493">
        <ele>71</ele>
        <time>2019-06-23T07:59:47Z</time>
      </trkpt>
      <trkpt lat="49.34734" lon="2.9044">
        <ele>71</ele>
        <time>2019-06-23T07:59:57Z</time>
      </trkpt>
      <trkpt lat="49.34751" lon="2.90446">
        <ele>71</ele>
        <time>2019-06-23T08:00:01Z</time>
      </trkpt>
      <trkpt lat="49.3477" lon="2.90422">
        <ele>71</ele>
        <time>2019-06-23T08:00:08Z</time>
      </trkpt>
      <trkpt lat="49.3476" lon="2.90406">
        <ele>70</ele>
        <time>2019-06-23T08:00:13Z</time>
      </trkpt>
      <trkpt lat="49.34732" lon="2.90399">
        <ele>70</ele>
        <time>2019-06-23T08:00:20Z</time>
      </trkpt>
      <trkpt lat="49.347" lon="2.90384">
        <ele>70</ele>
        <time>2019-06-23T08:00:27Z</time>
      </trkpt>
      <trkpt lat="49.34696" lon="2.90379">
        <ele>70</ele>
        <time>2019-06-23T08:00:28Z</time>
      </trkpt>
      <trkpt lat="49.34667" lon="2.90337">
        <ele>70</ele>
        <time>2019-06-23T08:00:36Z</time>
      </trkpt>
      <trkpt lat="49.34602" lon="2.90263">
        <ele>73</ele>
        <time>2019-06-23T08:00:51Z</time>
      </trkpt>
      <trkpt lat="49.34593" lon="2.90253">
        <ele>73</ele>
        <time>2019-06-23T08:00:53Z</time>
      </trkpt>
      <trkpt lat="49.34585" lon="2.90244">
        <ele>74</ele>
        <time>2019-06-23T08:00:55Z</time>
      </trkpt>
      <trkpt lat="49.34572" lon="2.90217">
        <ele>75</ele>
        <time>2019-06-23T08:00:59Z</time>
      </trkpt>
      <trkpt lat="49.34555" lon="2.90148">
        <ele>76</ele>
        <time>2019-06-23T08:01:08Z</time>
      </trkpt>
      <trkpt lat="49.34548" lon="2.90117">
        <ele>76</ele>
        <time>2019-06-23T08:01:12Z</time>
      </trkpt>
      <trkpt lat="49.34544" lon="2.90104">
        <ele>75</ele>
        <time>2019-06-23T08:01:14Z</time>
      </trkpt>
      <trkpt lat="49.34523" lon="2.90028">
        <ele>74</ele>
        <time>2019-06-23T08:01:25Z</time>
      </trkpt>
      <trkpt lat="49.34516" lon="2.90008">
        <ele>73</ele>
        <time>2019-06-23T08:01:28Z</time>
      </trkpt>
      <trkpt lat="49.34507" lon="2.89966">
        <ele>76</ele>
        <time>2019-06-23T08:01:34Z</time>
      </trkpt>
      <trkpt lat="49.34494" lon="2.89926">
        <ele>76</ele>
        <time>2019-06-23T08:01:40Z</time>
      </trkpt>
      <trkpt lat="49.34475" lon="2.89854">
        <ele>75</ele>
        <time>2019-06-23T08:01:49Z</time>
      </trkpt>
      <trkpt lat="49.34447" lon="2.89744">
        <ele>75</ele>
        <time>2019-06-23T08:01:59Z</time>
      </trkpt>
      <trkpt lat="49.34443" lon="2.89745">
        <ele>75</ele>
        <time>2019-06-23T08:02:08Z</time>
      </trkpt>
      <trkpt lat="49.3444" lon="2.89745">
        <ele>76</ele>
        <time>2019-06-23T08:02:16Z</time>
      </trkpt>
      <trkpt lat="49.34429" lon="2.89735">
        <ele>76</ele>
        <time>2019-06-23T08:02:25Z</time>
      </trkpt>
      <trkpt lat="49.34426" lon="2.89732">
        <ele>76</ele>
        <time>2019-06-23T08:02:27Z</time>
      </trkpt>
      <trkpt lat="49.34399" lon="2.89725">
        <ele>81</ele>
        <time>2019-06-23T08:02:40Z</time>
      </trkpt>
      <trkpt lat="49.34383" lon="2.89717">
        <ele>82</ele>
        <time>2019-06-23T08:02:48Z</time>
      </trkpt>
      <trkpt lat="49.34374" lon="2.89715">
        <ele>83</ele>
        <time>2019-06-23T08:02:52Z</time>
      </trkpt>
      <trkpt lat="49.34359" lon="2.89698">
        <ele>83</ele>
        <time>2019-06-23T08:02:59Z</time>
      </trkpt>
      <trkpt lat="49.34323" lon="2.8968">
        <ele>85</ele>
        <time>2019-06-23T08:03:08Z</time>
      </trkpt>
      <trkpt lat="49.34301" lon="2.89669">
        <ele>85</ele>
        <time>2019-06-23T08:03:13Z</time>
      </trkpt>
      <trkpt lat="49.34253" lon="2.89657">
        <ele>86</ele>
        <time>2019-06-23T08:03:23Z</time>
      </trkpt>
      <trkpt lat="49.34208" lon="2.89648">
        <ele>87</ele>
        <time>2019-06-23T08:03:33Z</time>
      </trkpt>
      <trkpt lat="49.34169" lon="2.89631">
        <ele>87</ele>
        <time>2019-06-23T08:03:43Z</time>
      </trkpt>
      <trkpt lat="49.34152" lon="2.89628">
        <ele>86</ele>
        <time>2019-06-23T08:03:47Z</time>
      </trkpt>
      <trkpt lat="49.34107" lon="2.89621">
        <ele>86</ele>
        <time>2019-06-23T08:03:58Z</time>
      </trkpt>
      <trkpt lat="49.34061" lon="2.89592">
        <ele>84</ele>
        <time>2019-06-23T08:04:11Z</time>
      </trkpt>
      <trkpt lat="49.34028" lon="2.89575">
        <ele>80</ele>
        <time>2019-06-23T08:04:21Z</time>
      </trkpt>
      <trkpt lat="49.33996" lon="2.89589">
        <ele>79</ele>
        <time>2019-06-23T08:04:31Z</time>
      </trkpt>
      <trkpt lat="49.33955" lon="2.89616">
        <ele>79</ele>
        <time>2019-06-23T08:04:43Z</time>
      </trkpt>
      <trkpt lat="49.33952" lon="2.89618">
        <ele>79</ele>
        <time>2019-06-23T08:04:44Z</time>
      </trkpt>
      <trkpt lat="49.3392" lon="2.89636">
        <ele>79</ele>
        <time>2019-06-23T08:04:54Z</time>
      </trkpt>
      <trkpt lat="49.33913" lon="2.89642">
        <ele>79</ele>
        <time>2019-06-23T08:04:56Z</time>
      </trkpt>
      <trkpt lat="49.33874" lon="2.89667">
        <ele>82</ele>
        <time>2019-06-23T08:05:07Z</time>
      </trkpt>
      <trkpt lat="49.33847" lon="2.89678">
        <ele>82</ele>
        <time>2019-06-23T08:05:16Z</time>
      </trkpt>
      <trkpt lat="49.33797" lon="2.89716">
        <ele>84</ele>
        <time>2019-06-23T08:05:30Z</time>
      </trkpt>
      <trkpt lat="49.3376" lon="2.89743">
        <ele>86</ele>
        <time>2019-06-23T08:05:41Z</time>
      </trkpt>
      <trkpt lat="49.33731" lon="2.89763">
        <ele>89</ele>
        <time>2019-06-23T08:05:50Z</time>
      </trkpt>
      <trkpt lat="49.33724" lon="2.89765">
        <ele>90</ele>
        <time>2019-06-23T08:06:01Z</time>
      </trkpt>
      <trkpt lat="49.33723" lon="2.89767">
        <ele>90</ele>
        <time>2019-06-23T08:06:24Z</time>
      </trkpt>
      <trkpt lat="49.33723" lon="2.89767">
        <ele>90</ele>
        <time>2019-06-23T08:06:28Z</time>
      </trkpt>
      <trkpt lat="49.33725" lon="2.89769">
        <ele>90</ele>
        <time>2019-06-23T08:06:38Z</time>
      </trkpt>
      <trkpt lat="49.33725" lon="2.89769">
        <ele>90</ele>
        <time>2019-06-23T08:06:55Z</time>
      </trkpt>
      <trkpt lat="49.33725" lon="2.89768">
        <ele>90</ele>
        <time>2019-06-23T08:07:04Z</time>
      </trkpt>
      <trkpt lat="49.33704" lon="2.89779">
        <ele>91</ele>
        <time>2019-06-23T08:07:13Z</time>
      </trkpt>
      <trkpt lat="49.33672" lon="2.89786">
        <ele>92</ele>
        <time>2019-06-23T08:07:23Z</time>
      </trkpt>
      <trkpt lat="49.33642" lon="2.89792">
        <ele>99</ele>
        <time>2019-06-23T08:07:32Z</time>
      </trkpt>
      <trkpt lat="49.33621" lon="2.89798">
        <ele>100</ele>
        <time>2019-06-23T08:07:42Z</time>
      </trkpt>
      <trkpt lat="49.33597" lon="2.89801">
        <ele>102</ele>
        <time>2019-06-23T08:07:52Z</time>
      </trkpt>
      <trkpt lat="49.33576" lon="2.89807">
        <ele>107</ele>
        <time>2019-06-23T08:08:02Z</time>
      </trkpt>
      <trkpt lat="49.33564" lon="2.8981">
        <ele>107</ele>
        <time>2019-06-23T08:08:08Z</time>
      </trkpt>
      <trkpt lat="49.33555" lon="2.89811">
        <ele>107</ele>
        <time>2019-06-23T08:08:14Z</time>
      </trkpt>
      <trkpt lat="49.3355" lon="2.8981">
        <ele>107</ele>
        <time>2019-06-23T08:08:17Z</time>
      </trkpt>
      <trkpt lat="49.33531" lon="2.89801">
        <ele>108</ele>
        <time>2019-06-23T08:08:28Z</time>
      </trkpt>
      <trkpt lat="49.33525" lon="2.89796">
        <ele>108</ele>
        <time>2019-06-23T08:08:34Z</time>
      </trkpt>
      <trkpt lat="49.3351" lon="2.8979">
        <ele>108</ele>
        <time>2019-06-23T08:08:45Z</time>
      </trkpt>
      <trkpt lat="49.33498" lon="2.89783">
        <ele>111</ele>
        <time>2019-06-23T08:08:54Z</time>
      </trkpt>
      <trkpt lat="49.33491" lon="2.89779">
        <ele>111</ele>
        <time>2019-06-23T08:08:58Z</time>
      </trkpt>
      <trkpt lat="49.33481" lon="2.89774">
        <ele>112</ele>
        <time>2019-06-23T08:09:05Z</time>
      </trkpt>
      <trkpt lat="49.33476" lon="2.89773">
        <ele>112</ele>
        <time>2019-06-23T08:09:08Z</time>
      </trkpt>
      <trkpt lat="49.3346" lon="2.89773">
        <ele>113</ele>
        <time>2019-06-23T08:09:23Z</time>
      </trkpt>
      <trkpt lat="49.33452" lon="2.89774">
        <ele>114</ele>
        <time>2019-06-23T08:09:34Z</time>
      </trkpt>
      <trkpt lat="49.33448" lon="2.89773">
        <ele>114</ele>
        <time>2019-06-23T08:09:43Z</time>
      </trkpt>
      <trkpt lat="49.33446" lon="2.89773">
        <ele>114</ele>
        <time>2019-06-23T08:09:58Z</time>
      </trkpt>
      <trkpt lat="49.33438" lon="2.89773">
        <ele>115</ele>
        <time>2019-06-23T08:10:09Z</time>
      </trkpt>
      <trkpt lat="49.33434" lon="2.89771">
        <ele>115</ele>
        <time>2019-06-23T08:10:18Z</time>
      </trkpt>
      <trkpt lat="49.33432" lon="2.89771">
        <ele>115</ele>
        <time>2019-06-23T08:10:19Z</time>
      </trkpt>
      <trkpt lat="49.33411" lon="2.89768">
        <ele>121</ele>
        <time>2019-06-23T08:10:29Z</time>
      </trkpt>
      <trkpt lat="49.33408" lon="2.89767">
        <ele>121</ele>
        <time>2019-06-23T08:10:31Z</time>
      </trkpt>
      <trkpt lat="49.33395" lon="2.89761">
        <ele>121</ele>
        <time>2019-06-23T08:10:43Z</time>
      </trkpt>
      <trkpt lat="49.33393" lon="2.89761">
        <ele>121</ele>
        <time>2019-06-23T08:10:58Z</time>
      </trkpt>
      <trkpt lat="49.33383" lon="2.89762">
        <ele>122</ele>
        <time>2019-06-23T08:11:10Z</time>
      </trkpt>
      <trkpt lat="49.33377" lon="2.89762">
        <ele>122</ele>
        <time>2019-06-23T08:11:24Z</time>
      </trkpt>
      <trkpt lat="49.33371" lon="2.89764">
        <ele>122</ele>
        <time>2019-06-23T08:11:37Z</time>
      </trkpt>
      <trkpt lat="49.3336" lon="2.89768">
        <ele>123</ele>
        <time>2019-06-23T08:11:49Z</time>
      </trkpt>
      <trkpt lat="49.3335" lon="2.89766">
        <ele>124</ele>
        <time>2019-06-23T08:11:59Z</time>
      </trkpt>
      <trkpt lat="49.33327" lon="2.89764">
        <ele>128</ele>
        <time>2019-06-23T08:12:13Z</time>
      </trkpt>
      <trkpt lat="49.33316" lon="2.89762">
        <ele>129</ele>
        <time>2019-06-23T08:12:23Z</time>
      </trkpt>
      <trkpt lat="49.3331" lon="2.89763">
        <ele>129</ele>
        <time>2019-06-23T08:12:26Z</time>
      </trkpt>
      <trkpt lat="49.33301" lon="2.89761">
        <ele>129</ele>
        <time>2019-06-23T08:12:31Z</time>
      </trkpt>
      <trkpt lat="49.33285" lon="2.89752">
        <ele>130</ele>
        <time>2019-06-23T08:12:46Z</time>
      </trkpt>
      <trkpt lat="49.33281" lon="2.89751">
        <ele>130</ele>
        <time>2019-06-23T08:12:48Z</time>
      </trkpt>
      <trkpt lat="49.33279" lon="2.89761">
        <ele>130</ele>
        <time>2019-06-23T08:12:53Z</time>
      </trkpt>
      <trkpt lat="49.33299" lon="2.89807">
        <ele>130</ele>
        <time>2019-06-23T08:13:06Z</time>
      </trkpt>
      <trkpt lat="49.33309" lon="2.89845">
        <ele>130</ele>
        <time>2019-06-23T08:13:13Z</time>
      </trkpt>
      <trkpt lat="49.33321" lon="2.89894">
        <ele>132</ele>
        <time>2019-06-23T08:13:23Z</time>
      </trkpt>
      <trkpt lat="49.3333" lon="2.89903">
        <ele>132</ele>
        <time>2019-06-23T08:13:27Z</time>
      </trkpt>
      <trkpt lat="49.33341" lon="2.89934">
        <ele>131</ele>
        <time>2019-06-23T08:13:35Z</time>
      </trkpt>
      <trkpt lat="49.33343" lon="2.89947">
        <ele>131</ele>
        <time>2019-06-23T08:13:37Z</time>
      </trkpt>
      <trkpt lat="49.33351" lon="2.89986">
        <ele>133</ele>
        <time>2019-06-23T08:13:43Z</time>
      </trkpt>
      <trkpt lat="49.33354" lon="2.89997">
        <ele>133</ele>
        <time>2019-06-23T08:13:45Z</time>
      </trkpt>
      <trkpt lat="49.33366" lon="2.90016">
        <ele>134</ele>
        <time>2019-06-23T08:13:49Z</time>
      </trkpt>
      <trkpt lat="49.33406" lon="2.90048">
        <ele>134</ele>
        <time>2019-06-23T08:13:59Z</time>
      </trkpt>
      <trkpt lat="49.33421" lon="2.90072">
        <ele>130</ele>
        <time>2019-06-23T08:14:04Z</time>
      </trkpt>
      <trkpt lat="49.33426" lon="2.90086">
        <ele>131</ele>
        <time>2019-06-23T08:14:06Z</time>
      </trkpt>
      <trkpt lat="49.33438" lon="2.90128">
        <ele>129</ele>
        <time>2019-06-23T08:14:13Z</time>
      </trkpt>
      <trkpt lat="49.33445" lon="2.90152">
        <ele>130</ele>
        <time>2019-06-23T08:14:17Z</time>
      </trkpt>
      <trkpt lat="49.33451" lon="2.90175">
        <ele>132</ele>
        <time>2019-06-23T08:14:21Z</time>
      </trkpt>
      <trkpt lat="49.33471" lon="2.9022">
        <ele>132</ele>
        <time>2019-06-23T08:14:27Z</time>
      </trkpt>
      <trkpt lat="49.33505" lon="2.90281">
        <ele>128</ele>
        <time>2019-06-23T08:14:37Z</time>
      </trkpt>
      <trkpt lat="49.33508" lon="2.90289">
        <ele>128</ele>
        <time>2019-06-23T08:14:38Z</time>
      </trkpt>
      <trkpt lat="49.33505" lon="2.90342">
        <ele>129</ele>
        <time>2019-06-23T08:14:46Z</time>
      </trkpt>
      <trkpt lat="49.33492" lon="2.90355">
        <ele>132</ele>
        <time>2019-06-23T08:14:50Z</time>
      </trkpt>
      <trkpt lat="49.33485" lon="2.90362">
        <ele>132</ele>
        <time>2019-06-23T08:14:52Z</time>
      </trkpt>
      <trkpt lat="49.33442" lon="2.90406">
        <ele>133</ele>
        <time>2019-06-23T08:15:05Z</time>
      </trkpt>
      <trkpt lat="49.33431" lon="2.90416">
        <ele>134</ele>
        <time>2019-06-23T08:15:08Z</time>
      </trkpt>
      <trkpt lat="49.33418" lon="2.90424">
        <ele>133</ele>
        <time>2019-06-23T08:15:12Z</time>
      </trkpt>
      <trkpt lat="49.33398" lon="2.90446">
        <ele>133</ele>
        <time>2019-06-23T08:15:16Z</time>
      </trkpt>
      <trkpt lat="49.33367" lon="2.9049">
        <ele>131</ele>
        <time>2019-06-23T08:15:25Z</time>
      </trkpt>
      <trkpt lat="49.33342" lon="2.90522">
        <ele>128</ele>
        <time>2019-06-23T08:15:31Z</time>
      </trkpt>
      <trkpt lat="49.33323" lon="2.90545">
        <ele>131</ele>
        <time>2019-06-23T08:15:36Z</time>
      </trkpt>
      <trkpt lat="49.33296" lon="2.9059">
        <ele>128</ele>
        <time>2019-06-23T08:15:45Z</time>
      </trkpt>
      <trkpt lat="49.33289" lon="2.90601">
        <ele>128</ele>
        <time>2019-06-23T08:15:47Z</time>
      </trkpt>
      <trkpt lat="49.3325" lon="2.90656">
        <ele>130</ele>
        <time>2019-06-23T08:15:57Z</time>
      </trkpt>
      <trkpt lat="49.33219" lon="2.90692">
        <ele>130</ele>
        <time>2019-06-23T08:16:05Z</time>
      </trkpt>
      <trkpt lat="49.33209" lon="2.907">
        <ele>130</ele>
        <time>2019-06-23T08:16:07Z</time>
      </trkpt>
      <trkpt lat="49.33169" lon="2.90738">
        <ele>131</ele>
        <time>2019-06-23T08:16:15Z</time>
      </trkpt>
      <trkpt lat="49.33155" lon="2.90752">
        <ele>130</ele>
        <time>2019-06-23T08:16:18Z</time>
      </trkpt>
      <trkpt lat="49.3314" lon="2.90767">
        <ele>129</ele>
        <time>2019-06-23T08:16:21Z</time>
      </trkpt>
      <trkpt lat="49.3313" lon="2.90775">
        <ele>128</ele>
        <time>2019-06-23T08:16:23Z</time>
      </trkpt>
      <trkpt lat="49.33116" lon="2.90786">
        <ele>128</ele>
        <time>2019-06-23T08:16:26Z</time>
      </trkpt>
      <trkpt lat="49.3309" lon="2.90793">
        <ele>127</ele>
        <time>2019-06-23T08:16:31Z</time>
      </trkpt>
      <trkpt lat="49.33053" lon="2.90769">
        <ele>128</ele>
        <time>2019-06-23T08:16:41Z</time>
      </trkpt>
      <trkpt lat="49.33045" lon="2.90755">
        <ele>129</ele>
        <time>2019-06-23T08:16:44Z</time>
      </trkpt>
      <trkpt lat="49.3303" lon="2.90719">
        <ele>134</ele>
        <time>2019-06-23T08:16:53Z</time>
      </trkpt>
      <trkpt lat="49.33028" lon="2.9071">
        <ele>134</ele>
        <time>2019-06-23T08:17:01Z</time>
      </trkpt>
      <trkpt lat="49.33021" lon="2.90681">
        <ele>135</ele>
        <time>2019-06-23T08:17:10Z</time>
      </trkpt>
      <trkpt lat="49.33016" lon="2.90658">
        <ele>138</ele>
        <time>2019-06-23T08:17:15Z</time>
      </trkpt>
      <trkpt lat="49.33002" lon="2.90639">
        <ele>138</ele>
        <time>2019-06-23T08:17:23Z</time>
      </trkpt>
      <trkpt lat="49.33001" lon="2.90638">
        <ele>138</ele>
        <time>2019-06-23T08:17:38Z</time>
      </trkpt>
      <trkpt lat="49.32999" lon="2.90642">
        <ele>138</ele>
        <time>2019-06-23T08:17:40Z</time>
      </trkpt>
      <trkpt lat="49.33" lon="2.90658">
        <ele>138</ele>
        <time>2019-06-23T08:17:43Z</time>
      </trkpt>
      <trkpt lat="49.32999" lon="2.90697">
        <ele>135</ele>
        <time>2019-06-23T08:17:48Z</time>
      </trkpt>
      <trkpt lat="49.32995" lon="2.90716">
        <ele>135</ele>
        <time>2019-06-23T08:17:50Z</time>
      </trkpt>
      <trkpt lat="49.3299" lon="2.90759">
        <ele>131</ele>
        <time>2019-06-23T08:17:54Z</time>
      </trkpt>
      <trkpt lat="49.32991" lon="2.90791">
        <ele>129</ele>
        <time>2019-06-23T08:17:57Z</time>
      </trkpt>
      <trkpt lat="49.32999" lon="2.90875">
        <ele>124</ele>
        <time>2019-06-23T08:18:07Z</time>
      </trkpt>
      <trkpt lat="49.33005" lon="2.90905">
        <ele>117</ele>
        <time>2019-06-23T08:18:10Z</time>
      </trkpt>
      <trkpt lat="49.3301" lon="2.90943">
        <ele>113</ele>
        <time>2019-06-23T08:18:14Z</time>
      </trkpt>
      <trkpt lat="49.33028" lon="2.91006">
        <ele>108</ele>
        <time>2019-06-23T08:18:23Z</time>
      </trkpt>
      <trkpt lat="49.33029" lon="2.91011">
        <ele>108</ele>
        <time>2019-06-23T08:18:24Z</time>
      </trkpt>
      <trkpt lat="49.33038" lon="2.91053">
        <ele>107</ele>
        <time>2019-06-23T08:18:32Z</time>
      </trkpt>
      <trkpt lat="49.33046" lon="2.91071">
        <ele>106</ele>
        <time>2019-06-23T08:18:36Z</time>
      </trkpt>
      <trkpt lat="49.33055" lon="2.91085">
        <ele>107</ele>
        <time>2019-06-23T08:18:39Z</time>
      </trkpt>
      <trkpt lat="49.33069" lon="2.91124">
        <ele>108</ele>
        <time>2019-06-23T08:18:49Z</time>
      </trkpt>
      <trkpt lat="49.33086" lon="2.91161">
        <ele>106</ele>
        <time>2019-06-23T08:18:58Z</time>
      </trkpt>
      <trkpt lat="49.33097" lon="2.91191">
        <ele>108</ele>
        <time>2019-06-23T08:19:05Z</time>
      </trkpt>
      <trkpt lat="49.33112" lon="2.91217">
        <ele>109</ele>
        <time>2019-06-23T08:19:11Z</time>
      </trkpt>
      <trkpt lat="49.33123" lon="2.91246">
        <ele>110</ele>
        <time>2019-06-23T08:19:17Z</time>
      </trkpt>
      <trkpt lat="49.33142" lon="2.91282">
        <ele>116</ele>
        <time>2019-06-23T08:19:26Z</time>
      </trkpt>
      <trkpt lat="49.33144" lon="2.91286">
        <ele>116</ele>
        <time>2019-06-23T08:19:27Z</time>
      </trkpt>
      <trkpt lat="49.33156" lon="2.91314">
        <ele>116</ele>
        <time>2019-06-23T08:19:35Z</time>
      </trkpt>
      <trkpt lat="49.33166" lon="2.91334">
        <ele>115</ele>
        <time>2019-06-23T08:19:42Z</time>
      </trkpt>
      <trkpt lat="49.3317" lon="2.91338">
        <ele>115</ele>
        <time>2019-06-23T08:19:44Z</time>
      </trkpt>
      <trkpt lat="49.33171" lon="2.91343">
        <ele>114</ele>
        <time>2019-06-23T08:19:47Z</time>
      </trkpt>
      <trkpt lat="49.3317" lon="2.91353">
        <ele>114</ele>
        <time>2019-06-23T08:19:53Z</time>
      </trkpt>
      <trkpt lat="49.33165" lon="2.91357">
        <ele>122</ele>
        <time>2019-06-23T08:19:57Z</time>
      </trkpt>
      <trkpt lat="49.33152" lon="2.91364">
        <ele>124</ele>
        <time>2019-06-23T08:20:09Z</time>
      </trkpt>
      <trkpt lat="49.33149" lon="2.91366">
        <ele>124</ele>
        <time>2019-06-23T08:20:14Z</time>
      </trkpt>
      <trkpt lat="49.33151" lon="2.91362">
        <ele>124</ele>
        <time>2019-06-23T08:20:17Z</time>
      </trkpt>
      <trkpt lat="49.3314" lon="2.9137">
        <ele>125</ele>
        <time>2019-06-23T08:20:25Z</time>
      </trkpt>
      <trkpt lat="49.33127" lon="2.9138">
        <ele>127</ele>
        <time>2019-06-23T08:20:36Z</time>
      </trkpt>
      <trkpt lat="49.33123" lon="2.91383">
        <ele>127</ele>
        <time>2019-06-23T08:20:39Z</time>
      </trkpt>
      <trkpt lat="49.33108" lon="2.91398">
        <ele>129</ele>
        <time>2019-06-23T08:20:52Z</time>
      </trkpt>
      <trkpt lat="49.33098" lon="2.9141">
        <ele>131</ele>
        <time>2019-06-23T08:21:03Z</time>
      </trkpt>
      <trkpt lat="49.33088" lon="2.91417">
        <ele>135</ele>
        <time>2019-06-23T08:21:12Z</time>
      </trkpt>
      <trkpt lat="49.3308" lon="2.91426">
        <ele>136</ele>
        <time>2019-06-23T08:21:23Z</time>
      </trkpt>
      <trkpt lat="49.33074" lon="2.91433">
        <ele>137</ele>
        <time>2019-06-23T08:21:31Z</time>
      </trkpt>
      <trkpt lat="49.33066" lon="2.91439">
        <ele>137</ele>
        <time>2019-06-23T08:21:38Z</time>
      </trkpt>
      <trkpt lat="49.33052" lon="2.91453">
        <ele>138</ele>
        <time>2019-06-23T08:21:48Z</time>
      </trkpt>
      <trkpt lat="49.33045" lon="2.91458">
        <ele>138</ele>
        <time>2019-06-23T08:21:54Z</time>
      </trkpt>
      <trkpt lat="49.3303" lon="2.91473">
        <ele>139</ele>
        <time>2019-06-23T08:22:06Z</time>
      </trkpt>
      <trkpt lat="49.33029" lon="2.91475">
        <ele>139</ele>
        <time>2019-06-23T08:22:07Z</time>
      </trkpt>
      <trkpt lat="49.33023" lon="2.91482">
        <ele>139</ele>
        <time>2019-06-23T08:22:12Z</time>
      </trkpt>
      <trkpt lat="49.33013" lon="2.91503">
        <ele>141</ele>
        <time>2019-06-23T08:22:23Z</time>
      </trkpt>
      <trkpt lat="49.33014" lon="2.91506">
        <ele>141</ele>
        <time>2019-06-23T08:22:26Z</time>
      </trkpt>
      <trkpt lat="49.33023" lon="2.91509">
        <ele>141</ele>
        <time>2019-06-23T08:22:38Z</time>
      </trkpt>
      <trkpt lat="49.33039" lon="2.915">
        <ele>140</ele>
        <time>2019-06-23T08:22:46Z</time>
      </trkpt>
      <trkpt lat="49.3307" lon="2.91487">
        <ele>139</ele>
        <time>2019-06-23T08:22:56Z</time>
      </trkpt>
      <trkpt lat="49.3309" lon="2.91477">
        <ele>136</ele>
        <time>2019-06-23T08:23:01Z</time>
      </trkpt>
      <trkpt lat="49.33112" lon="2.91462">
        <ele>134</ele>
        <time>2019-06-23T08:23:07Z</time>
      </trkpt>
      <trkpt lat="49.33164" lon="2.91457">
        <ele>132</ele>
        <time>2019-06-23T08:23:15Z</time>
      </trkpt>
      <trkpt lat="49.33179" lon="2.91472">
        <ele>126</ele>
        <time>2019-06-23T08:23:19Z</time>
      </trkpt>
      <trkpt lat="49.33199" lon="2.91528">
        <ele>129</ele>
        <time>2019-06-23T08:23:29Z</time>
      </trkpt>
      <trkpt lat="49.33207" lon="2.91577">
        <ele>129</ele>
        <time>2019-06-23T08:23:39Z</time>
      </trkpt>
      <trkpt lat="49.33204" lon="2.91635">
        <ele>132</ele>
        <time>2019-06-23T08:23:50Z</time>
      </trkpt>
      <trkpt lat="49.33201" lon="2.91691">
        <ele>133</ele>
        <time>2019-06-23T08:24:00Z</time>
      </trkpt>
      <trkpt lat="49.332" lon="2.91725">
        <ele>133</ele>
        <time>2019-06-23T08:24:06Z</time>
      </trkpt>
      <trkpt lat="49.33196" lon="2.91762">
        <ele>133</ele>
        <time>2019-06-23T08:24:14Z</time>
      </trkpt>
      <trkpt lat="49.33188" lon="2.91831">
        <ele>135</ele>
        <time>2019-06-23T08:24:25Z</time>
      </trkpt>
      <trkpt lat="49.33185" lon="2.91876">
        <ele>134</ele>
        <time>2019-06-23T08:24:32Z</time>
      </trkpt>
      <trkpt lat="49.33178" lon="2.91927">
        <ele>137</ele>
        <time>2019-06-23T08:24:42Z</time>
      </trkpt>
      <trkpt lat="49.3316" lon="2.9195">
        <ele>141</ele>
        <time>2019-06-23T08:24:49Z</time>
      </trkpt>
      <trkpt lat="49.33122" lon="2.91978">
        <ele>141</ele>
        <time>2019-06-23T08:25:00Z</time>
      </trkpt>
      <trkpt lat="49.33088" lon="2.91984">
        <ele>143</ele>
        <time>2019-06-23T08:25:10Z</time>
      </trkpt>
      <trkpt lat="49.33063" lon="2.91971">
        <ele>143</ele>
        <time>2019-06-23T08:25:20Z</time>
      </trkpt>
      <trkpt lat="49.33023" lon="2.9196">
        <ele>143</ele>
        <time>2019-06-23T08:25:32Z</time>
      </trkpt>
      <trkpt lat="49.32998" lon="2.91982">
        <ele>146</ele>
        <time>2019-06-23T08:25:40Z</time>
      </trkpt>
      <trkpt lat="49.32976" lon="2.92004">
        <ele>145</ele>
        <time>2019-06-23T08:25:47Z</time>
      </trkpt>
      <trkpt lat="49.32977" lon="2.9201">
        <ele>145</ele>
        <time>2019-06-23T08:25:50Z</time>
      </trkpt>
      <trkpt lat="49.32987" lon="2.92016">
        <ele>144</ele>
        <time>2019-06-23T08:25:54Z</time>
      </trkpt>
      <trkpt lat="49.33008" lon="2.92026">
        <ele>143</ele>
        <time>2019-06-23T08:25:59Z</time>
      </trkpt>
      <trkpt lat="49.33033" lon="2.92031">
        <ele>142</ele>
        <time>2019-06-23T08:26:03Z</time>
      </trkpt>
      <trkpt lat="49.33063" lon="2.92049">
        <ele>142</ele>
        <time>2019-06-23T08:26:08Z</time>
      </trkpt>
      <trkpt lat="49.3309" lon="2.92063">
        <ele>141</ele>
        <time>2019-06-23T08:26:14Z</time>
      </trkpt>
      <trkpt lat="49.3311" lon="2.92066">
        <ele>140</ele>
        <time>2019-06-23T08:26:19Z</time>
      </trkpt>
      <trkpt lat="49.33127" lon="2.92068">
        <ele>139</ele>
        <time>2019-06-23T08:26:23Z</time>
      </trkpt>
      <trkpt lat="49.3315" lon="2.92077">
        <ele>138</ele>
        <time>2019-06-23T08:26:32Z</time>
      </trkpt>
      <trkpt lat="49.33151" lon="2.92078">
        <ele>138</ele>
        <time>2019-06-23T08:26:33Z</time>
      </trkpt>
      <trkpt lat="49.33179" lon="2.92075">
        <ele>132</ele>
        <time>2019-06-23T08:26:41Z</time>
      </trkpt>
      <trkpt lat="49.33208" lon="2.92069">
        <ele>128</ele>
        <time>2019-06-23T08:26:45Z</time>
      </trkpt>
      <trkpt lat="49.33227" lon="2.92078">
        <ele>126</ele>
        <time>2019-06-23T08:26:50Z</time>
      </trkpt>
      <trkpt lat="49.33255" lon="2.921">
        <ele>120</ele>
        <time>2019-06-23T08:26:58Z</time>
      </trkpt>
      <trkpt lat="49.33262" lon="2.92109">
        <ele>119</ele>
        <time>2019-06-23T08:27:00Z</time>
      </trkpt>
      <trkpt lat="49.33301" lon="2.92158">
        <ele>117</ele>
        <time>2019-06-23T08:27:09Z</time>
      </trkpt>
      <trkpt lat="49.33306" lon="2.92163">
        <ele>116</ele>
        <time>2019-06-23T08:27:10Z</time>
      </trkpt>
      <trkpt lat="49.33318" lon="2.92179">
        <ele>116</ele>
        <time>2019-06-23T08:27:13Z</time>
      </trkpt>
      <trkpt lat="49.33348" lon="2.92211">
        <ele>110</ele>
        <time>2019-06-23T08:27:22Z</time>
      </trkpt>
      <trkpt lat="49.3336" lon="2.92221">
        <ele>110</ele>
        <time>2019-06-23T08:27:25Z</time>
      </trkpt>
      <trkpt lat="49.33399" lon="2.92243">
        <ele>110</ele>
        <time>2019-06-23T08:27:35Z</time>
      </trkpt>
      <trkpt lat="49.3341" lon="2.92249">
        <ele>111</ele>
        <time>2019-06-23T08:27:39Z</time>
      </trkpt>
      <trkpt lat="49.33421" lon="2.92252">
        <ele>113</ele>
        <time>2019-06-23T08:27:44Z</time>
      </trkpt>
      <trkpt lat="49.3343" lon="2.92251">
        <ele>115</ele>
        <time>2019-06-23T08:27:48Z</time>
      </trkpt>
      <trkpt lat="49.33439" lon="2.9226">
        <ele>117</ele>
        <time>2019-06-23T08:27:53Z</time>
      </trkpt>
      <trkpt lat="49.33441" lon="2.92265">
        <ele>118</ele>
        <time>2019-06-23T08:27:55Z</time>
      </trkpt>
      <trkpt lat="49.33446" lon="2.92273">
        <ele>119</ele>
        <time>2019-06-23T08:27:59Z</time>
      </trkpt>
      <trkpt lat="49.33459" lon="2.9229">
        <ele>120</ele>
        <time>2019-06-23T08:28:08Z</time>
      </trkpt>
      <trkpt lat="49.33468" lon="2.92305">
        <ele>121</ele>
        <time>2019-06-23T08:28:15Z</time>
      </trkpt>
      <trkpt lat="49.33471" lon="2.9231">
        <ele>121</ele>
        <time>2019-06-23T08:28:18Z</time>
      </trkpt>
      <trkpt lat="49.33484" lon="2.92325">
        <ele>122</ele>
        <time>2019-06-23T08:28:30Z</time>
      </trkpt>
      <trkpt lat="49.33492" lon="2.92335">
        <ele>124</ele>
        <time>2019-06-23T08:28:36Z</time>
      </trkpt>
      <trkpt lat="49.33497" lon="2.9234">
        <ele>124</ele>
        <time>2019-06-23T08:28:40Z</time>
      </trkpt>
      <trkpt lat="49.33506" lon="2.92353">
        <ele>127</ele>
        <time>2019-06-23T08:28:48Z</time>
      </trkpt>
      <trkpt lat="49.33511" lon="2.92364">
        <ele>128</ele>
        <time>2019-06-23T08:28:53Z</time>
      </trkpt>
      <trkpt lat="49.33523" lon="2.92387">
        <ele>129</ele>
        <time>2019-06-23T08:29:06Z</time>
      </trkpt>
      <trkpt lat="49.33531" lon="2.92398">
        <ele>129</ele>
        <time>2019-06-23T08:29:14Z</time>
      </trkpt>
      <trkpt lat="49.33541" lon="2.9241">
        <ele>129</ele>
        <time>2019-06-23T08:29:21Z</time>
      </trkpt>
      <trkpt lat="49.33542" lon="2.92436">
        <ele>131</ele>
        <time>2019-06-23T08:29:32Z</time>
      </trkpt>
      <trkpt lat="49.33544" lon="2.92441">
        <ele>131</ele>
        <time>2019-06-23T08:29:34Z</time>
      </trkpt>
      <trkpt lat="49.33548" lon="2.92459">
        <ele>131</ele>
        <time>2019-06-23T08:29:42Z</time>
      </trkpt>
      <trkpt lat="49.33553" lon="2.92464">
        <ele>131</ele>
        <time>2019-06-23T08:29:44Z</time>
      </trkpt>
      <trkpt lat="49.33573" lon="2.92493">
        <ele>131</ele>
        <time>2019-06-23T08:29:55Z</time>
      </trkpt>
      <trkpt lat="49.33578" lon="2.92502">
        <ele>132</ele>
        <time>2019-06-23T08:29:58Z</time>
      </trkpt>
      <trkpt lat="49.33585" lon="2.92527">
        <ele>132</ele>
        <time>2019-06-23T08:30:08Z</time>
      </trkpt>
      <trkpt lat="49.33587" lon="2.92533">
        <ele>133</ele>
        <time>2019-06-23T08:30:11Z</time>
      </trkpt>
      <trkpt lat="49.33595" lon="2.92556">
        <ele>133</ele>
        <time>2019-06-23T08:30:24Z</time>
      </trkpt>
      <trkpt lat="49.33598" lon="2.92562">
        <ele>133</ele>
        <time>2019-06-23T08:30:27Z</time>
      </trkpt>
      <trkpt lat="49.33602" lon="2.92571">
        <ele>134</ele>
        <time>2019-06-23T08:30:32Z</time>
      </trkpt>
      <trkpt lat="49.33606" lon="2.9258">
        <ele>134</ele>
        <time>2019-06-23T08:30:37Z</time>
      </trkpt>
      <trkpt lat="49.33612" lon="2.92595">
        <ele>136</ele>
        <time>2019-06-23T08:30:43Z</time>
      </trkpt>
      <trkpt lat="49.33622" lon="2.92608">
        <ele>136</ele>
        <time>2019-06-23T08:30:52Z</time>
      </trkpt>
      <trkpt lat="49.33636" lon="2.92624">
        <ele>136</ele>
        <time>2019-06-23T08:31:02Z</time>
      </trkpt>
      <trkpt lat="49.33636" lon="2.92628">
        <ele>137</ele>
        <time>2019-06-23T08:31:05Z</time>
      </trkpt>
      <trkpt lat="49.33645" lon="2.92641">
        <ele>137</ele>
        <time>2019-06-23T08:31:11Z</time>
      </trkpt>
      <trkpt lat="49.33648" lon="2.92646">
        <ele>137</ele>
        <time>2019-06-23T08:31:13Z</time>
      </trkpt>
      <trkpt lat="49.33658" lon="2.92663">
        <ele>137</ele>
        <time>2019-06-23T08:31:20Z</time>
      </trkpt>
      <trkpt lat="49.33665" lon="2.92682">
        <ele>139</ele>
        <time>2019-06-23T08:31:23Z</time>
      </trkpt>
      <trkpt lat="49.33679" lon="2.92708">
        <ele>138</ele>
        <time>2019-06-23T08:31:32Z</time>
      </trkpt>
      <trkpt lat="49.33687" lon="2.92719">
        <ele>138</ele>
        <time>2019-06-23T08:31:36Z</time>
      </trkpt>
      <trkpt lat="49.33695" lon="2.9273">
        <ele>138</ele>
        <time>2019-06-23T08:31:40Z</time>
      </trkpt>
      <trkpt lat="49.33702" lon="2.92745">
        <ele>139</ele>
        <time>2019-06-23T08:31:46Z</time>
      </trkpt>
      <trkpt lat="49.3371" lon="2.92753">
        <ele>140</ele>
        <time>2019-06-23T08:31:50Z</time>
      </trkpt>
      <trkpt lat="49.33717" lon="2.92761">
        <ele>140</ele>
        <time>2019-06-23T08:31:53Z</time>
      </trkpt>
      <trkpt lat="49.33724" lon="2.92774">
        <ele>140</ele>
        <time>2019-06-23T08:31:58Z</time>
      </trkpt>
      <trkpt lat="49.3374" lon="2.92801">
        <ele>140</ele>
        <time>2019-06-23T08:32:09Z</time>
      </trkpt>
      <trkpt lat="49.33754" lon="2.92821">
        <ele>139</ele>
        <time>2019-06-23T08:32:17Z</time>
      </trkpt>
      <trkpt lat="49.3377" lon="2.92847">
        <ele>139</ele>
        <time>2019-06-23T08:32:26Z</time>
      </trkpt>
      <trkpt lat="49.33772" lon="2.92858">
        <ele>139</ele>
        <time>2019-06-23T08:32:30Z</time>
      </trkpt>
      <trkpt lat="49.33781" lon="2.92887">
        <ele>139</ele>
        <time>2019-06-23T08:32:39Z</time>
      </trkpt>
      <trkpt lat="49.33787" lon="2.92902">
        <ele>139</ele>
        <time>2019-06-23T08:32:42Z</time>
      </trkpt>
      <trkpt lat="49.33803" lon="2.92955">
        <ele>139</ele>
        <time>2019-06-23T08:32:53Z</time>
      </trkpt>
      <trkpt lat="49.3381" lon="2.93022">
        <ele>140</ele>
        <time>2019-06-23T08:33:04Z</time>
      </trkpt>
      <trkpt lat="49.33813" lon="2.93067">
        <ele>140</ele>
        <time>2019-06-23T08:33:12Z</time>
      </trkpt>
      <trkpt lat="49.33828" lon="2.9312">
        <ele>141</ele>
        <time>2019-06-23T08:33:21Z</time>
      </trkpt>
      <trkpt lat="49.33838" lon="2.93182">
        <ele>141</ele>
        <time>2019-06-23T08:33:32Z</time>
      </trkpt>
      <trkpt lat="49.33842" lon="2.93244">
        <ele>142</ele>
        <time>2019-06-23T08:33:42Z</time>
      </trkpt>
      <trkpt lat="49.33846" lon="2.93262">
        <ele>141</ele>
        <time>2019-06-23T08:33:45Z</time>
      </trkpt>
      <trkpt lat="49.3385" lon="2.93276">
        <ele>141</ele>
        <time>2019-06-23T08:33:47Z</time>
      </trkpt>
      <trkpt lat="49.33869" lon="2.93335">
        <ele>139</ele>
        <time>2019-06-23T08:33:55Z</time>
      </trkpt>
      <trkpt lat="49.33877" lon="2.93367">
        <ele>138</ele>
        <time>2019-06-23T08:33:59Z</time>
      </trkpt>
      <trkpt lat="49.33891" lon="2.93417">
        <ele>137</ele>
        <time>2019-06-23T08:34:07Z</time>
      </trkpt>
      <trkpt lat="49.33897" lon="2.93448">
        <ele>137</ele>
        <time>2019-06-23T08:34:12Z</time>
      </trkpt>
      <trkpt lat="49.33906" lon="2.93477">
        <ele>136</ele>
        <time>2019-06-23T08:34:16Z</time>
      </trkpt>
      <trkpt lat="49.3391" lon="2.935">
        <ele>135</ele>
        <time>2019-06-23T08:34:19Z</time>
      </trkpt>
      <trkpt lat="49.33918" lon="2.93564">
        <ele>134</ele>
        <time>2019-06-23T08:34:27Z</time>
      </trkpt>
      <trkpt lat="49.33926" lon="2.93595">
        <ele>135</ele>
        <time>2019-06-23T08:34:31Z</time>
      </trkpt>
      <trkpt lat="49.33928" lon="2.93609">
        <ele>135</ele>
        <time>2019-06-23T08:34:33Z</time>
      </trkpt>
      <trkpt lat="49.33933" lon="2.93629">
        <ele>135</ele>
        <time>2019-06-23T08:34:36Z</time>
      </trkpt>
      <trkpt lat="49.33944" lon="2.93669">
        <ele>136</ele>
        <time>2019-06-23T08:34:42Z</time>
      </trkpt>
      <trkpt lat="49.33949" lon="2.9369">
        <ele>136</ele>
        <time>2019-06-23T08:34:45Z</time>
      </trkpt>
      <trkpt lat="49.33951" lon="2.9371">
        <ele>136</ele>
        <time>2019-06-23T08:34:48Z</time>
      </trkpt>
      <trkpt lat="49.33952" lon="2.93724">
        <ele>136</ele>
        <time>2019-06-23T08:34:50Z</time>
      </trkpt>
      <trkpt lat="49.33955" lon="2.93737">
        <ele>136</ele>
        <time>2019-06-23T08:34:52Z</time>
      </trkpt>
      <trkpt lat="49.33961" lon="2.93769">
        <ele>136</ele>
        <time>2019-06-23T08:34:57Z</time>
      </trkpt>
      <trkpt lat="49.33967" lon="2.93796">
        <ele>136</ele>
        <time>2019-06-23T08:35:01Z</time>
      </trkpt>
      <trkpt lat="49.33976" lon="2.93848">
        <ele>135</ele>
        <time>2019-06-23T08:35:08Z</time>
      </trkpt>
      <trkpt lat="49.33981" lon="2.93875">
        <ele>135</ele>
        <time>2019-06-23T08:35:12Z</time>
      </trkpt>
      <trkpt lat="49.33985" lon="2.93905">
        <ele>135</ele>
        <time>2019-06-23T08:35:16Z</time>
      </trkpt>
      <trkpt lat="49.33994" lon="2.93962">
        <ele>134</ele>
        <time>2019-06-23T08:35:24Z</time>
      </trkpt>
      <trkpt lat="49.34005" lon="2.93979">
        <ele>133</ele>
        <time>2019-06-23T08:35:28Z</time>
      </trkpt>
      <trkpt lat="49.34039" lon="2.94024">
        <ele>132</ele>
        <time>2019-06-23T08:35:38Z</time>
      </trkpt>
      <trkpt lat="49.34044" lon="2.94035">
        <ele>132</ele>
        <time>2019-06-23T08:35:40Z</time>
      </trkpt>
      <trkpt lat="49.34072" lon="2.94102">
        <ele>132</ele>
        <time>2019-06-23T08:35:52Z</time>
      </trkpt>
      <trkpt lat="49.34081" lon="2.94153">
        <ele>131</ele>
        <time>2019-06-23T08:36:00Z</time>
      </trkpt>
      <trkpt lat="49.34086" lon="2.94185">
        <ele>130</ele>
        <time>2019-06-23T08:36:05Z</time>
      </trkpt>
      <trkpt lat="49.34098" lon="2.94227">
        <ele>131</ele>
        <time>2019-06-23T08:36:11Z</time>
      </trkpt>
      <trkpt lat="49.34114" lon="2.94267">
        <ele>130</ele>
        <time>2019-06-23T08:36:17Z</time>
      </trkpt>
      <trkpt lat="49.34117" lon="2.94278">
        <ele>130</ele>
        <time>2019-06-23T08:36:19Z</time>
      </trkpt>
      <trkpt lat="49.34123" lon="2.94303">
        <ele>130</ele>
        <time>2019-06-23T08:36:23Z</time>
      </trkpt>
      <trkpt lat="49.34138" lon="2.94356">
        <ele>130</ele>
        <time>2019-06-23T08:36:32Z</time>
      </trkpt>
      <trkpt lat="49.34142" lon="2.94379">
        <ele>130</ele>
        <time>2019-06-23T08:36:36Z</time>
      </trkpt>
      <trkpt lat="49.34156" lon="2.94428">
        <ele>130</ele>
        <time>2019-06-23T08:36:44Z</time>
      </trkpt>
      <trkpt lat="49.3416" lon="2.9444">
        <ele>131</ele>
        <time>2019-06-23T08:36:46Z</time>
      </trkpt>
      <trkpt lat="49.34168" lon="2.94458">
        <ele>129</ele>
        <time>2019-06-23T08:36:49Z</time>
      </trkpt>
      <trkpt lat="49.3418" lon="2.94473">
        <ele>130</ele>
        <time>2019-06-23T08:36:52Z</time>
      </trkpt>
      <trkpt lat="49.34192" lon="2.94499">
        <ele>130</ele>
        <time>2019-06-23T08:36:56Z</time>
      </trkpt>
      <trkpt lat="49.34198" lon="2.94529">
        <ele>130</ele>
        <time>2019-06-23T08:37:01Z</time>
      </trkpt>
      <trkpt lat="49.34227" lon="2.94559">
        <ele>130</ele>
        <time>2019-06-23T08:37:06Z</time>
      </trkpt>
      <trkpt lat="49.3425" lon="2.94622">
        <ele>130</ele>
        <time>2019-06-23T08:37:17Z</time>
      </trkpt>
      <trkpt lat="49.34252" lon="2.94628">
        <ele>130</ele>
        <time>2019-06-23T08:37:18Z</time>
      </trkpt>
      <trkpt lat="49.34269" lon="2.9464">
        <ele>130</ele>
        <time>2019-06-23T08:37:24Z</time>
      </trkpt>
      <trkpt lat="49.34301" lon="2.94633">
        <ele>130</ele>
        <time>2019-06-23T08:37:31Z</time>
      </trkpt>
      <trkpt lat="49.34305" lon="2.94632">
        <ele>130</ele>
        <time>2019-06-23T08:37:32Z</time>
      </trkpt>
      <trkpt lat="49.34323" lon="2.94627">
        <ele>130</ele>
        <time>2019-06-23T08:37:36Z</time>
      </trkpt>
      <trkpt lat="49.34347" lon="2.94617">
        <ele>131</ele>
        <time>2019-06-23T08:37:41Z</time>
      </trkpt>
      <trkpt lat="49.34394" lon="2.94604">
        <ele>133</ele>
        <time>2019-06-23T08:37:53Z</time>
      </trkpt>
      <trkpt lat="49.34423" lon="2.94591">
        <ele>134</ele>
        <time>2019-06-23T08:38:02Z</time>
      </trkpt>
      <trkpt lat="49.34464" lon="2.94577">
        <ele>133</ele>
        <time>2019-06-23T08:38:11Z</time>
      </trkpt>
      <trkpt lat="49.34498" lon="2.94568">
        <ele>133</ele>
        <time>2019-06-23T08:38:18Z</time>
      </trkpt>
      <trkpt lat="49.34538" lon="2.94551">
        <ele>133</ele>
        <time>2019-06-23T08:38:27Z</time>
      </trkpt>
      <trkpt lat="49.34575" lon="2.94541">
        <ele>133</ele>
        <time>2019-06-23T08:38:35Z</time>
      </trkpt>
      <trkpt lat="49.34596" lon="2.94532">
        <ele>132</ele>
        <time>2019-06-23T08:38:39Z</time>
      </trkpt>
      <trkpt lat="49.34612" lon="2.94528">
        <ele>132</ele>
        <time>2019-06-23T08:38:42Z</time>
      </trkpt>
      <trkpt lat="49.34652" lon="2.94514">
        <ele>131</ele>
        <time>2019-06-23T08:38:53Z</time>
      </trkpt>
      <trkpt lat="49.34657" lon="2.94513">
        <ele>131</ele>
        <time>2019-06-23T08:38:55Z</time>
      </trkpt>
      <trkpt lat="49.34706" lon="2.9453">
        <ele>129</ele>
        <time>2019-06-23T08:39:05Z</time>
      </trkpt>
      <trkpt lat="49.34711" lon="2.94532">
        <ele>129</ele>
        <time>2019-06-23T08:39:06Z</time>
      </trkpt>
      <trkpt lat="49.34736" lon="2.94545">
        <ele>129</ele>
        <time>2019-06-23T08:39:14Z</time>
      </trkpt>
      <trkpt lat="49.3474" lon="2.94548">
        <ele>129</ele>
        <time>2019-06-23T08:39:15Z</time>
      </trkpt>
      <trkpt lat="49.34757" lon="2.94561">
        <ele>127</ele>
        <time>2019-06-23T08:39:20Z</time>
      </trkpt>
      <trkpt lat="49.34775" lon="2.94577">
        <ele>127</ele>
        <time>2019-06-23T08:39:25Z</time>
      </trkpt>
      <trkpt lat="49.34806" lon="2.94601">
        <ele>128</ele>
        <time>2019-06-23T08:39:33Z</time>
      </trkpt>
      <trkpt lat="49.34814" lon="2.94609">
        <ele>128</ele>
        <time>2019-06-23T08:39:35Z</time>
      </trkpt>
      <trkpt lat="49.34872" lon="2.94655">
        <ele>128</ele>
        <time>2019-06-23T08:39:49Z</time>
      </trkpt>
      <trkpt lat="49.34892" lon="2.94671">
        <ele>129</ele>
        <time>2019-06-23T08:39:54Z</time>
      </trkpt>
      <trkpt lat="49.34911" lon="2.94688">
        <ele>129</ele>
        <time>2019-06-23T08:39:59Z</time>
      </trkpt>
      <trkpt lat="49.34922" lon="2.94705">
        <ele>127</ele>
        <time>2019-06-23T08:40:02Z</time>
      </trkpt>
      <trkpt lat="49.34929" lon="2.94725">
        <ele>127</ele>
        <time>2019-06-23T08:40:05Z</time>
      </trkpt>
      <trkpt lat="49.34932" lon="2.94739">
        <ele>127</ele>
        <time>2019-06-23T08:40:07Z</time>
      </trkpt>
      <trkpt lat="49.34939" lon="2.94761">
        <ele>127</ele>
        <time>2019-06-23T08:40:10Z</time>
      </trkpt>
      <trkpt lat="49.34955" lon="2.94824">
        <ele>126</ele>
        <time>2019-06-23T08:40:19Z</time>
      </trkpt>
      <trkpt lat="49.34966" lon="2.94854">
        <ele>127</ele>
        <time>2019-06-23T08:40:24Z</time>
      </trkpt>
      <trkpt lat="49.34982" lon="2.9487">
        <ele>127</ele>
        <time>2019-06-23T08:40:29Z</time>
      </trkpt>
      <trkpt lat="49.35037" lon="2.94911">
        <ele>128</ele>
        <time>2019-06-23T08:40:41Z</time>
      </trkpt>
      <trkpt lat="49.35048" lon="2.94922">
        <ele>129</ele>
        <time>2019-06-23T08:40:44Z</time>
      </trkpt>
      <trkpt lat="49.35075" lon="2.94946">
        <ele>129</ele>
        <time>2019-06-23T08:40:50Z</time>
      </trkpt>
      <trkpt lat="49.35084" lon="2.94957">
        <ele>127</ele>
        <time>2019-06-23T08:40:52Z</time>
      </trkpt>
      <trkpt lat="49.35091" lon="2.9499">
        <ele>128</ele>
        <time>2019-06-23T08:40:58Z</time>
      </trkpt>
      <trkpt lat="49.35098" lon="2.95032">
        <ele>128</ele>
        <time>2019-06-23T08:41:08Z</time>
      </trkpt>
      <trkpt lat="49.35098" lon="2.95037">
        <ele>128</ele>
        <time>2019-06-23T08:41:09Z</time>
      </trkpt>
      <trkpt lat="49.35099" lon="2.95059">
        <ele>127</ele>
        <time>2019-06-23T08:41:13Z</time>
      </trkpt>
      <trkpt lat="49.35095" lon="2.95086">
        <ele>127</ele>
        <time>2019-06-23T08:41:17Z</time>
      </trkpt>
      <trkpt lat="49.35102" lon="2.9512">
        <ele>127</ele>
        <time>2019-06-23T08:41:26Z</time>
      </trkpt>
      <trkpt lat="49.35108" lon="2.95108">
        <ele>127</ele>
        <time>2019-06-23T08:41:30Z</time>
      </trkpt>
      <trkpt lat="49.35129" lon="2.95074">
        <ele>127</ele>
        <time>2019-06-23T08:41:36Z</time>
      </trkpt>
      <trkpt lat="49.35145" lon="2.95021">
        <ele>127</ele>
        <time>2019-06-23T08:41:42Z</time>
      </trkpt>
      <trkpt lat="49.35163" lon="2.94938">
        <ele>122</ele>
        <time>2019-06-23T08:41:50Z</time>
      </trkpt>
      <trkpt lat="49.35186" lon="2.94913">
        <ele>114</ele>
        <time>2019-06-23T08:41:57Z</time>
      </trkpt>
      <trkpt lat="49.35189" lon="2.94915">
        <ele>114</ele>
        <time>2019-06-23T08:41:58Z</time>
      </trkpt>
      <trkpt lat="49.3522" lon="2.94939">
        <ele>117</ele>
        <time>2019-06-23T08:42:08Z</time>
      </trkpt>
      <trkpt lat="49.35256" lon="2.94976">
        <ele>116</ele>
        <time>2019-06-23T08:42:18Z</time>
      </trkpt>
      <trkpt lat="49.35306" lon="2.95023">
        <ele>119</ele>
        <time>2019-06-23T08:42:27Z</time>
      </trkpt>
      <trkpt lat="49.35317" lon="2.95031">
        <ele>119</ele>
        <time>2019-06-23T08:42:29Z</time>
      </trkpt>
      <trkpt lat="49.3537" lon="2.95079">
        <ele>112</ele>
        <time>2019-06-23T08:42:38Z</time>
      </trkpt>
      <trkpt lat="49.35446" lon="2.95148">
        <ele>107</ele>
        <time>2019-06-23T08:42:51Z</time>
      </trkpt>
      <trkpt lat="49.35517" lon="2.95212">
        <ele>102</ele>
        <time>2019-06-23T08:43:02Z</time>
      </trkpt>
      <trkpt lat="49.35531" lon="2.95224">
        <ele>102</ele>
        <time>2019-06-23T08:43:04Z</time>
      </trkpt>
      <trkpt lat="49.35543" lon="2.95238">
        <ele>101</ele>
        <time>2019-06-23T08:43:06Z</time>
      </trkpt>
      <trkpt lat="49.3557" lon="2.95258">
        <ele>101</ele>
        <time>2019-06-23T08:43:13Z</time>
      </trkpt>
      <trkpt lat="49.35574" lon="2.95258">
        <ele>101</ele>
        <time>2019-06-23T08:43:19Z</time>
      </trkpt>
      <trkpt lat="49.35577" lon="2.95263">
        <ele>101</ele>
        <time>2019-06-23T08:43:23Z</time>
      </trkpt>
      <trkpt lat="49.35582" lon="2.95272">
        <ele>103</ele>
        <time>2019-06-23T08:43:28Z</time>
      </trkpt>
      <trkpt lat="49.3559" lon="2.95281">
        <ele>97</ele>
        <time>2019-06-23T08:43:31Z</time>
      </trkpt>
      <trkpt lat="49.35609" lon="2.95294">
        <ele>97</ele>
        <time>2019-06-23T08:43:35Z</time>
      </trkpt>
      <trkpt lat="49.35672" lon="2.95357">
        <ele>92</ele>
        <time>2019-06-23T08:43:48Z</time>
      </trkpt>
      <trkpt lat="49.35682" lon="2.95368">
        <ele>93</ele>
        <time>2019-06-23T08:43:50Z</time>
      </trkpt>
      <trkpt lat="49.35697" lon="2.9538">
        <ele>92</ele>
        <time>2019-06-23T08:43:53Z</time>
      </trkpt>
      <trkpt lat="49.35748" lon="2.95368">
        <ele>90</ele>
        <time>2019-06-23T08:44:03Z</time>
      </trkpt>
      <trkpt lat="49.35754" lon="2.95366">
        <ele>86</ele>
        <time>2019-06-23T08:44:04Z</time>
      </trkpt>
      <trkpt lat="49.35839" lon="2.95339">
        <ele>82</ele>
        <time>2019-06-23T08:44:20Z</time>
      </trkpt>
      <trkpt lat="49.3588" lon="2.95325">
        <ele>78</ele>
        <time>2019-06-23T08:44:28Z</time>
      </trkpt>
      <trkpt lat="49.35893" lon="2.95323">
        <ele>78</ele>
        <time>2019-06-23T08:44:31Z</time>
      </trkpt>
      <trkpt lat="49.3593" lon="2.95309">
        <ele>75</ele>
        <time>2019-06-23T08:44:40Z</time>
      </trkpt>
      <trkpt lat="49.35941" lon="2.95305">
        <ele>75</ele>
        <time>2019-06-23T08:44:43Z</time>
      </trkpt>
      <trkpt lat="49.35989" lon="2.95292">
        <ele>74</ele>
        <time>2019-06-23T08:44:55Z</time>
      </trkpt>
      <trkpt lat="49.35991" lon="2.95291">
        <ele>74</ele>
        <time>2019-06-23T08:44:56Z</time>
      </trkpt>
      <trkpt lat="49.35996" lon="2.95286">
        <ele>74</ele>
        <time>2019-06-23T08:44:59Z</time>
      </trkpt>
      <trkpt lat="49.36021" lon="2.95276">
        <ele>73</ele>
        <time>2019-06-23T08:45:10Z</time>
      </trkpt>
      <trkpt lat="49.36029" lon="2.95276">
        <ele>74</ele>
        <time>2019-06-23T08:45:13Z</time>
      </trkpt>
      <trkpt lat="49.36041" lon="2.95272">
        <ele>74</ele>
        <time>2019-06-23T08:45:17Z</time>
      </trkpt>
      <trkpt lat="49.3606" lon="2.95266">
        <ele>74</ele>
        <time>2019-06-23T08:45:26Z</time>
      </trkpt>
      <trkpt lat="49.36071" lon="2.95263">
        <ele>74</ele>
        <time>2019-06-23T08:45:31Z</time>
      </trkpt>
      <trkpt lat="49.36089" lon="2.95255">
        <ele>74</ele>
        <time>2019-06-23T08:45:40Z</time>
      </trkpt>
      <trkpt lat="49.36091" lon="2.95254">
        <ele>74</ele>
        <time>2019-06-23T08:45:41Z</time>
      </trkpt>
      <trkpt lat="49.36114" lon="2.95246">
        <ele>74</ele>
        <time>2019-06-23T08:45:48Z</time>
      </trkpt>
      <trkpt lat="49.36145" lon="2.95234">
        <ele>75</ele>
        <time>2019-06-23T08:45:59Z</time>
      </trkpt>
      <trkpt lat="49.36152" lon="2.95233">
        <ele>75</ele>
        <time>2019-06-23T08:46:02Z</time>
      </trkpt>
      <trkpt lat="49.36158" lon="2.95228">
        <ele>75</ele>
        <time>2019-06-23T08:46:06Z</time>
      </trkpt>
      <trkpt lat="49.36187" lon="2.9522">
        <ele>77</ele>
        <time>2019-06-23T08:46:17Z</time>
      </trkpt>
      <trkpt lat="49.36208" lon="2.95215">
        <ele>78</ele>
        <time>2019-06-23T08:46:23Z</time>
      </trkpt>
      <trkpt lat="49.36217" lon="2.95216">
        <ele>78</ele>
        <time>2019-06-23T08:46:25Z</time>
      </trkpt>
      <trkpt lat="49.36256" lon="2.95201">
        <ele>78</ele>
        <time>2019-06-23T08:46:36Z</time>
      </trkpt>
      <trkpt lat="49.36289" lon="2.95187">
        <ele>78</ele>
        <time>2019-06-23T08:46:46Z</time>
      </trkpt>
      <trkpt lat="49.3631" lon="2.95169">
        <ele>78</ele>
        <time>2019-06-23T08:46:53Z</time>
      </trkpt>
      <trkpt lat="49.36311" lon="2.95165">
        <ele>80</ele>
        <time>2019-06-23T08:46:54Z</time>
      </trkpt>
      <trkpt lat="49.36313" lon="2.95161">
        <ele>80</ele>
        <time>2019-06-23T08:46:55Z</time>
      </trkpt>
      <trkpt lat="49.36315" lon="2.95157">
        <ele>81</ele>
        <time>2019-06-23T08:46:56Z</time>
      </trkpt>
      <trkpt lat="49.36317" lon="2.95154">
        <ele>81</ele>
        <time>2019-06-23T08:46:57Z</time>
      </trkpt>
      <trkpt lat="49.36319" lon="2.95152">
        <ele>81</ele>
        <time>2019-06-23T08:46:58Z</time>
      </trkpt>
      <trkpt lat="49.36342" lon="2.9512">
        <ele>84</ele>
        <time>2019-06-23T08:47:11Z</time>
      </trkpt>
      <trkpt lat="49.36343" lon="2.95118">
        <ele>84</ele>
        <time>2019-06-23T08:47:12Z</time>
      </trkpt>
      <trkpt lat="49.36346" lon="2.95113">
        <ele>84</ele>
        <time>2019-06-23T08:47:23Z</time>
      </trkpt>
      <trkpt lat="49.36355" lon="2.95102">
        <ele>85</ele>
        <time>2019-06-23T08:47:35Z</time>
      </trkpt>
      <trkpt lat="49.36366" lon="2.95093">
        <ele>85</ele>
        <time>2019-06-23T08:47:47Z</time>
      </trkpt>
      <trkpt lat="49.36369" lon="2.95089">
        <ele>85</ele>
        <time>2019-06-23T08:47:52Z</time>
      </trkpt>
      <trkpt lat="49.36372" lon="2.95085">
        <ele>86</ele>
        <time>2019-06-23T08:48:05Z</time>
      </trkpt>
      <trkpt lat="49.36374" lon="2.95081">
        <ele>92</ele>
        <time>2019-06-23T08:48:21Z</time>
      </trkpt>
      <trkpt lat="49.36376" lon="2.95079">
        <ele>92</ele>
        <time>2019-06-23T08:48:40Z</time>
      </trkpt>
      <trkpt lat="49.36386" lon="2.95067">
        <ele>93</ele>
        <time>2019-06-23T08:48:52Z</time>
      </trkpt>
      <trkpt lat="49.36393" lon="2.95056">
        <ele>93</ele>
        <time>2019-06-23T08:49:04Z</time>
      </trkpt>
      <trkpt lat="49.36401" lon="2.95042">
        <ele>94</ele>
        <time>2019-06-23T08:49:19Z</time>
      </trkpt>
      <trkpt lat="49.36409" lon="2.95033">
        <ele>95</ele>
        <time>2019-06-23T08:49:27Z</time>
      </trkpt>
      <trkpt lat="49.36421" lon="2.95021">
        <ele>96</ele>
        <time>2019-06-23T08:49:39Z</time>
      </trkpt>
      <trkpt lat="49.36434" lon="2.95004">
        <ele>96</ele>
        <time>2019-06-23T08:49:49Z</time>
      </trkpt>
      <trkpt lat="49.36455" lon="2.94979">
        <ele>101</ele>
        <time>2019-06-23T08:50:00Z</time>
      </trkpt>
      <trkpt lat="49.36468" lon="2.94966">
        <ele>102</ele>
        <time>2019-06-23T08:50:08Z</time>
      </trkpt>
      <trkpt lat="49.3647" lon="2.94962">
        <ele>102</ele>
        <time>2019-06-23T08:50:10Z</time>
      </trkpt>
      <trkpt lat="49.36472" lon="2.9496">
        <ele>102</ele>
        <time>2019-06-23T08:50:11Z</time>
      </trkpt>
      <trkpt lat="49.36503" lon="2.94916">
        <ele>104</ele>
        <time>2019-06-23T08:50:22Z</time>
      </trkpt>
      <trkpt lat="49.36546" lon="2.94854">
        <ele>101</ele>
        <time>2019-06-23T08:50:31Z</time>
      </trkpt>
      <trkpt lat="49.36553" lon="2.94844">
        <ele>101</ele>
        <time>2019-06-23T08:50:33Z</time>
      </trkpt>
      <trkpt lat="49.36558" lon="2.94837">
        <ele>100</ele>
        <time>2019-06-23T08:50:34Z</time>
      </trkpt>
      <trkpt lat="49.36568" lon="2.94825">
        <ele>100</ele>
        <time>2019-06-23T08:50:36Z</time>
      </trkpt>
      <trkpt lat="49.36572" lon="2.9482">
        <ele>100</ele>
        <time>2019-06-23T08:50:37Z</time>
      </trkpt>
      <trkpt lat="49.36576" lon="2.94815">
        <ele>100</ele>
        <time>2019-06-23T08:50:38Z</time>
      </trkpt>
      <trkpt lat="49.3658" lon="2.9481">
        <ele>100</ele>
        <time>2019-06-23T08:50:39Z</time>
      </trkpt>
      <trkpt lat="49.36584" lon="2.94806">
        <ele>94</ele>
        <time>2019-06-23T08:50:40Z</time>
      </trkpt>
      <trkpt lat="49.36587" lon="2.94801">
        <ele>94</ele>
        <time>2019-06-23T08:50:41Z</time>
      </trkpt>
      <trkpt lat="49.36591" lon="2.94795">
        <ele>94</ele>
        <time>2019-06-23T08:50:42Z</time>
      </trkpt>
      <trkpt lat="49.36595" lon="2.94789">
        <ele>94</ele>
        <time>2019-06-23T08:50:43Z</time>
      </trkpt>
      <trkpt lat="49.36599" lon="2.94783">
        <ele>94</ele>
        <time>2019-06-23T08:50:44Z</time>
      </trkpt>
      <trkpt lat="49.3664" lon="2.94727">
        <ele>92</ele>
        <time>2019-06-23T08:50:54Z</time>
      </trkpt>
      <trkpt lat="49.36648" lon="2.94738">
        <ele>92</ele>
        <time>2019-06-23T08:50:58Z</time>
      </trkpt>
      <trkpt lat="49.36664" lon="2.94791">
        <ele>91</ele>
        <time>2019-06-23T08:51:08Z</time>
      </trkpt>
      <trkpt lat="49.36673" lon="2.94818">
        <ele>87</ele>
        <time>2019-06-23T08:51:12Z</time>
      </trkpt>
      <trkpt lat="49.36679" lon="2.94831">
        <ele>87</ele>
        <time>2019-06-23T08:51:14Z</time>
      </trkpt>
      <trkpt lat="49.36683" lon="2.94845">
        <ele>86</ele>
        <time>2019-06-23T08:51:16Z</time>
      </trkpt>
      <trkpt lat="49.36688" lon="2.94866">
        <ele>85</ele>
        <time>2019-06-23T08:51:19Z</time>
      </trkpt>
      <trkpt lat="49.36701" lon="2.94912">
        <ele>84</ele>
        <time>2019-06-23T08:51:25Z</time>
      </trkpt>
      <trkpt lat="49.36716" lon="2.94946">
        <ele>81</ele>
        <time>2019-06-23T08:51:31Z</time>
      </trkpt>
      <trkpt lat="49.36719" lon="2.94954">
        <ele>80</ele>
        <time>2019-06-23T08:51:33Z</time>
      </trkpt>
      <trkpt lat="49.36727" lon="2.94958">
        <ele>80</ele>
        <time>2019-06-23T08:51:37Z</time>
      </trkpt>
      <trkpt lat="49.36731" lon="2.94949">
        <ele>80</ele>
        <time>2019-06-23T08:51:39Z</time>
      </trkpt>
      <trkpt lat="49.36743" lon="2.94924">
        <ele>80</ele>
        <time>2019-06-23T08:51:44Z</time>
      </trkpt>
      <trkpt lat="49.36782" lon="2.94844">
        <ele>82</ele>
        <time>2019-06-23T08:51:58Z</time>
      </trkpt>
      <trkpt lat="49.36802" lon="2.94794">
        <ele>81</ele>
        <time>2019-06-23T08:52:09Z</time>
      </trkpt>
      <trkpt lat="49.36829" lon="2.9474">
        <ele>76</ele>
        <time>2019-06-23T08:52:21Z</time>
      </trkpt>
      <trkpt lat="49.36834" lon="2.9473">
        <ele>76</ele>
        <time>2019-06-23T08:52:23Z</time>
      </trkpt>
      <trkpt lat="49.36844" lon="2.94708">
        <ele>76</ele>
        <time>2019-06-23T08:52:27Z</time>
      </trkpt>
      <trkpt lat="49.36879" lon="2.94632">
        <ele>76</ele>
        <time>2019-06-23T08:52:40Z</time>
      </trkpt>
      <trkpt lat="49.36887" lon="2.94614">
        <ele>76</ele>
        <time>2019-06-23T08:52:43Z</time>
      </trkpt>
      <trkpt lat="49.36918" lon="2.94547">
        <ele>79</ele>
        <time>2019-06-23T08:52:54Z</time>
      </trkpt>
      <trkpt lat="49.36933" lon="2.94517">
        <ele>79</ele>
        <time>2019-06-23T08:53:00Z</time>
      </trkpt>
      <trkpt lat="49.3694" lon="2.9453">
        <ele>79</ele>
        <time>2019-06-23T08:53:06Z</time>
      </trkpt>
      <trkpt lat="49.36938" lon="2.94564">
        <ele>79</ele>
        <time>2019-06-23T08:53:12Z</time>
      </trkpt>
      <trkpt lat="49.36952" lon="2.94577">
        <ele>79</ele>
        <time>2019-06-23T08:53:19Z</time>
      </trkpt>
      <trkpt lat="49.36964" lon="2.94572">
        <ele>80</ele>
        <time>2019-06-23T08:53:23Z</time>
      </trkpt>
      <trkpt lat="49.37004" lon="2.94568">
        <ele>84</ele>
        <time>2019-06-23T08:53:33Z</time>
      </trkpt>
      <trkpt lat="49.37021" lon="2.94582">
        <ele>84</ele>
        <time>2019-06-23T08:53:40Z</time>
      </trkpt>
      <trkpt lat="49.37043" lon="2.94628">
        <ele>85</ele>
        <time>2019-06-23T08:53:53Z</time>
      </trkpt>
      <trkpt lat="49.37062" lon="2.94667">
        <ele>86</ele>
        <time>2019-06-23T08:54:06Z</time>
      </trkpt>
      <trkpt lat="49.37076" lon="2.94698">
        <ele>85</ele>
        <time>2019-06-23T08:54:18Z</time>
      </trkpt>
      <trkpt lat="49.37096" lon="2.9473">
        <ele>92</ele>
        <time>2019-06-23T08:54:31Z</time>
      </trkpt>
      <trkpt lat="49.37103" lon="2.94746">
        <ele>92</ele>
        <time>2019-06-23T08:54:37Z</time>
      </trkpt>
      <trkpt lat="49.37115" lon="2.94782">
        <ele>92</ele>
        <time>2019-06-23T08:54:48Z</time>
      </trkpt>
      <trkpt lat="49.37134" lon="2.94814">
        <ele>94</ele>
        <time>2019-06-23T08:54:58Z</time>
      </trkpt>
      <trkpt lat="49.37149" lon="2.94843">
        <ele>94</ele>
        <time>2019-06-23T08:55:09Z</time>
      </trkpt>
      <trkpt lat="49.37155" lon="2.94852">
        <ele>93</ele>
        <time>2019-06-23T08:55:13Z</time>
      </trkpt>
      <trkpt lat="49.37158" lon="2.94861">
        <ele>93</ele>
        <time>2019-06-23T08:55:16Z</time>
      </trkpt>
      <trkpt lat="49.3718" lon="2.94898">
        <ele>99</ele>
        <time>2019-06-23T08:55:28Z</time>
      </trkpt>
      <trkpt lat="49.37183" lon="2.94902">
        <ele>99</ele>
        <time>2019-06-23T08:55:30Z</time>
      </trkpt>
      <trkpt lat="49.37198" lon="2.9493">
        <ele>97</ele>
        <time>2019-06-23T08:55:39Z</time>
      </trkpt>
      <trkpt lat="49.37221" lon="2.94962">
        <ele>99</ele>
        <time>2019-06-23T08:55:49Z</time>
      </trkpt>
      <trkpt lat="49.37223" lon="2.94972">
        <ele>98</ele>
        <time>2019-06-23T08:55:52Z</time>
      </trkpt>
      <trkpt lat="49.37245" lon="2.95011">
        <ele>98</ele>
        <time>2019-06-23T08:56:05Z</time>
      </trkpt>
      <trkpt lat="49.37254" lon="2.95029">
        <ele>104</ele>
        <time>2019-06-23T08:56:11Z</time>
      </trkpt>
      <trkpt lat="49.37264" lon="2.95061">
        <ele>102</ele>
        <time>2019-06-23T08:56:24Z</time>
      </trkpt>
      <trkpt lat="49.37265" lon="2.95067">
        <ele>102</ele>
        <time>2019-06-23T08:56:26Z</time>
      </trkpt>
      <trkpt lat="49.37279" lon="2.95117">
        <ele>99</ele>
        <time>2019-06-23T08:56:41Z</time>
      </trkpt>
      <trkpt lat="49.37285" lon="2.95141">
        <ele>99</ele>
        <time>2019-06-23T08:56:45Z</time>
      </trkpt>
      <trkpt lat="49.3729" lon="2.95162">
        <ele>99</ele>
        <time>2019-06-23T08:56:48Z</time>
      </trkpt>
      <trkpt lat="49.37294" lon="2.95177">
        <ele>97</ele>
        <time>2019-06-23T08:56:50Z</time>
      </trkpt>
      <trkpt lat="49.37299" lon="2.9522">
        <ele>97</ele>
        <time>2019-06-23T08:56:54Z</time>
      </trkpt>
      <trkpt lat="49.3731" lon="2.9525">
        <ele>99</ele>
        <time>2019-06-23T08:57:00Z</time>
      </trkpt>
      <trkpt lat="49.37314" lon="2.95257">
        <ele>99</ele>
        <time>2019-06-23T08:57:16Z</time>
      </trkpt>
      <trkpt lat="49.37313" lon="2.95259">
        <ele>98</ele>
        <time>2019-06-23T08:57:40Z</time>
      </trkpt>
      <trkpt lat="49.37314" lon="2.9526">
        <ele>99</ele>
        <time>2019-06-23T08:57:51Z</time>
      </trkpt>
      <trkpt lat="49.37321" lon="2.9526">
        <ele>100</ele>
        <time>2019-06-23T08:57:56Z</time>
      </trkpt>
      <trkpt lat="49.37338" lon="2.95265">
        <ele>109</ele>
        <time>2019-06-23T08:58:10Z</time>
      </trkpt>
      <trkpt lat="49.37341" lon="2.95266">
        <ele>110</ele>
        <time>2019-06-23T08:58:13Z</time>
      </trkpt>
      <trkpt lat="49.37345" lon="2.95267">
        <ele>110</ele>
        <time>2019-06-23T08:58:17Z</time>
      </trkpt>
      <trkpt lat="49.37357" lon="2.95268">
        <ele>112</ele>
        <time>2019-06-23T08:58:29Z</time>
      </trkpt>
      <trkpt lat="49.37361" lon="2.95269">
        <ele>113</ele>
        <time>2019-06-23T08:58:36Z</time>
      </trkpt>
      <trkpt lat="49.37369" lon="2.95282">
        <ele>115</ele>
        <time>2019-06-23T08:58:49Z</time>
      </trkpt>
      <trkpt lat="49.37375" lon="2.95289">
        <ele>115</ele>
        <time>2019-06-23T08:58:59Z</time>
      </trkpt>
      <trkpt lat="49.37379" lon="2.95298">
        <ele>116</ele>
        <time>2019-06-23T08:59:12Z</time>
      </trkpt>
      <trkpt lat="49.37385" lon="2.95315">
        <ele>117</ele>
        <time>2019-06-23T08:59:25Z</time>
      </trkpt>
      <trkpt lat="49.3739" lon="2.95322">
        <ele>118</ele>
        <time>2019-06-23T08:59:39Z</time>
      </trkpt>
      <trkpt lat="49.37395" lon="2.95332">
        <ele>119</ele>
        <time>2019-06-23T08:59:52Z</time>
      </trkpt>
      <trkpt lat="49.37399" lon="2.95344">
        <ele>117</ele>
        <time>2019-06-23T09:00:05Z</time>
      </trkpt>
      <trkpt lat="49.37406" lon="2.95356">
        <ele>116</ele>
        <time>2019-06-23T09:00:15Z</time>
      </trkpt>
      <trkpt lat="49.37418" lon="2.95368">
        <ele>126</ele>
        <time>2019-06-23T09:00:28Z</time>
      </trkpt>
      <trkpt lat="49.37427" lon="2.95381">
        <ele>126</ele>
        <time>2019-06-23T09:00:42Z</time>
      </trkpt>
      <trkpt lat="49.37435" lon="2.95381">
        <ele>127</ele>
        <time>2019-06-23T09:00:54Z</time>
      </trkpt>
      <trkpt lat="49.37438" lon="2.95376">
        <ele>127</ele>
        <time>2019-06-23T09:01:02Z</time>
      </trkpt>
      <trkpt lat="49.37438" lon="2.9537">
        <ele>127</ele>
        <time>2019-06-23T09:01:06Z</time>
      </trkpt>
      <trkpt lat="49.37438" lon="2.95366">
        <ele>127</ele>
        <time>2019-06-23T09:01:09Z</time>
      </trkpt>
      <trkpt lat="49.37438" lon="2.95359">
        <ele>128</ele>
        <time>2019-06-23T09:01:13Z</time>
      </trkpt>
      <trkpt lat="49.3743" lon="2.9534">
        <ele>127</ele>
        <time>2019-06-23T09:01:28Z</time>
      </trkpt>
      <trkpt lat="49.3743" lon="2.95319">
        <ele>129</ele>
        <time>2019-06-23T09:01:41Z</time>
      </trkpt>
      <trkpt lat="49.37431" lon="2.95302">
        <ele>130</ele>
        <time>2019-06-23T09:01:53Z</time>
      </trkpt>
      <trkpt lat="49.37432" lon="2.95294">
        <ele>131</ele>
        <time>2019-06-23T09:02:07Z</time>
      </trkpt>
      <trkpt lat="49.37431" lon="2.95286">
        <ele>131</ele>
        <time>2019-06-23T09:02:12Z</time>
      </trkpt>
      <trkpt lat="49.37432" lon="2.95272">
        <ele>131</ele>
        <time>2019-06-23T09:02:18Z</time>
      </trkpt>
      <trkpt lat="49.37433" lon="2.95264">
        <ele>130</ele>
        <time>2019-06-23T09:02:21Z</time>
      </trkpt>
      <trkpt lat="49.37432" lon="2.95238">
        <ele>131</ele>
        <time>2019-06-23T09:02:32Z</time>
      </trkpt>
      <trkpt lat="49.37429" lon="2.95209">
        <ele>132</ele>
        <time>2019-06-23T09:02:43Z</time>
      </trkpt>
      <trkpt lat="49.37429" lon="2.95169">
        <ele>131</ele>
        <time>2019-06-23T09:02:55Z</time>
      </trkpt>
      <trkpt lat="49.37424" lon="2.95128">
        <ele>133</ele>
        <time>2019-06-23T09:03:05Z</time>
      </trkpt>
      <trkpt lat="49.37417" lon="2.9509">
        <ele>134</ele>
        <time>2019-06-23T09:03:14Z</time>
      </trkpt>
      <trkpt lat="49.37413" lon="2.9505">
        <ele>129</ele>
        <time>2019-06-23T09:03:26Z</time>
      </trkpt>
      <trkpt lat="49.37412" lon="2.95033">
        <ele>129</ele>
        <time>2019-06-23T09:03:33Z</time>
      </trkpt>
      <trkpt lat="49.3741" lon="2.95024">
        <ele>130</ele>
        <time>2019-06-23T09:03:37Z</time>
      </trkpt>
      <trkpt lat="49.37405" lon="2.95005">
        <ele>132</ele>
        <time>2019-06-23T09:03:46Z</time>
      </trkpt>
      <trkpt lat="49.37405" lon="2.94985">
        <ele>133</ele>
        <time>2019-06-23T09:03:53Z</time>
      </trkpt>
      <trkpt lat="49.37409" lon="2.9497">
        <ele>133</ele>
        <time>2019-06-23T09:04:00Z</time>
      </trkpt>
      <trkpt lat="49.37412" lon="2.94969">
        <ele>133</ele>
        <time>2019-06-23T09:04:02Z</time>
      </trkpt>
      <trkpt lat="49.37438" lon="2.94965">
        <ele>136</ele>
        <time>2019-06-23T09:04:15Z</time>
      </trkpt>
      <trkpt lat="49.37461" lon="2.94957">
        <ele>136</ele>
        <time>2019-06-23T09:04:24Z</time>
      </trkpt>
      <trkpt lat="49.37477" lon="2.9495">
        <ele>137</ele>
        <time>2019-06-23T09:04:29Z</time>
      </trkpt>
      <trkpt lat="49.37502" lon="2.9494">
        <ele>137</ele>
        <time>2019-06-23T09:04:37Z</time>
      </trkpt>
      <trkpt lat="49.3752" lon="2.94935">
        <ele>136</ele>
        <time>2019-06-23T09:04:43Z</time>
      </trkpt>
      <trkpt lat="49.37531" lon="2.94925">
        <ele>136</ele>
        <time>2019-06-23T09:04:48Z</time>
      </trkpt>
      <trkpt lat="49.37561" lon="2.94889">
        <ele>138</ele>
        <time>2019-06-23T09:05:01Z</time>
      </trkpt>
      <trkpt lat="49.37563" lon="2.94887">
        <ele>138</ele>
        <time>2019-06-23T09:05:02Z</time>
      </trkpt>
      <trkpt lat="49.37563" lon="2.94878">
        <ele>138</ele>
        <time>2019-06-23T09:05:12Z</time>
      </trkpt>
      <trkpt lat="49.37564" lon="2.94877">
        <ele>138</ele>
        <time>2019-06-23T09:05:22Z</time>
      </trkpt>
      <trkpt lat="49.37565" lon="2.94878">
        <ele>138</ele>
        <time>2019-06-23T09:05:42Z</time>
      </trkpt>
      <trkpt lat="49.37563" lon="2.94881">
        <ele>138</ele>
        <time>2019-06-23T09:06:09Z</time>
      </trkpt>
      <trkpt lat="49.37562" lon="2.9488">
        <ele>138</ele>
        <time>2019-06-23T09:06:32Z</time>
      </trkpt>
      <trkpt lat="49.3756" lon="2.94881">
        <ele>138</ele>
        <time>2019-06-23T09:07:02Z</time>
      </trkpt>
      <trkpt lat="49.37557" lon="2.94883">
        <ele>138</ele>
        <time>2019-06-23T09:07:33Z</time>
      </trkpt>
      <trkpt lat="49.37558" lon="2.94882">
        <ele>138</ele>
        <time>2019-06-23T09:08:02Z</time>
      </trkpt>
      <trkpt lat="49.37559" lon="2.94881">
        <ele>138</ele>
        <time>2019-06-23T09:08:26Z</time>
      </trkpt>
      <trkpt lat="49.37558" lon="2.9488">
        <ele>138</ele>
        <time>2019-06-23T09:08:50Z</time>
      </trkpt>
      <trkpt lat="49.3756" lon="2.94881">
        <ele>138</ele>
        <time>2019-06-23T09:09:17Z</time>
      </trkpt>
      <trkpt lat="49.3756" lon="2.9488">
        <ele>138</ele>
        <time>2019-06-23T09:09:46Z</time>
      </trkpt>
      <trkpt lat="49.3756" lon="2.94879">
        <ele>138</ele>
        <time>2019-06-23T09:10:15Z</time>
      </trkpt>
      <trkpt lat="49.37561" lon="2.94879">
        <ele>138</ele>
        <time>2019-06-23T09:10:40Z</time>
      </trkpt>
      <trkpt lat="49.3756" lon="2.94877">
        <ele>138</ele>
        <time>2019-06-23T09:11:09Z</time>
      </trkpt>
      <trkpt lat="49.3756" lon="2.94879">
        <ele>138</ele>
        <time>2019-06-23T09:11:38Z</time>
      </trkpt>
      <trkpt lat="49.3756" lon="2.94877">
        <ele>138</ele>
        <time>2019-06-23T09:12:07Z</time>
      </trkpt>
      <trkpt lat="49.37559" lon="2.94876">
        <ele>138</ele>
        <time>2019-06-23T09:12:36Z</time>
      </trkpt>
      <trkpt lat="49.3756" lon="2.94876">
        <ele>138</ele>
        <time>2019-06-23T09:13:03Z</time>
      </trkpt>
      <trkpt lat="49.37561" lon="2.94878">
        <ele>138</ele>
        <time>2019-06-23T09:13:34Z</time>
      </trkpt>
      <trkpt lat="49.3756" lon="2.9488">
        <ele>138</ele>
        <time>2019-06-23T09:14:03Z</time>
      </trkpt>
      <trkpt lat="49.3756" lon="2.9488">
        <ele>138</ele>
        <time>2019-06-23T09:14:34Z</time>
      </trkpt>
      <trkpt lat="49.3756" lon="2.94877">
        <ele>138</ele>
        <time>2019-06-23T09:15:00Z</time>
      </trkpt>
      <trkpt lat="49.37559" lon="2.94878">
        <ele>138</ele>
        <time>2019-06-23T09:15:27Z</time>
      </trkpt>
      <trkpt lat="49.37559" lon="2.94875">
        <ele>138</ele>
        <time>2019-06-23T09:15:56Z</time>
      </trkpt>
      <trkpt lat="49.3756" lon="2.9487">
        <ele>138</ele>
        <time>2019-06-23T09:16:24Z</time>
      </trkpt>
      <trkpt lat="49.37559" lon="2.94869">
        <ele>138</ele>
        <time>2019-06-23T09:16:49Z</time>
      </trkpt>
      <trkpt lat="49.37558" lon="2.94869">
        <ele>138</ele>
        <time>2019-06-23T09:17:15Z</time>
      </trkpt>
      <trkpt lat="49.37559" lon="2.94869">
        <ele>138</ele>
        <time>2019-06-23T09:17:47Z</time>
      </trkpt>
      <trkpt lat="49.3756" lon="2.94869">
        <ele>138</ele>
        <time>2019-06-23T09:18:12Z</time>
      </trkpt>
      <trkpt lat="49.37559" lon="2.9487">
        <ele>138</ele>
        <time>2019-06-23T09:18:38Z</time>
      </trkpt>
      <trkpt lat="49.37559" lon="2.9487">
        <ele>138</ele>
        <time>2019-06-23T09:19:10Z</time>
      </trkpt>
      <trkpt lat="49.3756" lon="2.94871">
        <ele>138</ele>
        <time>2019-06-23T09:19:45Z</time>
      </trkpt>
      <trkpt lat="49.37561" lon="2.94874">
        <ele>138</ele>
        <time>2019-06-23T09:20:17Z</time>
      </trkpt>
      <trkpt lat="49.3756" lon="2.94874">
        <ele>138</ele>
        <time>2019-06-23T09:20:45Z</time>
      </trkpt>
      <trkpt lat="49.3756" lon="2.94874">
        <ele>138</ele>
        <time>2019-06-23T09:20:54Z</time>
      </trkpt>
      <trkpt lat="49.37558" lon="2.94874">
        <ele>138</ele>
        <time>2019-06-23T09:20:56Z</time>
      </trkpt>
      <trkpt lat="49.37558" lon="2.94878">
        <ele>138</ele>
        <time>2019-06-23T09:20:58Z</time>
      </trkpt>
      <trkpt lat="49.37563" lon="2.9489">
        <ele>137</ele>
        <time>2019-06-23T09:21:05Z</time>
      </trkpt>
      <trkpt lat="49.37549" lon="2.94919">
        <ele>135</ele>
        <time>2019-06-23T09:21:15Z</time>
      </trkpt>
      <trkpt lat="49.37536" lon="2.94936">
        <ele>136</ele>
        <time>2019-06-23T09:21:21Z</time>
      </trkpt>
      <trkpt lat="49.37532" lon="2.94977">
        <ele>135</ele>
        <time>2019-06-23T09:21:29Z</time>
      </trkpt>
      <trkpt lat="49.37533" lon="2.95004">
        <ele>134</ele>
        <time>2019-06-23T09:21:34Z</time>
      </trkpt>
      <trkpt lat="49.37531" lon="2.95013">
        <ele>134</ele>
        <time>2019-06-23T09:21:36Z</time>
      </trkpt>
      <trkpt lat="49.37532" lon="2.95027">
        <ele>134</ele>
        <time>2019-06-23T09:21:41Z</time>
      </trkpt>
      <trkpt lat="49.37523" lon="2.95051">
        <ele>134</ele>
        <time>2019-06-23T09:21:51Z</time>
      </trkpt>
      <trkpt lat="49.37521" lon="2.95054">
        <ele>134</ele>
        <time>2019-06-23T09:21:52Z</time>
      </trkpt>
      <trkpt lat="49.37517" lon="2.95062">
        <ele>134</ele>
        <time>2019-06-23T09:21:54Z</time>
      </trkpt>
      <trkpt lat="49.37502" lon="2.95081">
        <ele>135</ele>
        <time>2019-06-23T09:22:00Z</time>
      </trkpt>
      <trkpt lat="49.37495" lon="2.9509">
        <ele>135</ele>
        <time>2019-06-23T09:22:03Z</time>
      </trkpt>
      <trkpt lat="49.37488" lon="2.95115">
        <ele>134</ele>
        <time>2019-06-23T09:22:11Z</time>
      </trkpt>
      <trkpt lat="49.37479" lon="2.95121">
        <ele>134</ele>
        <time>2019-06-23T09:22:17Z</time>
      </trkpt>
      <trkpt lat="49.37468" lon="2.9515">
        <ele>134</ele>
        <time>2019-06-23T09:22:24Z</time>
      </trkpt>
      <trkpt lat="49.37467" lon="2.95179">
        <ele>133</ele>
        <time>2019-06-23T09:22:28Z</time>
      </trkpt>
      <trkpt lat="49.37465" lon="2.952">
        <ele>133</ele>
        <time>2019-06-23T09:22:32Z</time>
      </trkpt>
      <trkpt lat="49.3747" lon="2.95242">
        <ele>134</ele>
        <time>2019-06-23T09:22:40Z</time>
      </trkpt>
      <trkpt lat="49.37476" lon="2.9529">
        <ele>133</ele>
        <time>2019-06-23T09:22:49Z</time>
      </trkpt>
      <trkpt lat="49.37477" lon="2.95297">
        <ele>133</ele>
        <time>2019-06-23T09:22:50Z</time>
      </trkpt>
      <trkpt lat="49.37491" lon="2.95351">
        <ele>133</ele>
        <time>2019-06-23T09:23:01Z</time>
      </trkpt>
      <trkpt lat="49.37494" lon="2.95361">
        <ele>132</ele>
        <time>2019-06-23T09:23:03Z</time>
      </trkpt>
      <trkpt lat="49.37504" lon="2.95394">
        <ele>135</ele>
        <time>2019-06-23T09:23:09Z</time>
      </trkpt>
      <trkpt lat="49.3751" lon="2.9541">
        <ele>134</ele>
        <time>2019-06-23T09:23:12Z</time>
      </trkpt>
      <trkpt lat="49.37518" lon="2.95428">
        <ele>131</ele>
        <time>2019-06-23T09:23:16Z</time>
      </trkpt>
      <trkpt lat="49.37525" lon="2.95459">
        <ele>128</ele>
        <time>2019-06-23T09:23:26Z</time>
      </trkpt>
      <trkpt lat="49.37517" lon="2.95487">
        <ele>126</ele>
        <time>2019-06-23T09:23:32Z</time>
      </trkpt>
      <trkpt lat="49.37508" lon="2.95479">
        <ele>126</ele>
        <time>2019-06-23T09:23:36Z</time>
      </trkpt>
      <trkpt lat="49.37502" lon="2.9547">
        <ele>127</ele>
        <time>2019-06-23T09:23:38Z</time>
      </trkpt>
      <trkpt lat="49.37485" lon="2.95464">
        <ele>122</ele>
        <time>2019-06-23T09:23:41Z</time>
      </trkpt>
      <trkpt lat="49.37468" lon="2.95456">
        <ele>121</ele>
        <time>2019-06-23T09:23:50Z</time>
      </trkpt>
      <trkpt lat="49.37464" lon="2.95469">
        <ele>120</ele>
        <time>2019-06-23T09:23:55Z</time>
      </trkpt>
      <trkpt lat="49.3746" lon="2.95483">
        <ele>119</ele>
        <time>2019-06-23T09:23:58Z</time>
      </trkpt>
      <trkpt lat="49.37463" lon="2.9551">
        <ele>111</ele>
        <time>2019-06-23T09:24:02Z</time>
      </trkpt>
      <trkpt lat="49.37473" lon="2.95546">
        <ele>108</ele>
        <time>2019-06-23T09:24:07Z</time>
      </trkpt>
      <trkpt lat="49.37495" lon="2.95589">
        <ele>103</ele>
        <time>2019-06-23T09:24:12Z</time>
      </trkpt>
      <trkpt lat="49.37514" lon="2.95616">
        <ele>96</ele>
        <time>2019-06-23T09:24:16Z</time>
      </trkpt>
      <trkpt lat="49.37524" lon="2.95642">
        <ele>92</ele>
        <time>2019-06-23T09:24:19Z</time>
      </trkpt>
      <trkpt lat="49.37547" lon="2.95684">
        <ele>82</ele>
        <time>2019-06-23T09:24:24Z</time>
      </trkpt>
      <trkpt lat="49.3756" lon="2.95713">
        <ele>81</ele>
        <time>2019-06-23T09:24:27Z</time>
      </trkpt>
      <trkpt lat="49.3759" lon="2.95779">
        <ele>77</ele>
        <time>2019-06-23T09:24:33Z</time>
      </trkpt>
      <trkpt lat="49.37602" lon="2.95812">
        <ele>77</ele>
        <time>2019-06-23T09:24:36Z</time>
      </trkpt>
      <trkpt lat="49.37631" lon="2.95871">
        <ele>77</ele>
        <time>2019-06-23T09:24:43Z</time>
      </trkpt>
      <trkpt lat="49.3764" lon="2.95889">
        <ele>77</ele>
        <time>2019-06-23T09:24:45Z</time>
      </trkpt>
      <trkpt lat="49.37659" lon="2.95934">
        <ele>76</ele>
        <time>2019-06-23T09:24:50Z</time>
      </trkpt>
      <trkpt lat="49.37672" lon="2.95959">
        <ele>74</ele>
        <time>2019-06-23T09:24:53Z</time>
      </trkpt>
      <trkpt lat="49.37686" lon="2.95985">
        <ele>74</ele>
        <time>2019-06-23T09:24:56Z</time>
      </trkpt>
      <trkpt lat="49.3771" lon="2.96047">
        <ele>72</ele>
        <time>2019-06-23T09:25:04Z</time>
      </trkpt>
      <trkpt lat="49.37715" lon="2.9606">
        <ele>71</ele>
        <time>2019-06-23T09:25:06Z</time>
      </trkpt>
      <trkpt lat="49.37733" lon="2.96102">
        <ele>70</ele>
        <time>2019-06-23T09:25:12Z</time>
      </trkpt>
      <trkpt lat="49.37755" lon="2.96144">
        <ele>69</ele>
        <time>2019-06-23T09:25:18Z</time>
      </trkpt>
      <trkpt lat="49.37764" lon="2.96167">
        <ele>69</ele>
        <time>2019-06-23T09:25:22Z</time>
      </trkpt>
      <trkpt lat="49.37777" lon="2.96199">
        <ele>68</ele>
        <time>2019-06-23T09:25:27Z</time>
      </trkpt>
      <trkpt lat="49.37794" lon="2.96232">
        <ele>68</ele>
        <time>2019-06-23T09:25:34Z</time>
      </trkpt>
      <trkpt lat="49.37807" lon="2.96274">
        <ele>67</ele>
        <time>2019-06-23T09:25:42Z</time>
      </trkpt>
      <trkpt lat="49.37816" lon="2.96294">
        <ele>67</ele>
        <time>2019-06-23T09:25:45Z</time>
      </trkpt>
      <trkpt lat="49.37831" lon="2.96318">
        <ele>66</ele>
        <time>2019-06-23T09:25:49Z</time>
      </trkpt>
      <trkpt lat="49.37848" lon="2.96348">
        <ele>65</ele>
        <time>2019-06-23T09:25:54Z</time>
      </trkpt>
      <trkpt lat="49.37858" lon="2.96372">
        <ele>65</ele>
        <time>2019-06-23T09:25:58Z</time>
      </trkpt>
      <trkpt lat="49.37875" lon="2.96403">
        <ele>65</ele>
        <time>2019-06-23T09:26:03Z</time>
      </trkpt>
      <trkpt lat="49.37887" lon="2.96426">
        <ele>66</ele>
        <time>2019-06-23T09:26:07Z</time>
      </trkpt>
      <trkpt lat="49.37892" lon="2.96437">
        <ele>66</ele>
        <time>2019-06-23T09:26:09Z</time>
      </trkpt>
      <trkpt lat="49.37908" lon="2.96468">
        <ele>66</ele>
        <time>2019-06-23T09:26:14Z</time>
      </trkpt>
      <trkpt lat="49.37919" lon="2.9649">
        <ele>65</ele>
        <time>2019-06-23T09:26:18Z</time>
      </trkpt>
      <trkpt lat="49.37923" lon="2.96506">
        <ele>65</ele>
        <time>2019-06-23T09:26:21Z</time>
      </trkpt>
      <trkpt lat="49.3795" lon="2.96556">
        <ele>64</ele>
        <time>2019-06-23T09:26:32Z</time>
      </trkpt>
      <trkpt lat="49.37962" lon="2.96586">
        <ele>64</ele>
        <time>2019-06-23T09:26:38Z</time>
      </trkpt>
      <trkpt lat="49.37979" lon="2.96616">
        <ele>63</ele>
        <time>2019-06-23T09:26:45Z</time>
      </trkpt>
      <trkpt lat="49.37991" lon="2.96639">
        <ele>64</ele>
        <time>2019-06-23T09:26:51Z</time>
      </trkpt>
      <trkpt lat="49.38017" lon="2.96684">
        <ele>66</ele>
        <time>2019-06-23T09:27:03Z</time>
      </trkpt>
      <trkpt lat="49.3804" lon="2.9674">
        <ele>66</ele>
        <time>2019-06-23T09:27:15Z</time>
      </trkpt>
      <trkpt lat="49.38056" lon="2.96782">
        <ele>66</ele>
        <time>2019-06-23T09:27:24Z</time>
      </trkpt>
      <trkpt lat="49.38071" lon="2.96822">
        <ele>67</ele>
        <time>2019-06-23T09:27:35Z</time>
      </trkpt>
      <trkpt lat="49.38071" lon="2.96826">
        <ele>67</ele>
        <time>2019-06-23T09:27:36Z</time>
      </trkpt>
      <trkpt lat="49.38074" lon="2.96835">
        <ele>68</ele>
        <time>2019-06-23T09:27:39Z</time>
      </trkpt>
      <trkpt lat="49.38079" lon="2.96845">
        <ele>68</ele>
        <time>2019-06-23T09:27:43Z</time>
      </trkpt>
      <trkpt lat="49.38092" lon="2.96879">
        <ele>68</ele>
        <time>2019-06-23T09:27:55Z</time>
      </trkpt>
      <trkpt lat="49.38105" lon="2.96922">
        <ele>69</ele>
        <time>2019-06-23T09:28:07Z</time>
      </trkpt>
      <trkpt lat="49.38122" lon="2.96945">
        <ele>68</ele>
        <time>2019-06-23T09:28:17Z</time>
      </trkpt>
      <trkpt lat="49.38155" lon="2.96947">
        <ele>67</ele>
        <time>2019-06-23T09:28:27Z</time>
      </trkpt>
      <trkpt lat="49.38199" lon="2.96948">
        <ele>67</ele>
        <time>2019-06-23T09:28:37Z</time>
      </trkpt>
      <trkpt lat="49.38208" lon="2.96946">
        <ele>67</ele>
        <time>2019-06-23T09:28:39Z</time>
      </trkpt>
      <trkpt lat="49.38248" lon="2.96944">
        <ele>67</ele>
        <time>2019-06-23T09:28:48Z</time>
      </trkpt>
      <trkpt lat="49.3827" lon="2.96944">
        <ele>71</ele>
        <time>2019-06-23T09:28:53Z</time>
      </trkpt>
      <trkpt lat="49.383" lon="2.96945">
        <ele>72</ele>
        <time>2019-06-23T09:29:00Z</time>
      </trkpt>
      <trkpt lat="49.38363" lon="2.96943">
        <ele>78</ele>
        <time>2019-06-23T09:29:15Z</time>
      </trkpt>
      <trkpt lat="49.38376" lon="2.96942">
        <ele>79</ele>
        <time>2019-06-23T09:29:18Z</time>
      </trkpt>
      <trkpt lat="49.38413" lon="2.96943">
        <ele>80</ele>
        <time>2019-06-23T09:29:27Z</time>
      </trkpt>
      <trkpt lat="49.38438" lon="2.96943">
        <ele>84</ele>
        <time>2019-06-23T09:29:35Z</time>
      </trkpt>
      <trkpt lat="49.38463" lon="2.9694">
        <ele>85</ele>
        <time>2019-06-23T09:29:45Z</time>
      </trkpt>
      <trkpt lat="49.38485" lon="2.9694">
        <ele>85</ele>
        <time>2019-06-23T09:29:55Z</time>
      </trkpt>
      <trkpt lat="49.38507" lon="2.96941">
        <ele>86</ele>
        <time>2019-06-23T09:30:05Z</time>
      </trkpt>
      <trkpt lat="49.38531" lon="2.96941">
        <ele>87</ele>
        <time>2019-06-23T09:30:15Z</time>
      </trkpt>
      <trkpt lat="49.38553" lon="2.96943">
        <ele>87</ele>
        <time>2019-06-23T09:30:25Z</time>
      </trkpt>
      <trkpt lat="49.38558" lon="2.96942">
        <ele>87</ele>
        <time>2019-06-23T09:30:27Z</time>
      </trkpt>
      <trkpt lat="49.38579" lon="2.96943">
        <ele>87</ele>
        <time>2019-06-23T09:30:35Z</time>
      </trkpt>
      <trkpt lat="49.38607" lon="2.96943">
        <ele>89</ele>
        <time>2019-06-23T09:30:47Z</time>
      </trkpt>
      <trkpt lat="49.38622" lon="2.96941">
        <ele>89</ele>
        <time>2019-06-23T09:30:57Z</time>
      </trkpt>
      <trkpt lat="49.38646" lon="2.96941">
        <ele>90</ele>
        <time>2019-06-23T09:31:08Z</time>
      </trkpt>
      <trkpt lat="49.38661" lon="2.96939">
        <ele>90</ele>
        <time>2019-06-23T09:31:16Z</time>
      </trkpt>
      <trkpt lat="49.38672" lon="2.96937">
        <ele>90</ele>
        <time>2019-06-23T09:31:25Z</time>
      </trkpt>
      <trkpt lat="49.3869" lon="2.96937">
        <ele>90</ele>
        <time>2019-06-23T09:31:34Z</time>
      </trkpt>
      <trkpt lat="49.38696" lon="2.96936">
        <ele>90</ele>
        <time>2019-06-23T09:31:37Z</time>
      </trkpt>
      <trkpt lat="49.38712" lon="2.96937">
        <ele>90</ele>
        <time>2019-06-23T09:31:43Z</time>
      </trkpt>
      <trkpt lat="49.38736" lon="2.96936">
        <ele>90</ele>
        <time>2019-06-23T09:31:56Z</time>
      </trkpt>
      <trkpt lat="49.38758" lon="2.96937">
        <ele>91</ele>
        <time>2019-06-23T09:32:08Z</time>
      </trkpt>
      <trkpt lat="49.3877" lon="2.96936">
        <ele>91</ele>
        <time>2019-06-23T09:32:14Z</time>
      </trkpt>
      <trkpt lat="49.3879" lon="2.96934">
        <ele>92</ele>
        <time>2019-06-23T09:32:24Z</time>
      </trkpt>
      <trkpt lat="49.38803" lon="2.96936">
        <ele>92</ele>
        <time>2019-06-23T09:32:33Z</time>
      </trkpt>
      <trkpt lat="49.38821" lon="2.96934">
        <ele>93</ele>
        <time>2019-06-23T09:32:44Z</time>
      </trkpt>
      <trkpt lat="49.38833" lon="2.96933">
        <ele>93</ele>
        <time>2019-06-23T09:32:52Z</time>
      </trkpt>
      <trkpt lat="49.38847" lon="2.96934">
        <ele>99</ele>
        <time>2019-06-23T09:33:00Z</time>
      </trkpt>
      <trkpt lat="49.38853" lon="2.96934">
        <ele>100</ele>
        <time>2019-06-23T09:33:07Z</time>
      </trkpt>
      <trkpt lat="49.38865" lon="2.96935">
        <ele>102</ele>
        <time>2019-06-23T09:33:17Z</time>
      </trkpt>
      <trkpt lat="49.38873" lon="2.96935">
        <ele>103</ele>
        <time>2019-06-23T09:33:27Z</time>
      </trkpt>
      <trkpt lat="49.38875" lon="2.96935">
        <ele>103</ele>
        <time>2019-06-23T09:33:37Z</time>
      </trkpt>
      <trkpt lat="49.38873" lon="2.96935">
        <ele>103</ele>
        <time>2019-06-23T09:33:46Z</time>
      </trkpt>
      <trkpt lat="49.38877" lon="2.96936">
        <ele>104</ele>
        <time>2019-06-23T09:33:53Z</time>
      </trkpt>
      <trkpt lat="49.38873" lon="2.96932">
        <ele>103</ele>
        <time>2019-06-23T09:34:05Z</time>
      </trkpt>
      <trkpt lat="49.38875" lon="2.9693">
        <ele>103</ele>
        <time>2019-06-23T09:34:18Z</time>
      </trkpt>
      <trkpt lat="49.38876" lon="2.96931">
        <ele>104</ele>
        <time>2019-06-23T09:34:32Z</time>
      </trkpt>
      <trkpt lat="49.38878" lon="2.9693">
        <ele>104</ele>
        <time>2019-06-23T09:34:48Z</time>
      </trkpt>
      <trkpt lat="49.38883" lon="2.96932">
        <ele>105</ele>
        <time>2019-06-23T09:34:59Z</time>
      </trkpt>
      <trkpt lat="49.38885" lon="2.96932">
        <ele>105</ele>
        <time>2019-06-23T09:35:00Z</time>
      </trkpt>
      <trkpt lat="49.38896" lon="2.96931">
        <ele>107</ele>
        <time>2019-06-23T09:35:11Z</time>
      </trkpt>
      <trkpt lat="49.38904" lon="2.96928">
        <ele>109</ele>
        <time>2019-06-23T09:35:23Z</time>
      </trkpt>
      <trkpt lat="49.3892" lon="2.96925">
        <ele>116</ele>
        <time>2019-06-23T09:35:41Z</time>
      </trkpt>
      <trkpt lat="49.38929" lon="2.96921">
        <ele>117</ele>
        <time>2019-06-23T09:35:46Z</time>
      </trkpt>
      <trkpt lat="49.38951" lon="2.96908">
        <ele>121</ele>
        <time>2019-06-23T09:36:00Z</time>
      </trkpt>
      <trkpt lat="49.38962" lon="2.96907">
        <ele>122</ele>
        <time>2019-06-23T09:36:14Z</time>
      </trkpt>
      <trkpt lat="49.38963" lon="2.96906">
        <ele>122</ele>
        <time>2019-06-23T09:36:16Z</time>
      </trkpt>
      <trkpt lat="49.38974" lon="2.96896">
        <ele>123</ele>
        <time>2019-06-23T09:36:30Z</time>
      </trkpt>
      <trkpt lat="49.38976" lon="2.96888">
        <ele>123</ele>
        <time>2019-06-23T09:36:42Z</time>
      </trkpt>
      <trkpt lat="49.3898" lon="2.9688">
        <ele>123</ele>
        <time>2019-06-23T09:36:48Z</time>
      </trkpt>
      <trkpt lat="49.38988" lon="2.96871">
        <ele>123</ele>
        <time>2019-06-23T09:37:02Z</time>
      </trkpt>
      <trkpt lat="49.3899" lon="2.96867">
        <ele>123</ele>
        <time>2019-06-23T09:37:10Z</time>
      </trkpt>
      <trkpt lat="49.38998" lon="2.96864">
        <ele>124</ele>
        <time>2019-06-23T09:37:14Z</time>
      </trkpt>
      <trkpt lat="49.39026" lon="2.96851">
        <ele>126</ele>
        <time>2019-06-23T09:37:28Z</time>
      </trkpt>
      <trkpt lat="49.39041" lon="2.96846">
        <ele>127</ele>
        <time>2019-06-23T09:37:37Z</time>
      </trkpt>
      <trkpt lat="49.39056" lon="2.96847">
        <ele>127</ele>
        <time>2019-06-23T09:37:54Z</time>
      </trkpt>
      <trkpt lat="49.39056" lon="2.96847">
        <ele>127</ele>
        <time>2019-06-23T09:38:20Z</time>
      </trkpt>
      <trkpt lat="49.39059" lon="2.96845">
        <ele>127</ele>
        <time>2019-06-23T09:38:47Z</time>
      </trkpt>
      <trkpt lat="49.39059" lon="2.96849">
        <ele>127</ele>
        <time>2019-06-23T09:39:10Z</time>
      </trkpt>
      <trkpt lat="49.3906" lon="2.96852">
        <ele>127</ele>
        <time>2019-06-23T09:39:27Z</time>
      </trkpt>
      <trkpt lat="49.39066" lon="2.96858">
        <ele>127</ele>
        <time>2019-06-23T09:39:31Z</time>
      </trkpt>
      <trkpt lat="49.39091" lon="2.96881">
        <ele>126</ele>
        <time>2019-06-23T09:39:44Z</time>
      </trkpt>
      <trkpt lat="49.39103" lon="2.96897">
        <ele>126</ele>
        <time>2019-06-23T09:39:52Z</time>
      </trkpt>
      <trkpt lat="49.39115" lon="2.96907">
        <ele>125</ele>
        <time>2019-06-23T09:39:57Z</time>
      </trkpt>
      <trkpt lat="49.39146" lon="2.96931">
        <ele>124</ele>
        <time>2019-06-23T09:40:06Z</time>
      </trkpt>
      <trkpt lat="49.39156" lon="2.96938">
        <ele>123</ele>
        <time>2019-06-23T09:40:09Z</time>
      </trkpt>
      <trkpt lat="49.39189" lon="2.96956">
        <ele>121</ele>
        <time>2019-06-23T09:40:18Z</time>
      </trkpt>
      <trkpt lat="49.39229" lon="2.96989">
        <ele>120</ele>
        <time>2019-06-23T09:40:29Z</time>
      </trkpt>
      <trkpt lat="49.39231" lon="2.96993">
        <ele>119</ele>
        <time>2019-06-23T09:40:30Z</time>
      </trkpt>
      <trkpt lat="49.3925" lon="2.9701">
        <ele>117</ele>
        <time>2019-06-23T09:40:37Z</time>
      </trkpt>
      <trkpt lat="49.39278" lon="2.97004">
        <ele>111</ele>
        <time>2019-06-23T09:40:44Z</time>
      </trkpt>
      <trkpt lat="49.39298" lon="2.96958">
        <ele>113</ele>
        <time>2019-06-23T09:40:51Z</time>
      </trkpt>
      <trkpt lat="49.39313" lon="2.96903">
        <ele>111</ele>
        <time>2019-06-23T09:40:57Z</time>
      </trkpt>
      <trkpt lat="49.39324" lon="2.96869">
        <ele>109</ele>
        <time>2019-06-23T09:41:01Z</time>
      </trkpt>
      <trkpt lat="49.39337" lon="2.96781">
        <ele>90</ele>
        <time>2019-06-23T09:41:09Z</time>
      </trkpt>
      <trkpt lat="49.39345" lon="2.96751">
        <ele>91</ele>
        <time>2019-06-23T09:41:12Z</time>
      </trkpt>
      <trkpt lat="49.39355" lon="2.96725">
        <ele>85</ele>
        <time>2019-06-23T09:41:15Z</time>
      </trkpt>
      <trkpt lat="49.39371" lon="2.96704">
        <ele>82</ele>
        <time>2019-06-23T09:41:19Z</time>
      </trkpt>
      <trkpt lat="49.39394" lon="2.96683">
        <ele>80</ele>
        <time>2019-06-23T09:41:24Z</time>
      </trkpt>
      <trkpt lat="49.39403" lon="2.96673">
        <ele>78</ele>
        <time>2019-06-23T09:41:26Z</time>
      </trkpt>
      <trkpt lat="49.39417" lon="2.96665">
        <ele>75</ele>
        <time>2019-06-23T09:41:29Z</time>
      </trkpt>
      <trkpt lat="49.39443" lon="2.96679">
        <ele>74</ele>
        <time>2019-06-23T09:41:34Z</time>
      </trkpt>
      <trkpt lat="49.39457" lon="2.96688">
        <ele>74</ele>
        <time>2019-06-23T09:41:36Z</time>
      </trkpt>
      <trkpt lat="49.39472" lon="2.96708">
        <ele>73</ele>
        <time>2019-06-23T09:41:39Z</time>
      </trkpt>
      <trkpt lat="49.3949" lon="2.9673">
        <ele>72</ele>
        <time>2019-06-23T09:41:43Z</time>
      </trkpt>
      <trkpt lat="49.39494" lon="2.96738">
        <ele>71</ele>
        <time>2019-06-23T09:41:46Z</time>
      </trkpt>
      <trkpt lat="49.39497" lon="2.96741">
        <ele>71</ele>
        <time>2019-06-23T09:41:48Z</time>
      </trkpt>
      <trkpt lat="49.39515" lon="2.96744">
        <ele>67</ele>
        <time>2019-06-23T09:41:55Z</time>
      </trkpt>
      <trkpt lat="49.39531" lon="2.96734">
        <ele>66</ele>
        <time>2019-06-23T09:42:02Z</time>
      </trkpt>
      <trkpt lat="49.39536" lon="2.96721">
        <ele>66</ele>
        <time>2019-06-23T09:42:05Z</time>
      </trkpt>
      <trkpt lat="49.39556" lon="2.96686">
        <ele>66</ele>
        <time>2019-06-23T09:42:13Z</time>
      </trkpt>
      <trkpt lat="49.3956" lon="2.96682">
        <ele>66</ele>
        <time>2019-06-23T09:42:14Z</time>
      </trkpt>
      <trkpt lat="49.39588" lon="2.96625">
        <ele>62</ele>
        <time>2019-06-23T09:42:25Z</time>
      </trkpt>
      <trkpt lat="49.39591" lon="2.96621">
        <ele>62</ele>
        <time>2019-06-23T09:42:26Z</time>
      </trkpt>
      <trkpt lat="49.39597" lon="2.9661">
        <ele>62</ele>
        <time>2019-06-23T09:42:28Z</time>
      </trkpt>
      <trkpt lat="49.39606" lon="2.96574">
        <ele>63</ele>
        <time>2019-06-23T09:42:33Z</time>
      </trkpt>
      <trkpt lat="49.39609" lon="2.96525">
        <ele>62</ele>
        <time>2019-06-23T09:42:39Z</time>
      </trkpt>
      <trkpt lat="49.3961" lon="2.96493">
        <ele>64</ele>
        <time>2019-06-23T09:42:43Z</time>
      </trkpt>
      <trkpt lat="49.39611" lon="2.96479">
        <ele>64</ele>
        <time>2019-06-23T09:42:45Z</time>
      </trkpt>
      <trkpt lat="49.39621" lon="2.9641">
        <ele>66</ele>
        <time>2019-06-23T09:42:57Z</time>
      </trkpt>
      <trkpt lat="49.39639" lon="2.96384">
        <ele>65</ele>
        <time>2019-06-23T09:43:08Z</time>
      </trkpt>
      <trkpt lat="49.39681" lon="2.96353">
        <ele>63</ele>
        <time>2019-06-23T09:43:19Z</time>
      </trkpt>
      <trkpt lat="49.39701" lon="2.96348">
        <ele>63</ele>
        <time>2019-06-23T09:43:24Z</time>
      </trkpt>
      <trkpt lat="49.3971" lon="2.96314">
        <ele>68</ele>
        <time>2019-06-23T09:43:31Z</time>
      </trkpt>
      <trkpt lat="49.39705" lon="2.96303">
        <ele>69</ele>
        <time>2019-06-23T09:43:35Z</time>
      </trkpt>
      <trkpt lat="49.39703" lon="2.96295">
        <ele>69</ele>
        <time>2019-06-23T09:43:38Z</time>
      </trkpt>
      <trkpt lat="49.39702" lon="2.96283">
        <ele>69</ele>
        <time>2019-06-23T09:43:42Z</time>
      </trkpt>
      <trkpt lat="49.39703" lon="2.9627">
        <ele>70</ele>
        <time>2019-06-23T09:43:46Z</time>
      </trkpt>
      <trkpt lat="49.39701" lon="2.96246">
        <ele>74</ele>
        <time>2019-06-23T09:43:56Z</time>
      </trkpt>
      <trkpt lat="49.39699" lon="2.9624">
        <ele>74</ele>
        <time>2019-06-23T09:43:59Z</time>
      </trkpt>
      <trkpt lat="49.39697" lon="2.96236">
        <ele>74</ele>
        <time>2019-06-23T09:44:02Z</time>
      </trkpt>
      <trkpt lat="49.39697" lon="2.96218">
        <ele>75</ele>
        <time>2019-06-23T09:44:09Z</time>
      </trkpt>
      <trkpt lat="49.39705" lon="2.96199">
        <ele>76</ele>
        <time>2019-06-23T09:44:16Z</time>
      </trkpt>
      <trkpt lat="49.39707" lon="2.96192">
        <ele>76</ele>
        <time>2019-06-23T09:44:21Z</time>
      </trkpt>
      <trkpt lat="49.39706" lon="2.96181">
        <ele>77</ele>
        <time>2019-06-23T09:44:28Z</time>
      </trkpt>
      <trkpt lat="49.39698" lon="2.96154">
        <ele>84</ele>
        <time>2019-06-23T09:44:41Z</time>
      </trkpt>
      <trkpt lat="49.39696" lon="2.96145">
        <ele>85</ele>
        <time>2019-06-23T09:44:50Z</time>
      </trkpt>
      <trkpt lat="49.3969" lon="2.96135">
        <ele>86</ele>
        <time>2019-06-23T09:44:56Z</time>
      </trkpt>
      <trkpt lat="49.39688" lon="2.96133">
        <ele>86</ele>
        <time>2019-06-23T09:44:58Z</time>
      </trkpt>
      <trkpt lat="49.39681" lon="2.96123">
        <ele>87</ele>
        <time>2019-06-23T09:45:09Z</time>
      </trkpt>
      <trkpt lat="49.39679" lon="2.96122">
        <ele>87</ele>
        <time>2019-06-23T09:45:11Z</time>
      </trkpt>
      <trkpt lat="49.39672" lon="2.96113">
        <ele>88</ele>
        <time>2019-06-23T09:45:19Z</time>
      </trkpt>
      <trkpt lat="49.3966" lon="2.96099">
        <ele>86</ele>
        <time>2019-06-23T09:45:31Z</time>
      </trkpt>
      <trkpt lat="49.3965" lon="2.9609">
        <ele>86</ele>
        <time>2019-06-23T09:45:43Z</time>
      </trkpt>
      <trkpt lat="49.39644" lon="2.96085">
        <ele>85</ele>
        <time>2019-06-23T09:45:55Z</time>
      </trkpt>
      <trkpt lat="49.3964" lon="2.96077">
        <ele>95</ele>
        <time>2019-06-23T09:46:05Z</time>
      </trkpt>
      <trkpt lat="49.39637" lon="2.96067">
        <ele>96</ele>
        <time>2019-06-23T09:46:20Z</time>
      </trkpt>
      <trkpt lat="49.39627" lon="2.96057">
        <ele>97</ele>
        <time>2019-06-23T09:46:31Z</time>
      </trkpt>
      <trkpt lat="49.3962" lon="2.96049">
        <ele>98</ele>
        <time>2019-06-23T09:46:42Z</time>
      </trkpt>
      <trkpt lat="49.39606" lon="2.96043">
        <ele>98</ele>
        <time>2019-06-23T09:46:53Z</time>
      </trkpt>
      <trkpt lat="49.39601" lon="2.96037">
        <ele>99</ele>
        <time>2019-06-23T09:47:03Z</time>
      </trkpt>
      <trkpt lat="49.39596" lon="2.96036">
        <ele>99</ele>
        <time>2019-06-23T09:47:22Z</time>
      </trkpt>
      <trkpt lat="49.39593" lon="2.96029">
        <ele>100</ele>
        <time>2019-06-23T09:47:32Z</time>
      </trkpt>
      <trkpt lat="49.39588" lon="2.96018">
        <ele>102</ele>
        <time>2019-06-23T09:47:44Z</time>
      </trkpt>
      <trkpt lat="49.39586" lon="2.96014">
        <ele>103</ele>
        <time>2019-06-23T09:47:58Z</time>
      </trkpt>
      <trkpt lat="49.39584" lon="2.96013">
        <ele>103</ele>
        <time>2019-06-23T09:48:11Z</time>
      </trkpt>
      <trkpt lat="49.39582" lon="2.96008">
        <ele>104</ele>
        <time>2019-06-23T09:48:24Z</time>
      </trkpt>
      <trkpt lat="49.39577" lon="2.96004">
        <ele>104</ele>
        <time>2019-06-23T09:48:37Z</time>
      </trkpt>
      <trkpt lat="49.39573" lon="2.95999">
        <ele>109</ele>
        <time>2019-06-23T09:48:54Z</time>
      </trkpt>
      <trkpt lat="49.3957" lon="2.95993">
        <ele>110</ele>
        <time>2019-06-23T09:49:05Z</time>
      </trkpt>
      <trkpt lat="49.3957" lon="2.95988">
        <ele>110</ele>
        <time>2019-06-23T09:49:16Z</time>
      </trkpt>
      <trkpt lat="49.39569" lon="2.95986">
        <ele>110</ele>
        <time>2019-06-23T09:49:36Z</time>
      </trkpt>
      <trkpt lat="49.39565" lon="2.95972">
        <ele>112</ele>
        <time>2019-06-23T09:49:47Z</time>
      </trkpt>
      <trkpt lat="49.39561" lon="2.95964">
        <ele>112</ele>
        <time>2019-06-23T09:49:59Z</time>
      </trkpt>
      <trkpt lat="49.39556" lon="2.95955">
        <ele>113</ele>
        <time>2019-06-23T09:50:12Z</time>
      </trkpt>
      <trkpt lat="49.39553" lon="2.95955">
        <ele>113</ele>
        <time>2019-06-23T09:50:27Z</time>
      </trkpt>
      <trkpt lat="49.39547" lon="2.9595">
        <ele>114</ele>
        <time>2019-06-23T09:50:40Z</time>
      </trkpt>
      <trkpt lat="49.39545" lon="2.9594">
        <ele>114</ele>
        <time>2019-06-23T09:50:52Z</time>
      </trkpt>
      <trkpt lat="49.39545" lon="2.95939">
        <ele>114</ele>
        <time>2019-06-23T09:50:55Z</time>
      </trkpt>
      <trkpt lat="49.39539" lon="2.95928">
        <ele>115</ele>
        <time>2019-06-23T09:51:04Z</time>
      </trkpt>
      <trkpt lat="49.39537" lon="2.95923">
        <ele>115</ele>
        <time>2019-06-23T09:51:08Z</time>
      </trkpt>
      <trkpt lat="49.39527" lon="2.95916">
        <ele>120</ele>
        <time>2019-06-23T09:51:21Z</time>
      </trkpt>
      <trkpt lat="49.39525" lon="2.95915">
        <ele>120</ele>
        <time>2019-06-23T09:51:33Z</time>
      </trkpt>
      <trkpt lat="49.39523" lon="2.95908">
        <ele>121</ele>
        <time>2019-06-23T09:51:38Z</time>
      </trkpt>
      <trkpt lat="49.39522" lon="2.95901">
        <ele>121</ele>
        <time>2019-06-23T09:51:42Z</time>
      </trkpt>
      <trkpt lat="49.39516" lon="2.95887">
        <ele>121</ele>
        <time>2019-06-23T09:51:50Z</time>
      </trkpt>
      <trkpt lat="49.39516" lon="2.95884">
        <ele>121</ele>
        <time>2019-06-23T09:51:52Z</time>
      </trkpt>
      <trkpt lat="49.39511" lon="2.95866">
        <ele>121</ele>
        <time>2019-06-23T09:52:03Z</time>
      </trkpt>
      <trkpt lat="49.39506" lon="2.95854">
        <ele>122</ele>
        <time>2019-06-23T09:52:10Z</time>
      </trkpt>
      <trkpt lat="49.39502" lon="2.95844">
        <ele>122</ele>
        <time>2019-06-23T09:52:18Z</time>
      </trkpt>
      <trkpt lat="49.39494" lon="2.95832">
        <ele>123</ele>
        <time>2019-06-23T09:52:28Z</time>
      </trkpt>
      <trkpt lat="49.39489" lon="2.95825">
        <ele>124</ele>
        <time>2019-06-23T09:52:35Z</time>
      </trkpt>
      <trkpt lat="49.39482" lon="2.95817">
        <ele>124</ele>
        <time>2019-06-23T09:52:40Z</time>
      </trkpt>
      <trkpt lat="49.39467" lon="2.95801">
        <ele>124</ele>
        <time>2019-06-23T09:52:50Z</time>
      </trkpt>
      <trkpt lat="49.39465" lon="2.95799">
        <ele>124</ele>
        <time>2019-06-23T09:52:51Z</time>
      </trkpt>
      <trkpt lat="49.39441" lon="2.95769">
        <ele>125</ele>
        <time>2019-06-23T09:53:02Z</time>
      </trkpt>
      <trkpt lat="49.39428" lon="2.95756">
        <ele>125</ele>
        <time>2019-06-23T09:53:06Z</time>
      </trkpt>
      <trkpt lat="49.39427" lon="2.95731">
        <ele>125</ele>
        <time>2019-06-23T09:53:14Z</time>
      </trkpt>
      <trkpt lat="49.39425" lon="2.95708">
        <ele>125</ele>
        <time>2019-06-23T09:53:21Z</time>
      </trkpt>
      <trkpt lat="49.39436" lon="2.95671">
        <ele>125</ele>
        <time>2019-06-23T09:53:31Z</time>
      </trkpt>
      <trkpt lat="49.3945" lon="2.95684">
        <ele>124</ele>
        <time>2019-06-23T09:53:39Z</time>
      </trkpt>
      <trkpt lat="49.3946" lon="2.957">
        <ele>124</ele>
        <time>2019-06-23T09:53:43Z</time>
      </trkpt>
      <trkpt lat="49.39476" lon="2.95726">
        <ele>124</ele>
        <time>2019-06-23T09:53:49Z</time>
      </trkpt>
      <trkpt lat="49.39489" lon="2.95745">
        <ele>125</ele>
        <time>2019-06-23T09:53:54Z</time>
      </trkpt>
      <trkpt lat="49.39507" lon="2.95772">
        <ele>123</ele>
        <time>2019-06-23T09:54:00Z</time>
      </trkpt>
      <trkpt lat="49.39546" lon="2.95814">
        <ele>121</ele>
        <time>2019-06-23T09:54:10Z</time>
      </trkpt>
      <trkpt lat="49.39574" lon="2.95828">
        <ele>121</ele>
        <time>2019-06-23T09:54:18Z</time>
      </trkpt>
      <trkpt lat="49.3959" lon="2.95828">
        <ele>120</ele>
        <time>2019-06-23T09:54:22Z</time>
      </trkpt>
      <trkpt lat="49.39634" lon="2.95816">
        <ele>118</ele>
        <time>2019-06-23T09:54:33Z</time>
      </trkpt>
      <trkpt lat="49.39656" lon="2.95814">
        <ele>118</ele>
        <time>2019-06-23T09:54:38Z</time>
      </trkpt>
      <trkpt lat="49.39679" lon="2.9581">
        <ele>118</ele>
        <time>2019-06-23T09:54:43Z</time>
      </trkpt>
      <trkpt lat="49.39724" lon="2.95804">
        <ele>117</ele>
        <time>2019-06-23T09:54:54Z</time>
      </trkpt>
      <trkpt lat="49.39733" lon="2.95795">
        <ele>117</ele>
        <time>2019-06-23T09:54:56Z</time>
      </trkpt>
      <trkpt lat="49.39734" lon="2.95789">
        <ele>116</ele>
        <time>2019-06-23T09:54:57Z</time>
      </trkpt>
      <trkpt lat="49.39735" lon="2.95782">
        <ele>116</ele>
        <time>2019-06-23T09:54:58Z</time>
      </trkpt>
      <trkpt lat="49.39736" lon="2.95777">
        <ele>115</ele>
        <time>2019-06-23T09:54:59Z</time>
      </trkpt>
      <trkpt lat="49.39738" lon="2.95773">
        <ele>115</ele>
        <time>2019-06-23T09:55:00Z</time>
      </trkpt>
      <trkpt lat="49.39741" lon="2.95771">
        <ele>114</ele>
        <time>2019-06-23T09:55:01Z</time>
      </trkpt>
      <trkpt lat="49.39744" lon="2.95771">
        <ele>114</ele>
        <time>2019-06-23T09:55:02Z</time>
      </trkpt>
      <trkpt lat="49.3975" lon="2.95771">
        <ele>114</ele>
        <time>2019-06-23T09:55:04Z</time>
      </trkpt>
      <trkpt lat="49.39779" lon="2.95759">
        <ele>113</ele>
        <time>2019-06-23T09:55:12Z</time>
      </trkpt>
      <trkpt lat="49.39784" lon="2.95759">
        <ele>113</ele>
        <time>2019-06-23T09:55:13Z</time>
      </trkpt>
      <trkpt lat="49.39796" lon="2.95759">
        <ele>112</ele>
        <time>2019-06-23T09:55:15Z</time>
      </trkpt>
      <trkpt lat="49.39807" lon="2.95759">
        <ele>112</ele>
        <time>2019-06-23T09:55:17Z</time>
      </trkpt>
      <trkpt lat="49.39812" lon="2.95759">
        <ele>111</ele>
        <time>2019-06-23T09:55:18Z</time>
      </trkpt>
      <trkpt lat="49.39817" lon="2.95759">
        <ele>111</ele>
        <time>2019-06-23T09:55:19Z</time>
      </trkpt>
      <trkpt lat="49.39845" lon="2.95774">
        <ele>107</ele>
        <time>2019-06-23T09:55:26Z</time>
      </trkpt>
      <trkpt lat="49.39848" lon="2.9578">
        <ele>107</ele>
        <time>2019-06-23T09:55:27Z</time>
      </trkpt>
      <trkpt lat="49.39853" lon="2.95789">
        <ele>107</ele>
        <time>2019-06-23T09:55:29Z</time>
      </trkpt>
      <trkpt lat="49.39861" lon="2.95803">
        <ele>108</ele>
        <time>2019-06-23T09:55:32Z</time>
      </trkpt>
      <trkpt lat="49.39868" lon="2.95795">
        <ele>107</ele>
        <time>2019-06-23T09:55:37Z</time>
      </trkpt>
      <trkpt lat="49.39851" lon="2.95747">
        <ele>99</ele>
        <time>2019-06-23T09:55:46Z</time>
      </trkpt>
      <trkpt lat="49.39843" lon="2.95726">
        <ele>96</ele>
        <time>2019-06-23T09:55:52Z</time>
      </trkpt>
      <trkpt lat="49.39855" lon="2.95728">
        <ele>95</ele>
        <time>2019-06-23T09:56:00Z</time>
      </trkpt>
      <trkpt lat="49.39864" lon="2.95734">
        <ele>95</ele>
        <time>2019-06-23T09:56:02Z</time>
      </trkpt>
      <trkpt lat="49.39875" lon="2.95746">
        <ele>94</ele>
        <time>2019-06-23T09:56:05Z</time>
      </trkpt>
      <trkpt lat="49.39896" lon="2.95773">
        <ele>102</ele>
        <time>2019-06-23T09:56:12Z</time>
      </trkpt>
      <trkpt lat="49.39921" lon="2.9579">
        <ele>94</ele>
        <time>2019-06-23T09:56:18Z</time>
      </trkpt>
      <trkpt lat="49.39949" lon="2.95802">
        <ele>93</ele>
        <time>2019-06-23T09:56:22Z</time>
      </trkpt>
      <trkpt lat="49.39967" lon="2.95761">
        <ele>86</ele>
        <time>2019-06-23T09:56:30Z</time>
      </trkpt>
      <trkpt lat="49.39962" lon="2.9572">
        <ele>78</ele>
        <time>2019-06-23T09:56:33Z</time>
      </trkpt>
      <trkpt lat="49.39959" lon="2.95709">
        <ele>78</ele>
        <time>2019-06-23T09:56:34Z</time>
      </trkpt>
      <trkpt lat="49.39957" lon="2.95699">
        <ele>77</ele>
        <time>2019-06-23T09:56:35Z</time>
      </trkpt>
      <trkpt lat="49.39956" lon="2.95691">
        <ele>77</ele>
        <time>2019-06-23T09:56:36Z</time>
      </trkpt>
      <trkpt lat="49.39957" lon="2.95687">
        <ele>77</ele>
        <time>2019-06-23T09:56:37Z</time>
      </trkpt>
      <trkpt lat="49.39959" lon="2.95686">
        <ele>77</ele>
        <time>2019-06-23T09:56:38Z</time>
      </trkpt>
      <trkpt lat="49.39975" lon="2.95694">
        <ele>76</ele>
        <time>2019-06-23T09:56:44Z</time>
      </trkpt>
      <trkpt lat="49.40029" lon="2.95725">
        <ele>69</ele>
        <time>2019-06-23T09:56:52Z</time>
      </trkpt>
      <trkpt lat="49.40067" lon="2.95748">
        <ele>65</ele>
        <time>2019-06-23T09:56:58Z</time>
      </trkpt>
      <trkpt lat="49.40093" lon="2.95759">
        <ele>64</ele>
        <time>2019-06-23T09:57:02Z</time>
      </trkpt>
      <trkpt lat="49.40151" lon="2.95797">
        <ele>65</ele>
        <time>2019-06-23T09:57:11Z</time>
      </trkpt>
      <trkpt lat="49.40163" lon="2.95809">
        <ele>65</ele>
        <time>2019-06-23T09:57:13Z</time>
      </trkpt>
      <trkpt lat="49.402" lon="2.95853">
        <ele>62</ele>
        <time>2019-06-23T09:57:20Z</time>
      </trkpt>
      <trkpt lat="49.40226" lon="2.95892">
        <ele>61</ele>
        <time>2019-06-23T09:57:25Z</time>
      </trkpt>
      <trkpt lat="49.40248" lon="2.95922">
        <ele>59</ele>
        <time>2019-06-23T09:57:29Z</time>
      </trkpt>
      <trkpt lat="49.40266" lon="2.95948">
        <ele>52</ele>
        <time>2019-06-23T09:57:33Z</time>
      </trkpt>
      <trkpt lat="49.4028" lon="2.9597">
        <ele>51</ele>
        <time>2019-06-23T09:57:37Z</time>
      </trkpt>
      <trkpt lat="49.40271" lon="2.95997">
        <ele>53</ele>
        <time>2019-06-23T09:57:46Z</time>
      </trkpt>
      <trkpt lat="49.4027" lon="2.95999">
        <ele>53</ele>
        <time>2019-06-23T09:57:55Z</time>
      </trkpt>
      <trkpt lat="49.40267" lon="2.96001">
        <ele>52</ele>
        <time>2019-06-23T09:58:09Z</time>
      </trkpt>
      <trkpt lat="49.40256" lon="2.96003">
        <ele>55</ele>
        <time>2019-06-23T09:58:19Z</time>
      </trkpt>
      <trkpt lat="49.40252" lon="2.96004">
        <ele>56</ele>
        <time>2019-06-23T09:58:22Z</time>
      </trkpt>
      <trkpt lat="49.40244" lon="2.96003">
        <ele>58</ele>
        <time>2019-06-23T09:58:26Z</time>
      </trkpt>
      <trkpt lat="49.40223" lon="2.96007">
        <ele>62</ele>
        <time>2019-06-23T09:58:35Z</time>
      </trkpt>
      <trkpt lat="49.40218" lon="2.96013">
        <ele>62</ele>
        <time>2019-06-23T09:58:38Z</time>
      </trkpt>
      <trkpt lat="49.40202" lon="2.96057">
        <ele>63</ele>
        <time>2019-06-23T09:58:50Z</time>
      </trkpt>
      <trkpt lat="49.40192" lon="2.96106">
        <ele>62</ele>
        <time>2019-06-23T09:59:00Z</time>
      </trkpt>
      <trkpt lat="49.40174" lon="2.96152">
        <ele>61</ele>
        <time>2019-06-23T09:59:06Z</time>
      </trkpt>
      <trkpt lat="49.40168" lon="2.96189">
        <ele>59</ele>
        <time>2019-06-23T09:59:10Z</time>
      </trkpt>
      <trkpt lat="49.40162" lon="2.96216">
        <ele>64</ele>
        <time>2019-06-23T09:59:13Z</time>
      </trkpt>
      <trkpt lat="49.40158" lon="2.96258">
        <ele>60</ele>
        <time>2019-06-23T09:59:18Z</time>
      </trkpt>
      <trkpt lat="49.40154" lon="2.96301">
        <ele>59</ele>
        <time>2019-06-23T09:59:24Z</time>
      </trkpt>
      <trkpt lat="49.40132" lon="2.96367">
        <ele>55</ele>
        <time>2019-06-23T09:59:34Z</time>
      </trkpt>
      <trkpt lat="49.40121" lon="2.96403">
        <ele>54</ele>
        <time>2019-06-23T09:59:41Z</time>
      </trkpt>
      <trkpt lat="49.40119" lon="2.9641">
        <ele>54</ele>
        <time>2019-06-23T09:59:43Z</time>
      </trkpt>
      <trkpt lat="49.40128" lon="2.96417">
        <ele>49</ele>
        <time>2019-06-23T09:59:48Z</time>
      </trkpt>
      <trkpt lat="49.40164" lon="2.964">
        <ele>51</ele>
        <time>2019-06-23T10:00:00Z</time>
      </trkpt>
      <trkpt lat="49.40188" lon="2.96387">
        <ele>47</ele>
        <time>2019-06-23T10:00:05Z</time>
      </trkpt>
      <trkpt lat="49.40211" lon="2.96376">
        <ele>46</ele>
        <time>2019-06-23T10:00:11Z</time>
      </trkpt>
      <trkpt lat="49.40215" lon="2.96386">
        <ele>45</ele>
        <time>2019-06-23T10:00:14Z</time>
      </trkpt>
      <trkpt lat="49.4022" lon="2.96417">
        <ele>44</ele>
        <time>2019-06-23T10:00:20Z</time>
      </trkpt>
      <trkpt lat="49.4023" lon="2.96428">
        <ele>42</ele>
        <time>2019-06-23T10:00:23Z</time>
      </trkpt>
      <trkpt lat="49.40234" lon="2.96453">
        <ele>42</ele>
        <time>2019-06-23T10:00:27Z</time>
      </trkpt>
      <trkpt lat="49.40239" lon="2.96489">
        <ele>42</ele>
        <time>2019-06-23T10:00:32Z</time>
      </trkpt>
      <trkpt lat="49.40245" lon="2.96525">
        <ele>41</ele>
        <time>2019-06-23T10:00:37Z</time>
      </trkpt>
      <trkpt lat="49.40251" lon="2.96566">
        <ele>40</ele>
        <time>2019-06-23T10:00:43Z</time>
      </trkpt>
      <trkpt lat="49.40253" lon="2.96588">
        <ele>41</ele>
        <time>2019-06-23T10:00:46Z</time>
      </trkpt>
      <trkpt lat="49.40265" lon="2.96667">
        <ele>40</ele>
        <time>2019-06-23T10:01:00Z</time>
      </trkpt>
      <trkpt lat="49.40266" lon="2.96686">
        <ele>39</ele>
        <time>2019-06-23T10:01:03Z</time>
      </trkpt>
      <trkpt lat="49.40266" lon="2.96754">
        <ele>39</ele>
        <time>2019-06-23T10:01:14Z</time>
      </trkpt>
      <trkpt lat="49.40268" lon="2.96761">
        <ele>39</ele>
        <time>2019-06-23T10:01:17Z</time>
      </trkpt>
      <trkpt lat="49.40298" lon="2.96769">
        <ele>39</ele>
        <time>2019-06-23T10:01:28Z</time>
      </trkpt>
      <trkpt lat="49.40348" lon="2.96775">
        <ele>38</ele>
        <time>2019-06-23T10:01:42Z</time>
      </trkpt>
      <trkpt lat="49.40354" lon="2.96775">
        <ele>38</ele>
        <time>2019-06-23T10:01:44Z</time>
      </trkpt>
      <trkpt lat="49.4036" lon="2.96741">
        <ele>38</ele>
        <time>2019-06-23T10:01:51Z</time>
      </trkpt>
      <trkpt lat="49.40348" lon="2.96671">
        <ele>38</ele>
        <time>2019-06-23T10:02:01Z</time>
      </trkpt>
      <trkpt lat="49.40342" lon="2.96589">
        <ele>38</ele>
        <time>2019-06-23T10:02:12Z</time>
      </trkpt>
      <trkpt lat="49.40338" lon="2.96541">
        <ele>38</ele>
        <time>2019-06-23T10:02:18Z</time>
      </trkpt>
      <trkpt lat="49.40337" lon="2.96494">
        <ele>39</ele>
        <time>2019-06-23T10:02:24Z</time>
      </trkpt>
      <trkpt lat="49.40338" lon="2.9648">
        <ele>39</ele>
        <time>2019-06-23T10:02:26Z</time>
      </trkpt>
      <trkpt lat="49.40341" lon="2.96379">
        <ele>38</ele>
        <time>2019-06-23T10:02:39Z</time>
      </trkpt>
      <trkpt lat="49.40342" lon="2.96357">
        <ele>38</ele>
        <time>2019-06-23T10:02:42Z</time>
      </trkpt>
      <trkpt lat="49.40342" lon="2.96342">
        <ele>38</ele>
        <time>2019-06-23T10:02:44Z</time>
      </trkpt>
      <trkpt lat="49.40345" lon="2.96298">
        <ele>38</ele>
        <time>2019-06-23T10:02:50Z</time>
      </trkpt>
      <trkpt lat="49.40357" lon="2.96185">
        <ele>37</ele>
        <time>2019-06-23T10:03:05Z</time>
      </trkpt>
      <trkpt lat="49.40367" lon="2.96119">
        <ele>37</ele>
        <time>2019-06-23T10:03:14Z</time>
      </trkpt>
      <trkpt lat="49.40374" lon="2.96083">
        <ele>38</ele>
        <time>2019-06-23T10:03:19Z</time>
      </trkpt>
      <trkpt lat="49.40391" lon="2.95991">
        <ele>39</ele>
        <time>2019-06-23T10:03:32Z</time>
      </trkpt>
      <trkpt lat="49.4041" lon="2.9589">
        <ele>39</ele>
        <time>2019-06-23T10:03:46Z</time>
      </trkpt>
      <trkpt lat="49.40426" lon="2.95842">
        <ele>36</ele>
        <time>2019-06-23T10:03:53Z</time>
      </trkpt>
      <trkpt lat="49.40418" lon="2.95799">
        <ele>37</ele>
        <time>2019-06-23T10:04:00Z</time>
      </trkpt>
      <trkpt lat="49.40421" lon="2.95781">
        <ele>37</ele>
        <time>2019-06-23T10:04:03Z</time>
      </trkpt>
      <trkpt lat="49.4043" lon="2.95731">
        <ele>38</ele>
        <time>2019-06-23T10:04:11Z</time>
      </trkpt>
      <trkpt lat="49.40433" lon="2.95718">
        <ele>38</ele>
        <time>2019-06-23T10:04:13Z</time>
      </trkpt>
      <trkpt lat="49.40434" lon="2.95704">
        <ele>39</ele>
        <time>2019-06-23T10:04:15Z</time>
      </trkpt>
      <trkpt lat="49.4044" lon="2.95669">
        <ele>39</ele>
        <time>2019-06-23T10:04:20Z</time>
      </trkpt>
      <trkpt lat="49.40442" lon="2.95655">
        <ele>40</ele>
        <time>2019-06-23T10:04:22Z</time>
      </trkpt>
      <trkpt lat="49.40451" lon="2.95604">
        <ele>40</ele>
        <time>2019-06-23T10:04:29Z</time>
      </trkpt>
      <trkpt lat="49.40458" lon="2.95569">
        <ele>40</ele>
        <time>2019-06-23T10:04:34Z</time>
      </trkpt>
      <trkpt lat="49.40464" lon="2.95532">
        <ele>40</ele>
        <time>2019-06-23T10:04:39Z</time>
      </trkpt>
      <trkpt lat="49.40471" lon="2.95504">
        <ele>40</ele>
        <time>2019-06-23T10:04:43Z</time>
      </trkpt>
      <trkpt lat="49.40485" lon="2.95429">
        <ele>41</ele>
        <time>2019-06-23T10:04:56Z</time>
      </trkpt>
      <trkpt lat="49.40495" lon="2.95378">
        <ele>43</ele>
        <time>2019-06-23T10:05:05Z</time>
      </trkpt>
      <trkpt lat="49.40511" lon="2.95309">
        <ele>41</ele>
        <time>2019-06-23T10:05:17Z</time>
      </trkpt>
      <trkpt lat="49.40528" lon="2.95237">
        <ele>46</ele>
        <time>2019-06-23T10:05:30Z</time>
      </trkpt>
      <trkpt lat="49.40532" lon="2.95227">
        <ele>46</ele>
        <time>2019-06-23T10:05:32Z</time>
      </trkpt>
      <trkpt lat="49.40549" lon="2.95181">
        <ele>46</ele>
        <time>2019-06-23T10:05:41Z</time>
      </trkpt>
      <trkpt lat="49.40565" lon="2.95138">
        <ele>47</ele>
        <time>2019-06-23T10:05:50Z</time>
      </trkpt>
      <trkpt lat="49.40578" lon="2.95096">
        <ele>45</ele>
        <time>2019-06-23T10:06:00Z</time>
      </trkpt>
      <trkpt lat="49.40583" lon="2.9508">
        <ele>43</ele>
        <time>2019-06-23T10:06:04Z</time>
      </trkpt>
      <trkpt lat="49.40593" lon="2.95056">
        <ele>42</ele>
        <time>2019-06-23T10:06:09Z</time>
      </trkpt>
      <trkpt lat="49.4061" lon="2.94999">
        <ele>45</ele>
        <time>2019-06-23T10:06:20Z</time>
      </trkpt>
      <trkpt lat="49.4062" lon="2.94951">
        <ele>45</ele>
        <time>2019-06-23T10:06:30Z</time>
      </trkpt>
      <trkpt lat="49.40629" lon="2.94908">
        <ele>47</ele>
        <time>2019-06-23T10:06:39Z</time>
      </trkpt>
      <trkpt lat="49.4064" lon="2.9487">
        <ele>47</ele>
        <time>2019-06-23T10:06:48Z</time>
      </trkpt>
      <trkpt lat="49.40658" lon="2.94823">
        <ele>46</ele>
        <time>2019-06-23T10:06:58Z</time>
      </trkpt>
      <trkpt lat="49.40663" lon="2.94802">
        <ele>47</ele>
        <time>2019-06-23T10:07:02Z</time>
      </trkpt>
      <trkpt lat="49.40673" lon="2.94768">
        <ele>44</ele>
        <time>2019-06-23T10:07:09Z</time>
      </trkpt>
      <trkpt lat="49.40688" lon="2.94694">
        <ele>43</ele>
        <time>2019-06-23T10:07:24Z</time>
      </trkpt>
      <trkpt lat="49.40691" lon="2.94684">
        <ele>43</ele>
        <time>2019-06-23T10:07:26Z</time>
      </trkpt>
      <trkpt lat="49.40705" lon="2.94633">
        <ele>42</ele>
        <time>2019-06-23T10:07:36Z</time>
      </trkpt>
      <trkpt lat="49.40729" lon="2.94556">
        <ele>41</ele>
        <time>2019-06-23T10:07:50Z</time>
      </trkpt>
      <trkpt lat="49.40737" lon="2.94531">
        <ele>41</ele>
        <time>2019-06-23T10:07:55Z</time>
      </trkpt>
      <trkpt lat="49.40762" lon="2.94535">
        <ele>38</ele>
        <time>2019-06-23T10:08:04Z</time>
      </trkpt>
      <trkpt lat="49.40765" lon="2.94536">
        <ele>38</ele>
        <time>2019-06-23T10:08:05Z</time>
      </trkpt>
      <trkpt lat="49.40801" lon="2.94547">
        <ele>38</ele>
        <time>2019-06-23T10:08:17Z</time>
      </trkpt>
      <trkpt lat="49.40808" lon="2.94549">
        <ele>38</ele>
        <time>2019-06-23T10:08:19Z</time>
      </trkpt>
      <trkpt lat="49.40824" lon="2.94553">
        <ele>38</ele>
        <time>2019-06-23T10:08:24Z</time>
      </trkpt>
      <trkpt lat="49.40853" lon="2.94557">
        <ele>39</ele>
        <time>2019-06-23T10:08:34Z</time>
      </trkpt>
      <trkpt lat="49.40856" lon="2.94558">
        <ele>39</ele>
        <time>2019-06-23T10:08:35Z</time>
      </trkpt>
      <trkpt lat="49.40871" lon="2.94559">
        <ele>39</ele>
        <time>2019-06-23T10:08:39Z</time>
      </trkpt>
      <trkpt lat="49.40883" lon="2.94561">
        <ele>39</ele>
        <time>2019-06-23T10:08:47Z</time>
      </trkpt>
      <trkpt lat="49.4091" lon="2.94569">
        <ele>39</ele>
        <time>2019-06-23T10:08:56Z</time>
      </trkpt>
      <trkpt lat="49.40913" lon="2.9457">
        <ele>39</ele>
        <time>2019-06-23T10:08:57Z</time>
      </trkpt>
      <trkpt lat="49.40926" lon="2.94573">
        <ele>39</ele>
        <time>2019-06-23T10:09:01Z</time>
      </trkpt>
      <trkpt lat="49.40969" lon="2.94594">
        <ele>38</ele>
        <time>2019-06-23T10:09:12Z</time>
      </trkpt>
      <trkpt lat="49.41002" lon="2.94613">
        <ele>37</ele>
        <time>2019-06-23T10:09:21Z</time>
      </trkpt>
      <trkpt lat="49.41054" lon="2.94644">
        <ele>36</ele>
        <time>2019-06-23T10:09:32Z</time>
      </trkpt>
      <trkpt lat="49.4109" lon="2.94664">
        <ele>35</ele>
        <time>2019-06-23T10:09:46Z</time>
      </trkpt>
      <trkpt lat="49.4114" lon="2.9469">
        <ele>35</ele>
        <time>2019-06-23T10:10:02Z</time>
      </trkpt>
      <trkpt lat="49.41146" lon="2.94694">
        <ele>35</ele>
        <time>2019-06-23T10:10:04Z</time>
      </trkpt>
      <trkpt lat="49.41155" lon="2.94666">
        <ele>34</ele>
        <time>2019-06-23T10:10:12Z</time>
      </trkpt>
      <trkpt lat="49.41168" lon="2.94602">
        <ele>34</ele>
        <time>2019-06-23T10:10:25Z</time>
      </trkpt>
      <trkpt lat="49.41185" lon="2.94516">
        <ele>34</ele>
        <time>2019-06-23T10:10:41Z</time>
      </trkpt>
      <trkpt lat="49.41203" lon="2.94432">
        <ele>34</ele>
        <time>2019-06-23T10:10:56Z</time>
      </trkpt>
      <trkpt lat="49.41215" lon="2.94353">
        <ele>34</ele>
        <time>2019-06-23T10:11:10Z</time>
      </trkpt>
      <trkpt lat="49.4122" lon="2.94338">
        <ele>34</ele>
        <time>2019-06-23T10:11:13Z</time>
      </trkpt>
      <trkpt lat="49.41235" lon="2.94268">
        <ele>35</ele>
        <time>2019-06-23T10:11:25Z</time>
      </trkpt>
      <trkpt lat="49.41237" lon="2.94255">
        <ele>35</ele>
        <time>2019-06-23T10:11:27Z</time>
      </trkpt>
      <trkpt lat="49.41264" lon="2.94164">
        <ele>35</ele>
        <time>2019-06-23T10:11:43Z</time>
      </trkpt>
      <trkpt lat="49.41291" lon="2.94097">
        <ele>35</ele>
        <time>2019-06-23T10:11:56Z</time>
      </trkpt>
      <trkpt lat="49.41297" lon="2.94083">
        <ele>35</ele>
        <time>2019-06-23T10:11:59Z</time>
      </trkpt>
      <trkpt lat="49.41313" lon="2.94046">
        <ele>35</ele>
        <time>2019-06-23T10:12:08Z</time>
      </trkpt>
      <trkpt lat="49.41326" lon="2.94">
        <ele>35</ele>
        <time>2019-06-23T10:12:17Z</time>
      </trkpt>
      <trkpt lat="49.41337" lon="2.93952">
        <ele>35</ele>
        <time>2019-06-23T10:12:26Z</time>
      </trkpt>
      <trkpt lat="49.4136" lon="2.93887">
        <ele>35</ele>
        <time>2019-06-23T10:12:38Z</time>
      </trkpt>
      <trkpt lat="49.41376" lon="2.93844">
        <ele>35</ele>
        <time>2019-06-23T10:12:46Z</time>
      </trkpt>
      <trkpt lat="49.41387" lon="2.93814">
        <ele>36</ele>
        <time>2019-06-23T10:12:52Z</time>
      </trkpt>
      <trkpt lat="49.4138" lon="2.93793">
        <ele>37</ele>
        <time>2019-06-23T10:12:57Z</time>
      </trkpt>
      <trkpt lat="49.41342" lon="2.93762">
        <ele>38</ele>
        <time>2019-06-23T10:13:10Z</time>
      </trkpt>
      <trkpt lat="49.4134" lon="2.93757">
        <ele>38</ele>
        <time>2019-06-23T10:13:16Z</time>
      </trkpt>
      <trkpt lat="49.41367" lon="2.93771">
        <ele>37</ele>
        <time>2019-06-23T10:13:28Z</time>
      </trkpt>
      <trkpt lat="49.41411" lon="2.93795">
        <ele>36</ele>
        <time>2019-06-23T10:13:44Z</time>
      </trkpt>
      <trkpt lat="49.41452" lon="2.93817">
        <ele>35</ele>
        <time>2019-06-23T10:13:56Z</time>
      </trkpt>
      <trkpt lat="49.41465" lon="2.93826">
        <ele>35</ele>
        <time>2019-06-23T10:13:59Z</time>
      </trkpt>
      <trkpt lat="49.41533" lon="2.93862">
        <ele>35</ele>
        <time>2019-06-23T10:14:12Z</time>
      </trkpt>
      <trkpt lat="49.41564" lon="2.93874">
        <ele>36</ele>
        <time>2019-06-23T10:14:19Z</time>
      </trkpt>
      <trkpt lat="49.41623" lon="2.93891">
        <ele>38</ele>
        <time>2019-06-23T10:14:32Z</time>
      </trkpt>
      <trkpt lat="49.41628" lon="2.93894">
        <ele>38</ele>
        <time>2019-06-23T10:14:33Z</time>
      </trkpt>
      <trkpt lat="49.41633" lon="2.93906">
        <ele>38</ele>
        <time>2019-06-23T10:14:37Z</time>
      </trkpt>
      <trkpt lat="49.41624" lon="2.93934">
        <ele>39</ele>
        <time>2019-06-23T10:14:43Z</time>
      </trkpt>
      <trkpt lat="49.41625" lon="2.93984">
        <ele>40</ele>
        <time>2019-06-23T10:14:53Z</time>
      </trkpt>
      <trkpt lat="49.41632" lon="2.94027">
        <ele>41</ele>
        <time>2019-06-23T10:15:03Z</time>
      </trkpt>
      <trkpt lat="49.41634" lon="2.94048">
        <ele>41</ele>
        <time>2019-06-23T10:15:07Z</time>
      </trkpt>
      <trkpt lat="49.4164" lon="2.9407">
        <ele>41</ele>
        <time>2019-06-23T10:15:11Z</time>
      </trkpt>
      <trkpt lat="49.41656" lon="2.94093">
        <ele>41</ele>
        <time>2019-06-23T10:15:16Z</time>
      </trkpt>
      <trkpt lat="49.41671" lon="2.94118">
        <ele>42</ele>
        <time>2019-06-23T10:15:21Z</time>
      </trkpt>
      <trkpt lat="49.4168" lon="2.94142">
        <ele>41</ele>
        <time>2019-06-23T10:15:25Z</time>
      </trkpt>
      <trkpt lat="49.417" lon="2.9418">
        <ele>40</ele>
        <time>2019-06-23T10:15:32Z</time>
      </trkpt>
      <trkpt lat="49.41714" lon="2.94202">
        <ele>40</ele>
        <time>2019-06-23T10:15:36Z</time>
      </trkpt>
      <trkpt lat="49.41743" lon="2.94252">
        <ele>39</ele>
        <time>2019-06-23T10:15:45Z</time>
      </trkpt>
      <trkpt lat="49.41767" lon="2.94287">
        <ele>39</ele>
        <time>2019-06-23T10:15:52Z</time>
      </trkpt>
      <trkpt lat="49.41784" lon="2.94296">
        <ele>39</ele>
        <time>2019-06-23T10:15:57Z</time>
      </trkpt>
      <trkpt lat="49.41819" lon="2.94288">
        <ele>40</ele>
        <time>2019-06-23T10:16:04Z</time>
      </trkpt>
      <trkpt lat="49.4184" lon="2.94284">
        <ele>41</ele>
        <time>2019-06-23T10:16:08Z</time>
      </trkpt>
      <trkpt lat="49.41914" lon="2.94299">
        <ele>42</ele>
        <time>2019-06-23T10:16:24Z</time>
      </trkpt>
      <trkpt lat="49.41961" lon="2.94324">
        <ele>42</ele>
        <time>2019-06-23T10:16:34Z</time>
      </trkpt>
      <trkpt lat="49.41974" lon="2.94335">
        <ele>40</ele>
        <time>2019-06-23T10:16:37Z</time>
      </trkpt>
      <trkpt lat="49.42022" lon="2.94385">
        <ele>38</ele>
        <time>2019-06-23T10:16:49Z</time>
      </trkpt>
      <trkpt lat="49.42101" lon="2.94421">
        <ele>37</ele>
        <time>2019-06-23T10:17:06Z</time>
      </trkpt>
      <trkpt lat="49.42123" lon="2.9443">
        <ele>37</ele>
        <time>2019-06-23T10:17:11Z</time>
      </trkpt>
      <trkpt lat="49.42203" lon="2.94459">
        <ele>37</ele>
        <time>2019-06-23T10:17:27Z</time>
      </trkpt>
      <trkpt lat="49.42249" lon="2.94465">
        <ele>37</ele>
        <time>2019-06-23T10:17:36Z</time>
      </trkpt>
      <trkpt lat="49.42289" lon="2.94471">
        <ele>37</ele>
        <time>2019-06-23T10:17:44Z</time>
      </trkpt>
      <trkpt lat="49.42299" lon="2.94472">
        <ele>37</ele>
        <time>2019-06-23T10:17:46Z</time>
      </trkpt>
      <trkpt lat="49.42387" lon="2.94482">
        <ele>37</ele>
        <time>2019-06-23T10:18:03Z</time>
      </trkpt>
      <trkpt lat="49.42496" lon="2.94494">
        <ele>37</ele>
        <time>2019-06-23T10:18:24Z</time>
      </trkpt>
      <trkpt lat="49.4258" lon="2.94512">
        <ele>41</ele>
        <time>2019-06-23T10:18:41Z</time>
      </trkpt>
      <trkpt lat="49.42609" lon="2.94517">
        <ele>45</ele>
        <time>2019-06-23T10:18:47Z</time>
      </trkpt>
      <trkpt lat="49.42648" lon="2.94525">
        <ele>47</ele>
        <time>2019-06-23T10:18:56Z</time>
      </trkpt>
      <trkpt lat="49.42692" lon="2.94536">
        <ele>49</ele>
        <time>2019-06-23T10:19:06Z</time>
      </trkpt>
      <trkpt lat="49.42714" lon="2.94545">
        <ele>49</ele>
        <time>2019-06-23T10:19:12Z</time>
      </trkpt>
      <trkpt lat="49.42729" lon="2.94558">
        <ele>49</ele>
        <time>2019-06-23T10:19:18Z</time>
      </trkpt>
      <trkpt lat="49.42753" lon="2.94588">
        <ele>48</ele>
        <time>2019-06-23T10:19:25Z</time>
      </trkpt>
      <trkpt lat="49.42776" lon="2.94618">
        <ele>47</ele>
        <time>2019-06-23T10:19:32Z</time>
      </trkpt>
      <trkpt lat="49.42793" lon="2.94639">
        <ele>47</ele>
        <time>2019-06-23T10:19:37Z</time>
      </trkpt>
      <trkpt lat="49.42835" lon="2.94691">
        <ele>49</ele>
        <time>2019-06-23T10:19:49Z</time>
      </trkpt>
      <trkpt lat="49.42854" lon="2.9472">
        <ele>50</ele>
        <time>2019-06-23T10:19:57Z</time>
      </trkpt>
      <trkpt lat="49.42871" lon="2.94754">
        <ele>50</ele>
        <time>2019-06-23T10:20:06Z</time>
      </trkpt>
      <trkpt lat="49.42893" lon="2.94796">
        <ele>49</ele>
        <time>2019-06-23T10:20:17Z</time>
      </trkpt>
      <trkpt lat="49.42911" lon="2.94821">
        <ele>49</ele>
        <time>2019-06-23T10:20:24Z</time>
      </trkpt>
      <trkpt lat="49.4295" lon="2.94856">
        <ele>51</ele>
        <time>2019-06-23T10:20:34Z</time>
      </trkpt>
      <trkpt lat="49.42977" lon="2.94882">
        <ele>52</ele>
        <time>2019-06-23T10:20:44Z</time>
      </trkpt>
      <trkpt lat="49.43003" lon="2.94895">
        <ele>53</ele>
        <time>2019-06-23T10:20:54Z</time>
      </trkpt>
      <trkpt lat="49.43053" lon="2.94909">
        <ele>53</ele>
        <time>2019-06-23T10:21:04Z</time>
      </trkpt>
      <trkpt lat="49.43085" lon="2.94914">
        <ele>54</ele>
        <time>2019-06-23T10:21:13Z</time>
      </trkpt>
      <trkpt lat="49.43115" lon="2.94919">
        <ele>57</ele>
        <time>2019-06-23T10:21:23Z</time>
      </trkpt>
      <trkpt lat="49.43138" lon="2.9493">
        <ele>58</ele>
        <time>2019-06-23T10:21:31Z</time>
      </trkpt>
      <trkpt lat="49.43162" lon="2.94937">
        <ele>59</ele>
        <time>2019-06-23T10:21:38Z</time>
      </trkpt>
      <trkpt lat="49.43174" lon="2.94939">
        <ele>63</ele>
        <time>2019-06-23T10:21:49Z</time>
      </trkpt>
      <trkpt lat="49.43186" lon="2.94943">
        <ele>64</ele>
        <time>2019-06-23T10:22:03Z</time>
      </trkpt>
      <trkpt lat="49.43191" lon="2.9496">
        <ele>64</ele>
        <time>2019-06-23T10:22:15Z</time>
      </trkpt>
      <trkpt lat="49.43191" lon="2.94963">
        <ele>65</ele>
        <time>2019-06-23T10:22:26Z</time>
      </trkpt>
      <trkpt lat="49.43191" lon="2.94962">
        <ele>65</ele>
        <time>2019-06-23T10:22:53Z</time>
      </trkpt>
      <trkpt lat="49.43194" lon="2.94964">
        <ele>65</ele>
        <time>2019-06-23T10:23:28Z</time>
      </trkpt>
      <trkpt lat="49.43193" lon="2.94965">
        <ele>65</ele>
        <time>2019-06-23T10:24:00Z</time>
      </trkpt>
      <trkpt lat="49.43193" lon="2.94964">
        <ele>65</ele>
        <time>2019-06-23T10:24:32Z</time>
      </trkpt>
      <trkpt lat="49.43193" lon="2.94966">
        <ele>65</ele>
        <time>2019-06-23T10:25:04Z</time>
      </trkpt>
      <trkpt lat="49.43193" lon="2.94965">
        <ele>65</ele>
        <time>2019-06-23T10:25:34Z</time>
      </trkpt>
      <trkpt lat="49.43192" lon="2.94965">
        <ele>65</ele>
        <time>2019-06-23T10:26:02Z</time>
      </trkpt>
      <trkpt lat="49.43191" lon="2.94964">
        <ele>64</ele>
        <time>2019-06-23T10:26:29Z</time>
      </trkpt>
      <trkpt lat="49.43191" lon="2.94968">
        <ele>64</ele>
        <time>2019-06-23T10:26:57Z</time>
      </trkpt>
      <trkpt lat="49.43191" lon="2.94969">
        <ele>64</ele>
        <time>2019-06-23T10:27:29Z</time>
      </trkpt>
      <trkpt lat="49.4319" lon="2.94969">
        <ele>64</ele>
        <time>2019-06-23T10:28:02Z</time>
      </trkpt>
      <trkpt lat="49.4319" lon="2.94969">
        <ele>64</ele>
        <time>2019-06-23T10:28:32Z</time>
      </trkpt>
      <trkpt lat="49.43187" lon="2.94965">
        <ele>64</ele>
        <time>2019-06-23T10:28:48Z</time>
      </trkpt>
      <trkpt lat="49.43186" lon="2.94967">
        <ele>64</ele>
        <time>2019-06-23T10:29:00Z</time>
      </trkpt>
      <trkpt lat="49.43184" lon="2.9497">
        <ele>64</ele>
        <time>2019-06-23T10:29:11Z</time>
      </trkpt>
      <trkpt lat="49.43182" lon="2.95001">
        <ele>64</ele>
        <time>2019-06-23T10:29:23Z</time>
      </trkpt>
      <trkpt lat="49.43178" lon="2.95021">
        <ele>66</ele>
        <time>2019-06-23T10:29:29Z</time>
      </trkpt>
      <trkpt lat="49.43164" lon="2.95063">
        <ele>63</ele>
        <time>2019-06-23T10:29:41Z</time>
      </trkpt>
      <trkpt lat="49.43142" lon="2.95114">
        <ele>65</ele>
        <time>2019-06-23T10:29:54Z</time>
      </trkpt>
      <trkpt lat="49.43136" lon="2.95128">
        <ele>65</ele>
        <time>2019-06-23T10:29:58Z</time>
      </trkpt>
      <trkpt lat="49.43125" lon="2.95195">
        <ele>69</ele>
        <time>2019-06-23T10:30:10Z</time>
      </trkpt>
      <trkpt lat="49.43129" lon="2.95259">
        <ele>73</ele>
        <time>2019-06-23T10:30:21Z</time>
      </trkpt>
      <trkpt lat="49.43136" lon="2.95315">
        <ele>74</ele>
        <time>2019-06-23T10:30:32Z</time>
      </trkpt>
      <trkpt lat="49.43145" lon="2.95399">
        <ele>75</ele>
        <time>2019-06-23T10:30:48Z</time>
      </trkpt>
      <trkpt lat="49.43151" lon="2.95469">
        <ele>77</ele>
        <time>2019-06-23T10:31:02Z</time>
      </trkpt>
      <trkpt lat="49.43136" lon="2.95543">
        <ele>77</ele>
        <time>2019-06-23T10:31:17Z</time>
      </trkpt>
      <trkpt lat="49.43109" lon="2.95624">
        <ele>76</ele>
        <time>2019-06-23T10:31:32Z</time>
      </trkpt>
      <trkpt lat="49.43104" lon="2.95666">
        <ele>75</ele>
        <time>2019-06-23T10:31:39Z</time>
      </trkpt>
      <trkpt lat="49.4311" lon="2.95697">
        <ele>78</ele>
        <time>2019-06-23T10:31:44Z</time>
      </trkpt>
      <trkpt lat="49.43127" lon="2.95785">
        <ele>81</ele>
        <time>2019-06-23T10:31:58Z</time>
      </trkpt>
      <trkpt lat="49.43128" lon="2.958">
        <ele>81</ele>
        <time>2019-06-23T10:32:00Z</time>
      </trkpt>
      <trkpt lat="49.43117" lon="2.95925">
        <ele>77</ele>
        <time>2019-06-23T10:32:14Z</time>
      </trkpt>
      <trkpt lat="49.43116" lon="2.95958">
        <ele>77</ele>
        <time>2019-06-23T10:32:18Z</time>
      </trkpt>
      <trkpt lat="49.43124" lon="2.96077">
        <ele>80</ele>
        <time>2019-06-23T10:32:34Z</time>
      </trkpt>
      <trkpt lat="49.43123" lon="2.9609">
        <ele>80</ele>
        <time>2019-06-23T10:32:36Z</time>
      </trkpt>
      <trkpt lat="49.43098" lon="2.96209">
        <ele>77</ele>
        <time>2019-06-23T10:32:51Z</time>
      </trkpt>
      <trkpt lat="49.4309" lon="2.96285">
        <ele>76</ele>
        <time>2019-06-23T10:33:02Z</time>
      </trkpt>
      <trkpt lat="49.43102" lon="2.9631">
        <ele>76</ele>
        <time>2019-06-23T10:33:10Z</time>
      </trkpt>
      <trkpt lat="49.43106" lon="2.96303">
        <ele>76</ele>
        <time>2019-06-23T10:33:15Z</time>
      </trkpt>
      <trkpt lat="49.43117" lon="2.96285">
        <ele>77</ele>
        <time>2019-06-23T10:33:25Z</time>
      </trkpt>
      <trkpt lat="49.4312" lon="2.96275">
        <ele>78</ele>
        <time>2019-06-23T10:33:29Z</time>
      </trkpt>
      <trkpt lat="49.43137" lon="2.96268">
        <ele>79</ele>
        <time>2019-06-23T10:33:44Z</time>
      </trkpt>
      <trkpt lat="49.43148" lon="2.96273">
        <ele>80</ele>
        <time>2019-06-23T10:33:58Z</time>
      </trkpt>
      <trkpt lat="49.43155" lon="2.96277">
        <ele>80</ele>
        <time>2019-06-23T10:34:12Z</time>
      </trkpt>
      <trkpt lat="49.43161" lon="2.96287">
        <ele>80</ele>
        <time>2019-06-23T10:34:27Z</time>
      </trkpt>
      <trkpt lat="49.43163" lon="2.9629">
        <ele>80</ele>
        <time>2019-06-23T10:34:32Z</time>
      </trkpt>
      <trkpt lat="49.43167" lon="2.96296">
        <ele>90</ele>
        <time>2019-06-23T10:34:47Z</time>
      </trkpt>
      <trkpt lat="49.43175" lon="2.96309">
        <ele>89</ele>
        <time>2019-06-23T10:35:00Z</time>
      </trkpt>
      <trkpt lat="49.43179" lon="2.96313">
        <ele>89</ele>
        <time>2019-06-23T10:35:10Z</time>
      </trkpt>
      <trkpt lat="49.43183" lon="2.96321">
        <ele>89</ele>
        <time>2019-06-23T10:35:28Z</time>
      </trkpt>
      <trkpt lat="49.43188" lon="2.96332">
        <ele>89</ele>
        <time>2019-06-23T10:35:39Z</time>
      </trkpt>
      <trkpt lat="49.43192" lon="2.96339">
        <ele>90</ele>
        <time>2019-06-23T10:35:52Z</time>
      </trkpt>
      <trkpt lat="49.43199" lon="2.96348">
        <ele>91</ele>
        <time>2019-06-23T10:36:06Z</time>
      </trkpt>
      <trkpt lat="49.43206" lon="2.96355">
        <ele>93</ele>
        <time>2019-06-23T10:36:19Z</time>
      </trkpt>
      <trkpt lat="49.43206" lon="2.96355">
        <ele>93</ele>
        <time>2019-06-23T10:36:20Z</time>
      </trkpt>
      <trkpt lat="49.43212" lon="2.96365">
        <ele>93</ele>
        <time>2019-06-23T10:36:32Z</time>
      </trkpt>
      <trkpt lat="49.43215" lon="2.96371">
        <ele>94</ele>
        <time>2019-06-23T10:36:42Z</time>
      </trkpt>
      <trkpt lat="49.4322" lon="2.96378">
        <ele>94</ele>
        <time>2019-06-23T10:37:02Z</time>
      </trkpt>
      <trkpt lat="49.43227" lon="2.96386">
        <ele>95</ele>
        <time>2019-06-23T10:37:14Z</time>
      </trkpt>
      <trkpt lat="49.43234" lon="2.96397">
        <ele>96</ele>
        <time>2019-06-23T10:37:27Z</time>
      </trkpt>
      <trkpt lat="49.43242" lon="2.96405">
        <ele>98</ele>
        <time>2019-06-23T10:37:45Z</time>
      </trkpt>
      <trkpt lat="49.43244" lon="2.96406">
        <ele>98</ele>
        <time>2019-06-23T10:37:47Z</time>
      </trkpt>
      <trkpt lat="49.4325" lon="2.96408">
        <ele>99</ele>
        <time>2019-06-23T10:38:02Z</time>
      </trkpt>
      <trkpt lat="49.43257" lon="2.96411">
        <ele>103</ele>
        <time>2019-06-23T10:38:12Z</time>
      </trkpt>
      <trkpt lat="49.43265" lon="2.9641">
        <ele>104</ele>
        <time>2019-06-23T10:38:27Z</time>
      </trkpt>
      <trkpt lat="49.43282" lon="2.96408">
        <ele>106</ele>
        <time>2019-06-23T10:38:41Z</time>
      </trkpt>
      <trkpt lat="49.43292" lon="2.96397">
        <ele>107</ele>
        <time>2019-06-23T10:38:54Z</time>
      </trkpt>
      <trkpt lat="49.43295" lon="2.96398">
        <ele>107</ele>
        <time>2019-06-23T10:38:56Z</time>
      </trkpt>
      <trkpt lat="49.43306" lon="2.96396">
        <ele>108</ele>
        <time>2019-06-23T10:39:03Z</time>
      </trkpt>
      <trkpt lat="49.43313" lon="2.96396">
        <ele>108</ele>
        <time>2019-06-23T10:39:18Z</time>
      </trkpt>
      <trkpt lat="49.43318" lon="2.96396">
        <ele>108</ele>
        <time>2019-06-23T10:39:31Z</time>
      </trkpt>
      <trkpt lat="49.4333" lon="2.96393">
        <ele>109</ele>
        <time>2019-06-23T10:39:37Z</time>
      </trkpt>
      <trkpt lat="49.43342" lon="2.96392">
        <ele>112</ele>
        <time>2019-06-23T10:39:41Z</time>
      </trkpt>
      <trkpt lat="49.4337" lon="2.96383">
        <ele>113</ele>
        <time>2019-06-23T10:39:51Z</time>
      </trkpt>
      <trkpt lat="49.43407" lon="2.96368">
        <ele>114</ele>
        <time>2019-06-23T10:40:03Z</time>
      </trkpt>
      <trkpt lat="49.43431" lon="2.96359">
        <ele>113</ele>
        <time>2019-06-23T10:40:12Z</time>
      </trkpt>
      <trkpt lat="49.43455" lon="2.96346">
        <ele>112</ele>
        <time>2019-06-23T10:40:23Z</time>
      </trkpt>
      <trkpt lat="49.43476" lon="2.96317">
        <ele>115</ele>
        <time>2019-06-23T10:40:33Z</time>
      </trkpt>
      <trkpt lat="49.43483" lon="2.96268">
        <ele>116</ele>
        <time>2019-06-23T10:40:42Z</time>
      </trkpt>
      <trkpt lat="49.43502" lon="2.96232">
        <ele>115</ele>
        <time>2019-06-23T10:40:51Z</time>
      </trkpt>
      <trkpt lat="49.43511" lon="2.96216">
        <ele>115</ele>
        <time>2019-06-23T10:40:54Z</time>
      </trkpt>
      <trkpt lat="49.4354" lon="2.9618">
        <ele>115</ele>
        <time>2019-06-23T10:41:03Z</time>
      </trkpt>
      <trkpt lat="49.43549" lon="2.96172">
        <ele>115</ele>
        <time>2019-06-23T10:41:05Z</time>
      </trkpt>
      <trkpt lat="49.43607" lon="2.96122">
        <ele>116</ele>
        <time>2019-06-23T10:41:18Z</time>
      </trkpt>
      <trkpt lat="49.43636" lon="2.96088">
        <ele>117</ele>
        <time>2019-06-23T10:41:27Z</time>
      </trkpt>
      <trkpt lat="49.43643" lon="2.96083">
        <ele>117</ele>
        <time>2019-06-23T10:41:29Z</time>
      </trkpt>
      <trkpt lat="49.4365" lon="2.96113">
        <ele>117</ele>
        <time>2019-06-23T10:41:36Z</time>
      </trkpt>
      <trkpt lat="49.43652" lon="2.96133">
        <ele>117</ele>
        <time>2019-06-23T10:41:39Z</time>
      </trkpt>
      <trkpt lat="49.43654" lon="2.96161">
        <ele>117</ele>
        <time>2019-06-23T10:41:43Z</time>
      </trkpt>
      <trkpt lat="49.43656" lon="2.96185">
        <ele>116</ele>
        <time>2019-06-23T10:41:47Z</time>
      </trkpt>
      <trkpt lat="49.43656" lon="2.96205">
        <ele>116</ele>
        <time>2019-06-23T10:41:50Z</time>
      </trkpt>
      <trkpt lat="49.43657" lon="2.96262">
        <ele>115</ele>
        <time>2019-06-23T10:42:00Z</time>
      </trkpt>
      <trkpt lat="49.4366" lon="2.96299">
        <ele>113</ele>
        <time>2019-06-23T10:42:05Z</time>
      </trkpt>
      <trkpt lat="49.43663" lon="2.9641">
        <ele>111</ele>
        <time>2019-06-23T10:42:18Z</time>
      </trkpt>
      <trkpt lat="49.43668" lon="2.96536">
        <ele>106</ele>
        <time>2019-06-23T10:42:32Z</time>
      </trkpt>
      <trkpt lat="49.43669" lon="2.96554">
        <ele>104</ele>
        <time>2019-06-23T10:42:35Z</time>
      </trkpt>
      <trkpt lat="49.43671" lon="2.96584">
        <ele>98</ele>
        <time>2019-06-23T10:42:39Z</time>
      </trkpt>
      <trkpt lat="49.43669" lon="2.96604">
        <ele>95</ele>
        <time>2019-06-23T10:42:42Z</time>
      </trkpt>
      <trkpt lat="49.43667" lon="2.96621">
        <ele>92</ele>
        <time>2019-06-23T10:42:44Z</time>
      </trkpt>
      <trkpt lat="49.43667" lon="2.96641">
        <ele>84</ele>
        <time>2019-06-23T10:42:46Z</time>
      </trkpt>
      <trkpt lat="49.43669" lon="2.96685">
        <ele>81</ele>
        <time>2019-06-23T10:42:50Z</time>
      </trkpt>
      <trkpt lat="49.4367" lon="2.96718">
        <ele>78</ele>
        <time>2019-06-23T10:42:53Z</time>
      </trkpt>
      <trkpt lat="49.43677" lon="2.96851">
        <ele>71</ele>
        <time>2019-06-23T10:43:03Z</time>
      </trkpt>
      <trkpt lat="49.43677" lon="2.96902">
        <ele>69</ele>
        <time>2019-06-23T10:43:07Z</time>
      </trkpt>
      <trkpt lat="49.43679" lon="2.96947">
        <ele>68</ele>
        <time>2019-06-23T10:43:11Z</time>
      </trkpt>
      <trkpt lat="49.43691" lon="2.96964">
        <ele>68</ele>
        <time>2019-06-23T10:43:17Z</time>
      </trkpt>
      <trkpt lat="49.43724" lon="2.96967">
        <ele>69</ele>
        <time>2019-06-23T10:43:28Z</time>
      </trkpt>
      <trkpt lat="49.43736" lon="2.96971">
        <ele>70</ele>
        <time>2019-06-23T10:43:32Z</time>
      </trkpt>
      <trkpt lat="49.43763" lon="2.96964">
        <ele>75</ele>
        <time>2019-06-23T10:43:39Z</time>
      </trkpt>
      <trkpt lat="49.43797" lon="2.96967">
        <ele>77</ele>
        <time>2019-06-23T10:43:51Z</time>
      </trkpt>
      <trkpt lat="49.43805" lon="2.9697">
        <ele>77</ele>
        <time>2019-06-23T10:43:54Z</time>
      </trkpt>
      <trkpt lat="49.43823" lon="2.96967">
        <ele>77</ele>
        <time>2019-06-23T10:44:03Z</time>
      </trkpt>
      <trkpt lat="49.43846" lon="2.96969">
        <ele>83</ele>
        <time>2019-06-23T10:44:14Z</time>
      </trkpt>
      <trkpt lat="49.43849" lon="2.96968">
        <ele>83</ele>
        <time>2019-06-23T10:44:16Z</time>
      </trkpt>
      <trkpt lat="49.43852" lon="2.96968">
        <ele>83</ele>
        <time>2019-06-23T10:44:18Z</time>
      </trkpt>
      <trkpt lat="49.43868" lon="2.96962">
        <ele>85</ele>
        <time>2019-06-23T10:44:28Z</time>
      </trkpt>
      <trkpt lat="49.4389" lon="2.96961">
        <ele>86</ele>
        <time>2019-06-23T10:44:41Z</time>
      </trkpt>
      <trkpt lat="49.43904" lon="2.96961">
        <ele>86</ele>
        <time>2019-06-23T10:44:49Z</time>
      </trkpt>
      <trkpt lat="49.43913" lon="2.96963">
        <ele>86</ele>
        <time>2019-06-23T10:44:56Z</time>
      </trkpt>
      <trkpt lat="49.43926" lon="2.96961">
        <ele>92</ele>
        <time>2019-06-23T10:45:09Z</time>
      </trkpt>
      <trkpt lat="49.43931" lon="2.96963">
        <ele>92</ele>
        <time>2019-06-23T10:45:15Z</time>
      </trkpt>
      <trkpt lat="49.43945" lon="2.96966">
        <ele>93</ele>
        <time>2019-06-23T10:45:27Z</time>
      </trkpt>
      <trkpt lat="49.43953" lon="2.96963">
        <ele>94</ele>
        <time>2019-06-23T10:45:33Z</time>
      </trkpt>
      <trkpt lat="49.43967" lon="2.96955">
        <ele>95</ele>
        <time>2019-06-23T10:45:45Z</time>
      </trkpt>
      <trkpt lat="49.43972" lon="2.96959">
        <ele>95</ele>
        <time>2019-06-23T10:45:56Z</time>
      </trkpt>
      <trkpt lat="49.43976" lon="2.96959">
        <ele>95</ele>
        <time>2019-06-23T10:45:59Z</time>
      </trkpt>
      <trkpt lat="49.43978" lon="2.96962">
        <ele>95</ele>
        <time>2019-06-23T10:46:14Z</time>
      </trkpt>
      <trkpt lat="49.43978" lon="2.96962">
        <ele>95</ele>
        <time>2019-06-23T10:46:42Z</time>
      </trkpt>
      <trkpt lat="49.43978" lon="2.96966">
        <ele>95</ele>
        <time>2019-06-23T10:47:12Z</time>
      </trkpt>
      <trkpt lat="49.43979" lon="2.96968">
        <ele>95</ele>
        <time>2019-06-23T10:47:39Z</time>
      </trkpt>
      <trkpt lat="49.43979" lon="2.96968">
        <ele>95</ele>
        <time>2019-06-23T10:48:06Z</time>
      </trkpt>
      <trkpt lat="49.43977" lon="2.96971">
        <ele>95</ele>
        <time>2019-06-23T10:48:35Z</time>
      </trkpt>
      <trkpt lat="49.43977" lon="2.96971">
        <ele>95</ele>
        <time>2019-06-23T10:48:43Z</time>
      </trkpt>
      <trkpt lat="49.43968" lon="2.97007">
        <ele>92</ele>
        <time>2019-06-23T10:48:52Z</time>
      </trkpt>
      <trkpt lat="49.43947" lon="2.97066">
        <ele>89</ele>
        <time>2019-06-23T10:49:02Z</time>
      </trkpt>
      <trkpt lat="49.43921" lon="2.97119">
        <ele>89</ele>
        <time>2019-06-23T10:49:12Z</time>
      </trkpt>
      <trkpt lat="49.43882" lon="2.97168">
        <ele>85</ele>
        <time>2019-06-23T10:49:24Z</time>
      </trkpt>
      <trkpt lat="49.4386" lon="2.97198">
        <ele>84</ele>
        <time>2019-06-23T10:49:33Z</time>
      </trkpt>
      <trkpt lat="49.4382" lon="2.97244">
        <ele>81</ele>
        <time>2019-06-23T10:49:44Z</time>
      </trkpt>
      <trkpt lat="49.43802" lon="2.97282">
        <ele>84</ele>
        <time>2019-06-23T10:49:52Z</time>
      </trkpt>
      <trkpt lat="49.43804" lon="2.97298">
        <ele>85</ele>
        <time>2019-06-23T10:49:59Z</time>
      </trkpt>
      <trkpt lat="49.43809" lon="2.97298">
        <ele>86</ele>
        <time>2019-06-23T10:50:03Z</time>
      </trkpt>
      <trkpt lat="49.43822" lon="2.97302">
        <ele>87</ele>
        <time>2019-06-23T10:50:16Z</time>
      </trkpt>
      <trkpt lat="49.43823" lon="2.97303">
        <ele>87</ele>
        <time>2019-06-23T10:50:17Z</time>
      </trkpt>
      <trkpt lat="49.43832" lon="2.97308">
        <ele>88</ele>
        <time>2019-06-23T10:50:28Z</time>
      </trkpt>
      <trkpt lat="49.43832" lon="2.97309">
        <ele>88</ele>
        <time>2019-06-23T10:50:41Z</time>
      </trkpt>
      <trkpt lat="49.43843" lon="2.9731">
        <ele>94</ele>
        <time>2019-06-23T10:50:52Z</time>
      </trkpt>
      <trkpt lat="49.43855" lon="2.97315">
        <ele>95</ele>
        <time>2019-06-23T10:51:04Z</time>
      </trkpt>
      <trkpt lat="49.43859" lon="2.97316">
        <ele>95</ele>
        <time>2019-06-23T10:51:18Z</time>
      </trkpt>
      <trkpt lat="49.43865" lon="2.97315">
        <ele>95</ele>
        <time>2019-06-23T10:51:28Z</time>
      </trkpt>
      <trkpt lat="49.43876" lon="2.97321">
        <ele>96</ele>
        <time>2019-06-23T10:51:39Z</time>
      </trkpt>
      <trkpt lat="49.43889" lon="2.97329">
        <ele>98</ele>
        <time>2019-06-23T10:51:53Z</time>
      </trkpt>
      <trkpt lat="49.43903" lon="2.97334">
        <ele>103</ele>
        <time>2019-06-23T10:52:05Z</time>
      </trkpt>
      <trkpt lat="49.43916" lon="2.97339">
        <ele>104</ele>
        <time>2019-06-23T10:52:18Z</time>
      </trkpt>
      <trkpt lat="49.43919" lon="2.9734">
        <ele>105</ele>
        <time>2019-06-23T10:52:35Z</time>
      </trkpt>
      <trkpt lat="49.43922" lon="2.97339">
        <ele>105</ele>
        <time>2019-06-23T10:53:05Z</time>
      </trkpt>
      <trkpt lat="49.43929" lon="2.97341">
        <ele>106</ele>
        <time>2019-06-23T10:53:21Z</time>
      </trkpt>
      <trkpt lat="49.43939" lon="2.97338">
        <ele>107</ele>
        <time>2019-06-23T10:53:31Z</time>
      </trkpt>
      <trkpt lat="49.43949" lon="2.97335">
        <ele>107</ele>
        <time>2019-06-23T10:53:44Z</time>
      </trkpt>
      <trkpt lat="49.43957" lon="2.97333">
        <ele>108</ele>
        <time>2019-06-23T10:53:55Z</time>
      </trkpt>
      <trkpt lat="49.43962" lon="2.97329">
        <ele>107</ele>
        <time>2019-06-23T10:53:59Z</time>
      </trkpt>
      <trkpt lat="49.43978" lon="2.97322">
        <ele>108</ele>
        <time>2019-06-23T10:54:14Z</time>
      </trkpt>
      <trkpt lat="49.43989" lon="2.97321">
        <ele>109</ele>
        <time>2019-06-23T10:54:20Z</time>
      </trkpt>
      <trkpt lat="49.43996" lon="2.97315">
        <ele>109</ele>
        <time>2019-06-23T10:54:25Z</time>
      </trkpt>
      <trkpt lat="49.44019" lon="2.97307">
        <ele>113</ele>
        <time>2019-06-23T10:54:35Z</time>
      </trkpt>
      <trkpt lat="49.44055" lon="2.97303">
        <ele>114</ele>
        <time>2019-06-23T10:54:46Z</time>
      </trkpt>
      <trkpt lat="49.44073" lon="2.97301">
        <ele>114</ele>
        <time>2019-06-23T10:54:56Z</time>
      </trkpt>
      <trkpt lat="49.44106" lon="2.97286">
        <ele>116</ele>
        <time>2019-06-23T10:55:10Z</time>
      </trkpt>
      <trkpt lat="49.44125" lon="2.97277">
        <ele>116</ele>
        <time>2019-06-23T10:55:17Z</time>
      </trkpt>
      <trkpt lat="49.44142" lon="2.9726">
        <ele>116</ele>
        <time>2019-06-23T10:55:26Z</time>
      </trkpt>
      <trkpt lat="49.44196" lon="2.97239">
        <ele>116</ele>
        <time>2019-06-23T10:55:37Z</time>
      </trkpt>
      <trkpt lat="49.44221" lon="2.97223">
        <ele>116</ele>
        <time>2019-06-23T10:55:44Z</time>
      </trkpt>
      <trkpt lat="49.44226" lon="2.9722">
        <ele>116</ele>
        <time>2019-06-23T10:55:46Z</time>
      </trkpt>
      <trkpt lat="49.44266" lon="2.97219">
        <ele>115</ele>
        <time>2019-06-23T10:55:58Z</time>
      </trkpt>
      <trkpt lat="49.44261" lon="2.9725">
        <ele>116</ele>
        <time>2019-06-23T10:56:07Z</time>
      </trkpt>
      <trkpt lat="49.44252" lon="2.97293">
        <ele>116</ele>
        <time>2019-06-23T10:56:15Z</time>
      </trkpt>
      <trkpt lat="49.44245" lon="2.97335">
        <ele>115</ele>
        <time>2019-06-23T10:56:22Z</time>
      </trkpt>
      <trkpt lat="49.44233" lon="2.97385">
        <ele>113</ele>
        <time>2019-06-23T10:56:28Z</time>
      </trkpt>
      <trkpt lat="49.44214" lon="2.97475">
        <ele>108</ele>
        <time>2019-06-23T10:56:36Z</time>
      </trkpt>
      <trkpt lat="49.44201" lon="2.97525">
        <ele>102</ele>
        <time>2019-06-23T10:56:40Z</time>
      </trkpt>
      <trkpt lat="49.4417" lon="2.9765">
        <ele>98</ele>
        <time>2019-06-23T10:56:50Z</time>
      </trkpt>
      <trkpt lat="49.44156" lon="2.97719">
        <ele>101</ele>
        <time>2019-06-23T10:57:00Z</time>
      </trkpt>
      <trkpt lat="49.44152" lon="2.97735">
        <ele>101</ele>
        <time>2019-06-23T10:57:08Z</time>
      </trkpt>
      <trkpt lat="49.44147" lon="2.97751">
        <ele>101</ele>
        <time>2019-06-23T10:57:20Z</time>
      </trkpt>
      <trkpt lat="49.44145" lon="2.97758">
        <ele>101</ele>
        <time>2019-06-23T10:57:23Z</time>
      </trkpt>
      <trkpt lat="49.44144" lon="2.97766">
        <ele>102</ele>
        <time>2019-06-23T10:57:27Z</time>
      </trkpt>
      <trkpt lat="49.44137" lon="2.97792">
        <ele>102</ele>
        <time>2019-06-23T10:57:43Z</time>
      </trkpt>
      <trkpt lat="49.44133" lon="2.97828">
        <ele>102</ele>
        <time>2019-06-23T10:57:53Z</time>
      </trkpt>
      <trkpt lat="49.44116" lon="2.97902">
        <ele>95</ele>
        <time>2019-06-23T10:58:00Z</time>
      </trkpt>
      <trkpt lat="49.44106" lon="2.97959">
        <ele>90</ele>
        <time>2019-06-23T10:58:05Z</time>
      </trkpt>
      <trkpt lat="49.44085" lon="2.98063">
        <ele>83</ele>
        <time>2019-06-23T10:58:13Z</time>
      </trkpt>
      <trkpt lat="49.44064" lon="2.98151">
        <ele>77</ele>
        <time>2019-06-23T10:58:21Z</time>
      </trkpt>
      <trkpt lat="49.44068" lon="2.98164">
        <ele>77</ele>
        <time>2019-06-23T10:58:25Z</time>
      </trkpt>
      <trkpt lat="49.44096" lon="2.98143">
        <ele>78</ele>
        <time>2019-06-23T10:58:36Z</time>
      </trkpt>
      <trkpt lat="49.44125" lon="2.98131">
        <ele>79</ele>
        <time>2019-06-23T10:58:45Z</time>
      </trkpt>
      <trkpt lat="49.44131" lon="2.98129">
        <ele>79</ele>
        <time>2019-06-23T10:58:47Z</time>
      </trkpt>
      <trkpt lat="49.44159" lon="2.9811">
        <ele>81</ele>
        <time>2019-06-23T10:58:56Z</time>
      </trkpt>
      <trkpt lat="49.44164" lon="2.98105">
        <ele>82</ele>
        <time>2019-06-23T10:58:58Z</time>
      </trkpt>
      <trkpt lat="49.44199" lon="2.98098">
        <ele>83</ele>
        <time>2019-06-23T10:59:10Z</time>
      </trkpt>
      <trkpt lat="49.44229" lon="2.98095">
        <ele>84</ele>
        <time>2019-06-23T10:59:17Z</time>
      </trkpt>
      <trkpt lat="49.4427" lon="2.98079">
        <ele>86</ele>
        <time>2019-06-23T10:59:28Z</time>
      </trkpt>
      <trkpt lat="49.44304" lon="2.98055">
        <ele>87</ele>
        <time>2019-06-23T10:59:39Z</time>
      </trkpt>
      <trkpt lat="49.44342" lon="2.9804">
        <ele>87</ele>
        <time>2019-06-23T10:59:51Z</time>
      </trkpt>
      <trkpt lat="49.44374" lon="2.98038">
        <ele>87</ele>
        <time>2019-06-23T11:00:01Z</time>
      </trkpt>
      <trkpt lat="49.44405" lon="2.98023">
        <ele>87</ele>
        <time>2019-06-23T11:00:12Z</time>
      </trkpt>
      <trkpt lat="49.44438" lon="2.98008">
        <ele>87</ele>
        <time>2019-06-23T11:00:24Z</time>
      </trkpt>
      <trkpt lat="49.44469" lon="2.97985">
        <ele>90</ele>
        <time>2019-06-23T11:00:37Z</time>
      </trkpt>
      <trkpt lat="49.44491" lon="2.97972">
        <ele>91</ele>
        <time>2019-06-23T11:00:48Z</time>
      </trkpt>
      <trkpt lat="49.44501" lon="2.97967">
        <ele>93</ele>
        <time>2019-06-23T11:00:54Z</time>
      </trkpt>
      <trkpt lat="49.44515" lon="2.97959">
        <ele>93</ele>
        <time>2019-06-23T11:01:03Z</time>
      </trkpt>
      <trkpt lat="49.44518" lon="2.97951">
        <ele>94</ele>
        <time>2019-06-23T11:01:08Z</time>
      </trkpt>
      <trkpt lat="49.44525" lon="2.97943">
        <ele>94</ele>
        <time>2019-06-23T11:01:14Z</time>
      </trkpt>
      <trkpt lat="49.44535" lon="2.97927">
        <ele>95</ele>
        <time>2019-06-23T11:01:24Z</time>
      </trkpt>
      <trkpt lat="49.44536" lon="2.97926">
        <ele>95</ele>
        <time>2019-06-23T11:01:25Z</time>
      </trkpt>
      <trkpt lat="49.44541" lon="2.97918">
        <ele>95</ele>
        <time>2019-06-23T11:01:32Z</time>
      </trkpt>
      <trkpt lat="49.44544" lon="2.97909">
        <ele>99</ele>
        <time>2019-06-23T11:01:38Z</time>
      </trkpt>
      <trkpt lat="49.44549" lon="2.97892">
        <ele>99</ele>
        <time>2019-06-23T11:01:44Z</time>
      </trkpt>
      <trkpt lat="49.4455" lon="2.97886">
        <ele>99</ele>
        <time>2019-06-23T11:01:47Z</time>
      </trkpt>
      <trkpt lat="49.44555" lon="2.97858">
        <ele>100</ele>
        <time>2019-06-23T11:01:59Z</time>
      </trkpt>
      <trkpt lat="49.44559" lon="2.97837">
        <ele>101</ele>
        <time>2019-06-23T11:02:05Z</time>
      </trkpt>
      <trkpt lat="49.4456" lon="2.97825">
        <ele>104</ele>
        <time>2019-06-23T11:02:09Z</time>
      </trkpt>
      <trkpt lat="49.44562" lon="2.97803">
        <ele>105</ele>
        <time>2019-06-23T11:02:16Z</time>
      </trkpt>
      <trkpt lat="49.44568" lon="2.97778">
        <ele>106</ele>
        <time>2019-06-23T11:02:25Z</time>
      </trkpt>
      <trkpt lat="49.44586" lon="2.97738">
        <ele>108</ele>
        <time>2019-06-23T11:02:38Z</time>
      </trkpt>
      <trkpt lat="49.44588" lon="2.97729">
        <ele>109</ele>
        <time>2019-06-23T11:02:41Z</time>
      </trkpt>
      <trkpt lat="49.44597" lon="2.97711">
        <ele>110</ele>
        <time>2019-06-23T11:02:51Z</time>
      </trkpt>
      <trkpt lat="49.44606" lon="2.97689">
        <ele>111</ele>
        <time>2019-06-23T11:03:04Z</time>
      </trkpt>
      <trkpt lat="49.44618" lon="2.97675">
        <ele>111</ele>
        <time>2019-06-23T11:03:14Z</time>
      </trkpt>
      <trkpt lat="49.44627" lon="2.97668">
        <ele>111</ele>
        <time>2019-06-23T11:03:22Z</time>
      </trkpt>
      <trkpt lat="49.4464" lon="2.97659">
        <ele>113</ele>
        <time>2019-06-23T11:03:33Z</time>
      </trkpt>
      <trkpt lat="49.44643" lon="2.97657">
        <ele>113</ele>
        <time>2019-06-23T11:03:51Z</time>
      </trkpt>
      <trkpt lat="49.44644" lon="2.97657">
        <ele>113</ele>
        <time>2019-06-23T11:04:15Z</time>
      </trkpt>
      <trkpt lat="49.44646" lon="2.97656">
        <ele>113</ele>
        <time>2019-06-23T11:04:45Z</time>
      </trkpt>
      <trkpt lat="49.44648" lon="2.97656">
        <ele>113</ele>
        <time>2019-06-23T11:05:04Z</time>
      </trkpt>
      <trkpt lat="49.44649" lon="2.97655">
        <ele>113</ele>
        <time>2019-06-23T11:05:29Z</time>
      </trkpt>
      <trkpt lat="49.44652" lon="2.97651">
        <ele>113</ele>
        <time>2019-06-23T11:05:39Z</time>
      </trkpt>
      <trkpt lat="49.44655" lon="2.97648">
        <ele>113</ele>
        <time>2019-06-23T11:05:42Z</time>
      </trkpt>
      <trkpt lat="49.44659" lon="2.97644">
        <ele>113</ele>
        <time>2019-06-23T11:05:45Z</time>
      </trkpt>
      <trkpt lat="49.44665" lon="2.97642">
        <ele>113</ele>
        <time>2019-06-23T11:05:50Z</time>
      </trkpt>
      <trkpt lat="49.4468" lon="2.97644">
        <ele>112</ele>
        <time>2019-06-23T11:06:03Z</time>
      </trkpt>
      <trkpt lat="49.44692" lon="2.97653">
        <ele>112</ele>
        <time>2019-06-23T11:06:14Z</time>
      </trkpt>
      <trkpt lat="49.44694" lon="2.97655">
        <ele>113</ele>
        <time>2019-06-23T11:06:17Z</time>
      </trkpt>
      <trkpt lat="49.4471" lon="2.97663">
        <ele>113</ele>
        <time>2019-06-23T11:06:31Z</time>
      </trkpt>
      <trkpt lat="49.44718" lon="2.97669">
        <ele>111</ele>
        <time>2019-06-23T11:06:40Z</time>
      </trkpt>
      <trkpt lat="49.44722" lon="2.9767">
        <ele>111</ele>
        <time>2019-06-23T11:06:42Z</time>
      </trkpt>
      <trkpt lat="49.44735" lon="2.97675">
        <ele>111</ele>
        <time>2019-06-23T11:06:51Z</time>
      </trkpt>
      <trkpt lat="49.44759" lon="2.97687">
        <ele>112</ele>
        <time>2019-06-23T11:06:57Z</time>
      </trkpt>
      <trkpt lat="49.4476" lon="2.97696">
        <ele>112</ele>
        <time>2019-06-23T11:07:01Z</time>
      </trkpt>
      <trkpt lat="49.44757" lon="2.97725">
        <ele>111</ele>
        <time>2019-06-23T11:07:11Z</time>
      </trkpt>
      <trkpt lat="49.44755" lon="2.97755">
        <ele>110</ele>
        <time>2019-06-23T11:07:18Z</time>
      </trkpt>
      <trkpt lat="49.44756" lon="2.97814">
        <ele>110</ele>
        <time>2019-06-23T11:07:30Z</time>
      </trkpt>
      <trkpt lat="49.44759" lon="2.97875">
        <ele>110</ele>
        <time>2019-06-23T11:07:41Z</time>
      </trkpt>
      <trkpt lat="49.44759" lon="2.97901">
        <ele>111</ele>
        <time>2019-06-23T11:07:46Z</time>
      </trkpt>
      <trkpt lat="49.44766" lon="2.97964">
        <ele>111</ele>
        <time>2019-06-23T11:07:58Z</time>
      </trkpt>
      <trkpt lat="49.44766" lon="2.9803">
        <ele>111</ele>
        <time>2019-06-23T11:08:10Z</time>
      </trkpt>
      <trkpt lat="49.44762" lon="2.98053">
        <ele>111</ele>
        <time>2019-06-23T11:08:14Z</time>
      </trkpt>
      <trkpt lat="49.44751" lon="2.98116">
        <ele>112</ele>
        <time>2019-06-23T11:08:25Z</time>
      </trkpt>
      <trkpt lat="49.44733" lon="2.98169">
        <ele>112</ele>
        <time>2019-06-23T11:08:35Z</time>
      </trkpt>
      <trkpt lat="49.44723" lon="2.98194">
        <ele>112</ele>
        <time>2019-06-23T11:08:40Z</time>
      </trkpt>
      <trkpt lat="49.44712" lon="2.98227">
        <ele>112</ele>
        <time>2019-06-23T11:08:45Z</time>
      </trkpt>
      <trkpt lat="49.44706" lon="2.98246">
        <ele>112</ele>
        <time>2019-06-23T11:08:47Z</time>
      </trkpt>
      <trkpt lat="49.44687" lon="2.98288">
        <ele>113</ele>
        <time>2019-06-23T11:08:52Z</time>
      </trkpt>
      <trkpt lat="49.44669" lon="2.98336">
        <ele>113</ele>
        <time>2019-06-23T11:08:59Z</time>
      </trkpt>
      <trkpt lat="49.44652" lon="2.98381">
        <ele>112</ele>
        <time>2019-06-23T11:09:05Z</time>
      </trkpt>
      <trkpt lat="49.44638" lon="2.98419">
        <ele>112</ele>
        <time>2019-06-23T11:09:11Z</time>
      </trkpt>
      <trkpt lat="49.44628" lon="2.98463">
        <ele>112</ele>
        <time>2019-06-23T11:09:17Z</time>
      </trkpt>
      <trkpt lat="49.44623" lon="2.98529">
        <ele>111</ele>
        <time>2019-06-23T11:09:26Z</time>
      </trkpt>
      <trkpt lat="49.44623" lon="2.98584">
        <ele>110</ele>
        <time>2019-06-23T11:09:33Z</time>
      </trkpt>
      <trkpt lat="49.44626" lon="2.98615">
        <ele>110</ele>
        <time>2019-06-23T11:09:37Z</time>
      </trkpt>
      <trkpt lat="49.44627" lon="2.98632">
        <ele>109</ele>
        <time>2019-06-23T11:09:39Z</time>
      </trkpt>
      <trkpt lat="49.44631" lon="2.98675">
        <ele>107</ele>
        <time>2019-06-23T11:09:45Z</time>
      </trkpt>
      <trkpt lat="49.44632" lon="2.98698">
        <ele>106</ele>
        <time>2019-06-23T11:09:48Z</time>
      </trkpt>
      <trkpt lat="49.44635" lon="2.9872">
        <ele>106</ele>
        <time>2019-06-23T11:09:51Z</time>
      </trkpt>
      <trkpt lat="49.44644" lon="2.98762">
        <ele>103</ele>
        <time>2019-06-23T11:09:58Z</time>
      </trkpt>
      <trkpt lat="49.44647" lon="2.98775">
        <ele>103</ele>
        <time>2019-06-23T11:10:00Z</time>
      </trkpt>
      <trkpt lat="49.44655" lon="2.98797">
        <ele>103</ele>
        <time>2019-06-23T11:10:04Z</time>
      </trkpt>
      <trkpt lat="49.44657" lon="2.98841">
        <ele>103</ele>
        <time>2019-06-23T11:10:11Z</time>
      </trkpt>
      <trkpt lat="49.44663" lon="2.98891">
        <ele>99</ele>
        <time>2019-06-23T11:10:19Z</time>
      </trkpt>
      <trkpt lat="49.44699" lon="2.98944">
        <ele>104</ele>
        <time>2019-06-23T11:10:32Z</time>
      </trkpt>
      <trkpt lat="49.44702" lon="2.98946">
        <ele>104</ele>
        <time>2019-06-23T11:10:33Z</time>
      </trkpt>
      <trkpt lat="49.44725" lon="2.98982">
        <ele>104</ele>
        <time>2019-06-23T11:10:41Z</time>
      </trkpt>
      <trkpt lat="49.44764" lon="2.9901">
        <ele>107</ele>
        <time>2019-06-23T11:10:51Z</time>
      </trkpt>
      <trkpt lat="49.448" lon="2.99027">
        <ele>107</ele>
        <time>2019-06-23T11:11:00Z</time>
      </trkpt>
      <trkpt lat="49.44843" lon="2.99052">
        <ele>107</ele>
        <time>2019-06-23T11:11:11Z</time>
      </trkpt>
      <trkpt lat="49.44854" lon="2.99055">
        <ele>107</ele>
        <time>2019-06-23T11:11:14Z</time>
      </trkpt>
      <trkpt lat="49.44874" lon="2.99063">
        <ele>106</ele>
        <time>2019-06-23T11:11:18Z</time>
      </trkpt>
      <trkpt lat="49.44902" lon="2.99064">
        <ele>104</ele>
        <time>2019-06-23T11:11:23Z</time>
      </trkpt>
      <trkpt lat="49.44948" lon="2.99085">
        <ele>90</ele>
        <time>2019-06-23T11:11:30Z</time>
      </trkpt>
      <trkpt lat="49.44961" lon="2.99091">
        <ele>89</ele>
        <time>2019-06-23T11:11:32Z</time>
      </trkpt>
      <trkpt lat="49.44997" lon="2.99089">
        <ele>88</ele>
        <time>2019-06-23T11:11:38Z</time>
      </trkpt>
      <trkpt lat="49.45017" lon="2.99071">
        <ele>88</ele>
        <time>2019-06-23T11:11:43Z</time>
      </trkpt>
      <trkpt lat="49.45032" lon="2.99057">
        <ele>87</ele>
        <time>2019-06-23T11:11:56Z</time>
      </trkpt>
      <trkpt lat="49.45037" lon="2.99052">
        <ele>87</ele>
        <time>2019-06-23T11:12:12Z</time>
      </trkpt>
      <trkpt lat="49.45039" lon="2.9905">
        <ele>87</ele>
        <time>2019-06-23T11:12:24Z</time>
      </trkpt>
      <trkpt lat="49.45039" lon="2.99049">
        <ele>87</ele>
        <time>2019-06-23T11:12:28Z</time>
      </trkpt>
      <trkpt lat="49.45038" lon="2.99041">
        <ele>88</ele>
        <time>2019-06-23T11:12:32Z</time>
      </trkpt>
      <trkpt lat="49.45038" lon="2.99036">
        <ele>88</ele>
        <time>2019-06-23T11:12:34Z</time>
      </trkpt>
      <trkpt lat="49.45037" lon="2.9903">
        <ele>88</ele>
        <time>2019-06-23T11:12:36Z</time>
      </trkpt>
      <trkpt lat="49.45037" lon="2.99025">
        <ele>88</ele>
        <time>2019-06-23T11:12:38Z</time>
      </trkpt>
      <trkpt lat="49.4504" lon="2.99007">
        <ele>89</ele>
        <time>2019-06-23T11:12:45Z</time>
      </trkpt>
      <trkpt lat="49.45043" lon="2.98993">
        <ele>92</ele>
        <time>2019-06-23T11:12:48Z</time>
      </trkpt>
      <trkpt lat="49.45042" lon="2.98973">
        <ele>93</ele>
        <time>2019-06-23T11:12:53Z</time>
      </trkpt>
      <trkpt lat="49.4504" lon="2.98908">
        <ele>95</ele>
        <time>2019-06-23T11:13:03Z</time>
      </trkpt>
      <trkpt lat="49.45042" lon="2.98851">
        <ele>95</ele>
        <time>2019-06-23T11:13:13Z</time>
      </trkpt>
      <trkpt lat="49.45046" lon="2.98805">
        <ele>94</ele>
        <time>2019-06-23T11:13:22Z</time>
      </trkpt>
      <trkpt lat="49.45045" lon="2.98786">
        <ele>95</ele>
        <time>2019-06-23T11:13:25Z</time>
      </trkpt>
      <trkpt lat="49.45065" lon="2.98722">
        <ele>97</ele>
        <time>2019-06-23T11:13:37Z</time>
      </trkpt>
      <trkpt lat="49.45069" lon="2.98696">
        <ele>97</ele>
        <time>2019-06-23T11:13:40Z</time>
      </trkpt>
      <trkpt lat="49.4508" lon="2.98663">
        <ele>98</ele>
        <time>2019-06-23T11:13:47Z</time>
      </trkpt>
      <trkpt lat="49.45093" lon="2.98665">
        <ele>100</ele>
        <time>2019-06-23T11:13:51Z</time>
      </trkpt>
      <trkpt lat="49.45112" lon="2.98644">
        <ele>103</ele>
        <time>2019-06-23T11:13:57Z</time>
      </trkpt>
      <trkpt lat="49.45118" lon="2.98623">
        <ele>103</ele>
        <time>2019-06-23T11:14:03Z</time>
      </trkpt>
      <trkpt lat="49.45134" lon="2.98595">
        <ele>105</ele>
        <time>2019-06-23T11:14:18Z</time>
      </trkpt>
      <trkpt lat="49.4514" lon="2.9859">
        <ele>105</ele>
        <time>2019-06-23T11:14:24Z</time>
      </trkpt>
      <trkpt lat="49.45145" lon="2.98583">
        <ele>106</ele>
        <time>2019-06-23T11:14:36Z</time>
      </trkpt>
      <trkpt lat="49.45146" lon="2.98579">
        <ele>106</ele>
        <time>2019-06-23T11:14:53Z</time>
      </trkpt>
      <trkpt lat="49.4515" lon="2.98573">
        <ele>106</ele>
        <time>2019-06-23T11:15:00Z</time>
      </trkpt>
      <trkpt lat="49.45158" lon="2.98562">
        <ele>106</ele>
        <time>2019-06-23T11:15:12Z</time>
      </trkpt>
      <trkpt lat="49.45167" lon="2.98548">
        <ele>110</ele>
        <time>2019-06-23T11:15:24Z</time>
      </trkpt>
      <trkpt lat="49.4517" lon="2.98543">
        <ele>110</ele>
        <time>2019-06-23T11:15:35Z</time>
      </trkpt>
      <trkpt lat="49.45172" lon="2.98542">
        <ele>110</ele>
        <time>2019-06-23T11:16:02Z</time>
      </trkpt>
      <trkpt lat="49.45173" lon="2.98538">
        <ele>110</ele>
        <time>2019-06-23T11:16:21Z</time>
      </trkpt>
      <trkpt lat="49.4518" lon="2.98527">
        <ele>109</ele>
        <time>2019-06-23T11:16:31Z</time>
      </trkpt>
      <trkpt lat="49.45185" lon="2.98523">
        <ele>109</ele>
        <time>2019-06-23T11:16:36Z</time>
      </trkpt>
      <trkpt lat="49.4519" lon="2.98509">
        <ele>109</ele>
        <time>2019-06-23T11:16:45Z</time>
      </trkpt>
      <trkpt lat="49.45197" lon="2.98495">
        <ele>109</ele>
        <time>2019-06-23T11:16:55Z</time>
      </trkpt>
      <trkpt lat="49.45199" lon="2.98491">
        <ele>109</ele>
        <time>2019-06-23T11:16:58Z</time>
      </trkpt>
      <trkpt lat="49.45203" lon="2.98488">
        <ele>109</ele>
        <time>2019-06-23T11:17:02Z</time>
      </trkpt>
      <trkpt lat="49.4521" lon="2.98479">
        <ele>110</ele>
        <time>2019-06-23T11:17:11Z</time>
      </trkpt>
      <trkpt lat="49.45217" lon="2.98471">
        <ele>110</ele>
        <time>2019-06-23T11:17:19Z</time>
      </trkpt>
      <trkpt lat="49.45225" lon="2.98452">
        <ele>110</ele>
        <time>2019-06-23T11:17:34Z</time>
      </trkpt>
      <trkpt lat="49.45227" lon="2.98445">
        <ele>110</ele>
        <time>2019-06-23T11:17:46Z</time>
      </trkpt>
      <trkpt lat="49.45227" lon="2.9844">
        <ele>110</ele>
        <time>2019-06-23T11:17:49Z</time>
      </trkpt>
      <trkpt lat="49.45228" lon="2.98436">
        <ele>110</ele>
        <time>2019-06-23T11:17:51Z</time>
      </trkpt>
      <trkpt lat="49.45234" lon="2.984">
        <ele>110</ele>
        <time>2019-06-23T11:18:01Z</time>
      </trkpt>
      <trkpt lat="49.45238" lon="2.98385">
        <ele>110</ele>
        <time>2019-06-23T11:18:05Z</time>
      </trkpt>
      <trkpt lat="49.45255" lon="2.98345">
        <ele>112</ele>
        <time>2019-06-23T11:18:16Z</time>
      </trkpt>
      <trkpt lat="49.45267" lon="2.98321">
        <ele>113</ele>
        <time>2019-06-23T11:18:21Z</time>
      </trkpt>
      <trkpt lat="49.45275" lon="2.98315">
        <ele>114</ele>
        <time>2019-06-23T11:18:24Z</time>
      </trkpt>
      <trkpt lat="49.45287" lon="2.98286">
        <ele>114</ele>
        <time>2019-06-23T11:18:30Z</time>
      </trkpt>
      <trkpt lat="49.45321" lon="2.98238">
        <ele>116</ele>
        <time>2019-06-23T11:18:42Z</time>
      </trkpt>
      <trkpt lat="49.45347" lon="2.98213">
        <ele>118</ele>
        <time>2019-06-23T11:18:51Z</time>
      </trkpt>
      <trkpt lat="49.45372" lon="2.9819">
        <ele>118</ele>
        <time>2019-06-23T11:19:01Z</time>
      </trkpt>
      <trkpt lat="49.45375" lon="2.98188">
        <ele>118</ele>
        <time>2019-06-23T11:19:02Z</time>
      </trkpt>
      <trkpt lat="49.45405" lon="2.98167">
        <ele>118</ele>
        <time>2019-06-23T11:19:12Z</time>
      </trkpt>
      <trkpt lat="49.45434" lon="2.98144">
        <ele>121</ele>
        <time>2019-06-23T11:19:21Z</time>
      </trkpt>
      <trkpt lat="49.45469" lon="2.98109">
        <ele>124</ele>
        <time>2019-06-23T11:19:32Z</time>
      </trkpt>
      <trkpt lat="49.45496" lon="2.98061">
        <ele>125</ele>
        <time>2019-06-23T11:19:44Z</time>
      </trkpt>
      <trkpt lat="49.45501" lon="2.98051">
        <ele>126</ele>
        <time>2019-06-23T11:19:46Z</time>
      </trkpt>
      <trkpt lat="49.45532" lon="2.98007">
        <ele>125</ele>
        <time>2019-06-23T11:19:57Z</time>
      </trkpt>
      <trkpt lat="49.45534" lon="2.98002">
        <ele>125</ele>
        <time>2019-06-23T11:19:58Z</time>
      </trkpt>
      <trkpt lat="49.45569" lon="2.97951">
        <ele>124</ele>
        <time>2019-06-23T11:20:10Z</time>
      </trkpt>
      <trkpt lat="49.45575" lon="2.97942">
        <ele>124</ele>
        <time>2019-06-23T11:20:12Z</time>
      </trkpt>
      <trkpt lat="49.45587" lon="2.97924">
        <ele>124</ele>
        <time>2019-06-23T11:20:16Z</time>
      </trkpt>
      <trkpt lat="49.45597" lon="2.97909">
        <ele>124</ele>
        <time>2019-06-23T11:20:19Z</time>
      </trkpt>
      <trkpt lat="49.45605" lon="2.9789">
        <ele>125</ele>
        <time>2019-06-23T11:20:22Z</time>
      </trkpt>
      <trkpt lat="49.45621" lon="2.9785">
        <ele>125</ele>
        <time>2019-06-23T11:20:28Z</time>
      </trkpt>
      <trkpt lat="49.45626" lon="2.97831">
        <ele>126</ele>
        <time>2019-06-23T11:20:31Z</time>
      </trkpt>
      <trkpt lat="49.45646" lon="2.97782">
        <ele>127</ele>
        <time>2019-06-23T11:20:40Z</time>
      </trkpt>
      <trkpt lat="49.45682" lon="2.97766">
        <ele>125</ele>
        <time>2019-06-23T11:20:47Z</time>
      </trkpt>
      <trkpt lat="49.45698" lon="2.97743">
        <ele>124</ele>
        <time>2019-06-23T11:20:51Z</time>
      </trkpt>
      <trkpt lat="49.45718" lon="2.97716">
        <ele>123</ele>
        <time>2019-06-23T11:20:56Z</time>
      </trkpt>
      <trkpt lat="49.45753" lon="2.97683">
        <ele>120</ele>
        <time>2019-06-23T11:21:04Z</time>
      </trkpt>
      <trkpt lat="49.45766" lon="2.977">
        <ele>119</ele>
        <time>2019-06-23T11:21:08Z</time>
      </trkpt>
      <trkpt lat="49.45781" lon="2.97745">
        <ele>119</ele>
        <time>2019-06-23T11:21:16Z</time>
      </trkpt>
      <trkpt lat="49.45786" lon="2.97757">
        <ele>120</ele>
        <time>2019-06-23T11:21:18Z</time>
      </trkpt>
      <trkpt lat="49.45808" lon="2.97776">
        <ele>119</ele>
        <time>2019-06-23T11:21:29Z</time>
      </trkpt>
      <trkpt lat="49.45817" lon="2.97784">
        <ele>120</ele>
        <time>2019-06-23T11:21:32Z</time>
      </trkpt>
      <trkpt lat="49.45822" lon="2.97799">
        <ele>120</ele>
        <time>2019-06-23T11:21:37Z</time>
      </trkpt>
      <trkpt lat="49.45824" lon="2.9781">
        <ele>120</ele>
        <time>2019-06-23T11:21:43Z</time>
      </trkpt>
      <trkpt lat="49.45838" lon="2.9782">
        <ele>120</ele>
        <time>2019-06-23T11:21:52Z</time>
      </trkpt>
      <trkpt lat="49.45838" lon="2.97821">
        <ele>120</ele>
        <time>2019-06-23T11:21:53Z</time>
      </trkpt>
      <trkpt lat="49.45842" lon="2.97839">
        <ele>121</ele>
        <time>2019-06-23T11:21:58Z</time>
      </trkpt>
      <trkpt lat="49.45845" lon="2.9785">
        <ele>121</ele>
        <time>2019-06-23T11:22:02Z</time>
      </trkpt>
      <trkpt lat="49.45851" lon="2.97837">
        <ele>121</ele>
        <time>2019-06-23T11:22:09Z</time>
      </trkpt>
      <trkpt lat="49.45855" lon="2.97833">
        <ele>120</ele>
        <time>2019-06-23T11:22:21Z</time>
      </trkpt>
      <trkpt lat="49.45856" lon="2.97832">
        <ele>120</ele>
        <time>2019-06-23T11:22:22Z</time>
      </trkpt>
      <trkpt lat="49.45858" lon="2.97827">
        <ele>119</ele>
        <time>2019-06-23T11:22:26Z</time>
      </trkpt>
      <trkpt lat="49.45866" lon="2.97812">
        <ele>119</ele>
        <time>2019-06-23T11:22:34Z</time>
      </trkpt>
      <trkpt lat="49.45871" lon="2.97799">
        <ele>119</ele>
        <time>2019-06-23T11:22:40Z</time>
      </trkpt>
      <trkpt lat="49.4587" lon="2.97783">
        <ele>118</ele>
        <time>2019-06-23T11:22:48Z</time>
      </trkpt>
      <trkpt lat="49.45874" lon="2.97772">
        <ele>118</ele>
        <time>2019-06-23T11:22:56Z</time>
      </trkpt>
      <trkpt lat="49.45884" lon="2.9776">
        <ele>118</ele>
        <time>2019-06-23T11:23:05Z</time>
      </trkpt>
      <trkpt lat="49.45886" lon="2.9776">
        <ele>118</ele>
        <time>2019-06-23T11:23:07Z</time>
      </trkpt>
      <trkpt lat="49.45888" lon="2.9776">
        <ele>118</ele>
        <time>2019-06-23T11:23:09Z</time>
      </trkpt>
      <trkpt lat="49.45891" lon="2.97757">
        <ele>118</ele>
        <time>2019-06-23T11:23:13Z</time>
      </trkpt>
      <trkpt lat="49.45898" lon="2.97746">
        <ele>115</ele>
        <time>2019-06-23T11:23:19Z</time>
      </trkpt>
      <trkpt lat="49.45904" lon="2.97744">
        <ele>115</ele>
        <time>2019-06-23T11:23:31Z</time>
      </trkpt>
      <trkpt lat="49.45906" lon="2.97742">
        <ele>115</ele>
        <time>2019-06-23T11:23:36Z</time>
      </trkpt>
      <trkpt lat="49.45908" lon="2.9774">
        <ele>115</ele>
        <time>2019-06-23T11:23:38Z</time>
      </trkpt>
      <trkpt lat="49.45913" lon="2.97738">
        <ele>115</ele>
        <time>2019-06-23T11:23:41Z</time>
      </trkpt>
      <trkpt lat="49.45915" lon="2.97734">
        <ele>115</ele>
        <time>2019-06-23T11:23:43Z</time>
      </trkpt>
      <trkpt lat="49.4592" lon="2.97719">
        <ele>115</ele>
        <time>2019-06-23T11:23:49Z</time>
      </trkpt>
      <trkpt lat="49.45929" lon="2.97699">
        <ele>114</ele>
        <time>2019-06-23T11:23:55Z</time>
      </trkpt>
      <trkpt lat="49.45939" lon="2.97678">
        <ele>114</ele>
        <time>2019-06-23T11:24:06Z</time>
      </trkpt>
      <trkpt lat="49.45943" lon="2.97673">
        <ele>114</ele>
        <time>2019-06-23T11:24:17Z</time>
      </trkpt>
      <trkpt lat="49.45945" lon="2.9767">
        <ele>114</ele>
        <time>2019-06-23T11:24:21Z</time>
      </trkpt>
      <trkpt lat="49.45955" lon="2.97657">
        <ele>111</ele>
        <time>2019-06-23T11:24:29Z</time>
      </trkpt>
      <trkpt lat="49.45958" lon="2.97644">
        <ele>111</ele>
        <time>2019-06-23T11:24:35Z</time>
      </trkpt>
      <trkpt lat="49.45964" lon="2.97633">
        <ele>111</ele>
        <time>2019-06-23T11:24:40Z</time>
      </trkpt>
      <trkpt lat="49.45971" lon="2.97615">
        <ele>110</ele>
        <time>2019-06-23T11:24:47Z</time>
      </trkpt>
      <trkpt lat="49.45994" lon="2.97597">
        <ele>110</ele>
        <time>2019-06-23T11:24:58Z</time>
      </trkpt>
      <trkpt lat="49.46005" lon="2.97593">
        <ele>110</ele>
        <time>2019-06-23T11:25:05Z</time>
      </trkpt>
      <trkpt lat="49.45989" lon="2.97575">
        <ele>107</ele>
        <time>2019-06-23T11:25:16Z</time>
      </trkpt>
      <trkpt lat="49.45979" lon="2.97569">
        <ele>105</ele>
        <time>2019-06-23T11:25:23Z</time>
      </trkpt>
      <trkpt lat="49.45976" lon="2.97569">
        <ele>105</ele>
        <time>2019-06-23T11:25:30Z</time>
      </trkpt>
      <trkpt lat="49.45979" lon="2.9756">
        <ele>104</ele>
        <time>2019-06-23T11:25:35Z</time>
      </trkpt>
      <trkpt lat="49.45974" lon="2.97557">
        <ele>104</ele>
        <time>2019-06-23T11:25:43Z</time>
      </trkpt>
      <trkpt lat="49.45972" lon="2.97558">
        <ele>104</ele>
        <time>2019-06-23T11:25:45Z</time>
      </trkpt>
      <trkpt lat="49.45963" lon="2.97565">
        <ele>104</ele>
        <time>2019-06-23T11:25:50Z</time>
      </trkpt>
      <trkpt lat="49.45958" lon="2.97568">
        <ele>103</ele>
        <time>2019-06-23T11:25:53Z</time>
      </trkpt>
      <trkpt lat="49.45953" lon="2.97579">
        <ele>104</ele>
        <time>2019-06-23T11:26:04Z</time>
      </trkpt>
      <trkpt lat="49.45952" lon="2.9758">
        <ele>103</ele>
        <time>2019-06-23T11:26:05Z</time>
      </trkpt>
      <trkpt lat="49.45941" lon="2.97581">
        <ele>103</ele>
        <time>2019-06-23T11:26:10Z</time>
      </trkpt>
      <trkpt lat="49.45922" lon="2.97568">
        <ele>103</ele>
        <time>2019-06-23T11:26:22Z</time>
      </trkpt>
      <trkpt lat="49.45922" lon="2.97567">
        <ele>103</ele>
        <time>2019-06-23T11:26:23Z</time>
      </trkpt>
      <trkpt lat="49.45927" lon="2.97556">
        <ele>102</ele>
        <time>2019-06-23T11:26:28Z</time>
      </trkpt>
      <trkpt lat="49.45939" lon="2.97513">
        <ele>101</ele>
        <time>2019-06-23T11:26:39Z</time>
      </trkpt>
      <trkpt lat="49.45936" lon="2.975">
        <ele>100</ele>
        <time>2019-06-23T11:26:56Z</time>
      </trkpt>
      <trkpt lat="49.45934" lon="2.975">
        <ele>100</ele>
        <time>2019-06-23T11:27:17Z</time>
      </trkpt>
      <trkpt lat="49.45939" lon="2.97504">
        <ele>100</ele>
        <time>2019-06-23T11:27:57Z</time>
      </trkpt>
      <trkpt lat="49.45947" lon="2.97487">
        <ele>96</ele>
        <time>2019-06-23T11:28:04Z</time>
      </trkpt>
      <trkpt lat="49.45977" lon="2.9745">
        <ele>94</ele>
        <time>2019-06-23T11:28:15Z</time>
      </trkpt>
      <trkpt lat="49.45989" lon="2.97436">
        <ele>93</ele>
        <time>2019-06-23T11:28:19Z</time>
      </trkpt>
      <trkpt lat="49.46003" lon="2.97424">
        <ele>91</ele>
        <time>2019-06-23T11:28:23Z</time>
      </trkpt>
      <trkpt lat="49.4603" lon="2.97412">
        <ele>87</ele>
        <time>2019-06-23T11:28:29Z</time>
      </trkpt>
      <trkpt lat="49.46051" lon="2.97413">
        <ele>86</ele>
        <time>2019-06-23T11:28:34Z</time>
      </trkpt>
      <trkpt lat="49.46066" lon="2.97409">
        <ele>86</ele>
        <time>2019-06-23T11:28:37Z</time>
      </trkpt>
      <trkpt lat="49.46112" lon="2.97387">
        <ele>82</ele>
        <time>2019-06-23T11:28:45Z</time>
      </trkpt>
      <trkpt lat="49.46121" lon="2.9738">
        <ele>81</ele>
        <time>2019-06-23T11:28:47Z</time>
      </trkpt>
      <trkpt lat="49.46118" lon="2.97334">
        <ele>81</ele>
        <time>2019-06-23T11:28:55Z</time>
      </trkpt>
      <trkpt lat="49.46113" lon="2.97307">
        <ele>80</ele>
        <time>2019-06-23T11:28:59Z</time>
      </trkpt>
      <trkpt lat="49.46101" lon="2.97255">
        <ele>80</ele>
        <time>2019-06-23T11:29:07Z</time>
      </trkpt>
      <trkpt lat="49.46063" lon="2.9716">
        <ele>80</ele>
        <time>2019-06-23T11:29:22Z</time>
      </trkpt>
      <trkpt lat="49.4606" lon="2.97154">
        <ele>80</ele>
        <time>2019-06-23T11:29:23Z</time>
      </trkpt>
      <trkpt lat="49.46041" lon="2.97106">
        <ele>80</ele>
        <time>2019-06-23T11:29:30Z</time>
      </trkpt>
      <trkpt lat="49.46034" lon="2.97087">
        <ele>80</ele>
        <time>2019-06-23T11:29:33Z</time>
      </trkpt>
      <trkpt lat="49.46" lon="2.97006">
        <ele>84</ele>
        <time>2019-06-23T11:29:47Z</time>
      </trkpt>
      <trkpt lat="49.45979" lon="2.96955">
        <ele>83</ele>
        <time>2019-06-23T11:29:56Z</time>
      </trkpt>
      <trkpt lat="49.45962" lon="2.96914">
        <ele>82</ele>
        <time>2019-06-23T11:30:03Z</time>
      </trkpt>
      <trkpt lat="49.45941" lon="2.96859">
        <ele>82</ele>
        <time>2019-06-23T11:30:12Z</time>
      </trkpt>
      <trkpt lat="49.45924" lon="2.96818">
        <ele>81</ele>
        <time>2019-06-23T11:30:19Z</time>
      </trkpt>
      <trkpt lat="49.45905" lon="2.96765">
        <ele>82</ele>
        <time>2019-06-23T11:30:29Z</time>
      </trkpt>
      <trkpt lat="49.45903" lon="2.9676">
        <ele>82</ele>
        <time>2019-06-23T11:30:30Z</time>
      </trkpt>
      <trkpt lat="49.45871" lon="2.9669">
        <ele>81</ele>
        <time>2019-06-23T11:30:41Z</time>
      </trkpt>
      <trkpt lat="49.45861" lon="2.96656">
        <ele>81</ele>
        <time>2019-06-23T11:30:50Z</time>
      </trkpt>
      <trkpt lat="49.45866" lon="2.96627">
        <ele>81</ele>
        <time>2019-06-23T11:30:59Z</time>
      </trkpt>
      <trkpt lat="49.45861" lon="2.96608">
        <ele>81</ele>
        <time>2019-06-23T11:31:03Z</time>
      </trkpt>
      <trkpt lat="49.45859" lon="2.96577">
        <ele>81</ele>
        <time>2019-06-23T11:31:08Z</time>
      </trkpt>
      <trkpt lat="49.45859" lon="2.96512">
        <ele>80</ele>
        <time>2019-06-23T11:31:18Z</time>
      </trkpt>
      <trkpt lat="49.45851" lon="2.96472">
        <ele>79</ele>
        <time>2019-06-23T11:31:23Z</time>
      </trkpt>
      <trkpt lat="49.45845" lon="2.96447">
        <ele>79</ele>
        <time>2019-06-23T11:31:26Z</time>
      </trkpt>
      <trkpt lat="49.45828" lon="2.96386">
        <ele>80</ele>
        <time>2019-06-23T11:31:33Z</time>
      </trkpt>
      <trkpt lat="49.45819" lon="2.96349">
        <ele>80</ele>
        <time>2019-06-23T11:31:38Z</time>
      </trkpt>
      <trkpt lat="49.45814" lon="2.9633">
        <ele>80</ele>
        <time>2019-06-23T11:31:41Z</time>
      </trkpt>
      <trkpt lat="49.45807" lon="2.96317">
        <ele>80</ele>
        <time>2019-06-23T11:31:44Z</time>
      </trkpt>
      <trkpt lat="49.45792" lon="2.96252">
        <ele>81</ele>
        <time>2019-06-23T11:31:55Z</time>
      </trkpt>
      <trkpt lat="49.4579" lon="2.96241">
        <ele>82</ele>
        <time>2019-06-23T11:31:57Z</time>
      </trkpt>
      <trkpt lat="49.45785" lon="2.96189">
        <ele>83</ele>
        <time>2019-06-23T11:32:07Z</time>
      </trkpt>
      <trkpt lat="49.45782" lon="2.96159">
        <ele>84</ele>
        <time>2019-06-23T11:32:13Z</time>
      </trkpt>
      <trkpt lat="49.45783" lon="2.96142">
        <ele>84</ele>
        <time>2019-06-23T11:32:17Z</time>
      </trkpt>
      <trkpt lat="49.45782" lon="2.96123">
        <ele>84</ele>
        <time>2019-06-23T11:32:21Z</time>
      </trkpt>
      <trkpt lat="49.45781" lon="2.96102">
        <ele>84</ele>
        <time>2019-06-23T11:32:26Z</time>
      </trkpt>
      <trkpt lat="49.45778" lon="2.96082">
        <ele>85</ele>
        <time>2019-06-23T11:32:30Z</time>
      </trkpt>
      <trkpt lat="49.45777" lon="2.96053">
        <ele>85</ele>
        <time>2019-06-23T11:32:35Z</time>
      </trkpt>
      <trkpt lat="49.45786" lon="2.95984">
        <ele>86</ele>
        <time>2019-06-23T11:32:49Z</time>
      </trkpt>
      <trkpt lat="49.45789" lon="2.95939">
        <ele>86</ele>
        <time>2019-06-23T11:32:57Z</time>
      </trkpt>
      <trkpt lat="49.45793" lon="2.95879">
        <ele>86</ele>
        <time>2019-06-23T11:33:06Z</time>
      </trkpt>
      <trkpt lat="49.45794" lon="2.95874">
        <ele>86</ele>
        <time>2019-06-23T11:33:07Z</time>
      </trkpt>
      <trkpt lat="49.45801" lon="2.95849">
        <ele>86</ele>
        <time>2019-06-23T11:33:16Z</time>
      </trkpt>
      <trkpt lat="49.45801" lon="2.95843">
        <ele>86</ele>
        <time>2019-06-23T11:33:18Z</time>
      </trkpt>
      <trkpt lat="49.45799" lon="2.9583">
        <ele>86</ele>
        <time>2019-06-23T11:33:23Z</time>
      </trkpt>
      <trkpt lat="49.45809" lon="2.95822">
        <ele>86</ele>
        <time>2019-06-23T11:33:28Z</time>
      </trkpt>
      <trkpt lat="49.45814" lon="2.95819">
        <ele>86</ele>
        <time>2019-06-23T11:33:30Z</time>
      </trkpt>
      <trkpt lat="49.45842" lon="2.95808">
        <ele>85</ele>
        <time>2019-06-23T11:33:38Z</time>
      </trkpt>
      <trkpt lat="49.45877" lon="2.95806">
        <ele>84</ele>
        <time>2019-06-23T11:33:46Z</time>
      </trkpt>
      <trkpt lat="49.45881" lon="2.95805">
        <ele>84</ele>
        <time>2019-06-23T11:33:47Z</time>
      </trkpt>
      <trkpt lat="49.45929" lon="2.95791">
        <ele>80</ele>
        <time>2019-06-23T11:33:56Z</time>
      </trkpt>
      <trkpt lat="49.45959" lon="2.9579">
        <ele>79</ele>
        <time>2019-06-23T11:34:00Z</time>
      </trkpt>
      <trkpt lat="49.45993" lon="2.95787">
        <ele>78</ele>
        <time>2019-06-23T11:34:04Z</time>
      </trkpt>
      <trkpt lat="49.46028" lon="2.9578">
        <ele>73</ele>
        <time>2019-06-23T11:34:08Z</time>
      </trkpt>
      <trkpt lat="49.46056" lon="2.95741">
        <ele>72</ele>
        <time>2019-06-23T11:34:15Z</time>
      </trkpt>
      <trkpt lat="49.46059" lon="2.95726">
        <ele>72</ele>
        <time>2019-06-23T11:34:17Z</time>
      </trkpt>
      <trkpt lat="49.46065" lon="2.95704">
        <ele>72</ele>
        <time>2019-06-23T11:34:20Z</time>
      </trkpt>
      <trkpt lat="49.46069" lon="2.95679">
        <ele>71</ele>
        <time>2019-06-23T11:34:23Z</time>
      </trkpt>
      <trkpt lat="49.46071" lon="2.95662">
        <ele>71</ele>
        <time>2019-06-23T11:34:25Z</time>
      </trkpt>
      <trkpt lat="49.46074" lon="2.9562">
        <ele>72</ele>
        <time>2019-06-23T11:34:31Z</time>
      </trkpt>
      <trkpt lat="49.46079" lon="2.95584">
        <ele>71</ele>
        <time>2019-06-23T11:34:36Z</time>
      </trkpt>
      <trkpt lat="49.46083" lon="2.95557">
        <ele>72</ele>
        <time>2019-06-23T11:34:40Z</time>
      </trkpt>
      <trkpt lat="49.46084" lon="2.95542">
        <ele>68</ele>
        <time>2019-06-23T11:34:42Z</time>
      </trkpt>
      <trkpt lat="49.46085" lon="2.95507">
        <ele>70</ele>
        <time>2019-06-23T11:34:46Z</time>
      </trkpt>
      <trkpt lat="49.46082" lon="2.95459">
        <ele>73</ele>
        <time>2019-06-23T11:34:53Z</time>
      </trkpt>
      <trkpt lat="49.46076" lon="2.95427">
        <ele>72</ele>
        <time>2019-06-23T11:34:57Z</time>
      </trkpt>
      <trkpt lat="49.46072" lon="2.95405">
        <ele>72</ele>
        <time>2019-06-23T11:35:00Z</time>
      </trkpt>
      <trkpt lat="49.46063" lon="2.9539">
        <ele>73</ele>
        <time>2019-06-23T11:35:04Z</time>
      </trkpt>
      <trkpt lat="49.46051" lon="2.9537">
        <ele>73</ele>
        <time>2019-06-23T11:35:08Z</time>
      </trkpt>
      <trkpt lat="49.46044" lon="2.95279">
        <ele>72</ele>
        <time>2019-06-23T11:35:20Z</time>
      </trkpt>
      <trkpt lat="49.46028" lon="2.9522">
        <ele>70</ele>
        <time>2019-06-23T11:35:29Z</time>
      </trkpt>
      <trkpt lat="49.46021" lon="2.95202">
        <ele>70</ele>
        <time>2019-06-23T11:35:32Z</time>
      </trkpt>
      <trkpt lat="49.46017" lon="2.95187">
        <ele>70</ele>
        <time>2019-06-23T11:35:36Z</time>
      </trkpt>
      <trkpt lat="49.45985" lon="2.95132">
        <ele>72</ele>
        <time>2019-06-23T11:35:48Z</time>
      </trkpt>
      <trkpt lat="49.45955" lon="2.95076">
        <ele>70</ele>
        <time>2019-06-23T11:36:01Z</time>
      </trkpt>
      <trkpt lat="49.45951" lon="2.95066">
        <ele>70</ele>
        <time>2019-06-23T11:36:12Z</time>
      </trkpt>
      <trkpt lat="49.45932" lon="2.95035">
        <ele>69</ele>
        <time>2019-06-23T11:36:22Z</time>
      </trkpt>
      <trkpt lat="49.4591" lon="2.9499">
        <ele>68</ele>
        <time>2019-06-23T11:36:32Z</time>
      </trkpt>
      <trkpt lat="49.45898" lon="2.94968">
        <ele>68</ele>
        <time>2019-06-23T11:36:37Z</time>
      </trkpt>
      <trkpt lat="49.4586" lon="2.94899">
        <ele>66</ele>
        <time>2019-06-23T11:36:50Z</time>
      </trkpt>
      <trkpt lat="49.45854" lon="2.94895">
        <ele>66</ele>
        <time>2019-06-23T11:36:52Z</time>
      </trkpt>
      <trkpt lat="49.45835" lon="2.94887">
        <ele>66</ele>
        <time>2019-06-23T11:36:56Z</time>
      </trkpt>
      <trkpt lat="49.45795" lon="2.94862">
        <ele>66</ele>
        <time>2019-06-23T11:37:07Z</time>
      </trkpt>
      <trkpt lat="49.45763" lon="2.94839">
        <ele>65</ele>
        <time>2019-06-23T11:37:17Z</time>
      </trkpt>
      <trkpt lat="49.4572" lon="2.94826">
        <ele>64</ele>
        <time>2019-06-23T11:37:29Z</time>
      </trkpt>
      <trkpt lat="49.45676" lon="2.94831">
        <ele>67</ele>
        <time>2019-06-23T11:37:40Z</time>
      </trkpt>
      <trkpt lat="49.45644" lon="2.94854">
        <ele>69</ele>
        <time>2019-06-23T11:37:49Z</time>
      </trkpt>
      <trkpt lat="49.4562" lon="2.94896">
        <ele>69</ele>
        <time>2019-06-23T11:38:00Z</time>
      </trkpt>
      <trkpt lat="49.45596" lon="2.94936">
        <ele>71</ele>
        <time>2019-06-23T11:38:11Z</time>
      </trkpt>
      <trkpt lat="49.4556" lon="2.94963">
        <ele>71</ele>
        <time>2019-06-23T11:38:24Z</time>
      </trkpt>
      <trkpt lat="49.45519" lon="2.94964">
        <ele>71</ele>
        <time>2019-06-23T11:38:36Z</time>
      </trkpt>
      <trkpt lat="49.45486" lon="2.94957">
        <ele>72</ele>
        <time>2019-06-23T11:38:45Z</time>
      </trkpt>
      <trkpt lat="49.45447" lon="2.94939">
        <ele>73</ele>
        <time>2019-06-23T11:38:55Z</time>
      </trkpt>
      <trkpt lat="49.45434" lon="2.94933">
        <ele>73</ele>
        <time>2019-06-23T11:38:58Z</time>
      </trkpt>
      <trkpt lat="49.454" lon="2.94932">
        <ele>74</ele>
        <time>2019-06-23T11:39:08Z</time>
      </trkpt>
      <trkpt lat="49.45395" lon="2.94936">
        <ele>74</ele>
        <time>2019-06-23T11:39:10Z</time>
      </trkpt>
      <trkpt lat="49.45352" lon="2.94948">
        <ele>75</ele>
        <time>2019-06-23T11:39:23Z</time>
      </trkpt>
      <trkpt lat="49.4531" lon="2.94975">
        <ele>74</ele>
        <time>2019-06-23T11:39:36Z</time>
      </trkpt>
      <trkpt lat="49.45284" lon="2.95">
        <ele>76</ele>
        <time>2019-06-23T11:39:45Z</time>
      </trkpt>
      <trkpt lat="49.45267" lon="2.95011">
        <ele>75</ele>
        <time>2019-06-23T11:39:49Z</time>
      </trkpt>
      <trkpt lat="49.45225" lon="2.95035">
        <ele>72</ele>
        <time>2019-06-23T11:39:58Z</time>
      </trkpt>
      <trkpt lat="49.45191" lon="2.9506">
        <ele>72</ele>
        <time>2019-06-23T11:40:08Z</time>
      </trkpt>
      <trkpt lat="49.45188" lon="2.95063">
        <ele>72</ele>
        <time>2019-06-23T11:40:09Z</time>
      </trkpt>
      <trkpt lat="49.45174" lon="2.95072">
        <ele>72</ele>
        <time>2019-06-23T11:40:13Z</time>
      </trkpt>
      <trkpt lat="49.45139" lon="2.95098">
        <ele>74</ele>
        <time>2019-06-23T11:40:24Z</time>
      </trkpt>
      <trkpt lat="49.45137" lon="2.951">
        <ele>74</ele>
        <time>2019-06-23T11:40:25Z</time>
      </trkpt>
      <trkpt lat="49.45125" lon="2.95109">
        <ele>75</ele>
        <time>2019-06-23T11:40:36Z</time>
      </trkpt>
      <trkpt lat="49.45098" lon="2.95127">
        <ele>75</ele>
        <time>2019-06-23T11:40:45Z</time>
      </trkpt>
      <trkpt lat="49.45064" lon="2.95151">
        <ele>74</ele>
        <time>2019-06-23T11:40:55Z</time>
      </trkpt>
      <trkpt lat="49.45035" lon="2.95172">
        <ele>76</ele>
        <time>2019-06-23T11:41:04Z</time>
      </trkpt>
      <trkpt lat="49.45002" lon="2.95206">
        <ele>76</ele>
        <time>2019-06-23T11:41:14Z</time>
      </trkpt>
      <trkpt lat="49.44978" lon="2.95236">
        <ele>74</ele>
        <time>2019-06-23T11:41:21Z</time>
      </trkpt>
      <trkpt lat="49.44948" lon="2.95281">
        <ele>75</ele>
        <time>2019-06-23T11:41:31Z</time>
      </trkpt>
      <trkpt lat="49.44923" lon="2.95333">
        <ele>75</ele>
        <time>2019-06-23T11:41:42Z</time>
      </trkpt>
      <trkpt lat="49.44919" lon="2.9534">
        <ele>76</ele>
        <time>2019-06-23T11:41:44Z</time>
      </trkpt>
      <trkpt lat="49.44908" lon="2.9538">
        <ele>75</ele>
        <time>2019-06-23T11:41:54Z</time>
      </trkpt>
      <trkpt lat="49.44902" lon="2.95434">
        <ele>76</ele>
        <time>2019-06-23T11:42:05Z</time>
      </trkpt>
      <trkpt lat="49.449" lon="2.95476">
        <ele>75</ele>
        <time>2019-06-23T11:42:15Z</time>
      </trkpt>
      <trkpt lat="49.44908" lon="2.95522">
        <ele>76</ele>
        <time>2019-06-23T11:42:26Z</time>
      </trkpt>
      <trkpt lat="49.44913" lon="2.95557">
        <ele>76</ele>
        <time>2019-06-23T11:42:31Z</time>
      </trkpt>
      <trkpt lat="49.44905" lon="2.95605">
        <ele>78</ele>
        <time>2019-06-23T11:42:40Z</time>
      </trkpt>
      <trkpt lat="49.44885" lon="2.95633">
        <ele>78</ele>
        <time>2019-06-23T11:42:50Z</time>
      </trkpt>
      <trkpt lat="49.4486" lon="2.95652">
        <ele>78</ele>
        <time>2019-06-23T11:43:00Z</time>
      </trkpt>
      <trkpt lat="49.44856" lon="2.95655">
        <ele>78</ele>
        <time>2019-06-23T11:43:01Z</time>
      </trkpt>
      <trkpt lat="49.44843" lon="2.95665">
        <ele>78</ele>
        <time>2019-06-23T11:43:05Z</time>
      </trkpt>
      <trkpt lat="49.44815" lon="2.95703">
        <ele>78</ele>
        <time>2019-06-23T11:43:17Z</time>
      </trkpt>
      <trkpt lat="49.44801" lon="2.95734">
        <ele>79</ele>
        <time>2019-06-23T11:43:25Z</time>
      </trkpt>
      <trkpt lat="49.44803" lon="2.95751">
        <ele>80</ele>
        <time>2019-06-23T11:43:30Z</time>
      </trkpt>
      <trkpt lat="49.44824" lon="2.95756">
        <ele>81</ele>
        <time>2019-06-23T11:43:37Z</time>
      </trkpt>
      <trkpt lat="49.44832" lon="2.95756">
        <ele>81</ele>
        <time>2019-06-23T11:43:40Z</time>
      </trkpt>
      <trkpt lat="49.44845" lon="2.9575">
        <ele>82</ele>
        <time>2019-06-23T11:43:46Z</time>
      </trkpt>
      <trkpt lat="49.44875" lon="2.95746">
        <ele>81</ele>
        <time>2019-06-23T11:43:56Z</time>
      </trkpt>
      <trkpt lat="49.44927" lon="2.95762">
        <ele>84</ele>
        <time>2019-06-23T11:44:08Z</time>
      </trkpt>
      <trkpt lat="49.44972" lon="2.95777">
        <ele>85</ele>
        <time>2019-06-23T11:44:21Z</time>
      </trkpt>
      <trkpt lat="49.45005" lon="2.9579">
        <ele>87</ele>
        <time>2019-06-23T11:44:32Z</time>
      </trkpt>
      <trkpt lat="49.45051" lon="2.95804">
        <ele>89</ele>
        <time>2019-06-23T11:44:48Z</time>
      </trkpt>
      <trkpt lat="49.45092" lon="2.95803">
        <ele>90</ele>
        <time>2019-06-23T11:45:02Z</time>
      </trkpt>
      <trkpt lat="49.45145" lon="2.95812">
        <ele>90</ele>
        <time>2019-06-23T11:45:18Z</time>
      </trkpt>
      <trkpt lat="49.45189" lon="2.9583">
        <ele>90</ele>
        <time>2019-06-23T11:45:31Z</time>
      </trkpt>
      <trkpt lat="49.45217" lon="2.95844">
        <ele>93</ele>
        <time>2019-06-23T11:45:39Z</time>
      </trkpt>
      <trkpt lat="49.45234" lon="2.95849">
        <ele>93</ele>
        <time>2019-06-23T11:45:43Z</time>
      </trkpt>
      <trkpt lat="49.45306" lon="2.95851">
        <ele>90</ele>
        <time>2019-06-23T11:45:59Z</time>
      </trkpt>
      <trkpt lat="49.4532" lon="2.95851">
        <ele>90</ele>
        <time>2019-06-23T11:46:02Z</time>
      </trkpt>
      <trkpt lat="49.45383" lon="2.95855">
        <ele>87</ele>
        <time>2019-06-23T11:46:16Z</time>
      </trkpt>
      <trkpt lat="49.45396" lon="2.95857">
        <ele>87</ele>
        <time>2019-06-23T11:46:19Z</time>
      </trkpt>
      <trkpt lat="49.4546" lon="2.95862">
        <ele>86</ele>
        <time>2019-06-23T11:46:34Z</time>
      </trkpt>
      <trkpt lat="49.45476" lon="2.95862">
        <ele>87</ele>
        <time>2019-06-23T11:46:38Z</time>
      </trkpt>
      <trkpt lat="49.45513" lon="2.95871">
        <ele>89</ele>
        <time>2019-06-23T11:46:49Z</time>
      </trkpt>
      <trkpt lat="49.45513" lon="2.95869">
        <ele>89</ele>
        <time>2019-06-23T11:47:01Z</time>
      </trkpt>
      <trkpt lat="49.45513" lon="2.95869">
        <ele>89</ele>
        <time>2019-06-23T11:47:03Z</time>
      </trkpt>
      <trkpt lat="49.45512" lon="2.95863">
        <ele>89</ele>
        <time>2019-06-23T11:47:19Z</time>
      </trkpt>
      <trkpt lat="49.4551" lon="2.95862">
        <ele>89</ele>
        <time>2019-06-23T11:47:49Z</time>
      </trkpt>
      <trkpt lat="49.45508" lon="2.9586">
        <ele>89</ele>
        <time>2019-06-23T11:48:19Z</time>
      </trkpt>
      <trkpt lat="49.45508" lon="2.9586">
        <ele>89</ele>
        <time>2019-06-23T11:48:47Z</time>
      </trkpt>
      <trkpt lat="49.4551" lon="2.95861">
        <ele>89</ele>
        <time>2019-06-23T11:49:18Z</time>
      </trkpt>
      <trkpt lat="49.4551" lon="2.95861">
        <ele>89</ele>
        <time>2019-06-23T11:49:48Z</time>
      </trkpt>
      <trkpt lat="49.4551" lon="2.95863">
        <ele>89</ele>
        <time>2019-06-23T11:50:16Z</time>
      </trkpt>
      <trkpt lat="49.4551" lon="2.95862">
        <ele>89</ele>
        <time>2019-06-23T11:50:45Z</time>
      </trkpt>
      <trkpt lat="49.45511" lon="2.95861">
        <ele>89</ele>
        <time>2019-06-23T11:51:13Z</time>
      </trkpt>
      <trkpt lat="49.45512" lon="2.95865">
        <ele>89</ele>
        <time>2019-06-23T11:51:31Z</time>
      </trkpt>
      <trkpt lat="49.45507" lon="2.95876">
        <ele>89</ele>
        <time>2019-06-23T11:51:37Z</time>
      </trkpt>
      <trkpt lat="49.45467" lon="2.95891">
        <ele>86</ele>
        <time>2019-06-23T11:51:49Z</time>
      </trkpt>
      <trkpt lat="49.45427" lon="2.95918">
        <ele>82</ele>
        <time>2019-06-23T11:52:02Z</time>
      </trkpt>
      <trkpt lat="49.45382" lon="2.95943">
        <ele>82</ele>
        <time>2019-06-23T11:52:16Z</time>
      </trkpt>
      <trkpt lat="49.45348" lon="2.95961">
        <ele>83</ele>
        <time>2019-06-23T11:52:30Z</time>
      </trkpt>
      <trkpt lat="49.45328" lon="2.95974">
        <ele>88</ele>
        <time>2019-06-23T11:52:42Z</time>
      </trkpt>
      <trkpt lat="49.45317" lon="2.95981">
        <ele>88</ele>
        <time>2019-06-23T11:52:48Z</time>
      </trkpt>
      <trkpt lat="49.45301" lon="2.95991">
        <ele>90</ele>
        <time>2019-06-23T11:53:00Z</time>
      </trkpt>
      <trkpt lat="49.45296" lon="2.95994">
        <ele>91</ele>
        <time>2019-06-23T11:53:13Z</time>
      </trkpt>
      <trkpt lat="49.45288" lon="2.95998">
        <ele>92</ele>
        <time>2019-06-23T11:53:26Z</time>
      </trkpt>
      <trkpt lat="49.45285" lon="2.95999">
        <ele>92</ele>
        <time>2019-06-23T11:53:34Z</time>
      </trkpt>
      <trkpt lat="49.45277" lon="2.96003">
        <ele>95</ele>
        <time>2019-06-23T11:53:47Z</time>
      </trkpt>
      <trkpt lat="49.45271" lon="2.96005">
        <ele>96</ele>
        <time>2019-06-23T11:53:53Z</time>
      </trkpt>
      <trkpt lat="49.45262" lon="2.96012">
        <ele>97</ele>
        <time>2019-06-23T11:54:08Z</time>
      </trkpt>
      <trkpt lat="49.45249" lon="2.96016">
        <ele>103</ele>
        <time>2019-06-23T11:54:22Z</time>
      </trkpt>
      <trkpt lat="49.45241" lon="2.9602">
        <ele>104</ele>
        <time>2019-06-23T11:54:36Z</time>
      </trkpt>
      <trkpt lat="49.45235" lon="2.96024">
        <ele>104</ele>
        <time>2019-06-23T11:54:49Z</time>
      </trkpt>
      <trkpt lat="49.45231" lon="2.96026">
        <ele>105</ele>
        <time>2019-06-23T11:55:02Z</time>
      </trkpt>
      <trkpt lat="49.45225" lon="2.96031">
        <ele>105</ele>
        <time>2019-06-23T11:55:12Z</time>
      </trkpt>
      <trkpt lat="49.45212" lon="2.96036">
        <ele>106</ele>
        <time>2019-06-23T11:55:27Z</time>
      </trkpt>
      <trkpt lat="49.45208" lon="2.96038">
        <ele>106</ele>
        <time>2019-06-23T11:55:44Z</time>
      </trkpt>
      <trkpt lat="49.45201" lon="2.96039">
        <ele>107</ele>
        <time>2019-06-23T11:56:01Z</time>
      </trkpt>
      <trkpt lat="49.45192" lon="2.96045">
        <ele>107</ele>
        <time>2019-06-23T11:56:12Z</time>
      </trkpt>
      <trkpt lat="49.45186" lon="2.96049">
        <ele>107</ele>
        <time>2019-06-23T11:56:26Z</time>
      </trkpt>
      <trkpt lat="49.45183" lon="2.96051">
        <ele>108</ele>
        <time>2019-06-23T11:56:30Z</time>
      </trkpt>
      <trkpt lat="49.45166" lon="2.96061">
        <ele>111</ele>
        <time>2019-06-23T11:56:46Z</time>
      </trkpt>
      <trkpt lat="49.45164" lon="2.96063">
        <ele>111</ele>
        <time>2019-06-23T11:56:49Z</time>
      </trkpt>
      <trkpt lat="49.45151" lon="2.96074">
        <ele>111</ele>
        <time>2019-06-23T11:56:56Z</time>
      </trkpt>
      <trkpt lat="49.45136" lon="2.9608">
        <ele>111</ele>
        <time>2019-06-23T11:57:01Z</time>
      </trkpt>
      <trkpt lat="49.4513" lon="2.96081">
        <ele>111</ele>
        <time>2019-06-23T11:57:04Z</time>
      </trkpt>
      <trkpt lat="49.45116" lon="2.9609">
        <ele>110</ele>
        <time>2019-06-23T11:57:11Z</time>
      </trkpt>
      <trkpt lat="49.45061" lon="2.96118">
        <ele>110</ele>
        <time>2019-06-23T11:57:27Z</time>
      </trkpt>
      <trkpt lat="49.45025" lon="2.96139">
        <ele>110</ele>
        <time>2019-06-23T11:57:39Z</time>
      </trkpt>
      <trkpt lat="49.44988" lon="2.96159">
        <ele>109</ele>
        <time>2019-06-23T11:57:50Z</time>
      </trkpt>
      <trkpt lat="49.44959" lon="2.96176">
        <ele>106</ele>
        <time>2019-06-23T11:57:59Z</time>
      </trkpt>
      <trkpt lat="49.4492" lon="2.96202">
        <ele>104</ele>
        <time>2019-06-23T11:58:10Z</time>
      </trkpt>
      <trkpt lat="49.44914" lon="2.96209">
        <ele>98</ele>
        <time>2019-06-23T11:58:12Z</time>
      </trkpt>
      <trkpt lat="49.44831" lon="2.96229">
        <ele>89</ele>
        <time>2019-06-23T11:58:20Z</time>
      </trkpt>
      <trkpt lat="49.44772" lon="2.9626">
        <ele>89</ele>
        <time>2019-06-23T11:58:26Z</time>
      </trkpt>
      <trkpt lat="49.4473" lon="2.96286">
        <ele>93</ele>
        <time>2019-06-23T11:58:34Z</time>
      </trkpt>
      <trkpt lat="49.44732" lon="2.96281">
        <ele>93</ele>
        <time>2019-06-23T11:58:44Z</time>
      </trkpt>
      <trkpt lat="49.44729" lon="2.96282">
        <ele>93</ele>
        <time>2019-06-23T11:58:56Z</time>
      </trkpt>
      <trkpt lat="49.44727" lon="2.96287">
        <ele>93</ele>
        <time>2019-06-23T11:59:08Z</time>
      </trkpt>
      <trkpt lat="49.44726" lon="2.96291">
        <ele>93</ele>
        <time>2019-06-23T11:59:20Z</time>
      </trkpt>
      <trkpt lat="49.44721" lon="2.96294">
        <ele>94</ele>
        <time>2019-06-23T11:59:40Z</time>
      </trkpt>
      <trkpt lat="49.44719" lon="2.96297">
        <ele>94</ele>
        <time>2019-06-23T11:59:55Z</time>
      </trkpt>
      <trkpt lat="49.44719" lon="2.963">
        <ele>94</ele>
        <time>2019-06-23T12:00:15Z</time>
      </trkpt>
      <trkpt lat="49.44719" lon="2.963">
        <ele>94</ele>
        <time>2019-06-23T12:00:16Z</time>
      </trkpt>
      <trkpt lat="49.44717" lon="2.96301">
        <ele>94</ele>
        <time>2019-06-23T12:00:28Z</time>
      </trkpt>
      <trkpt lat="49.44712" lon="2.96303">
        <ele>94</ele>
        <time>2019-06-23T12:00:44Z</time>
      </trkpt>
      <trkpt lat="49.44707" lon="2.96303">
        <ele>95</ele>
        <time>2019-06-23T12:00:48Z</time>
      </trkpt>
      <trkpt lat="49.44693" lon="2.96306">
        <ele>96</ele>
        <time>2019-06-23T12:01:02Z</time>
      </trkpt>
      <trkpt lat="49.44681" lon="2.96317">
        <ele>97</ele>
        <time>2019-06-23T12:01:16Z</time>
      </trkpt>
      <trkpt lat="49.44672" lon="2.96325">
        <ele>99</ele>
        <time>2019-06-23T12:01:30Z</time>
      </trkpt>
      <trkpt lat="49.44673" lon="2.96327">
        <ele>99</ele>
        <time>2019-06-23T12:01:52Z</time>
      </trkpt>
      <trkpt lat="49.44672" lon="2.96327">
        <ele>99</ele>
        <time>2019-06-23T12:02:07Z</time>
      </trkpt>
      <trkpt lat="49.44664" lon="2.9633">
        <ele>101</ele>
        <time>2019-06-23T12:02:20Z</time>
      </trkpt>
      <trkpt lat="49.4466" lon="2.96332">
        <ele>101</ele>
        <time>2019-06-23T12:02:23Z</time>
      </trkpt>
      <trkpt lat="49.44635" lon="2.96349">
        <ele>104</ele>
        <time>2019-06-23T12:02:36Z</time>
      </trkpt>
      <trkpt lat="49.44628" lon="2.96354">
        <ele>104</ele>
        <time>2019-06-23T12:02:40Z</time>
      </trkpt>
      <trkpt lat="49.44617" lon="2.96364">
        <ele>105</ele>
        <time>2019-06-23T12:02:51Z</time>
      </trkpt>
      <trkpt lat="49.44611" lon="2.96367">
        <ele>105</ele>
        <time>2019-06-23T12:02:55Z</time>
      </trkpt>
      <trkpt lat="49.44584" lon="2.96377">
        <ele>105</ele>
        <time>2019-06-23T12:03:09Z</time>
      </trkpt>
      <trkpt lat="49.44562" lon="2.96389">
        <ele>107</ele>
        <time>2019-06-23T12:03:22Z</time>
      </trkpt>
      <trkpt lat="49.44529" lon="2.96405">
        <ele>107</ele>
        <time>2019-06-23T12:03:37Z</time>
      </trkpt>
      <trkpt lat="49.44491" lon="2.96426">
        <ele>110</ele>
        <time>2019-06-23T12:03:46Z</time>
      </trkpt>
      <trkpt lat="49.44466" lon="2.96444">
        <ele>112</ele>
        <time>2019-06-23T12:03:54Z</time>
      </trkpt>
      <trkpt lat="49.44463" lon="2.96451">
        <ele>112</ele>
        <time>2019-06-23T12:04:05Z</time>
      </trkpt>
      <trkpt lat="49.44461" lon="2.96455">
        <ele>112</ele>
        <time>2019-06-23T12:04:09Z</time>
      </trkpt>
      <trkpt lat="49.44446" lon="2.96464">
        <ele>112</ele>
        <time>2019-06-23T12:04:21Z</time>
      </trkpt>
      <trkpt lat="49.44443" lon="2.96474">
        <ele>113</ele>
        <time>2019-06-23T12:04:33Z</time>
      </trkpt>
      <trkpt lat="49.44442" lon="2.96474">
        <ele>113</ele>
        <time>2019-06-23T12:05:01Z</time>
      </trkpt>
      <trkpt lat="49.44442" lon="2.96477">
        <ele>113</ele>
        <time>2019-06-23T12:05:35Z</time>
      </trkpt>
      <trkpt lat="49.44443" lon="2.96476">
        <ele>113</ele>
        <time>2019-06-23T12:06:03Z</time>
      </trkpt>
      <trkpt lat="49.44441" lon="2.96475">
        <ele>113</ele>
        <time>2019-06-23T12:06:25Z</time>
      </trkpt>
      <trkpt lat="49.44436" lon="2.96473">
        <ele>113</ele>
        <time>2019-06-23T12:06:28Z</time>
      </trkpt>
      <trkpt lat="49.44426" lon="2.96445">
        <ele>113</ele>
        <time>2019-06-23T12:06:35Z</time>
      </trkpt>
      <trkpt lat="49.44425" lon="2.96445">
        <ele>113</ele>
        <time>2019-06-23T12:06:36Z</time>
      </trkpt>
      <trkpt lat="49.44419" lon="2.96436">
        <ele>113</ele>
        <time>2019-06-23T12:06:42Z</time>
      </trkpt>
      <trkpt lat="49.44414" lon="2.96425">
        <ele>115</ele>
        <time>2019-06-23T12:06:46Z</time>
      </trkpt>
      <trkpt lat="49.44387" lon="2.96386">
        <ele>115</ele>
        <time>2019-06-23T12:06:56Z</time>
      </trkpt>
      <trkpt lat="49.4437" lon="2.96358">
        <ele>115</ele>
        <time>2019-06-23T12:07:10Z</time>
      </trkpt>
      <trkpt lat="49.44346" lon="2.96324">
        <ele>115</ele>
        <time>2019-06-23T12:07:27Z</time>
      </trkpt>
      <trkpt lat="49.44328" lon="2.96295">
        <ele>118</ele>
        <time>2019-06-23T12:07:40Z</time>
      </trkpt>
      <trkpt lat="49.44304" lon="2.96258">
        <ele>119</ele>
        <time>2019-06-23T12:07:55Z</time>
      </trkpt>
      <trkpt lat="49.44273" lon="2.96205">
        <ele>120</ele>
        <time>2019-06-23T12:08:14Z</time>
      </trkpt>
      <trkpt lat="49.44235" lon="2.96149">
        <ele>121</ele>
        <time>2019-06-23T12:08:30Z</time>
      </trkpt>
      <trkpt lat="49.44224" lon="2.96134">
        <ele>121</ele>
        <time>2019-06-23T12:08:34Z</time>
      </trkpt>
      <trkpt lat="49.44214" lon="2.96116">
        <ele>121</ele>
        <time>2019-06-23T12:08:38Z</time>
      </trkpt>
      <trkpt lat="49.44177" lon="2.96059">
        <ele>121</ele>
        <time>2019-06-23T12:08:52Z</time>
      </trkpt>
      <trkpt lat="49.44131" lon="2.95988">
        <ele>119</ele>
        <time>2019-06-23T12:09:08Z</time>
      </trkpt>
      <trkpt lat="49.44085" lon="2.95911">
        <ele>119</ele>
        <time>2019-06-23T12:09:24Z</time>
      </trkpt>
      <trkpt lat="49.44055" lon="2.95867">
        <ele>119</ele>
        <time>2019-06-23T12:09:34Z</time>
      </trkpt>
      <trkpt lat="49.44028" lon="2.95817">
        <ele>120</ele>
        <time>2019-06-23T12:09:45Z</time>
      </trkpt>
      <trkpt lat="49.4402" lon="2.958">
        <ele>120</ele>
        <time>2019-06-23T12:09:49Z</time>
      </trkpt>
      <trkpt lat="49.43988" lon="2.95748">
        <ele>121</ele>
        <time>2019-06-23T12:09:59Z</time>
      </trkpt>
      <trkpt lat="49.43977" lon="2.95734">
        <ele>120</ele>
        <time>2019-06-23T12:10:02Z</time>
      </trkpt>
      <trkpt lat="49.43962" lon="2.95718">
        <ele>120</ele>
        <time>2019-06-23T12:10:06Z</time>
      </trkpt>
      <trkpt lat="49.43948" lon="2.957">
        <ele>120</ele>
        <time>2019-06-23T12:10:10Z</time>
      </trkpt>
      <trkpt lat="49.43907" lon="2.95634">
        <ele>121</ele>
        <time>2019-06-23T12:10:23Z</time>
      </trkpt>
      <trkpt lat="49.43897" lon="2.95617">
        <ele>121</ele>
        <time>2019-06-23T12:10:26Z</time>
      </trkpt>
      <trkpt lat="49.439" lon="2.95575">
        <ele>120</ele>
        <time>2019-06-23T12:10:33Z</time>
      </trkpt>
      <trkpt lat="49.43904" lon="2.95546">
        <ele>120</ele>
        <time>2019-06-23T12:10:38Z</time>
      </trkpt>
      <trkpt lat="49.43905" lon="2.95519">
        <ele>120</ele>
        <time>2019-06-23T12:10:42Z</time>
      </trkpt>
      <trkpt lat="49.43888" lon="2.955">
        <ele>119</ele>
        <time>2019-06-23T12:10:49Z</time>
      </trkpt>
      <trkpt lat="49.43886" lon="2.95475">
        <ele>119</ele>
        <time>2019-06-23T12:10:57Z</time>
      </trkpt>
      <trkpt lat="49.43887" lon="2.95463">
        <ele>118</ele>
        <time>2019-06-23T12:10:59Z</time>
      </trkpt>
      <trkpt lat="49.4389" lon="2.9545">
        <ele>118</ele>
        <time>2019-06-23T12:11:11Z</time>
      </trkpt>
      <trkpt lat="49.43886" lon="2.95443">
        <ele>118</ele>
        <time>2019-06-23T12:11:19Z</time>
      </trkpt>
      <trkpt lat="49.43883" lon="2.95438">
        <ele>118</ele>
        <time>2019-06-23T12:11:24Z</time>
      </trkpt>
      <trkpt lat="49.43881" lon="2.9543">
        <ele>118</ele>
        <time>2019-06-23T12:11:30Z</time>
      </trkpt>
      <trkpt lat="49.43879" lon="2.95414">
        <ele>115</ele>
        <time>2019-06-23T12:11:39Z</time>
      </trkpt>
      <trkpt lat="49.43881" lon="2.95404">
        <ele>114</ele>
        <time>2019-06-23T12:11:41Z</time>
      </trkpt>
      <trkpt lat="49.43875" lon="2.95395">
        <ele>114</ele>
        <time>2019-06-23T12:11:45Z</time>
      </trkpt>
      <trkpt lat="49.43872" lon="2.9539">
        <ele>114</ele>
        <time>2019-06-23T12:11:49Z</time>
      </trkpt>
      <trkpt lat="49.4387" lon="2.95384">
        <ele>114</ele>
        <time>2019-06-23T12:11:54Z</time>
      </trkpt>
      <trkpt lat="49.43857" lon="2.9537">
        <ele>114</ele>
        <time>2019-06-23T12:12:00Z</time>
      </trkpt>
      <trkpt lat="49.43858" lon="2.95371">
        <ele>114</ele>
        <time>2019-06-23T12:12:12Z</time>
      </trkpt>
      <trkpt lat="49.43858" lon="2.95372">
        <ele>114</ele>
        <time>2019-06-23T12:12:13Z</time>
      </trkpt>
      <trkpt lat="49.43859" lon="2.95374">
        <ele>114</ele>
        <time>2019-06-23T12:12:17Z</time>
      </trkpt>
      <trkpt lat="49.4386" lon="2.9537">
        <ele>114</ele>
        <time>2019-06-23T12:12:21Z</time>
      </trkpt>
      <trkpt lat="49.43856" lon="2.95358">
        <ele>113</ele>
        <time>2019-06-23T12:12:26Z</time>
      </trkpt>
      <trkpt lat="49.43856" lon="2.95346">
        <ele>113</ele>
        <time>2019-06-23T12:12:30Z</time>
      </trkpt>
      <trkpt lat="49.43855" lon="2.95321">
        <ele>109</ele>
        <time>2019-06-23T12:12:37Z</time>
      </trkpt>
      <trkpt lat="49.43844" lon="2.95292">
        <ele>107</ele>
        <time>2019-06-23T12:12:43Z</time>
      </trkpt>
      <trkpt lat="49.43835" lon="2.95269">
        <ele>106</ele>
        <time>2019-06-23T12:12:47Z</time>
      </trkpt>
      <trkpt lat="49.43824" lon="2.95224">
        <ele>105</ele>
        <time>2019-06-23T12:12:56Z</time>
      </trkpt>
      <trkpt lat="49.43814" lon="2.95218">
        <ele>105</ele>
        <time>2019-06-23T12:13:05Z</time>
      </trkpt>
      <trkpt lat="49.43801" lon="2.95217">
        <ele>105</ele>
        <time>2019-06-23T12:13:18Z</time>
      </trkpt>
      <trkpt lat="49.43791" lon="2.95216">
        <ele>105</ele>
        <time>2019-06-23T12:13:26Z</time>
      </trkpt>
      <trkpt lat="49.43787" lon="2.95207">
        <ele>105</ele>
        <time>2019-06-23T12:13:31Z</time>
      </trkpt>
      <trkpt lat="49.43777" lon="2.95195">
        <ele>105</ele>
        <time>2019-06-23T12:13:37Z</time>
      </trkpt>
      <trkpt lat="49.43759" lon="2.95193">
        <ele>105</ele>
        <time>2019-06-23T12:13:46Z</time>
      </trkpt>
      <trkpt lat="49.43744" lon="2.95199">
        <ele>107</ele>
        <time>2019-06-23T12:13:53Z</time>
      </trkpt>
      <trkpt lat="49.4374" lon="2.95201">
        <ele>107</ele>
        <time>2019-06-23T12:13:55Z</time>
      </trkpt>
      <trkpt lat="49.43723" lon="2.95207">
        <ele>107</ele>
        <time>2019-06-23T12:14:02Z</time>
      </trkpt>
      <trkpt lat="49.4369" lon="2.95223">
        <ele>108</ele>
        <time>2019-06-23T12:14:15Z</time>
      </trkpt>
      <trkpt lat="49.43684" lon="2.95226">
        <ele>108</ele>
        <time>2019-06-23T12:14:18Z</time>
      </trkpt>
      <trkpt lat="49.43665" lon="2.95227">
        <ele>105</ele>
        <time>2019-06-23T12:14:26Z</time>
      </trkpt>
      <trkpt lat="49.43649" lon="2.95204">
        <ele>103</ele>
        <time>2019-06-23T12:14:33Z</time>
      </trkpt>
      <trkpt lat="49.43634" lon="2.95172">
        <ele>101</ele>
        <time>2019-06-23T12:14:43Z</time>
      </trkpt>
      <trkpt lat="49.43633" lon="2.95146">
        <ele>98</ele>
        <time>2019-06-23T12:14:50Z</time>
      </trkpt>
      <trkpt lat="49.43633" lon="2.95131">
        <ele>97</ele>
        <time>2019-06-23T12:14:54Z</time>
      </trkpt>
      <trkpt lat="49.43632" lon="2.95121">
        <ele>97</ele>
        <time>2019-06-23T12:14:57Z</time>
      </trkpt>
      <trkpt lat="49.43624" lon="2.95108">
        <ele>96</ele>
        <time>2019-06-23T12:15:02Z</time>
      </trkpt>
      <trkpt lat="49.43622" lon="2.95102">
        <ele>96</ele>
        <time>2019-06-23T12:15:04Z</time>
      </trkpt>
      <trkpt lat="49.43622" lon="2.95095">
        <ele>96</ele>
        <time>2019-06-23T12:15:07Z</time>
      </trkpt>
      <trkpt lat="49.43629" lon="2.95091">
        <ele>96</ele>
        <time>2019-06-23T12:15:25Z</time>
      </trkpt>
      <trkpt lat="49.43628" lon="2.95088">
        <ele>96</ele>
        <time>2019-06-23T12:15:31Z</time>
      </trkpt>
      <trkpt lat="49.43631" lon="2.95083">
        <ele>96</ele>
        <time>2019-06-23T12:15:42Z</time>
      </trkpt>
      <trkpt lat="49.43629" lon="2.95084">
        <ele>96</ele>
        <time>2019-06-23T12:16:01Z</time>
      </trkpt>
      <trkpt lat="49.43629" lon="2.95083">
        <ele>96</ele>
        <time>2019-06-23T12:16:02Z</time>
      </trkpt>
      <trkpt lat="49.43635" lon="2.95075">
        <ele>91</ele>
        <time>2019-06-23T12:16:13Z</time>
      </trkpt>
      <trkpt lat="49.43636" lon="2.95068">
        <ele>91</ele>
        <time>2019-06-23T12:16:21Z</time>
      </trkpt>
      <trkpt lat="49.43637" lon="2.95053">
        <ele>89</ele>
        <time>2019-06-23T12:16:25Z</time>
      </trkpt>
      <trkpt lat="49.43636" lon="2.95041">
        <ele>88</ele>
        <time>2019-06-23T12:16:27Z</time>
      </trkpt>
      <trkpt lat="49.43627" lon="2.94986">
        <ele>81</ele>
        <time>2019-06-23T12:16:36Z</time>
      </trkpt>
      <trkpt lat="49.43621" lon="2.94988">
        <ele>81</ele>
        <time>2019-06-23T12:16:40Z</time>
      </trkpt>
      <trkpt lat="49.43619" lon="2.94991">
        <ele>81</ele>
        <time>2019-06-23T12:16:42Z</time>
      </trkpt>
      <trkpt lat="49.43607" lon="2.95002">
        <ele>87</ele>
        <time>2019-06-23T12:16:48Z</time>
      </trkpt>
      <trkpt lat="49.43596" lon="2.95011">
        <ele>86</ele>
        <time>2019-06-23T12:16:52Z</time>
      </trkpt>
      <trkpt lat="49.43573" lon="2.95023">
        <ele>86</ele>
        <time>2019-06-23T12:16:59Z</time>
      </trkpt>
      <trkpt lat="49.43555" lon="2.95034">
        <ele>87</ele>
        <time>2019-06-23T12:17:05Z</time>
      </trkpt>
      <trkpt lat="49.43525" lon="2.9505">
        <ele>87</ele>
        <time>2019-06-23T12:17:18Z</time>
      </trkpt>
      <trkpt lat="49.435" lon="2.95067">
        <ele>85</ele>
        <time>2019-06-23T12:17:23Z</time>
      </trkpt>
      <trkpt lat="49.43466" lon="2.9507">
        <ele>84</ele>
        <time>2019-06-23T12:17:30Z</time>
      </trkpt>
      <trkpt lat="49.43459" lon="2.95083">
        <ele>83</ele>
        <time>2019-06-23T12:17:34Z</time>
      </trkpt>
      <trkpt lat="49.43461" lon="2.95092">
        <ele>85</ele>
        <time>2019-06-23T12:17:38Z</time>
      </trkpt>
      <trkpt lat="49.4347" lon="2.95108">
        <ele>86</ele>
        <time>2019-06-23T12:17:44Z</time>
      </trkpt>
      <trkpt lat="49.43474" lon="2.95119">
        <ele>86</ele>
        <time>2019-06-23T12:17:50Z</time>
      </trkpt>
      <trkpt lat="49.43479" lon="2.95126">
        <ele>86</ele>
        <time>2019-06-23T12:17:54Z</time>
      </trkpt>
      <trkpt lat="49.43485" lon="2.95134">
        <ele>86</ele>
        <time>2019-06-23T12:17:59Z</time>
      </trkpt>
      <trkpt lat="49.43489" lon="2.95151">
        <ele>86</ele>
        <time>2019-06-23T12:18:06Z</time>
      </trkpt>
      <trkpt lat="49.43492" lon="2.95161">
        <ele>86</ele>
        <time>2019-06-23T12:18:10Z</time>
      </trkpt>
      <trkpt lat="49.43495" lon="2.95172">
        <ele>88</ele>
        <time>2019-06-23T12:18:14Z</time>
      </trkpt>
      <trkpt lat="49.43499" lon="2.95199">
        <ele>92</ele>
        <time>2019-06-23T12:18:26Z</time>
      </trkpt>
      <trkpt lat="49.43503" lon="2.95205">
        <ele>93</ele>
        <time>2019-06-23T12:18:29Z</time>
      </trkpt>
      <trkpt lat="49.43502" lon="2.95213">
        <ele>94</ele>
        <time>2019-06-23T12:18:43Z</time>
      </trkpt>
      <trkpt lat="49.43499" lon="2.95216">
        <ele>94</ele>
        <time>2019-06-23T12:18:56Z</time>
      </trkpt>
      <trkpt lat="49.43499" lon="2.95217">
        <ele>94</ele>
        <time>2019-06-23T12:18:57Z</time>
      </trkpt>
      <trkpt lat="49.43495" lon="2.95226">
        <ele>95</ele>
        <time>2019-06-23T12:19:06Z</time>
      </trkpt>
      <trkpt lat="49.43487" lon="2.95246">
        <ele>96</ele>
        <time>2019-06-23T12:19:30Z</time>
      </trkpt>
      <trkpt lat="49.43493" lon="2.95249">
        <ele>97</ele>
        <time>2019-06-23T12:19:55Z</time>
      </trkpt>
      <trkpt lat="49.43488" lon="2.95247">
        <ele>96</ele>
        <time>2019-06-23T12:20:00Z</time>
      </trkpt>
      <trkpt lat="49.43481" lon="2.95245">
        <ele>96</ele>
        <time>2019-06-23T12:20:13Z</time>
      </trkpt>
      <trkpt lat="49.43468" lon="2.95243">
        <ele>96</ele>
        <time>2019-06-23T12:20:25Z</time>
      </trkpt>
      <trkpt lat="49.43455" lon="2.95242">
        <ele>97</ele>
        <time>2019-06-23T12:20:38Z</time>
      </trkpt>
      <trkpt lat="49.43443" lon="2.95238">
        <ele>98</ele>
        <time>2019-06-23T12:20:53Z</time>
      </trkpt>
      <trkpt lat="49.43434" lon="2.95233">
        <ele>99</ele>
        <time>2019-06-23T12:21:04Z</time>
      </trkpt>
      <trkpt lat="49.43428" lon="2.95236">
        <ele>100</ele>
        <time>2019-06-23T12:21:22Z</time>
      </trkpt>
      <trkpt lat="49.43415" lon="2.95236">
        <ele>101</ele>
        <time>2019-06-23T12:21:34Z</time>
      </trkpt>
      <trkpt lat="49.43409" lon="2.95236">
        <ele>101</ele>
        <time>2019-06-23T12:21:46Z</time>
      </trkpt>
      <trkpt lat="49.43405" lon="2.95234">
        <ele>100</ele>
        <time>2019-06-23T12:21:58Z</time>
      </trkpt>
      <trkpt lat="49.43396" lon="2.95235">
        <ele>99</ele>
        <time>2019-06-23T12:22:03Z</time>
      </trkpt>
      <trkpt lat="49.43377" lon="2.95232">
        <ele>98</ele>
        <time>2019-06-23T12:22:13Z</time>
      </trkpt>
      <trkpt lat="49.43357" lon="2.95229">
        <ele>97</ele>
        <time>2019-06-23T12:22:23Z</time>
      </trkpt>
      <trkpt lat="49.43306" lon="2.95222">
        <ele>92</ele>
        <time>2019-06-23T12:22:32Z</time>
      </trkpt>
      <trkpt lat="49.43277" lon="2.9523">
        <ele>90</ele>
        <time>2019-06-23T12:22:35Z</time>
      </trkpt>
      <trkpt lat="49.43231" lon="2.95234">
        <ele>83</ele>
        <time>2019-06-23T12:22:41Z</time>
      </trkpt>
      <trkpt lat="49.43198" lon="2.95234">
        <ele>80</ele>
        <time>2019-06-23T12:22:46Z</time>
      </trkpt>
      <trkpt lat="49.43173" lon="2.95235">
        <ele>79</ele>
        <time>2019-06-23T12:22:52Z</time>
      </trkpt>
      <trkpt lat="49.43151" lon="2.95236">
        <ele>73</ele>
        <time>2019-06-23T12:22:56Z</time>
      </trkpt>
      <trkpt lat="49.43135" lon="2.95235">
        <ele>71</ele>
        <time>2019-06-23T12:23:00Z</time>
      </trkpt>
      <trkpt lat="49.43129" lon="2.95237">
        <ele>70</ele>
        <time>2019-06-23T12:23:11Z</time>
      </trkpt>
      <trkpt lat="49.43134" lon="2.95239">
        <ele>71</ele>
        <time>2019-06-23T12:23:25Z</time>
      </trkpt>
      <trkpt lat="49.43136" lon="2.95239">
        <ele>71</ele>
        <time>2019-06-23T12:23:27Z</time>
      </trkpt>
      <trkpt lat="49.43151" lon="2.95239">
        <ele>73</ele>
        <time>2019-06-23T12:23:43Z</time>
      </trkpt>
      <trkpt lat="49.43164" lon="2.95235">
        <ele>74</ele>
        <time>2019-06-23T12:23:57Z</time>
      </trkpt>
      <trkpt lat="49.4317" lon="2.95235">
        <ele>79</ele>
        <time>2019-06-23T12:24:11Z</time>
      </trkpt>
      <trkpt lat="49.43175" lon="2.95234">
        <ele>79</ele>
        <time>2019-06-23T12:24:26Z</time>
      </trkpt>
      <trkpt lat="49.43185" lon="2.95234">
        <ele>79</ele>
        <time>2019-06-23T12:24:39Z</time>
      </trkpt>
      <trkpt lat="49.43207" lon="2.95237">
        <ele>81</ele>
        <time>2019-06-23T12:24:56Z</time>
      </trkpt>
      <trkpt lat="49.4322" lon="2.95237">
        <ele>82</ele>
        <time>2019-06-23T12:25:07Z</time>
      </trkpt>
      <trkpt lat="49.4324" lon="2.95236">
        <ele>84</ele>
        <time>2019-06-23T12:25:19Z</time>
      </trkpt>
      <trkpt lat="49.43246" lon="2.95236">
        <ele>85</ele>
        <time>2019-06-23T12:25:24Z</time>
      </trkpt>
      <trkpt lat="49.43263" lon="2.95238">
        <ele>89</ele>
        <time>2019-06-23T12:25:36Z</time>
      </trkpt>
      <trkpt lat="49.43279" lon="2.95239">
        <ele>90</ele>
        <time>2019-06-23T12:25:48Z</time>
      </trkpt>
      <trkpt lat="49.43296" lon="2.95238">
        <ele>92</ele>
        <time>2019-06-23T12:26:01Z</time>
      </trkpt>
      <trkpt lat="49.43311" lon="2.95235">
        <ele>93</ele>
        <time>2019-06-23T12:26:15Z</time>
      </trkpt>
      <trkpt lat="49.43325" lon="2.95234">
        <ele>94</ele>
        <time>2019-06-23T12:26:28Z</time>
      </trkpt>
      <trkpt lat="49.43335" lon="2.95234">
        <ele>98</ele>
        <time>2019-06-23T12:26:39Z</time>
      </trkpt>
      <trkpt lat="49.43341" lon="2.95234">
        <ele>98</ele>
        <time>2019-06-23T12:26:44Z</time>
      </trkpt>
      <trkpt lat="49.43352" lon="2.95234">
        <ele>97</ele>
        <time>2019-06-23T12:26:56Z</time>
      </trkpt>
      <trkpt lat="49.43368" lon="2.95235">
        <ele>98</ele>
        <time>2019-06-23T12:27:06Z</time>
      </trkpt>
      <trkpt lat="49.43382" lon="2.95233">
        <ele>98</ele>
        <time>2019-06-23T12:27:17Z</time>
      </trkpt>
      <trkpt lat="49.43388" lon="2.95234">
        <ele>99</ele>
        <time>2019-06-23T12:27:21Z</time>
      </trkpt>
      <trkpt lat="49.43394" lon="2.95232">
        <ele>99</ele>
        <time>2019-06-23T12:27:27Z</time>
      </trkpt>
      <trkpt lat="49.43407" lon="2.95233">
        <ele>100</ele>
        <time>2019-06-23T12:27:38Z</time>
      </trkpt>
      <trkpt lat="49.43417" lon="2.95231">
        <ele>99</ele>
        <time>2019-06-23T12:27:48Z</time>
      </trkpt>
      <trkpt lat="49.43417" lon="2.95229">
        <ele>99</ele>
        <time>2019-06-23T12:27:49Z</time>
      </trkpt>
      <trkpt lat="49.43416" lon="2.95222">
        <ele>99</ele>
        <time>2019-06-23T12:27:52Z</time>
      </trkpt>
      <trkpt lat="49.434" lon="2.95215">
        <ele>97</ele>
        <time>2019-06-23T12:28:01Z</time>
      </trkpt>
      <trkpt lat="49.43397" lon="2.95195">
        <ele>95</ele>
        <time>2019-06-23T12:28:09Z</time>
      </trkpt>
      <trkpt lat="49.43392" lon="2.95182">
        <ele>95</ele>
        <time>2019-06-23T12:28:13Z</time>
      </trkpt>
      <trkpt lat="49.43382" lon="2.95168">
        <ele>94</ele>
        <time>2019-06-23T12:28:18Z</time>
      </trkpt>
      <trkpt lat="49.43366" lon="2.95148">
        <ele>87</ele>
        <time>2019-06-23T12:28:24Z</time>
      </trkpt>
      <trkpt lat="49.4337" lon="2.95094">
        <ele>84</ele>
        <time>2019-06-23T12:28:34Z</time>
      </trkpt>
      <trkpt lat="49.43374" lon="2.95081">
        <ele>80</ele>
        <time>2019-06-23T12:28:37Z</time>
      </trkpt>
      <trkpt lat="49.43377" lon="2.95047">
        <ele>80</ele>
        <time>2019-06-23T12:28:45Z</time>
      </trkpt>
      <trkpt lat="49.43375" lon="2.95035">
        <ele>79</ele>
        <time>2019-06-23T12:28:49Z</time>
      </trkpt>
      <trkpt lat="49.43369" lon="2.95022">
        <ele>79</ele>
        <time>2019-06-23T12:28:54Z</time>
      </trkpt>
      <trkpt lat="49.43366" lon="2.95005">
        <ele>79</ele>
        <time>2019-06-23T12:29:04Z</time>
      </trkpt>
      <trkpt lat="49.43366" lon="2.95005">
        <ele>79</ele>
        <time>2019-06-23T12:29:05Z</time>
      </trkpt>
      <trkpt lat="49.43367" lon="2.94988">
        <ele>79</ele>
        <time>2019-06-23T12:29:15Z</time>
      </trkpt>
      <trkpt lat="49.43367" lon="2.94976">
        <ele>79</ele>
        <time>2019-06-23T12:29:26Z</time>
      </trkpt>
      <trkpt lat="49.4336" lon="2.9497">
        <ele>79</ele>
        <time>2019-06-23T12:29:32Z</time>
      </trkpt>
      <trkpt lat="49.43356" lon="2.94961">
        <ele>79</ele>
        <time>2019-06-23T12:29:36Z</time>
      </trkpt>
      <trkpt lat="49.43341" lon="2.94936">
        <ele>78</ele>
        <time>2019-06-23T12:29:48Z</time>
      </trkpt>
      <trkpt lat="49.43338" lon="2.94933">
        <ele>78</ele>
        <time>2019-06-23T12:29:50Z</time>
      </trkpt>
      <trkpt lat="49.43338" lon="2.94922">
        <ele>78</ele>
        <time>2019-06-23T12:30:01Z</time>
      </trkpt>
      <trkpt lat="49.43336" lon="2.94912">
        <ele>78</ele>
        <time>2019-06-23T12:30:10Z</time>
      </trkpt>
      <trkpt lat="49.43317" lon="2.9492">
        <ele>76</ele>
        <time>2019-06-23T12:30:17Z</time>
      </trkpt>
      <trkpt lat="49.43316" lon="2.94915">
        <ele>77</ele>
        <time>2019-06-23T12:30:26Z</time>
      </trkpt>
      <trkpt lat="49.43317" lon="2.94914">
        <ele>77</ele>
        <time>2019-06-23T12:30:27Z</time>
      </trkpt>
      <trkpt lat="49.43318" lon="2.94907">
        <ele>77</ele>
        <time>2019-06-23T12:30:32Z</time>
      </trkpt>
      <trkpt lat="49.43315" lon="2.949">
        <ele>77</ele>
        <time>2019-06-23T12:30:36Z</time>
      </trkpt>
      <trkpt lat="49.43317" lon="2.94898">
        <ele>77</ele>
        <time>2019-06-23T12:30:38Z</time>
      </trkpt>
      <trkpt lat="49.43299" lon="2.94896">
        <ele>76</ele>
        <time>2019-06-23T12:30:48Z</time>
      </trkpt>
      <trkpt lat="49.43299" lon="2.94894">
        <ele>76</ele>
        <time>2019-06-23T12:30:49Z</time>
      </trkpt>
      <trkpt lat="49.43296" lon="2.94887">
        <ele>76</ele>
        <time>2019-06-23T12:30:52Z</time>
      </trkpt>
      <trkpt lat="49.43279" lon="2.94873">
        <ele>76</ele>
        <time>2019-06-23T12:31:00Z</time>
      </trkpt>
      <trkpt lat="49.43256" lon="2.94863">
        <ele>75</ele>
        <time>2019-06-23T12:31:07Z</time>
      </trkpt>
      <trkpt lat="49.4324" lon="2.94843">
        <ele>71</ele>
        <time>2019-06-23T12:31:15Z</time>
      </trkpt>
      <trkpt lat="49.43241" lon="2.94839">
        <ele>72</ele>
        <time>2019-06-23T12:31:27Z</time>
      </trkpt>
      <trkpt lat="49.43245" lon="2.94811">
        <ele>72</ele>
        <time>2019-06-23T12:31:48Z</time>
      </trkpt>
      <trkpt lat="49.43247" lon="2.94808">
        <ele>72</ele>
        <time>2019-06-23T12:31:51Z</time>
      </trkpt>
      <trkpt lat="49.43244" lon="2.94793">
        <ele>72</ele>
        <time>2019-06-23T12:32:01Z</time>
      </trkpt>
      <trkpt lat="49.43238" lon="2.94773">
        <ele>73</ele>
        <time>2019-06-23T12:32:12Z</time>
      </trkpt>
      <trkpt lat="49.43229" lon="2.94785">
        <ele>71</ele>
        <time>2019-06-23T12:32:18Z</time>
      </trkpt>
      <trkpt lat="49.43224" lon="2.94794">
        <ele>71</ele>
        <time>2019-06-23T12:32:22Z</time>
      </trkpt>
      <trkpt lat="49.43221" lon="2.94797">
        <ele>71</ele>
        <time>2019-06-23T12:32:24Z</time>
      </trkpt>
      <trkpt lat="49.43196" lon="2.94795">
        <ele>69</ele>
        <time>2019-06-23T12:32:34Z</time>
      </trkpt>
      <trkpt lat="49.43187" lon="2.94804">
        <ele>68</ele>
        <time>2019-06-23T12:32:39Z</time>
      </trkpt>
      <trkpt lat="49.43186" lon="2.94837">
        <ele>64</ele>
        <time>2019-06-23T12:32:49Z</time>
      </trkpt>
      <trkpt lat="49.43191" lon="2.94852">
        <ele>65</ele>
        <time>2019-06-23T12:32:56Z</time>
      </trkpt>
      <trkpt lat="49.43191" lon="2.94868">
        <ele>65</ele>
        <time>2019-06-23T12:33:04Z</time>
      </trkpt>
      <trkpt lat="49.43191" lon="2.94887">
        <ele>65</ele>
        <time>2019-06-23T12:33:09Z</time>
      </trkpt>
      <trkpt lat="49.4319" lon="2.94918">
        <ele>64</ele>
        <time>2019-06-23T12:33:19Z</time>
      </trkpt>
      <trkpt lat="49.43191" lon="2.94931">
        <ele>64</ele>
        <time>2019-06-23T12:33:24Z</time>
      </trkpt>
      <trkpt lat="49.43189" lon="2.94946">
        <ele>64</ele>
        <time>2019-06-23T12:33:30Z</time>
      </trkpt>
      <trkpt lat="49.43192" lon="2.9496">
        <ele>65</ele>
        <time>2019-06-23T12:33:42Z</time>
      </trkpt>
      <trkpt lat="49.43192" lon="2.94963">
        <ele>65</ele>
        <time>2019-06-23T12:34:13Z</time>
      </trkpt>
      <trkpt lat="49.43193" lon="2.94963">
        <ele>65</ele>
        <time>2019-06-23T12:34:44Z</time>
      </trkpt>
      <trkpt lat="49.43192" lon="2.94966">
        <ele>65</ele>
        <time>2019-06-23T12:35:13Z</time>
      </trkpt>
      <trkpt lat="49.43193" lon="2.94967">
        <ele>65</ele>
        <time>2019-06-23T12:35:44Z</time>
      </trkpt>
      <trkpt lat="49.43192" lon="2.94967">
        <ele>65</ele>
        <time>2019-06-23T12:36:17Z</time>
      </trkpt>
      <trkpt lat="49.43192" lon="2.94967">
        <ele>65</ele>
        <time>2019-06-23T12:36:47Z</time>
      </trkpt>
      <trkpt lat="49.43192" lon="2.94967">
        <ele>65</ele>
        <time>2019-06-23T12:37:14Z</time>
      </trkpt>
      <trkpt lat="49.43191" lon="2.94965">
        <ele>64</ele>
        <time>2019-06-23T12:37:41Z</time>
      </trkpt>
      <trkpt lat="49.4319" lon="2.94965">
        <ele>64</ele>
        <time>2019-06-23T12:38:09Z</time>
      </trkpt>
      <trkpt lat="49.43189" lon="2.94966">
        <ele>64</ele>
        <time>2019-06-23T12:38:39Z</time>
      </trkpt>
      <trkpt lat="49.4319" lon="2.94967">
        <ele>64</ele>
        <time>2019-06-23T12:39:04Z</time>
      </trkpt>
      <trkpt lat="49.43189" lon="2.94968">
        <ele>64</ele>
        <time>2019-06-23T12:39:37Z</time>
      </trkpt>
      <trkpt lat="49.43188" lon="2.9497">
        <ele>64</ele>
        <time>2019-06-23T12:40:05Z</time>
      </trkpt>
      <trkpt lat="49.43187" lon="2.9497">
        <ele>64</ele>
        <time>2019-06-23T12:40:35Z</time>
      </trkpt>
      <trkpt lat="49.43188" lon="2.94971">
        <ele>64</ele>
        <time>2019-06-23T12:41:09Z</time>
      </trkpt>
      <trkpt lat="49.43189" lon="2.94971">
        <ele>64</ele>
        <time>2019-06-23T12:41:38Z</time>
      </trkpt>
      <trkpt lat="49.43191" lon="2.94972">
        <ele>64</ele>
        <time>2019-06-23T12:42:09Z</time>
      </trkpt>
      <trkpt lat="49.4319" lon="2.9497">
        <ele>64</ele>
        <time>2019-06-23T12:42:17Z</time>
      </trkpt>
      <trkpt lat="49.43189" lon="2.94966">
        <ele>64</ele>
        <time>2019-06-23T12:42:19Z</time>
      </trkpt>
      <trkpt lat="49.43186" lon="2.94946">
        <ele>64</ele>
        <time>2019-06-23T12:42:30Z</time>
      </trkpt>
      <trkpt lat="49.43188" lon="2.94938">
        <ele>64</ele>
        <time>2019-06-23T12:42:45Z</time>
      </trkpt>
      <trkpt lat="49.43187" lon="2.94935">
        <ele>64</ele>
        <time>2019-06-23T12:43:06Z</time>
      </trkpt>
      <trkpt lat="49.43185" lon="2.94932">
        <ele>63</ele>
        <time>2019-06-23T12:43:31Z</time>
      </trkpt>
      <trkpt lat="49.43185" lon="2.9493">
        <ele>63</ele>
        <time>2019-06-23T12:43:48Z</time>
      </trkpt>
      <trkpt lat="49.43186" lon="2.9493">
        <ele>63</ele>
        <time>2019-06-23T12:44:10Z</time>
      </trkpt>
      <trkpt lat="49.43186" lon="2.9493">
        <ele>64</ele>
        <time>2019-06-23T12:44:33Z</time>
      </trkpt>
      <trkpt lat="49.43186" lon="2.94924">
        <ele>63</ele>
        <time>2019-06-23T12:44:48Z</time>
      </trkpt>
      <trkpt lat="49.43187" lon="2.94917">
        <ele>63</ele>
        <time>2019-06-23T12:44:52Z</time>
      </trkpt>
      <trkpt lat="49.43187" lon="2.94911">
        <ele>64</ele>
        <time>2019-06-23T12:44:54Z</time>
      </trkpt>
      <trkpt lat="49.43183" lon="2.9486">
        <ele>64</ele>
        <time>2019-06-23T12:45:06Z</time>
      </trkpt>
      <trkpt lat="49.43163" lon="2.94808">
        <ele>60</ele>
        <time>2019-06-23T12:45:18Z</time>
      </trkpt>
      <trkpt lat="49.43147" lon="2.94771">
        <ele>61</ele>
        <time>2019-06-23T12:45:26Z</time>
      </trkpt>
      <trkpt lat="49.43125" lon="2.94722">
        <ele>62</ele>
        <time>2019-06-23T12:45:34Z</time>
      </trkpt>
      <trkpt lat="49.43115" lon="2.94694">
        <ele>62</ele>
        <time>2019-06-23T12:45:38Z</time>
      </trkpt>
      <trkpt lat="49.43089" lon="2.94605">
        <ele>62</ele>
        <time>2019-06-23T12:45:51Z</time>
      </trkpt>
      <trkpt lat="49.43085" lon="2.94592">
        <ele>60</ele>
        <time>2019-06-23T12:45:53Z</time>
      </trkpt>
      <trkpt lat="49.43078" lon="2.94563">
        <ele>57</ele>
        <time>2019-06-23T12:45:57Z</time>
      </trkpt>
      <trkpt lat="49.43068" lon="2.94534">
        <ele>57</ele>
        <time>2019-06-23T12:46:01Z</time>
      </trkpt>
      <trkpt lat="49.43056" lon="2.94501">
        <ele>57</ele>
        <time>2019-06-23T12:46:06Z</time>
      </trkpt>
      <trkpt lat="49.43046" lon="2.94476">
        <ele>57</ele>
        <time>2019-06-23T12:46:10Z</time>
      </trkpt>
      <trkpt lat="49.43032" lon="2.94425">
        <ele>56</ele>
        <time>2019-06-23T12:46:18Z</time>
      </trkpt>
      <trkpt lat="49.43036" lon="2.94358">
        <ele>56</ele>
        <time>2019-06-23T12:46:29Z</time>
      </trkpt>
      <trkpt lat="49.43045" lon="2.94341">
        <ele>56</ele>
        <time>2019-06-23T12:46:36Z</time>
      </trkpt>
      <trkpt lat="49.43063" lon="2.94354">
        <ele>57</ele>
        <time>2019-06-23T12:46:48Z</time>
      </trkpt>
      <trkpt lat="49.43091" lon="2.94374">
        <ele>63</ele>
        <time>2019-06-23T12:47:02Z</time>
      </trkpt>
      <trkpt lat="49.43105" lon="2.9438">
        <ele>63</ele>
        <time>2019-06-23T12:47:13Z</time>
      </trkpt>
      <trkpt lat="49.43107" lon="2.94383">
        <ele>63</ele>
        <time>2019-06-23T12:47:24Z</time>
      </trkpt>
      <trkpt lat="49.43105" lon="2.94387">
        <ele>63</ele>
        <time>2019-06-23T12:47:55Z</time>
      </trkpt>
      <trkpt lat="49.43108" lon="2.94388">
        <ele>64</ele>
        <time>2019-06-23T12:48:24Z</time>
      </trkpt>
      <trkpt lat="49.43108" lon="2.9439">
        <ele>64</ele>
        <time>2019-06-23T12:48:50Z</time>
      </trkpt>
      <trkpt lat="49.43109" lon="2.94393">
        <ele>64</ele>
        <time>2019-06-23T12:49:23Z</time>
      </trkpt>
      <trkpt lat="49.43109" lon="2.94393">
        <ele>64</ele>
        <time>2019-06-23T12:49:53Z</time>
      </trkpt>
      <trkpt lat="49.43108" lon="2.94393">
        <ele>64</ele>
        <time>2019-06-23T12:50:21Z</time>
      </trkpt>
      <trkpt lat="49.43107" lon="2.94392">
        <ele>64</ele>
        <time>2019-06-23T12:50:55Z</time>
      </trkpt>
      <trkpt lat="49.43107" lon="2.9439">
        <ele>64</ele>
        <time>2019-06-23T12:51:25Z</time>
      </trkpt>
      <trkpt lat="49.43107" lon="2.9439">
        <ele>64</ele>
        <time>2019-06-23T12:51:55Z</time>
      </trkpt>
      <trkpt lat="49.43107" lon="2.94389">
        <ele>63</ele>
        <time>2019-06-23T12:52:28Z</time>
      </trkpt>
      <trkpt lat="49.43107" lon="2.94389">
        <ele>64</ele>
        <time>2019-06-23T12:52:59Z</time>
      </trkpt>
      <trkpt lat="49.43103" lon="2.9438">
        <ele>63</ele>
        <time>2019-06-23T12:53:07Z</time>
      </trkpt>
      <trkpt lat="49.43092" lon="2.94372">
        <ele>63</ele>
        <time>2019-06-23T12:53:12Z</time>
      </trkpt>
      <trkpt lat="49.43073" lon="2.9436">
        <ele>57</ele>
        <time>2019-06-23T12:53:21Z</time>
      </trkpt>
      <trkpt lat="49.4304" lon="2.94338">
        <ele>56</ele>
        <time>2019-06-23T12:53:32Z</time>
      </trkpt>
      <trkpt lat="49.43022" lon="2.94325">
        <ele>54</ele>
        <time>2019-06-23T12:53:41Z</time>
      </trkpt>
      <trkpt lat="49.42993" lon="2.94308">
        <ele>51</ele>
        <time>2019-06-23T12:53:51Z</time>
      </trkpt>
      <trkpt lat="49.42986" lon="2.94302">
        <ele>51</ele>
        <time>2019-06-23T12:53:53Z</time>
      </trkpt>
      <trkpt lat="49.4294" lon="2.94272">
        <ele>50</ele>
        <time>2019-06-23T12:54:03Z</time>
      </trkpt>
      <trkpt lat="49.42876" lon="2.94233">
        <ele>48</ele>
        <time>2019-06-23T12:54:16Z</time>
      </trkpt>
      <trkpt lat="49.42862" lon="2.94224">
        <ele>47</ele>
        <time>2019-06-23T12:54:19Z</time>
      </trkpt>
      <trkpt lat="49.42839" lon="2.94209">
        <ele>47</ele>
        <time>2019-06-23T12:54:24Z</time>
      </trkpt>
      <trkpt lat="49.4283" lon="2.94203">
        <ele>46</ele>
        <time>2019-06-23T12:54:26Z</time>
      </trkpt>
      <trkpt lat="49.42821" lon="2.94199">
        <ele>46</ele>
        <time>2019-06-23T12:54:28Z</time>
      </trkpt>
      <trkpt lat="49.42797" lon="2.94198">
        <ele>45</ele>
        <time>2019-06-23T12:54:34Z</time>
      </trkpt>
      <trkpt lat="49.42784" lon="2.94199">
        <ele>45</ele>
        <time>2019-06-23T12:54:38Z</time>
      </trkpt>
      <trkpt lat="49.42745" lon="2.94204">
        <ele>43</ele>
        <time>2019-06-23T12:54:49Z</time>
      </trkpt>
      <trkpt lat="49.42736" lon="2.94206">
        <ele>42</ele>
        <time>2019-06-23T12:54:51Z</time>
      </trkpt>
      <trkpt lat="49.42721" lon="2.94212">
        <ele>42</ele>
        <time>2019-06-23T12:54:54Z</time>
      </trkpt>
      <trkpt lat="49.42711" lon="2.94217">
        <ele>42</ele>
        <time>2019-06-23T12:54:56Z</time>
      </trkpt>
      <trkpt lat="49.42698" lon="2.94227">
        <ele>41</ele>
        <time>2019-06-23T12:54:59Z</time>
      </trkpt>
      <trkpt lat="49.42675" lon="2.94295">
        <ele>42</ele>
        <time>2019-06-23T12:55:12Z</time>
      </trkpt>
      <trkpt lat="49.42658" lon="2.94367">
        <ele>41</ele>
        <time>2019-06-23T12:55:25Z</time>
      </trkpt>
      <trkpt lat="49.42638" lon="2.94449">
        <ele>44</ele>
        <time>2019-06-23T12:55:40Z</time>
      </trkpt>
      <trkpt lat="49.4263" lon="2.94496">
        <ele>44</ele>
        <time>2019-06-23T12:55:50Z</time>
      </trkpt>
      <trkpt lat="49.42628" lon="2.94501">
        <ele>46</ele>
        <time>2019-06-23T12:56:04Z</time>
      </trkpt>
      <trkpt lat="49.42629" lon="2.94502">
        <ele>46</ele>
        <time>2019-06-23T12:56:34Z</time>
      </trkpt>
      <trkpt lat="49.42612" lon="2.94512">
        <ele>45</ele>
        <time>2019-06-23T12:56:41Z</time>
      </trkpt>
      <trkpt lat="49.42595" lon="2.94514">
        <ele>44</ele>
        <time>2019-06-23T12:56:45Z</time>
      </trkpt>
      <trkpt lat="49.42543" lon="2.94499">
        <ele>39</ele>
        <time>2019-06-23T12:56:57Z</time>
      </trkpt>
      <trkpt lat="49.42476" lon="2.94488">
        <ele>37</ele>
        <time>2019-06-23T12:57:13Z</time>
      </trkpt>
      <trkpt lat="49.42401" lon="2.94482">
        <ele>37</ele>
        <time>2019-06-23T12:57:29Z</time>
      </trkpt>
      <trkpt lat="49.42314" lon="2.94473">
        <ele>37</ele>
        <time>2019-06-23T12:57:47Z</time>
      </trkpt>
      <trkpt lat="49.42285" lon="2.94468">
        <ele>37</ele>
        <time>2019-06-23T12:57:53Z</time>
      </trkpt>
      <trkpt lat="49.42193" lon="2.94453">
        <ele>37</ele>
        <time>2019-06-23T12:58:12Z</time>
      </trkpt>
      <trkpt lat="49.42114" lon="2.94424">
        <ele>37</ele>
        <time>2019-06-23T12:58:30Z</time>
      </trkpt>
      <trkpt lat="49.42049" lon="2.94398">
        <ele>38</ele>
        <time>2019-06-23T12:58:45Z</time>
      </trkpt>
      <trkpt lat="49.41989" lon="2.94347">
        <ele>40</ele>
        <time>2019-06-23T12:58:59Z</time>
      </trkpt>
      <trkpt lat="49.41915" lon="2.94295">
        <ele>42</ele>
        <time>2019-06-23T12:59:17Z</time>
      </trkpt>
      <trkpt lat="49.41911" lon="2.94293">
        <ele>42</ele>
        <time>2019-06-23T12:59:18Z</time>
      </trkpt>
      <trkpt lat="49.41889" lon="2.94285">
        <ele>42</ele>
        <time>2019-06-23T12:59:23Z</time>
      </trkpt>
      <trkpt lat="49.41862" lon="2.94279">
        <ele>41</ele>
        <time>2019-06-23T12:59:29Z</time>
      </trkpt>
      <trkpt lat="49.41792" lon="2.9429">
        <ele>40</ele>
        <time>2019-06-23T12:59:44Z</time>
      </trkpt>
      <trkpt lat="49.41762" lon="2.94273">
        <ele>39</ele>
        <time>2019-06-23T12:59:54Z</time>
      </trkpt>
      <trkpt lat="49.41717" lon="2.942">
        <ele>40</ele>
        <time>2019-06-23T13:00:08Z</time>
      </trkpt>
      <trkpt lat="49.4169" lon="2.94158">
        <ele>41</ele>
        <time>2019-06-23T13:00:16Z</time>
      </trkpt>
      <trkpt lat="49.41649" lon="2.9408">
        <ele>41</ele>
        <time>2019-06-23T13:00:30Z</time>
      </trkpt>
      <trkpt lat="49.41642" lon="2.9407">
        <ele>41</ele>
        <time>2019-06-23T13:00:32Z</time>
      </trkpt>
      <trkpt lat="49.41634" lon="2.94039">
        <ele>41</ele>
        <time>2019-06-23T13:00:37Z</time>
      </trkpt>
      <trkpt lat="49.41636" lon="2.94027">
        <ele>41</ele>
        <time>2019-06-23T13:00:39Z</time>
      </trkpt>
      <trkpt lat="49.41644" lon="2.94003">
        <ele>41</ele>
        <time>2019-06-23T13:00:43Z</time>
      </trkpt>
      <trkpt lat="49.4167" lon="2.93972">
        <ele>41</ele>
        <time>2019-06-23T13:00:50Z</time>
      </trkpt>
      <trkpt lat="49.41701" lon="2.93941">
        <ele>41</ele>
        <time>2019-06-23T13:00:57Z</time>
      </trkpt>
      <trkpt lat="49.4175" lon="2.93842">
        <ele>39</ele>
        <time>2019-06-23T13:01:13Z</time>
      </trkpt>
      <trkpt lat="49.41756" lon="2.93829">
        <ele>38</ele>
        <time>2019-06-23T13:01:15Z</time>
      </trkpt>
      <trkpt lat="49.41774" lon="2.93802">
        <ele>38</ele>
        <time>2019-06-23T13:01:20Z</time>
      </trkpt>
      <trkpt lat="49.41819" lon="2.93769">
        <ele>37</ele>
        <time>2019-06-23T13:01:33Z</time>
      </trkpt>
      <trkpt lat="49.41825" lon="2.93767">
        <ele>37</ele>
        <time>2019-06-23T13:01:35Z</time>
      </trkpt>
      <trkpt lat="49.41833" lon="2.93766">
        <ele>37</ele>
        <time>2019-06-23T13:01:44Z</time>
      </trkpt>
      <trkpt lat="49.41835" lon="2.93766">
        <ele>37</ele>
        <time>2019-06-23T13:02:21Z</time>
      </trkpt>
      <trkpt lat="49.41835" lon="2.93766">
        <ele>37</ele>
        <time>2019-06-23T13:02:42Z</time>
      </trkpt>
      <trkpt lat="49.41825" lon="2.93765">
        <ele>37</ele>
        <time>2019-06-23T13:02:48Z</time>
      </trkpt>
      <trkpt lat="49.4181" lon="2.93772">
        <ele>37</ele>
        <time>2019-06-23T13:02:52Z</time>
      </trkpt>
      <trkpt lat="49.41781" lon="2.9379">
        <ele>38</ele>
        <time>2019-06-23T13:02:59Z</time>
      </trkpt>
      <trkpt lat="49.4177" lon="2.93802">
        <ele>38</ele>
        <time>2019-06-23T13:03:02Z</time>
      </trkpt>
      <trkpt lat="49.4173" lon="2.93876">
        <ele>40</ele>
        <time>2019-06-23T13:03:16Z</time>
      </trkpt>
      <trkpt lat="49.41721" lon="2.93891">
        <ele>40</ele>
        <time>2019-06-23T13:03:19Z</time>
      </trkpt>
      <trkpt lat="49.41703" lon="2.93928">
        <ele>41</ele>
        <time>2019-06-23T13:03:26Z</time>
      </trkpt>
      <trkpt lat="49.4169" lon="2.93952">
        <ele>41</ele>
        <time>2019-06-23T13:03:31Z</time>
      </trkpt>
      <trkpt lat="49.41677" lon="2.9395">
        <ele>41</ele>
        <time>2019-06-23T13:03:35Z</time>
      </trkpt>
      <trkpt lat="49.4167" lon="2.93935">
        <ele>40</ele>
        <time>2019-06-23T13:03:38Z</time>
      </trkpt>
      <trkpt lat="49.41653" lon="2.9391">
        <ele>39</ele>
        <time>2019-06-23T13:03:43Z</time>
      </trkpt>
      <trkpt lat="49.41641" lon="2.93899">
        <ele>38</ele>
        <time>2019-06-23T13:03:46Z</time>
      </trkpt>
      <trkpt lat="49.41563" lon="2.93868">
        <ele>36</ele>
        <time>2019-06-23T13:04:00Z</time>
      </trkpt>
      <trkpt lat="49.4151" lon="2.93848">
        <ele>35</ele>
        <time>2019-06-23T13:04:09Z</time>
      </trkpt>
      <trkpt lat="49.4144" lon="2.93809">
        <ele>35</ele>
        <time>2019-06-23T13:04:24Z</time>
      </trkpt>
      <trkpt lat="49.41371" lon="2.93769">
        <ele>37</ele>
        <time>2019-06-23T13:04:39Z</time>
      </trkpt>
      <trkpt lat="49.41321" lon="2.9374">
        <ele>38</ele>
        <time>2019-06-23T13:04:47Z</time>
      </trkpt>
      <trkpt lat="49.41224" lon="2.93677">
        <ele>36</ele>
        <time>2019-06-23T13:05:06Z</time>
      </trkpt>
      <trkpt lat="49.41136" lon="2.9362">
        <ele>39</ele>
        <time>2019-06-23T13:05:24Z</time>
      </trkpt>
      <trkpt lat="49.41132" lon="2.93617">
        <ele>39</ele>
        <time>2019-06-23T13:05:25Z</time>
      </trkpt>
      <trkpt lat="49.41108" lon="2.93602">
        <ele>39</ele>
        <time>2019-06-23T13:05:30Z</time>
      </trkpt>
      <trkpt lat="49.41088" lon="2.9359">
        <ele>40</ele>
        <time>2019-06-23T13:05:34Z</time>
      </trkpt>
      <trkpt lat="49.41074" lon="2.9358">
        <ele>41</ele>
        <time>2019-06-23T13:05:37Z</time>
      </trkpt>
      <trkpt lat="49.41008" lon="2.93538">
        <ele>40</ele>
        <time>2019-06-23T13:05:52Z</time>
      </trkpt>
      <trkpt lat="49.40983" lon="2.93517">
        <ele>42</ele>
        <time>2019-06-23T13:06:00Z</time>
      </trkpt>
      <trkpt lat="49.40989" lon="2.93473">
        <ele>43</ele>
        <time>2019-06-23T13:06:09Z</time>
      </trkpt>
      <trkpt lat="49.40995" lon="2.93456">
        <ele>44</ele>
        <time>2019-06-23T13:06:12Z</time>
      </trkpt>
      <trkpt lat="49.40999" lon="2.93428">
        <ele>44</ele>
        <time>2019-06-23T13:06:16Z</time>
      </trkpt>
      <trkpt lat="49.41008" lon="2.93404">
        <ele>44</ele>
        <time>2019-06-23T13:06:20Z</time>
      </trkpt>
      <trkpt lat="49.4102" lon="2.93357">
        <ele>45</ele>
        <time>2019-06-23T13:06:27Z</time>
      </trkpt>
      <trkpt lat="49.41023" lon="2.93343">
        <ele>45</ele>
        <time>2019-06-23T13:06:29Z</time>
      </trkpt>
      <trkpt lat="49.4103" lon="2.93317">
        <ele>46</ele>
        <time>2019-06-23T13:06:33Z</time>
      </trkpt>
      <trkpt lat="49.41049" lon="2.93263">
        <ele>46</ele>
        <time>2019-06-23T13:06:42Z</time>
      </trkpt>
      <trkpt lat="49.41068" lon="2.93202">
        <ele>48</ele>
        <time>2019-06-23T13:06:52Z</time>
      </trkpt>
      <trkpt lat="49.41079" lon="2.93166">
        <ele>46</ele>
        <time>2019-06-23T13:06:58Z</time>
      </trkpt>
      <trkpt lat="49.41107" lon="2.93054">
        <ele>47</ele>
        <time>2019-06-23T13:07:15Z</time>
      </trkpt>
      <trkpt lat="49.41135" lon="2.92938">
        <ele>50</ele>
        <time>2019-06-23T13:07:31Z</time>
      </trkpt>
      <trkpt lat="49.4117" lon="2.92808">
        <ele>49</ele>
        <time>2019-06-23T13:07:48Z</time>
      </trkpt>
      <trkpt lat="49.41209" lon="2.92656">
        <ele>52</ele>
        <time>2019-06-23T13:08:05Z</time>
      </trkpt>
      <trkpt lat="49.41246" lon="2.92522">
        <ele>50</ele>
        <time>2019-06-23T13:08:19Z</time>
      </trkpt>
      <trkpt lat="49.41294" lon="2.92352">
        <ele>45</ele>
        <time>2019-06-23T13:08:36Z</time>
      </trkpt>
      <trkpt lat="49.4135" lon="2.92212">
        <ele>41</ele>
        <time>2019-06-23T13:08:52Z</time>
      </trkpt>
      <trkpt lat="49.41381" lon="2.9218">
        <ele>41</ele>
        <time>2019-06-23T13:08:58Z</time>
      </trkpt>
      <trkpt lat="49.41399" lon="2.92136">
        <ele>41</ele>
        <time>2019-06-23T13:09:04Z</time>
      </trkpt>
      <trkpt lat="49.4142" lon="2.91966">
        <ele>41</ele>
        <time>2019-06-23T13:09:22Z</time>
      </trkpt>
      <trkpt lat="49.41438" lon="2.91893">
        <ele>41</ele>
        <time>2019-06-23T13:09:30Z</time>
      </trkpt>
      <trkpt lat="49.41485" lon="2.91746">
        <ele>45</ele>
        <time>2019-06-23T13:09:47Z</time>
      </trkpt>
      <trkpt lat="49.41495" lon="2.91713">
        <ele>46</ele>
        <time>2019-06-23T13:09:51Z</time>
      </trkpt>
      <trkpt lat="49.41526" lon="2.91617">
        <ele>47</ele>
        <time>2019-06-23T13:10:03Z</time>
      </trkpt>
      <trkpt lat="49.4157" lon="2.91492">
        <ele>49</ele>
        <time>2019-06-23T13:10:19Z</time>
      </trkpt>
      <trkpt lat="49.41607" lon="2.91373">
        <ele>47</ele>
        <time>2019-06-23T13:10:34Z</time>
      </trkpt>
      <trkpt lat="49.41631" lon="2.91297">
        <ele>46</ele>
        <time>2019-06-23T13:10:44Z</time>
      </trkpt>
      <trkpt lat="49.41644" lon="2.9126">
        <ele>46</ele>
        <time>2019-06-23T13:10:49Z</time>
      </trkpt>
      <trkpt lat="49.41656" lon="2.9122">
        <ele>45</ele>
        <time>2019-06-23T13:10:54Z</time>
      </trkpt>
      <trkpt lat="49.417" lon="2.91076">
        <ele>47</ele>
        <time>2019-06-23T13:11:13Z</time>
      </trkpt>
      <trkpt lat="49.41738" lon="2.90952">
        <ele>50</ele>
        <time>2019-06-23T13:11:30Z</time>
      </trkpt>
      <trkpt lat="49.41796" lon="2.90834">
        <ele>50</ele>
        <time>2019-06-23T13:11:49Z</time>
      </trkpt>
      <trkpt lat="49.4187" lon="2.90768">
        <ele>48</ele>
        <time>2019-06-23T13:12:06Z</time>
      </trkpt>
      <trkpt lat="49.41948" lon="2.90711">
        <ele>50</ele>
        <time>2019-06-23T13:12:24Z</time>
      </trkpt>
      <trkpt lat="49.41956" lon="2.90704">
        <ele>50</ele>
        <time>2019-06-23T13:12:26Z</time>
      </trkpt>
      <trkpt lat="49.42007" lon="2.9064">
        <ele>51</ele>
        <time>2019-06-23T13:12:41Z</time>
      </trkpt>
      <trkpt lat="49.42022" lon="2.90614">
        <ele>51</ele>
        <time>2019-06-23T13:12:46Z</time>
      </trkpt>
      <trkpt lat="49.42064" lon="2.90526">
        <ele>54</ele>
        <time>2019-06-23T13:13:01Z</time>
      </trkpt>
      <trkpt lat="49.42107" lon="2.90409">
        <ele>57</ele>
        <time>2019-06-23T13:13:16Z</time>
      </trkpt>
      <trkpt lat="49.42156" lon="2.90234">
        <ele>54</ele>
        <time>2019-06-23T13:13:36Z</time>
      </trkpt>
      <trkpt lat="49.42172" lon="2.90153">
        <ele>50</ele>
        <time>2019-06-23T13:13:45Z</time>
      </trkpt>
      <trkpt lat="49.42175" lon="2.89994">
        <ele>44</ele>
        <time>2019-06-23T13:14:02Z</time>
      </trkpt>
      <trkpt lat="49.42155" lon="2.8985">
        <ele>46</ele>
        <time>2019-06-23T13:14:17Z</time>
      </trkpt>
      <trkpt lat="49.42151" lon="2.89833">
        <ele>46</ele>
        <time>2019-06-23T13:14:19Z</time>
      </trkpt>
      <trkpt lat="49.42139" lon="2.89741">
        <ele>46</ele>
        <time>2019-06-23T13:14:28Z</time>
      </trkpt>
      <trkpt lat="49.42156" lon="2.89605">
        <ele>45</ele>
        <time>2019-06-23T13:14:45Z</time>
      </trkpt>
      <trkpt lat="49.42191" lon="2.8949">
        <ele>45</ele>
        <time>2019-06-23T13:15:00Z</time>
      </trkpt>
      <trkpt lat="49.42238" lon="2.8934">
        <ele>45</ele>
        <time>2019-06-23T13:15:19Z</time>
      </trkpt>
      <trkpt lat="49.42271" lon="2.89237">
        <ele>43</ele>
        <time>2019-06-23T13:15:32Z</time>
      </trkpt>
      <trkpt lat="49.42316" lon="2.89096">
        <ele>43</ele>
        <time>2019-06-23T13:15:50Z</time>
      </trkpt>
      <trkpt lat="49.42357" lon="2.88957">
        <ele>46</ele>
        <time>2019-06-23T13:16:07Z</time>
      </trkpt>
      <trkpt lat="49.42381" lon="2.8888">
        <ele>45</ele>
        <time>2019-06-23T13:16:16Z</time>
      </trkpt>
      <trkpt lat="49.42414" lon="2.88774">
        <ele>45</ele>
        <time>2019-06-23T13:16:28Z</time>
      </trkpt>
      <trkpt lat="49.42463" lon="2.88615">
        <ele>46</ele>
        <time>2019-06-23T13:16:46Z</time>
      </trkpt>
      <trkpt lat="49.42507" lon="2.88474">
        <ele>45</ele>
        <time>2019-06-23T13:17:02Z</time>
      </trkpt>
      <trkpt lat="49.42513" lon="2.88456">
        <ele>45</ele>
        <time>2019-06-23T13:17:04Z</time>
      </trkpt>
      <trkpt lat="49.4255" lon="2.88335">
        <ele>44</ele>
        <time>2019-06-23T13:17:18Z</time>
      </trkpt>
      <trkpt lat="49.42587" lon="2.8822">
        <ele>44</ele>
        <time>2019-06-23T13:17:32Z</time>
      </trkpt>
      <trkpt lat="49.42615" lon="2.88108">
        <ele>45</ele>
        <time>2019-06-23T13:17:46Z</time>
      </trkpt>
      <trkpt lat="49.42617" lon="2.88073">
        <ele>45</ele>
        <time>2019-06-23T13:17:50Z</time>
      </trkpt>
      <trkpt lat="49.42604" lon="2.87929">
        <ele>45</ele>
        <time>2019-06-23T13:18:06Z</time>
      </trkpt>
      <trkpt lat="49.42587" lon="2.87774">
        <ele>44</ele>
        <time>2019-06-23T13:18:23Z</time>
      </trkpt>
      <trkpt lat="49.42582" lon="2.87678">
        <ele>43</ele>
        <time>2019-06-23T13:18:35Z</time>
      </trkpt>
      <trkpt lat="49.42587" lon="2.87655">
        <ele>43</ele>
        <time>2019-06-23T13:18:38Z</time>
      </trkpt>
      <trkpt lat="49.42578" lon="2.87595">
        <ele>42</ele>
        <time>2019-06-23T13:18:46Z</time>
      </trkpt>
      <trkpt lat="49.4257" lon="2.87584">
        <ele>42</ele>
        <time>2019-06-23T13:18:48Z</time>
      </trkpt>
      <trkpt lat="49.42562" lon="2.87558">
        <ele>40</ele>
        <time>2019-06-23T13:18:52Z</time>
      </trkpt>
      <trkpt lat="49.42558" lon="2.87536">
        <ele>40</ele>
        <time>2019-06-23T13:18:55Z</time>
      </trkpt>
      <trkpt lat="49.42562" lon="2.87516">
        <ele>40</ele>
        <time>2019-06-23T13:18:59Z</time>
      </trkpt>
      <trkpt lat="49.42567" lon="2.8751">
        <ele>40</ele>
        <time>2019-06-23T13:19:11Z</time>
      </trkpt>
      <trkpt lat="49.42569" lon="2.87509">
        <ele>41</ele>
        <time>2019-06-23T13:19:36Z</time>
      </trkpt>
      <trkpt lat="49.4257" lon="2.8751">
        <ele>41</ele>
        <time>2019-06-23T13:20:03Z</time>
      </trkpt>
      <trkpt lat="49.42569" lon="2.87511">
        <ele>41</ele>
        <time>2019-06-23T13:20:30Z</time>
      </trkpt>
      <trkpt lat="49.4257" lon="2.87511">
        <ele>41</ele>
        <time>2019-06-23T13:20:59Z</time>
      </trkpt>
      <trkpt lat="49.4257" lon="2.87512">
        <ele>41</ele>
        <time>2019-06-23T13:21:24Z</time>
      </trkpt>
      <trkpt lat="49.42569" lon="2.87512">
        <ele>41</ele>
        <time>2019-06-23T13:21:57Z</time>
      </trkpt>
      <trkpt lat="49.42569" lon="2.87513">
        <ele>41</ele>
        <time>2019-06-23T13:22:27Z</time>
      </trkpt>
      <trkpt lat="49.4257" lon="2.87512">
        <ele>41</ele>
        <time>2019-06-23T13:22:57Z</time>
      </trkpt>
      <trkpt lat="49.42569" lon="2.87513">
        <ele>41</ele>
        <time>2019-06-23T13:23:31Z</time>
      </trkpt>
      <trkpt lat="49.42569" lon="2.87513">
        <ele>40</ele>
        <time>2019-06-23T13:24:00Z</time>
      </trkpt>
      <trkpt lat="49.42569" lon="2.87513">
        <ele>41</ele>
        <time>2019-06-23T13:24:25Z</time>
      </trkpt>
      <trkpt lat="49.42568" lon="2.87515">
        <ele>40</ele>
        <time>2019-06-23T13:24:50Z</time>
      </trkpt>
      <trkpt lat="49.42565" lon="2.8752">
        <ele>40</ele>
        <time>2019-06-23T13:24:53Z</time>
      </trkpt>
      <trkpt lat="49.42555" lon="2.87507">
        <ele>40</ele>
        <time>2019-06-23T13:24:59Z</time>
      </trkpt>
      <trkpt lat="49.42549" lon="2.87475">
        <ele>39</ele>
        <time>2019-06-23T13:25:04Z</time>
      </trkpt>
      <trkpt lat="49.42545" lon="2.87448">
        <ele>39</ele>
        <time>2019-06-23T13:25:08Z</time>
      </trkpt>
      <trkpt lat="49.4254" lon="2.87409">
        <ele>39</ele>
        <time>2019-06-23T13:25:14Z</time>
      </trkpt>
      <trkpt lat="49.42538" lon="2.87381">
        <ele>40</ele>
        <time>2019-06-23T13:25:18Z</time>
      </trkpt>
      <trkpt lat="49.42527" lon="2.87258">
        <ele>40</ele>
        <time>2019-06-23T13:25:35Z</time>
      </trkpt>
      <trkpt lat="49.42518" lon="2.87198">
        <ele>41</ele>
        <time>2019-06-23T13:25:43Z</time>
      </trkpt>
      <trkpt lat="49.42511" lon="2.87151">
        <ele>42</ele>
        <time>2019-06-23T13:25:49Z</time>
      </trkpt>
      <trkpt lat="49.42495" lon="2.87018">
        <ele>43</ele>
        <time>2019-06-23T13:26:06Z</time>
      </trkpt>
      <trkpt lat="49.42477" lon="2.86871">
        <ele>43</ele>
        <time>2019-06-23T13:26:25Z</time>
      </trkpt>
      <trkpt lat="49.42463" lon="2.86755">
        <ele>43</ele>
        <time>2019-06-23T13:26:40Z</time>
      </trkpt>
      <trkpt lat="49.42448" lon="2.8663">
        <ele>44</ele>
        <time>2019-06-23T13:26:55Z</time>
      </trkpt>
      <trkpt lat="49.42441" lon="2.8658">
        <ele>43</ele>
        <time>2019-06-23T13:27:01Z</time>
      </trkpt>
      <trkpt lat="49.42426" lon="2.86444">
        <ele>45</ele>
        <time>2019-06-23T13:27:17Z</time>
      </trkpt>
      <trkpt lat="49.42412" lon="2.86321">
        <ele>46</ele>
        <time>2019-06-23T13:27:31Z</time>
      </trkpt>
      <trkpt lat="49.42396" lon="2.86189">
        <ele>46</ele>
        <time>2019-06-23T13:27:46Z</time>
      </trkpt>
      <trkpt lat="49.42379" lon="2.86046">
        <ele>45</ele>
        <time>2019-06-23T13:28:03Z</time>
      </trkpt>
      <trkpt lat="49.42363" lon="2.85911">
        <ele>46</ele>
        <time>2019-06-23T13:28:20Z</time>
      </trkpt>
      <trkpt lat="49.42348" lon="2.85788">
        <ele>47</ele>
        <time>2019-06-23T13:28:36Z</time>
      </trkpt>
      <trkpt lat="49.42341" lon="2.85722">
        <ele>47</ele>
        <time>2019-06-23T13:28:45Z</time>
      </trkpt>
      <trkpt lat="49.42337" lon="2.85661">
        <ele>47</ele>
        <time>2019-06-23T13:28:58Z</time>
      </trkpt>
      <trkpt lat="49.42333" lon="2.85649">
        <ele>47</ele>
        <time>2019-06-23T13:29:11Z</time>
      </trkpt>
      <trkpt lat="49.4233" lon="2.85646">
        <ele>47</ele>
        <time>2019-06-23T13:29:46Z</time>
      </trkpt>
      <trkpt lat="49.42329" lon="2.85645">
        <ele>47</ele>
        <time>2019-06-23T13:29:59Z</time>
      </trkpt>
      <trkpt lat="49.42323" lon="2.85621">
        <ele>47</ele>
        <time>2019-06-23T13:30:06Z</time>
      </trkpt>
      <trkpt lat="49.42314" lon="2.85517">
        <ele>48</ele>
        <time>2019-06-23T13:30:20Z</time>
      </trkpt>
      <trkpt lat="49.42306" lon="2.85436">
        <ele>49</ele>
        <time>2019-06-23T13:30:31Z</time>
      </trkpt>
      <trkpt lat="49.42291" lon="2.85305">
        <ele>48</ele>
        <time>2019-06-23T13:30:48Z</time>
      </trkpt>
      <trkpt lat="49.42275" lon="2.85172">
        <ele>49</ele>
        <time>2019-06-23T13:31:05Z</time>
      </trkpt>
      <trkpt lat="49.4226" lon="2.85054">
        <ele>49</ele>
        <time>2019-06-23T13:31:20Z</time>
      </trkpt>
      <trkpt lat="49.42258" lon="2.85038">
        <ele>49</ele>
        <time>2019-06-23T13:31:22Z</time>
      </trkpt>
      <trkpt lat="49.42241" lon="2.84879">
        <ele>45</ele>
        <time>2019-06-23T13:31:41Z</time>
      </trkpt>
      <trkpt lat="49.42224" lon="2.84738">
        <ele>41</ele>
        <time>2019-06-23T13:31:57Z</time>
      </trkpt>
      <trkpt lat="49.42212" lon="2.84621">
        <ele>40</ele>
        <time>2019-06-23T13:32:12Z</time>
      </trkpt>
      <trkpt lat="49.42198" lon="2.84497">
        <ele>39</ele>
        <time>2019-06-23T13:32:29Z</time>
      </trkpt>
      <trkpt lat="49.42192" lon="2.84463">
        <ele>39</ele>
        <time>2019-06-23T13:32:35Z</time>
      </trkpt>
      <trkpt lat="49.42201" lon="2.84453">
        <ele>39</ele>
        <time>2019-06-23T13:32:39Z</time>
      </trkpt>
      <trkpt lat="49.4226" lon="2.84439">
        <ele>37</ele>
        <time>2019-06-23T13:32:54Z</time>
      </trkpt>
      <trkpt lat="49.42273" lon="2.84437">
        <ele>37</ele>
        <time>2019-06-23T13:32:57Z</time>
      </trkpt>
      <trkpt lat="49.42298" lon="2.84435">
        <ele>37</ele>
        <time>2019-06-23T13:33:03Z</time>
      </trkpt>
      <trkpt lat="49.42358" lon="2.84416">
        <ele>38</ele>
        <time>2019-06-23T13:33:19Z</time>
      </trkpt>
      <trkpt lat="49.42388" lon="2.84406">
        <ele>39</ele>
        <time>2019-06-23T13:33:30Z</time>
      </trkpt>
      <trkpt lat="49.42404" lon="2.84375">
        <ele>38</ele>
        <time>2019-06-23T13:33:43Z</time>
      </trkpt>
      <trkpt lat="49.42414" lon="2.84325">
        <ele>36</ele>
        <time>2019-06-23T13:33:57Z</time>
      </trkpt>
      <trkpt lat="49.42416" lon="2.84322">
        <ele>36</ele>
        <time>2019-06-23T13:33:59Z</time>
      </trkpt>
      <trkpt lat="49.42419" lon="2.84318">
        <ele>36</ele>
        <time>2019-06-23T13:34:12Z</time>
      </trkpt>
      <trkpt lat="49.42421" lon="2.84321">
        <ele>36</ele>
        <time>2019-06-23T13:34:30Z</time>
      </trkpt>
      <trkpt lat="49.42422" lon="2.84322">
        <ele>36</ele>
        <time>2019-06-23T13:34:52Z</time>
      </trkpt>
      <trkpt lat="49.42422" lon="2.84322">
        <ele>36</ele>
        <time>2019-06-23T13:35:02Z</time>
      </trkpt>
      <trkpt lat="49.42426" lon="2.84318">
        <ele>36</ele>
        <time>2019-06-23T13:35:07Z</time>
      </trkpt>
      <trkpt lat="49.42428" lon="2.84318">
        <ele>36</ele>
        <time>2019-06-23T13:35:09Z</time>
      </trkpt>
      <trkpt lat="49.42429" lon="2.84318">
        <ele>36</ele>
        <time>2019-06-23T13:35:18Z</time>
      </trkpt>
      <trkpt lat="49.4243" lon="2.84317">
        <ele>36</ele>
        <time>2019-06-23T13:35:56Z</time>
      </trkpt>
      <trkpt lat="49.4243" lon="2.84319">
        <ele>36</ele>
        <time>2019-06-23T13:36:29Z</time>
      </trkpt>
      <trkpt lat="49.4243" lon="2.84319">
        <ele>36</ele>
        <time>2019-06-23T13:37:00Z</time>
      </trkpt>
      <trkpt lat="49.4243" lon="2.84318">
        <ele>36</ele>
        <time>2019-06-23T13:37:35Z</time>
      </trkpt>
      <trkpt lat="49.4243" lon="2.8432">
        <ele>36</ele>
        <time>2019-06-23T13:38:06Z</time>
      </trkpt>
      <trkpt lat="49.42431" lon="2.8432">
        <ele>36</ele>
        <time>2019-06-23T13:38:45Z</time>
      </trkpt>
      <trkpt lat="49.4243" lon="2.84319">
        <ele>36</ele>
        <time>2019-06-23T13:39:22Z</time>
      </trkpt>
      <trkpt lat="49.42429" lon="2.84317">
        <ele>36</ele>
        <time>2019-06-23T13:39:59Z</time>
      </trkpt>
      <trkpt lat="49.42429" lon="2.84319">
        <ele>36</ele>
        <time>2019-06-23T13:40:40Z</time>
      </trkpt>
      <trkpt lat="49.42431" lon="2.84319">
        <ele>36</ele>
        <time>2019-06-23T13:41:18Z</time>
      </trkpt>
      <trkpt lat="49.4243" lon="2.84319">
        <ele>36</ele>
        <time>2019-06-23T13:42:00Z</time>
      </trkpt>
      <trkpt lat="49.4243" lon="2.84319">
        <ele>36</ele>
        <time>2019-06-23T13:42:36Z</time>
      </trkpt>
      <trkpt lat="49.42431" lon="2.84318">
        <ele>36</ele>
        <time>2019-06-23T13:43:09Z</time>
      </trkpt>
      <trkpt lat="49.4243" lon="2.84318">
        <ele>36</ele>
        <time>2019-06-23T13:43:46Z</time>
      </trkpt>
      <trkpt lat="49.4243" lon="2.84318">
        <ele>36</ele>
        <time>2019-06-23T13:44:26Z</time>
      </trkpt>
      <trkpt lat="49.42431" lon="2.84318">
        <ele>36</ele>
        <time>2019-06-23T13:45:08Z</time>
      </trkpt>
      <trkpt lat="49.42429" lon="2.8432">
        <ele>36</ele>
        <time>2019-06-23T13:45:45Z</time>
      </trkpt>
      <trkpt lat="49.42429" lon="2.84319">
        <ele>36</ele>
        <time>2019-06-23T13:46:21Z</time>
      </trkpt>
      <trkpt lat="49.42428" lon="2.84319">
        <ele>36</ele>
        <time>2019-06-23T13:46:47Z</time>
      </trkpt>
      <trkpt lat="49.42429" lon="2.84318">
        <ele>36</ele>
        <time>2019-06-23T13:47:24Z</time>
      </trkpt>
      <trkpt lat="49.42429" lon="2.84319">
        <ele>36</ele>
        <time>2019-06-23T13:47:58Z</time>
      </trkpt>
      <trkpt lat="49.4243" lon="2.84318">
        <ele>36</ele>
        <time>2019-06-23T13:48:35Z</time>
      </trkpt>
      <trkpt lat="49.4243" lon="2.84318">
        <ele>36</ele>
        <time>2019-06-23T13:49:11Z</time>
      </trkpt>
      <trkpt lat="49.4243" lon="2.84319">
        <ele>36</ele>
        <time>2019-06-23T13:49:52Z</time>
      </trkpt>
      <trkpt lat="49.4243" lon="2.84317">
        <ele>36</ele>
        <time>2019-06-23T13:50:31Z</time>
      </trkpt>
      <trkpt lat="49.4243" lon="2.84319">
        <ele>36</ele>
        <time>2019-06-23T13:51:08Z</time>
      </trkpt>
      <trkpt lat="49.42429" lon="2.84321">
        <ele>36</ele>
        <time>2019-06-23T13:51:48Z</time>
      </trkpt>
      <trkpt lat="49.4243" lon="2.84322">
        <ele>36</ele>
        <time>2019-06-23T13:52:26Z</time>
      </trkpt>
      <trkpt lat="49.42429" lon="2.84321">
        <ele>36</ele>
        <time>2019-06-23T13:53:05Z</time>
      </trkpt>
      <trkpt lat="49.42429" lon="2.8432">
        <ele>36</ele>
        <time>2019-06-23T13:53:37Z</time>
      </trkpt>
      <trkpt lat="49.42429" lon="2.8432">
        <ele>36</ele>
        <time>2019-06-23T13:54:12Z</time>
      </trkpt>
      <trkpt lat="49.42431" lon="2.8432">
        <ele>36</ele>
        <time>2019-06-23T13:54:52Z</time>
      </trkpt>
      <trkpt lat="49.4243" lon="2.84321">
        <ele>36</ele>
        <time>2019-06-23T13:55:28Z</time>
      </trkpt>
      <trkpt lat="49.42428" lon="2.84321">
        <ele>36</ele>
        <time>2019-06-23T13:56:06Z</time>
      </trkpt>
      <trkpt lat="49.42427" lon="2.84321">
        <ele>36</ele>
        <time>2019-06-23T13:56:42Z</time>
      </trkpt>
      <trkpt lat="49.42428" lon="2.84319">
        <ele>36</ele>
        <time>2019-06-23T13:57:20Z</time>
      </trkpt>
      <trkpt lat="49.42429" lon="2.84319">
        <ele>36</ele>
        <time>2019-06-23T13:58:04Z</time>
      </trkpt>
      <trkpt lat="49.4243" lon="2.84319">
        <ele>36</ele>
        <time>2019-06-23T13:58:44Z</time>
      </trkpt>
      <trkpt lat="49.4243" lon="2.84319">
        <ele>36</ele>
        <time>2019-06-23T13:59:22Z</time>
      </trkpt>
      <trkpt lat="49.4243" lon="2.84319">
        <ele>36</ele>
        <time>2019-06-23T13:59:57Z</time>
      </trkpt>
      <trkpt lat="49.4243" lon="2.84319">
        <ele>36</ele>
        <time>2019-06-23T14:00:34Z</time>
      </trkpt>
      <trkpt lat="49.4243" lon="2.84319">
        <ele>36</ele>
        <time>2019-06-23T14:00:57Z</time>
      </trkpt>
      <trkpt lat="49.4243" lon="2.84319">
        <ele>36</ele>
        <time>2019-06-23T14:01:07Z</time>
      </trkpt>
      <trkpt lat="49.4242" lon="2.84323">
        <ele>36</ele>
        <time>2019-06-23T14:01:20Z</time>
      </trkpt>
      <trkpt lat="49.42413" lon="2.84333">
        <ele>36</ele>
        <time>2019-06-23T14:01:34Z</time>
      </trkpt>
      <trkpt lat="49.42411" lon="2.84337">
        <ele>37</ele>
        <time>2019-06-23T14:01:57Z</time>
      </trkpt>
      <trkpt lat="49.42406" lon="2.84348">
        <ele>37</ele>
        <time>2019-06-23T14:02:11Z</time>
      </trkpt>
      <trkpt lat="49.42397" lon="2.84381">
        <ele>39</ele>
        <time>2019-06-23T14:02:22Z</time>
      </trkpt>
      <trkpt lat="49.42379" lon="2.8441">
        <ele>39</ele>
        <time>2019-06-23T14:02:34Z</time>
      </trkpt>
      <trkpt lat="49.42341" lon="2.8442">
        <ele>38</ele>
        <time>2019-06-23T14:02:48Z</time>
      </trkpt>
      <trkpt lat="49.42301" lon="2.84431">
        <ele>37</ele>
        <time>2019-06-23T14:03:01Z</time>
      </trkpt>
      <trkpt lat="49.42244" lon="2.84446">
        <ele>38</ele>
        <time>2019-06-23T14:03:19Z</time>
      </trkpt>
      <trkpt lat="49.42202" lon="2.84456">
        <ele>39</ele>
        <time>2019-06-23T14:03:33Z</time>
      </trkpt>
      <trkpt lat="49.42196" lon="2.84421">
        <ele>39</ele>
        <time>2019-06-23T14:03:41Z</time>
      </trkpt>
      <trkpt lat="49.42187" lon="2.84348">
        <ele>40</ele>
        <time>2019-06-23T14:03:56Z</time>
      </trkpt>
      <trkpt lat="49.42182" lon="2.84297">
        <ele>41</ele>
        <time>2019-06-23T14:04:09Z</time>
      </trkpt>
      <trkpt lat="49.42173" lon="2.84237">
        <ele>41</ele>
        <time>2019-06-23T14:04:22Z</time>
      </trkpt>
      <trkpt lat="49.42168" lon="2.84187">
        <ele>40</ele>
        <time>2019-06-23T14:04:32Z</time>
      </trkpt>
      <trkpt lat="49.42156" lon="2.84089">
        <ele>39</ele>
        <time>2019-06-23T14:04:50Z</time>
      </trkpt>
      <trkpt lat="49.42145" lon="2.84023">
        <ele>40</ele>
        <time>2019-06-23T14:05:03Z</time>
      </trkpt>
      <trkpt lat="49.42141" lon="2.83974">
        <ele>42</ele>
        <time>2019-06-23T14:05:13Z</time>
      </trkpt>
      <trkpt lat="49.4213" lon="2.83949">
        <ele>42</ele>
        <time>2019-06-23T14:05:19Z</time>
      </trkpt>
      <trkpt lat="49.42136" lon="2.83934">
        <ele>42</ele>
        <time>2019-06-23T14:05:24Z</time>
      </trkpt>
      <trkpt lat="49.42141" lon="2.83936">
        <ele>42</ele>
        <time>2019-06-23T14:05:35Z</time>
      </trkpt>
      <trkpt lat="49.42141" lon="2.83936">
        <ele>42</ele>
        <time>2019-06-23T14:05:42Z</time>
      </trkpt>
      <trkpt lat="49.4214" lon="2.83938">
        <ele>42</ele>
        <time>2019-06-23T14:05:55Z</time>
      </trkpt>
      <trkpt lat="49.42141" lon="2.83939">
        <ele>42</ele>
        <time>2019-06-23T14:06:01Z</time>
      </trkpt>
      <trkpt lat="49.4214" lon="2.83938">
        <ele>42</ele>
        <time>2019-06-23T14:06:15Z</time>
      </trkpt>
      <trkpt lat="49.4214" lon="2.83938">
        <ele>42</ele>
        <time>2019-06-23T14:06:21Z</time>
      </trkpt>
      <trkpt lat="49.42142" lon="2.83934">
        <ele>42</ele>
        <time>2019-06-23T14:06:27Z</time>
      </trkpt>
      <trkpt lat="49.42148" lon="2.83932">
        <ele>42</ele>
        <time>2019-06-23T14:06:41Z</time>
      </trkpt>
      <trkpt lat="49.42146" lon="2.83933">
        <ele>42</ele>
        <time>2019-06-23T14:07:00Z</time>
      </trkpt>
      <trkpt lat="49.42146" lon="2.83933">
        <ele>42</ele>
        <time>2019-06-23T14:07:31Z</time>
      </trkpt>
      <trkpt lat="49.42146" lon="2.83932">
        <ele>42</ele>
        <time>2019-06-23T14:08:04Z</time>
      </trkpt>
      <trkpt lat="49.42145" lon="2.83933">
        <ele>42</ele>
        <time>2019-06-23T14:08:38Z</time>
      </trkpt>
      <trkpt lat="49.42144" lon="2.83934">
        <ele>42</ele>
        <time>2019-06-23T14:09:06Z</time>
      </trkpt>
      <trkpt lat="49.42143" lon="2.83935">
        <ele>42</ele>
        <time>2019-06-23T14:09:39Z</time>
      </trkpt>
      <trkpt lat="49.42143" lon="2.83935">
        <ele>42</ele>
        <time>2019-06-23T14:10:06Z</time>
      </trkpt>
      <trkpt lat="49.42142" lon="2.83936">
        <ele>42</ele>
        <time>2019-06-23T14:10:32Z</time>
      </trkpt>
      <trkpt lat="49.42141" lon="2.83937">
        <ele>42</ele>
        <time>2019-06-23T14:11:05Z</time>
      </trkpt>
      <trkpt lat="49.42141" lon="2.83937">
        <ele>42</ele>
        <time>2019-06-23T14:11:28Z</time>
      </trkpt>
      <trkpt lat="49.42142" lon="2.83938">
        <ele>42</ele>
        <time>2019-06-23T14:12:01Z</time>
      </trkpt>
      <trkpt lat="49.42142" lon="2.83938">
        <ele>42</ele>
        <time>2019-06-23T14:12:30Z</time>
      </trkpt>
      <trkpt lat="49.42139" lon="2.83938">
        <ele>42</ele>
        <time>2019-06-23T14:12:59Z</time>
      </trkpt>
      <trkpt lat="49.4214" lon="2.83938">
        <ele>42</ele>
        <time>2019-06-23T14:13:27Z</time>
      </trkpt>
      <trkpt lat="49.42139" lon="2.83938">
        <ele>42</ele>
        <time>2019-06-23T14:13:56Z</time>
      </trkpt>
      <trkpt lat="49.42139" lon="2.83939">
        <ele>42</ele>
        <time>2019-06-23T14:14:08Z</time>
      </trkpt>
      <trkpt lat="49.42139" lon="2.8394">
        <ele>42</ele>
        <time>2019-06-23T14:14:20Z</time>
      </trkpt>
      <trkpt lat="49.42139" lon="2.83939">
        <ele>42</ele>
        <time>2019-06-23T14:14:35Z</time>
      </trkpt>
      <trkpt lat="49.4214" lon="2.83938">
        <ele>42</ele>
        <time>2019-06-23T14:14:51Z</time>
      </trkpt>
      <trkpt lat="49.4214" lon="2.83937">
        <ele>42</ele>
        <time>2019-06-23T14:15:05Z</time>
      </trkpt>
      <trkpt lat="49.4214" lon="2.83936">
        <ele>42</ele>
        <time>2019-06-23T14:15:30Z</time>
      </trkpt>
      <trkpt lat="49.4214" lon="2.83936">
        <ele>42</ele>
        <time>2019-06-23T14:15:56Z</time>
      </trkpt>
      <trkpt lat="49.4214" lon="2.83936">
        <ele>42</ele>
        <time>2019-06-23T14:16:19Z</time>
      </trkpt>
      <trkpt lat="49.42139" lon="2.83935">
        <ele>42</ele>
        <time>2019-06-23T14:16:54Z</time>
      </trkpt>
      <trkpt lat="49.42139" lon="2.83937">
        <ele>42</ele>
        <time>2019-06-23T14:17:22Z</time>
      </trkpt>
      <trkpt lat="49.42139" lon="2.83939">
        <ele>42</ele>
        <time>2019-06-23T14:17:36Z</time>
      </trkpt>
      <trkpt lat="49.42139" lon="2.83937">
        <ele>42</ele>
        <time>2019-06-23T14:18:05Z</time>
      </trkpt>
      <trkpt lat="49.42139" lon="2.83937">
        <ele>42</ele>
        <time>2019-06-23T14:18:21Z</time>
      </trkpt>
      <trkpt lat="49.4214" lon="2.83937">
        <ele>42</ele>
        <time>2019-06-23T14:18:44Z</time>
      </trkpt>
      <trkpt lat="49.42139" lon="2.83936">
        <ele>42</ele>
        <time>2019-06-23T14:19:09Z</time>
      </trkpt>
      <trkpt lat="49.42139" lon="2.83936">
        <ele>42</ele>
        <time>2019-06-23T14:19:17Z</time>
      </trkpt>
    </trkseg>
  </trk>
</gpx>